﻿<?xml version="1.0" encoding="UTF-8" standalone="no" ?>
<gpx xmlns="http://www.topografix.com/GPX/1/1" creator="CompeGPS" version="1.1" xmlns:xsi="http://www.w3.org/2001/XMLSchema-instance" xsi:schemaLocation="http://www.topografix.com/GPX/1/1 http://www.topografix.com/GPX/1/1/gpx.xsd http://www.garmin.com/xmlschemas/GpxExtensions/v3 http://www.garmin.com/xmlschemas/GpxExtensionsv3.xsd http://www.garmin.com/xmlschemas/TrackPointExtension/v1 http://www.garmin.com/xmlschemas/TrackPointExtensionv1.xsd" xmlns:gpxtpx="http://www.garmin.com/xmlschemas/TrackPointExtension/v1">
  <metadata>
    <link href="http://www.compegps.com">
      <text>CompeGPS TEAM, SL</text>
    </link>
    <time>2013-03-06T10:05:32Z</time>
    <bounds maxlat="43.219203" maxlon="-3.188697" minlat="43.101544" minlon="-3.572982"/>
  </metadata>
  <trk>
    <name>lasiabalmaseda2011</name>
    <desc>Track de la marcha de fondo organizada en el 2011 por Balmaseda Mendi Taldea</desc>
    <trkseg>
      <trkpt lat="43.152425" lon="-3.572982">
        <ele>1154.7</ele>
        <time>2011-04-10T07:31:57Z</time>
      </trkpt>
      <trkpt lat="43.152429" lon="-3.572965">
        <ele>1154.7</ele>
        <time>2011-04-10T07:31:58Z</time>
      </trkpt>
      <trkpt lat="43.152440" lon="-3.572899">
        <ele>1159.5</ele>
        <time>2011-04-10T07:32:02Z</time>
      </trkpt>
      <trkpt lat="43.152443" lon="-3.572883">
        <ele>1162.9</ele>
        <time>2011-04-10T07:32:03Z</time>
      </trkpt>
      <trkpt lat="43.152448" lon="-3.572851">
        <ele>1168.1</ele>
        <time>2011-04-10T07:32:05Z</time>
      </trkpt>
      <trkpt lat="43.152454" lon="-3.572805">
        <ele>1177.3</ele>
        <time>2011-04-10T07:32:08Z</time>
      </trkpt>
      <trkpt lat="43.152455" lon="-3.572789">
        <ele>1177.3</ele>
        <time>2011-04-10T07:32:09Z</time>
      </trkpt>
      <trkpt lat="43.152464" lon="-3.572759">
        <ele>1180.6</ele>
        <time>2011-04-10T07:32:11Z</time>
      </trkpt>
      <trkpt lat="43.152468" lon="-3.572723">
        <ele>1176.3</ele>
        <time>2011-04-10T07:32:13Z</time>
      </trkpt>
      <trkpt lat="43.152466" lon="-3.572705">
        <ele>1194.6</ele>
        <time>2011-04-10T07:32:14Z</time>
      </trkpt>
      <trkpt lat="43.152461" lon="-3.572647">
        <ele>1193.6</ele>
        <time>2011-04-10T07:32:17Z</time>
      </trkpt>
      <trkpt lat="43.152459" lon="-3.572607">
        <ele>1196.5</ele>
        <time>2011-04-10T07:32:19Z</time>
      </trkpt>
      <trkpt lat="43.152459" lon="-3.572565">
        <ele>1199.9</ele>
        <time>2011-04-10T07:32:21Z</time>
      </trkpt>
      <trkpt lat="43.152459" lon="-3.572501">
        <ele>1204.2</ele>
        <time>2011-04-10T07:32:24Z</time>
      </trkpt>
      <trkpt lat="43.152462" lon="-3.572440">
        <ele>1207.6</ele>
        <time>2011-04-10T07:32:27Z</time>
      </trkpt>
      <trkpt lat="43.152465" lon="-3.572401">
        <ele>1212.8</ele>
        <time>2011-04-10T07:32:29Z</time>
      </trkpt>
      <trkpt lat="43.152456" lon="-3.572306">
        <ele>1217.6</ele>
        <time>2011-04-10T07:32:34Z</time>
      </trkpt>
      <trkpt lat="43.152456" lon="-3.572271">
        <ele>1218.1</ele>
        <time>2011-04-10T07:32:36Z</time>
      </trkpt>
      <trkpt lat="43.152459" lon="-3.572194">
        <ele>1222.9</ele>
        <time>2011-04-10T07:32:40Z</time>
      </trkpt>
      <trkpt lat="43.152457" lon="-3.572120">
        <ele>1226.3</ele>
        <time>2011-04-10T07:32:44Z</time>
      </trkpt>
      <trkpt lat="43.152459" lon="-3.572102">
        <ele>1226.3</ele>
        <time>2011-04-10T07:32:45Z</time>
      </trkpt>
      <trkpt lat="43.152458" lon="-3.572030">
        <ele>1229.7</ele>
        <time>2011-04-10T07:32:49Z</time>
      </trkpt>
      <trkpt lat="43.152455" lon="-3.571922">
        <ele>1226.3</ele>
        <time>2011-04-10T07:32:55Z</time>
      </trkpt>
      <trkpt lat="43.152454" lon="-3.571901">
        <ele>1244.1</ele>
        <time>2011-04-10T07:32:56Z</time>
      </trkpt>
      <trkpt lat="43.152454" lon="-3.571881">
        <ele>1235.0</ele>
        <time>2011-04-10T07:32:57Z</time>
      </trkpt>
      <trkpt lat="43.152460" lon="-3.571729">
        <ele>1238.3</ele>
        <time>2011-04-10T07:33:05Z</time>
      </trkpt>
      <trkpt lat="43.152465" lon="-3.571658">
        <ele>1239.8</ele>
        <time>2011-04-10T07:33:09Z</time>
      </trkpt>
      <trkpt lat="43.152468" lon="-3.571522">
        <ele>1243.6</ele>
        <time>2011-04-10T07:33:16Z</time>
      </trkpt>
      <trkpt lat="43.152469" lon="-3.571503">
        <ele>1244.1</ele>
        <time>2011-04-10T07:33:17Z</time>
      </trkpt>
      <trkpt lat="43.152485" lon="-3.571341">
        <ele>1245.0</ele>
        <time>2011-04-10T07:33:26Z</time>
      </trkpt>
      <trkpt lat="43.152488" lon="-3.571178">
        <ele>1247.9</ele>
        <time>2011-04-10T07:33:34Z</time>
      </trkpt>
      <trkpt lat="43.152494" lon="-3.570830">
        <ele>1252.3</ele>
        <time>2011-04-10T07:33:51Z</time>
      </trkpt>
      <trkpt lat="43.152492" lon="-3.570810">
        <ele>1251.8</ele>
        <time>2011-04-10T07:33:52Z</time>
      </trkpt>
      <trkpt lat="43.152481" lon="-3.570584">
        <ele>1252.7</ele>
        <time>2011-04-10T07:34:02Z</time>
      </trkpt>
      <trkpt lat="43.152518" lon="-3.570165">
        <ele>1256.1</ele>
        <time>2011-04-10T07:34:21Z</time>
      </trkpt>
      <trkpt lat="43.152512" lon="-3.569853">
        <ele>1257.1</ele>
        <time>2011-04-10T07:34:35Z</time>
      </trkpt>
      <trkpt lat="43.152514" lon="-3.569672">
        <ele>1258.0</ele>
        <time>2011-04-10T07:34:43Z</time>
      </trkpt>
      <trkpt lat="43.152520" lon="-3.569392">
        <ele>1261.4</ele>
        <time>2011-04-10T07:34:56Z</time>
      </trkpt>
      <trkpt lat="43.152521" lon="-3.569370">
        <ele>1261.4</ele>
        <time>2011-04-10T07:34:57Z</time>
      </trkpt>
      <trkpt lat="43.152514" lon="-3.568966">
        <ele>1261.9</ele>
        <time>2011-04-10T07:35:16Z</time>
      </trkpt>
      <trkpt lat="43.152514" lon="-3.568903">
        <ele>1263.8</ele>
        <time>2011-04-10T07:35:19Z</time>
      </trkpt>
      <trkpt lat="43.152519" lon="-3.568625">
        <ele>1266.2</ele>
        <time>2011-04-10T07:35:32Z</time>
      </trkpt>
      <trkpt lat="43.152531" lon="-3.568215">
        <ele>1269.1</ele>
        <time>2011-04-10T07:35:52Z</time>
      </trkpt>
      <trkpt lat="43.152517" lon="-3.567929">
        <ele>1272.4</ele>
        <time>2011-04-10T07:36:07Z</time>
      </trkpt>
      <trkpt lat="43.152358" lon="-3.567655">
        <ele>1275.8</ele>
        <time>2011-04-10T07:36:27Z</time>
      </trkpt>
      <trkpt lat="43.152348" lon="-3.567618">
        <ele>1275.3</ele>
        <time>2011-04-10T07:36:29Z</time>
      </trkpt>
      <trkpt lat="43.152315" lon="-3.567575">
        <ele>1276.8</ele>
        <time>2011-04-10T07:36:33Z</time>
      </trkpt>
      <trkpt lat="43.152283" lon="-3.567560">
        <ele>1278.2</ele>
        <time>2011-04-10T07:36:36Z</time>
      </trkpt>
      <trkpt lat="43.152170" lon="-3.567533">
        <ele>1281.6</ele>
        <time>2011-04-10T07:36:46Z</time>
      </trkpt>
      <trkpt lat="43.152085" lon="-3.567489">
        <ele>1284.9</ele>
        <time>2011-04-10T07:36:55Z</time>
      </trkpt>
      <trkpt lat="43.152075" lon="-3.567482">
        <ele>1284.9</ele>
        <time>2011-04-10T07:36:56Z</time>
      </trkpt>
      <trkpt lat="43.152035" lon="-3.567466">
        <ele>1285.9</ele>
        <time>2011-04-10T07:37:00Z</time>
      </trkpt>
      <trkpt lat="43.151873" lon="-3.567380">
        <ele>1289.3</ele>
        <time>2011-04-10T07:37:16Z</time>
      </trkpt>
      <trkpt lat="43.151751" lon="-3.567328">
        <ele>1293.1</ele>
        <time>2011-04-10T07:37:28Z</time>
      </trkpt>
      <trkpt lat="43.151740" lon="-3.567321">
        <ele>1293.1</ele>
        <time>2011-04-10T07:37:29Z</time>
      </trkpt>
      <trkpt lat="43.151629" lon="-3.567263">
        <ele>1293.1</ele>
        <time>2011-04-10T07:37:39Z</time>
      </trkpt>
      <trkpt lat="43.151547" lon="-3.567221">
        <ele>1295.5</ele>
        <time>2011-04-10T07:37:53Z</time>
      </trkpt>
      <trkpt lat="43.151503" lon="-3.567194">
        <ele>1297.0</ele>
        <time>2011-04-10T07:37:59Z</time>
      </trkpt>
      <trkpt lat="43.151403" lon="-3.567139">
        <ele>1298.4</ele>
        <time>2011-04-10T07:38:10Z</time>
      </trkpt>
      <trkpt lat="43.151313" lon="-3.567095">
        <ele>1302.2</ele>
        <time>2011-04-10T07:38:20Z</time>
      </trkpt>
      <trkpt lat="43.151255" lon="-3.567050">
        <ele>1302.7</ele>
        <time>2011-04-10T07:38:27Z</time>
      </trkpt>
      <trkpt lat="43.151113" lon="-3.566985">
        <ele>1306.6</ele>
        <time>2011-04-10T07:38:43Z</time>
      </trkpt>
      <trkpt lat="43.151072" lon="-3.566976">
        <ele>1307.0</ele>
        <time>2011-04-10T07:38:47Z</time>
      </trkpt>
      <trkpt lat="43.150970" lon="-3.566868">
        <ele>1310.9</ele>
        <time>2011-04-10T07:39:00Z</time>
      </trkpt>
      <trkpt lat="43.150916" lon="-3.566803">
        <ele>1311.4</ele>
        <time>2011-04-10T07:39:08Z</time>
      </trkpt>
      <trkpt lat="43.150908" lon="-3.566781">
        <ele>1312.3</ele>
        <time>2011-04-10T07:39:10Z</time>
      </trkpt>
      <trkpt lat="43.150810" lon="-3.566717">
        <ele>1316.7</ele>
        <time>2011-04-10T07:39:22Z</time>
      </trkpt>
      <trkpt lat="43.150702" lon="-3.566692">
        <ele>1319.5</ele>
        <time>2011-04-10T07:39:35Z</time>
      </trkpt>
      <trkpt lat="43.150634" lon="-3.566652">
        <ele>1323.4</ele>
        <time>2011-04-10T07:39:44Z</time>
      </trkpt>
      <trkpt lat="43.150559" lon="-3.566569">
        <ele>1326.3</ele>
        <time>2011-04-10T07:39:56Z</time>
      </trkpt>
      <trkpt lat="43.150511" lon="-3.566486">
        <ele>1329.6</ele>
        <time>2011-04-10T07:40:06Z</time>
      </trkpt>
      <trkpt lat="43.150418" lon="-3.566398">
        <ele>1333.0</ele>
        <time>2011-04-10T07:40:20Z</time>
      </trkpt>
      <trkpt lat="43.150323" lon="-3.566345">
        <ele>1335.9</ele>
        <time>2011-04-10T07:40:33Z</time>
      </trkpt>
      <trkpt lat="43.150273" lon="-3.566242">
        <ele>1339.7</ele>
        <time>2011-04-10T07:40:44Z</time>
      </trkpt>
      <trkpt lat="43.150223" lon="-3.566154">
        <ele>1343.1</ele>
        <time>2011-04-10T07:40:55Z</time>
      </trkpt>
      <trkpt lat="43.150193" lon="-3.566011">
        <ele>1346.5</ele>
        <time>2011-04-10T07:41:10Z</time>
      </trkpt>
      <trkpt lat="43.150167" lon="-3.565932">
        <ele>1348.9</ele>
        <time>2011-04-10T07:41:20Z</time>
      </trkpt>
      <trkpt lat="43.150147" lon="-3.565889">
        <ele>1350.8</ele>
        <time>2011-04-10T07:41:25Z</time>
      </trkpt>
      <trkpt lat="43.150118" lon="-3.565797">
        <ele>1352.7</ele>
        <time>2011-04-10T07:41:36Z</time>
      </trkpt>
      <trkpt lat="43.150063" lon="-3.565688">
        <ele>1356.6</ele>
        <time>2011-04-10T07:41:50Z</time>
      </trkpt>
      <trkpt lat="43.150061" lon="-3.565678">
        <ele>1356.6</ele>
        <time>2011-04-10T07:41:51Z</time>
      </trkpt>
      <trkpt lat="43.150007" lon="-3.565533">
        <ele>1359.4</ele>
        <time>2011-04-10T07:42:05Z</time>
      </trkpt>
      <trkpt lat="43.149982" lon="-3.565453">
        <ele>1362.8</ele>
        <time>2011-04-10T07:42:14Z</time>
      </trkpt>
      <trkpt lat="43.149972" lon="-3.565436">
        <ele>1363.3</ele>
        <time>2011-04-10T07:42:16Z</time>
      </trkpt>
      <trkpt lat="43.149960" lon="-3.565417">
        <ele>1364.7</ele>
        <time>2011-04-10T07:42:18Z</time>
      </trkpt>
      <trkpt lat="43.149899" lon="-3.565333">
        <ele>1369.1</ele>
        <time>2011-04-10T07:42:27Z</time>
      </trkpt>
      <trkpt lat="43.149773" lon="-3.565169">
        <ele>1371.9</ele>
        <time>2011-04-10T07:42:47Z</time>
      </trkpt>
      <trkpt lat="43.149713" lon="-3.565087">
        <ele>1374.8</ele>
        <time>2011-04-10T07:42:56Z</time>
      </trkpt>
      <trkpt lat="43.149624" lon="-3.564933">
        <ele>1378.2</ele>
        <time>2011-04-10T07:43:11Z</time>
      </trkpt>
      <trkpt lat="43.149493" lon="-3.564677">
        <ele>1381.6</ele>
        <time>2011-04-10T07:43:29Z</time>
      </trkpt>
      <trkpt lat="43.149411" lon="-3.564385">
        <ele>1383.5</ele>
        <time>2011-04-10T07:43:47Z</time>
      </trkpt>
      <trkpt lat="43.149371" lon="-3.564142">
        <ele>1384.9</ele>
        <time>2011-04-10T07:44:01Z</time>
      </trkpt>
      <trkpt lat="43.149343" lon="-3.563689">
        <ele>1387.3</ele>
        <time>2011-04-10T07:44:23Z</time>
      </trkpt>
      <trkpt lat="43.149353" lon="-3.563299">
        <ele>1389.7</ele>
        <time>2011-04-10T07:44:42Z</time>
      </trkpt>
      <trkpt lat="43.149364" lon="-3.562880">
        <ele>1393.1</ele>
        <time>2011-04-10T07:45:02Z</time>
      </trkpt>
      <trkpt lat="43.149371" lon="-3.562559">
        <ele>1395.5</ele>
        <time>2011-04-10T07:45:20Z</time>
      </trkpt>
      <trkpt lat="43.149371" lon="-3.562220">
        <ele>1396.5</ele>
        <time>2011-04-10T07:45:37Z</time>
      </trkpt>
      <trkpt lat="43.149335" lon="-3.561953">
        <ele>1399.3</ele>
        <time>2011-04-10T07:45:52Z</time>
      </trkpt>
      <trkpt lat="43.149338" lon="-3.561805">
        <ele>1401.3</ele>
        <time>2011-04-10T07:46:02Z</time>
      </trkpt>
      <trkpt lat="43.149347" lon="-3.561718">
        <ele>1402.7</ele>
        <time>2011-04-10T07:46:08Z</time>
      </trkpt>
      <trkpt lat="43.149361" lon="-3.561576">
        <ele>1405.6</ele>
        <time>2011-04-10T07:46:18Z</time>
      </trkpt>
      <trkpt lat="43.149363" lon="-3.561430">
        <ele>1409.4</ele>
        <time>2011-04-10T07:46:30Z</time>
      </trkpt>
      <trkpt lat="43.149366" lon="-3.561344">
        <ele>1411.8</ele>
        <time>2011-04-10T07:46:36Z</time>
      </trkpt>
      <trkpt lat="43.149377" lon="-3.561280">
        <ele>1412.3</ele>
        <time>2011-04-10T07:46:41Z</time>
      </trkpt>
      <trkpt lat="43.149368" lon="-3.560995">
        <ele>1414.7</ele>
        <time>2011-04-10T07:46:57Z</time>
      </trkpt>
      <trkpt lat="43.149243" lon="-3.560713">
        <ele>1417.6</ele>
        <time>2011-04-10T07:47:16Z</time>
      </trkpt>
      <trkpt lat="43.149197" lon="-3.560621">
        <ele>1421.0</ele>
        <time>2011-04-10T07:47:24Z</time>
      </trkpt>
      <trkpt lat="43.149195" lon="-3.560607">
        <ele>1420.5</ele>
        <time>2011-04-10T07:47:25Z</time>
      </trkpt>
      <trkpt lat="43.149195" lon="-3.560335">
        <ele>1425.3</ele>
        <time>2011-04-10T07:47:43Z</time>
      </trkpt>
      <trkpt lat="43.149172" lon="-3.560058">
        <ele>1426.3</ele>
        <time>2011-04-10T07:47:59Z</time>
      </trkpt>
      <trkpt lat="43.149008" lon="-3.559667">
        <ele>1426.7</ele>
        <time>2011-04-10T07:48:20Z</time>
      </trkpt>
      <trkpt lat="43.148943" lon="-3.559429">
        <ele>1430.1</ele>
        <time>2011-04-10T07:48:33Z</time>
      </trkpt>
      <trkpt lat="43.148927" lon="-3.559292">
        <ele>1433.5</ele>
        <time>2011-04-10T07:48:41Z</time>
      </trkpt>
      <trkpt lat="43.148845" lon="-3.559038">
        <ele>1435.9</ele>
        <time>2011-04-10T07:48:57Z</time>
      </trkpt>
      <trkpt lat="43.148806" lon="-3.558771">
        <ele>1438.3</ele>
        <time>2011-04-10T07:49:13Z</time>
      </trkpt>
      <trkpt lat="43.148807" lon="-3.558753">
        <ele>1438.3</ele>
        <time>2011-04-10T07:49:14Z</time>
      </trkpt>
      <trkpt lat="43.148779" lon="-3.558636">
        <ele>1442.1</ele>
        <time>2011-04-10T07:49:22Z</time>
      </trkpt>
      <trkpt lat="43.148755" lon="-3.558564">
        <ele>1443.6</ele>
        <time>2011-04-10T07:49:28Z</time>
      </trkpt>
      <trkpt lat="43.148748" lon="-3.558540">
        <ele>1445.0</ele>
        <time>2011-04-10T07:49:30Z</time>
      </trkpt>
      <trkpt lat="43.148730" lon="-3.558391">
        <ele>1446.0</ele>
        <time>2011-04-10T07:49:39Z</time>
      </trkpt>
      <trkpt lat="43.148728" lon="-3.558351">
        <ele>1446.0</ele>
        <time>2011-04-10T07:49:41Z</time>
      </trkpt>
      <trkpt lat="43.148696" lon="-3.558306">
        <ele>1448.8</ele>
        <time>2011-04-10T07:49:45Z</time>
      </trkpt>
      <trkpt lat="43.148692" lon="-3.558294">
        <ele>1447.9</ele>
        <time>2011-04-10T07:49:46Z</time>
      </trkpt>
      <trkpt lat="43.148695" lon="-3.558198">
        <ele>1450.3</ele>
        <time>2011-04-10T07:49:51Z</time>
      </trkpt>
      <trkpt lat="43.148656" lon="-3.557927">
        <ele>1449.8</ele>
        <time>2011-04-10T07:50:05Z</time>
      </trkpt>
      <trkpt lat="43.148584" lon="-3.557743">
        <ele>1452.7</ele>
        <time>2011-04-10T07:50:15Z</time>
      </trkpt>
      <trkpt lat="43.148562" lon="-3.557707">
        <ele>1450.8</ele>
        <time>2011-04-10T07:50:17Z</time>
      </trkpt>
      <trkpt lat="43.148473" lon="-3.557560">
        <ele>1447.4</ele>
        <time>2011-04-10T07:50:25Z</time>
      </trkpt>
      <trkpt lat="43.148396" lon="-3.557446">
        <ele>1444.0</ele>
        <time>2011-04-10T07:50:31Z</time>
      </trkpt>
      <trkpt lat="43.148174" lon="-3.557325">
        <ele>1439.7</ele>
        <time>2011-04-10T07:50:44Z</time>
      </trkpt>
      <trkpt lat="43.148157" lon="-3.557329">
        <ele>1440.2</ele>
        <time>2011-04-10T07:50:45Z</time>
      </trkpt>
      <trkpt lat="43.148079" lon="-3.557316">
        <ele>1437.3</ele>
        <time>2011-04-10T07:50:50Z</time>
      </trkpt>
      <trkpt lat="43.148049" lon="-3.557321">
        <ele>1435.9</ele>
        <time>2011-04-10T07:50:52Z</time>
      </trkpt>
      <trkpt lat="43.148003" lon="-3.557306">
        <ele>1434.4</ele>
        <time>2011-04-10T07:50:55Z</time>
      </trkpt>
      <trkpt lat="43.147952" lon="-3.557288">
        <ele>1431.5</ele>
        <time>2011-04-10T07:50:58Z</time>
      </trkpt>
      <trkpt lat="43.147852" lon="-3.557250">
        <ele>1429.6</ele>
        <time>2011-04-10T07:51:04Z</time>
      </trkpt>
      <trkpt lat="43.147641" lon="-3.557229">
        <ele>1426.3</ele>
        <time>2011-04-10T07:51:15Z</time>
      </trkpt>
      <trkpt lat="43.147617" lon="-3.557225">
        <ele>1426.3</ele>
        <time>2011-04-10T07:51:16Z</time>
      </trkpt>
      <trkpt lat="43.147594" lon="-3.557223">
        <ele>1426.7</ele>
        <time>2011-04-10T07:51:17Z</time>
      </trkpt>
      <trkpt lat="43.147532" lon="-3.557159">
        <ele>1425.8</ele>
        <time>2011-04-10T07:51:21Z</time>
      </trkpt>
      <trkpt lat="43.147493" lon="-3.557098">
        <ele>1424.3</ele>
        <time>2011-04-10T07:51:24Z</time>
      </trkpt>
      <trkpt lat="43.147278" lon="-3.556819">
        <ele>1421.0</ele>
        <time>2011-04-10T07:51:39Z</time>
      </trkpt>
      <trkpt lat="43.147249" lon="-3.556780">
        <ele>1420.0</ele>
        <time>2011-04-10T07:51:41Z</time>
      </trkpt>
      <trkpt lat="43.147093" lon="-3.556581">
        <ele>1417.1</ele>
        <time>2011-04-10T07:51:51Z</time>
      </trkpt>
      <trkpt lat="43.146953" lon="-3.556277">
        <ele>1414.7</ele>
        <time>2011-04-10T07:52:04Z</time>
      </trkpt>
      <trkpt lat="43.146863" lon="-3.556142">
        <ele>1411.4</ele>
        <time>2011-04-10T07:52:11Z</time>
      </trkpt>
      <trkpt lat="43.146700" lon="-3.555921">
        <ele>1408.0</ele>
        <time>2011-04-10T07:52:23Z</time>
      </trkpt>
      <trkpt lat="43.146653" lon="-3.555858">
        <ele>1406.1</ele>
        <time>2011-04-10T07:52:26Z</time>
      </trkpt>
      <trkpt lat="43.146476" lon="-3.555665">
        <ele>1406.1</ele>
        <time>2011-04-10T07:52:38Z</time>
      </trkpt>
      <trkpt lat="43.146413" lon="-3.555584">
        <ele>1404.6</ele>
        <time>2011-04-10T07:52:42Z</time>
      </trkpt>
      <trkpt lat="43.146343" lon="-3.555504">
        <ele>1402.7</ele>
        <time>2011-04-10T07:52:46Z</time>
      </trkpt>
      <trkpt lat="43.146112" lon="-3.555240">
        <ele>1399.3</ele>
        <time>2011-04-10T07:52:59Z</time>
      </trkpt>
      <trkpt lat="43.145911" lon="-3.554988">
        <ele>1395.5</ele>
        <time>2011-04-10T07:53:11Z</time>
      </trkpt>
      <trkpt lat="43.145624" lon="-3.554667">
        <ele>1393.1</ele>
        <time>2011-04-10T07:53:27Z</time>
      </trkpt>
      <trkpt lat="43.145310" lon="-3.554446">
        <ele>1390.7</ele>
        <time>2011-04-10T07:53:43Z</time>
      </trkpt>
      <trkpt lat="43.145072" lon="-3.554345">
        <ele>1394.0</ele>
        <time>2011-04-10T07:54:00Z</time>
      </trkpt>
      <trkpt lat="43.144848" lon="-3.554259">
        <ele>1397.9</ele>
        <time>2011-04-10T07:54:16Z</time>
      </trkpt>
      <trkpt lat="43.144724" lon="-3.554266">
        <ele>1397.4</ele>
        <time>2011-04-10T07:54:24Z</time>
      </trkpt>
      <trkpt lat="43.144534" lon="-3.554205">
        <ele>1400.8</ele>
        <time>2011-04-10T07:54:39Z</time>
      </trkpt>
      <trkpt lat="43.144480" lon="-3.554154">
        <ele>1402.2</ele>
        <time>2011-04-10T07:54:45Z</time>
      </trkpt>
      <trkpt lat="43.144388" lon="-3.554057">
        <ele>1405.6</ele>
        <time>2011-04-10T07:54:56Z</time>
      </trkpt>
      <trkpt lat="43.144286" lon="-3.553948">
        <ele>1408.9</ele>
        <time>2011-04-10T07:55:08Z</time>
      </trkpt>
      <trkpt lat="43.144086" lon="-3.553806">
        <ele>1410.4</ele>
        <time>2011-04-10T07:55:25Z</time>
      </trkpt>
      <trkpt lat="43.143891" lon="-3.553664">
        <ele>1413.3</ele>
        <time>2011-04-10T07:55:41Z</time>
      </trkpt>
      <trkpt lat="43.143678" lon="-3.553497">
        <ele>1415.7</ele>
        <time>2011-04-10T07:55:59Z</time>
      </trkpt>
      <trkpt lat="43.143415" lon="-3.553399">
        <ele>1419.0</ele>
        <time>2011-04-10T07:56:17Z</time>
      </trkpt>
      <trkpt lat="43.143248" lon="-3.553330">
        <ele>1421.9</ele>
        <time>2011-04-10T07:56:29Z</time>
      </trkpt>
      <trkpt lat="43.143094" lon="-3.553246">
        <ele>1421.0</ele>
        <time>2011-04-10T07:56:39Z</time>
      </trkpt>
      <trkpt lat="43.142872" lon="-3.553118">
        <ele>1417.6</ele>
        <time>2011-04-10T07:56:53Z</time>
      </trkpt>
      <trkpt lat="43.142707" lon="-3.552988">
        <ele>1421.4</ele>
        <time>2011-04-10T07:57:06Z</time>
      </trkpt>
      <trkpt lat="43.142696" lon="-3.552977">
        <ele>1420.0</ele>
        <time>2011-04-10T07:57:07Z</time>
      </trkpt>
      <trkpt lat="43.142420" lon="-3.552844">
        <ele>1420.0</ele>
        <time>2011-04-10T07:57:25Z</time>
      </trkpt>
      <trkpt lat="43.142202" lon="-3.552766">
        <ele>1421.0</ele>
        <time>2011-04-10T07:57:39Z</time>
      </trkpt>
      <trkpt lat="43.142108" lon="-3.552750">
        <ele>1424.8</ele>
        <time>2011-04-10T07:57:47Z</time>
      </trkpt>
      <trkpt lat="43.141863" lon="-3.552670">
        <ele>1427.7</ele>
        <time>2011-04-10T07:58:07Z</time>
      </trkpt>
      <trkpt lat="43.141661" lon="-3.552605">
        <ele>1427.2</ele>
        <time>2011-04-10T07:58:20Z</time>
      </trkpt>
      <trkpt lat="43.141364" lon="-3.552414">
        <ele>1427.7</ele>
        <time>2011-04-10T07:58:39Z</time>
      </trkpt>
      <trkpt lat="43.141118" lon="-3.552273">
        <ele>1426.7</ele>
        <time>2011-04-10T07:58:54Z</time>
      </trkpt>
      <trkpt lat="43.141037" lon="-3.552215">
        <ele>1423.8</ele>
        <time>2011-04-10T07:58:58Z</time>
      </trkpt>
      <trkpt lat="43.140942" lon="-3.552132">
        <ele>1421.9</ele>
        <time>2011-04-10T07:59:03Z</time>
      </trkpt>
      <trkpt lat="43.140861" lon="-3.552072">
        <ele>1419.5</ele>
        <time>2011-04-10T07:59:07Z</time>
      </trkpt>
      <trkpt lat="43.140707" lon="-3.551974">
        <ele>1415.7</ele>
        <time>2011-04-10T07:59:15Z</time>
      </trkpt>
      <trkpt lat="43.140650" lon="-3.551945">
        <ele>1413.8</ele>
        <time>2011-04-10T07:59:18Z</time>
      </trkpt>
      <trkpt lat="43.140537" lon="-3.551882">
        <ele>1410.4</ele>
        <time>2011-04-10T07:59:24Z</time>
      </trkpt>
      <trkpt lat="43.140518" lon="-3.551869">
        <ele>1410.4</ele>
        <time>2011-04-10T07:59:25Z</time>
      </trkpt>
      <trkpt lat="43.140406" lon="-3.551782">
        <ele>1407.0</ele>
        <time>2011-04-10T07:59:32Z</time>
      </trkpt>
      <trkpt lat="43.140365" lon="-3.551768">
        <ele>1406.1</ele>
        <time>2011-04-10T07:59:34Z</time>
      </trkpt>
      <trkpt lat="43.140008" lon="-3.551717">
        <ele>1402.2</ele>
        <time>2011-04-10T07:59:48Z</time>
      </trkpt>
      <trkpt lat="43.139621" lon="-3.551550">
        <ele>1398.9</ele>
        <time>2011-04-10T08:00:03Z</time>
      </trkpt>
      <trkpt lat="43.139503" lon="-3.551502">
        <ele>1397.4</ele>
        <time>2011-04-10T08:00:08Z</time>
      </trkpt>
      <trkpt lat="43.139269" lon="-3.551383">
        <ele>1394.0</ele>
        <time>2011-04-10T08:00:18Z</time>
      </trkpt>
      <trkpt lat="43.139244" lon="-3.551377">
        <ele>1394.5</ele>
        <time>2011-04-10T08:00:19Z</time>
      </trkpt>
      <trkpt lat="43.139089" lon="-3.551357">
        <ele>1392.1</ele>
        <time>2011-04-10T08:00:25Z</time>
      </trkpt>
      <trkpt lat="43.138829" lon="-3.551345">
        <ele>1388.3</ele>
        <time>2011-04-10T08:00:35Z</time>
      </trkpt>
      <trkpt lat="43.138458" lon="-3.551235">
        <ele>1388.3</ele>
        <time>2011-04-10T08:00:53Z</time>
      </trkpt>
      <trkpt lat="43.138408" lon="-3.551198">
        <ele>1391.6</ele>
        <time>2011-04-10T08:00:57Z</time>
      </trkpt>
      <trkpt lat="43.138368" lon="-3.551178">
        <ele>1390.2</ele>
        <time>2011-04-10T08:01:00Z</time>
      </trkpt>
      <trkpt lat="43.138135" lon="-3.551107">
        <ele>1390.7</ele>
        <time>2011-04-10T08:01:18Z</time>
      </trkpt>
      <trkpt lat="43.138013" lon="-3.551104">
        <ele>1394.5</ele>
        <time>2011-04-10T08:01:28Z</time>
      </trkpt>
      <trkpt lat="43.137878" lon="-3.551090">
        <ele>1397.4</ele>
        <time>2011-04-10T08:01:40Z</time>
      </trkpt>
      <trkpt lat="43.137783" lon="-3.551090">
        <ele>1400.3</ele>
        <time>2011-04-10T08:01:49Z</time>
      </trkpt>
      <trkpt lat="43.137606" lon="-3.551109">
        <ele>1401.7</ele>
        <time>2011-04-10T08:02:05Z</time>
      </trkpt>
      <trkpt lat="43.137388" lon="-3.551122">
        <ele>1403.7</ele>
        <time>2011-04-10T08:02:22Z</time>
      </trkpt>
      <trkpt lat="43.137332" lon="-3.551129">
        <ele>1403.7</ele>
        <time>2011-04-10T08:02:26Z</time>
      </trkpt>
      <trkpt lat="43.137275" lon="-3.551105">
        <ele>1405.1</ele>
        <time>2011-04-10T08:02:31Z</time>
      </trkpt>
      <trkpt lat="43.137077" lon="-3.551073">
        <ele>1406.1</ele>
        <time>2011-04-10T08:02:47Z</time>
      </trkpt>
      <trkpt lat="43.137046" lon="-3.551052">
        <ele>1408.0</ele>
        <time>2011-04-10T08:02:50Z</time>
      </trkpt>
      <trkpt lat="43.136848" lon="-3.551009">
        <ele>1410.9</ele>
        <time>2011-04-10T08:03:05Z</time>
      </trkpt>
      <trkpt lat="43.136782" lon="-3.550947">
        <ele>1411.8</ele>
        <time>2011-04-10T08:03:11Z</time>
      </trkpt>
      <trkpt lat="43.136559" lon="-3.550789">
        <ele>1414.7</ele>
        <time>2011-04-10T08:03:29Z</time>
      </trkpt>
      <trkpt lat="43.136355" lon="-3.550756">
        <ele>1418.1</ele>
        <time>2011-04-10T08:03:44Z</time>
      </trkpt>
      <trkpt lat="43.136123" lon="-3.550756">
        <ele>1420.0</ele>
        <time>2011-04-10T08:04:02Z</time>
      </trkpt>
      <trkpt lat="43.135986" lon="-3.550725">
        <ele>1423.4</ele>
        <time>2011-04-10T08:04:14Z</time>
      </trkpt>
      <trkpt lat="43.135797" lon="-3.550664">
        <ele>1426.3</ele>
        <time>2011-04-10T08:04:31Z</time>
      </trkpt>
      <trkpt lat="43.135676" lon="-3.550631">
        <ele>1428.2</ele>
        <time>2011-04-10T08:04:42Z</time>
      </trkpt>
      <trkpt lat="43.135498" lon="-3.550568">
        <ele>1430.6</ele>
        <time>2011-04-10T08:04:57Z</time>
      </trkpt>
      <trkpt lat="43.135442" lon="-3.550563">
        <ele>1432.5</ele>
        <time>2011-04-10T08:05:02Z</time>
      </trkpt>
      <trkpt lat="43.135296" lon="-3.550507">
        <ele>1435.4</ele>
        <time>2011-04-10T08:05:16Z</time>
      </trkpt>
      <trkpt lat="43.135123" lon="-3.550419">
        <ele>1439.7</ele>
        <time>2011-04-10T08:05:33Z</time>
      </trkpt>
      <trkpt lat="43.134937" lon="-3.550363">
        <ele>1442.1</ele>
        <time>2011-04-10T08:05:50Z</time>
      </trkpt>
      <trkpt lat="43.134820" lon="-3.550322">
        <ele>1446.0</ele>
        <time>2011-04-10T08:06:01Z</time>
      </trkpt>
      <trkpt lat="43.134735" lon="-3.550298">
        <ele>1448.8</ele>
        <time>2011-04-10T08:06:10Z</time>
      </trkpt>
      <trkpt lat="43.134584" lon="-3.550199">
        <ele>1450.8</ele>
        <time>2011-04-10T08:06:25Z</time>
      </trkpt>
      <trkpt lat="43.134371" lon="-3.550071">
        <ele>1453.2</ele>
        <time>2011-04-10T08:06:44Z</time>
      </trkpt>
      <trkpt lat="43.134199" lon="-3.549987">
        <ele>1456.5</ele>
        <time>2011-04-10T08:07:00Z</time>
      </trkpt>
      <trkpt lat="43.134141" lon="-3.549946">
        <ele>1458.0</ele>
        <time>2011-04-10T08:07:06Z</time>
      </trkpt>
      <trkpt lat="43.134014" lon="-3.549892">
        <ele>1462.3</ele>
        <time>2011-04-10T08:07:20Z</time>
      </trkpt>
      <trkpt lat="43.133994" lon="-3.549887">
        <ele>1462.8</ele>
        <time>2011-04-10T08:07:22Z</time>
      </trkpt>
      <trkpt lat="43.133853" lon="-3.549824">
        <ele>1466.1</ele>
        <time>2011-04-10T08:07:38Z</time>
      </trkpt>
      <trkpt lat="43.133726" lon="-3.549733">
        <ele>1468.6</ele>
        <time>2011-04-10T08:07:54Z</time>
      </trkpt>
      <trkpt lat="43.133592" lon="-3.549655">
        <ele>1472.4</ele>
        <time>2011-04-10T08:08:09Z</time>
      </trkpt>
      <trkpt lat="43.133450" lon="-3.549575">
        <ele>1474.3</ele>
        <time>2011-04-10T08:08:25Z</time>
      </trkpt>
      <trkpt lat="43.133317" lon="-3.549481">
        <ele>1477.2</ele>
        <time>2011-04-10T08:08:41Z</time>
      </trkpt>
      <trkpt lat="43.133270" lon="-3.549465">
        <ele>1479.1</ele>
        <time>2011-04-10T08:08:48Z</time>
      </trkpt>
      <trkpt lat="43.133165" lon="-3.549431">
        <ele>1482.5</ele>
        <time>2011-04-10T08:09:03Z</time>
      </trkpt>
      <trkpt lat="43.133094" lon="-3.549397">
        <ele>1485.9</ele>
        <time>2011-04-10T08:09:13Z</time>
      </trkpt>
      <trkpt lat="43.133015" lon="-3.549358">
        <ele>1489.2</ele>
        <time>2011-04-10T08:09:25Z</time>
      </trkpt>
      <trkpt lat="43.132942" lon="-3.549308">
        <ele>1492.1</ele>
        <time>2011-04-10T08:09:34Z</time>
      </trkpt>
      <trkpt lat="43.132935" lon="-3.549302">
        <ele>1491.6</ele>
        <time>2011-04-10T08:09:35Z</time>
      </trkpt>
      <trkpt lat="43.132781" lon="-3.549267">
        <ele>1493.5</ele>
        <time>2011-04-10T08:09:52Z</time>
      </trkpt>
      <trkpt lat="43.132627" lon="-3.549186">
        <ele>1496.9</ele>
        <time>2011-04-10T08:10:08Z</time>
      </trkpt>
      <trkpt lat="43.132576" lon="-3.549155">
        <ele>1497.9</ele>
        <time>2011-04-10T08:10:13Z</time>
      </trkpt>
      <trkpt lat="43.132398" lon="-3.548987">
        <ele>1500.8</ele>
        <time>2011-04-10T08:10:30Z</time>
      </trkpt>
      <trkpt lat="43.132190" lon="-3.548818">
        <ele>1503.6</ele>
        <time>2011-04-10T08:10:50Z</time>
      </trkpt>
      <trkpt lat="43.132119" lon="-3.548758">
        <ele>1506.5</ele>
        <time>2011-04-10T08:10:57Z</time>
      </trkpt>
      <trkpt lat="43.131981" lon="-3.548616">
        <ele>1509.4</ele>
        <time>2011-04-10T08:11:11Z</time>
      </trkpt>
      <trkpt lat="43.131812" lon="-3.548302">
        <ele>1510.4</ele>
        <time>2011-04-10T08:11:31Z</time>
      </trkpt>
      <trkpt lat="43.131706" lon="-3.547832">
        <ele>1508.9</ele>
        <time>2011-04-10T08:11:54Z</time>
      </trkpt>
      <trkpt lat="43.131632" lon="-3.547583">
        <ele>1506.5</ele>
        <time>2011-04-10T08:12:06Z</time>
      </trkpt>
      <trkpt lat="43.131475" lon="-3.547246">
        <ele>1505.6</ele>
        <time>2011-04-10T08:12:24Z</time>
      </trkpt>
      <trkpt lat="43.131410" lon="-3.547079">
        <ele>1509.9</ele>
        <time>2011-04-10T08:12:34Z</time>
      </trkpt>
      <trkpt lat="43.131382" lon="-3.547001">
        <ele>1511.3</ele>
        <time>2011-04-10T08:12:39Z</time>
      </trkpt>
      <trkpt lat="43.131369" lon="-3.546930">
        <ele>1513.7</ele>
        <time>2011-04-10T08:12:43Z</time>
      </trkpt>
      <trkpt lat="43.131332" lon="-3.546533">
        <ele>1513.7</ele>
        <time>2011-04-10T08:13:01Z</time>
      </trkpt>
      <trkpt lat="43.131295" lon="-3.546262">
        <ele>1515.2</ele>
        <time>2011-04-10T08:13:13Z</time>
      </trkpt>
      <trkpt lat="43.131232" lon="-3.545777">
        <ele>1517.6</ele>
        <time>2011-04-10T08:13:37Z</time>
      </trkpt>
      <trkpt lat="43.131171" lon="-3.545327">
        <ele>1517.6</ele>
        <time>2011-04-10T08:13:58Z</time>
      </trkpt>
      <trkpt lat="43.130980" lon="-3.544988">
        <ele>1517.6</ele>
        <time>2011-04-10T08:14:17Z</time>
      </trkpt>
      <trkpt lat="43.130695" lon="-3.544711">
        <ele>1516.1</ele>
        <time>2011-04-10T08:14:37Z</time>
      </trkpt>
      <trkpt lat="43.130424" lon="-3.544488">
        <ele>1512.8</ele>
        <time>2011-04-10T08:14:56Z</time>
      </trkpt>
      <trkpt lat="43.130408" lon="-3.544477">
        <ele>1512.8</ele>
        <time>2011-04-10T08:14:57Z</time>
      </trkpt>
      <trkpt lat="43.130278" lon="-3.544420">
        <ele>1513.3</ele>
        <time>2011-04-10T08:15:07Z</time>
      </trkpt>
      <trkpt lat="43.130084" lon="-3.544268">
        <ele>1513.7</ele>
        <time>2011-04-10T08:15:21Z</time>
      </trkpt>
      <trkpt lat="43.130052" lon="-3.544190">
        <ele>1513.3</ele>
        <time>2011-04-10T08:15:25Z</time>
      </trkpt>
      <trkpt lat="43.130088" lon="-3.544097">
        <ele>1508.9</ele>
        <time>2011-04-10T08:15:29Z</time>
      </trkpt>
      <trkpt lat="43.130101" lon="-3.544076">
        <ele>1508.9</ele>
        <time>2011-04-10T08:15:30Z</time>
      </trkpt>
      <trkpt lat="43.130167" lon="-3.543915">
        <ele>1505.6</ele>
        <time>2011-04-10T08:15:36Z</time>
      </trkpt>
      <trkpt lat="43.130150" lon="-3.543778">
        <ele>1503.2</ele>
        <time>2011-04-10T08:15:41Z</time>
      </trkpt>
      <trkpt lat="43.130149" lon="-3.543718">
        <ele>1501.7</ele>
        <time>2011-04-10T08:15:44Z</time>
      </trkpt>
      <trkpt lat="43.130080" lon="-3.543537">
        <ele>1499.3</ele>
        <time>2011-04-10T08:15:52Z</time>
      </trkpt>
      <trkpt lat="43.130044" lon="-3.543430">
        <ele>1497.9</ele>
        <time>2011-04-10T08:15:56Z</time>
      </trkpt>
      <trkpt lat="43.129992" lon="-3.543209">
        <ele>1494.0</ele>
        <time>2011-04-10T08:16:05Z</time>
      </trkpt>
      <trkpt lat="43.129995" lon="-3.543185">
        <ele>1493.5</ele>
        <time>2011-04-10T08:16:06Z</time>
      </trkpt>
      <trkpt lat="43.130005" lon="-3.543061">
        <ele>1490.2</ele>
        <time>2011-04-10T08:16:11Z</time>
      </trkpt>
      <trkpt lat="43.130001" lon="-3.542896">
        <ele>1486.8</ele>
        <time>2011-04-10T08:16:18Z</time>
      </trkpt>
      <trkpt lat="43.129989" lon="-3.542749">
        <ele>1485.4</ele>
        <time>2011-04-10T08:16:24Z</time>
      </trkpt>
      <trkpt lat="43.129950" lon="-3.542572">
        <ele>1481.5</ele>
        <time>2011-04-10T08:16:32Z</time>
      </trkpt>
      <trkpt lat="43.129922" lon="-3.542455">
        <ele>1480.1</ele>
        <time>2011-04-10T08:16:37Z</time>
      </trkpt>
      <trkpt lat="43.129905" lon="-3.542408">
        <ele>1478.6</ele>
        <time>2011-04-10T08:16:39Z</time>
      </trkpt>
      <trkpt lat="43.129880" lon="-3.542340">
        <ele>1478.6</ele>
        <time>2011-04-10T08:16:42Z</time>
      </trkpt>
      <trkpt lat="43.129789" lon="-3.542074">
        <ele>1474.3</ele>
        <time>2011-04-10T08:16:52Z</time>
      </trkpt>
      <trkpt lat="43.129788" lon="-3.542000">
        <ele>1472.9</ele>
        <time>2011-04-10T08:16:55Z</time>
      </trkpt>
      <trkpt lat="43.129795" lon="-3.541895">
        <ele>1469.5</ele>
        <time>2011-04-10T08:16:59Z</time>
      </trkpt>
      <trkpt lat="43.129799" lon="-3.541869">
        <ele>1469.0</ele>
        <time>2011-04-10T08:17:00Z</time>
      </trkpt>
      <trkpt lat="43.129791" lon="-3.541691">
        <ele>1465.7</ele>
        <time>2011-04-10T08:17:07Z</time>
      </trkpt>
      <trkpt lat="43.129815" lon="-3.541553">
        <ele>1462.3</ele>
        <time>2011-04-10T08:17:12Z</time>
      </trkpt>
      <trkpt lat="43.129818" lon="-3.541505">
        <ele>1461.3</ele>
        <time>2011-04-10T08:17:14Z</time>
      </trkpt>
      <trkpt lat="43.129824" lon="-3.541274">
        <ele>1457.5</ele>
        <time>2011-04-10T08:17:24Z</time>
      </trkpt>
      <trkpt lat="43.129805" lon="-3.541062">
        <ele>1454.1</ele>
        <time>2011-04-10T08:17:33Z</time>
      </trkpt>
      <trkpt lat="43.129804" lon="-3.541040">
        <ele>1454.1</ele>
        <time>2011-04-10T08:17:34Z</time>
      </trkpt>
      <trkpt lat="43.129792" lon="-3.540786">
        <ele>1450.8</ele>
        <time>2011-04-10T08:17:45Z</time>
      </trkpt>
      <trkpt lat="43.129784" lon="-3.540695">
        <ele>1449.3</ele>
        <time>2011-04-10T08:17:48Z</time>
      </trkpt>
      <trkpt lat="43.129723" lon="-3.540304">
        <ele>1448.8</ele>
        <time>2011-04-10T08:18:02Z</time>
      </trkpt>
      <trkpt lat="43.129671" lon="-3.540016">
        <ele>1448.8</ele>
        <time>2011-04-10T08:18:14Z</time>
      </trkpt>
      <trkpt lat="43.129659" lon="-3.539929">
        <ele>1449.3</ele>
        <time>2011-04-10T08:18:18Z</time>
      </trkpt>
      <trkpt lat="43.129575" lon="-3.539647">
        <ele>1450.3</ele>
        <time>2011-04-10T08:18:31Z</time>
      </trkpt>
      <trkpt lat="43.129469" lon="-3.539147">
        <ele>1450.3</ele>
        <time>2011-04-10T08:18:52Z</time>
      </trkpt>
      <trkpt lat="43.129413" lon="-3.538704">
        <ele>1448.4</ele>
        <time>2011-04-10T08:19:10Z</time>
      </trkpt>
      <trkpt lat="43.129372" lon="-3.538469">
        <ele>1446.0</ele>
        <time>2011-04-10T08:19:18Z</time>
      </trkpt>
      <trkpt lat="43.129282" lon="-3.538229">
        <ele>1443.6</ele>
        <time>2011-04-10T08:19:25Z</time>
      </trkpt>
      <trkpt lat="43.129015" lon="-3.537812">
        <ele>1439.7</ele>
        <time>2011-04-10T08:19:39Z</time>
      </trkpt>
      <trkpt lat="43.128995" lon="-3.537782">
        <ele>1439.7</ele>
        <time>2011-04-10T08:19:40Z</time>
      </trkpt>
      <trkpt lat="43.128856" lon="-3.537588">
        <ele>1435.4</ele>
        <time>2011-04-10T08:19:47Z</time>
      </trkpt>
      <trkpt lat="43.128837" lon="-3.537561">
        <ele>1435.9</ele>
        <time>2011-04-10T08:19:48Z</time>
      </trkpt>
      <trkpt lat="43.128760" lon="-3.537447">
        <ele>1433.9</ele>
        <time>2011-04-10T08:19:52Z</time>
      </trkpt>
      <trkpt lat="43.128690" lon="-3.537329">
        <ele>1430.6</ele>
        <time>2011-04-10T08:19:56Z</time>
      </trkpt>
      <trkpt lat="43.128673" lon="-3.537301">
        <ele>1430.1</ele>
        <time>2011-04-10T08:19:57Z</time>
      </trkpt>
      <trkpt lat="43.128606" lon="-3.537204">
        <ele>1426.7</ele>
        <time>2011-04-10T08:20:01Z</time>
      </trkpt>
      <trkpt lat="43.128589" lon="-3.537185">
        <ele>1426.3</ele>
        <time>2011-04-10T08:20:02Z</time>
      </trkpt>
      <trkpt lat="43.128538" lon="-3.537120">
        <ele>1423.4</ele>
        <time>2011-04-10T08:20:05Z</time>
      </trkpt>
      <trkpt lat="43.128484" lon="-3.537049">
        <ele>1420.0</ele>
        <time>2011-04-10T08:20:08Z</time>
      </trkpt>
      <trkpt lat="43.128467" lon="-3.537026">
        <ele>1420.0</ele>
        <time>2011-04-10T08:20:09Z</time>
      </trkpt>
      <trkpt lat="43.128326" lon="-3.536846">
        <ele>1417.1</ele>
        <time>2011-04-10T08:20:17Z</time>
      </trkpt>
      <trkpt lat="43.128239" lon="-3.536731">
        <ele>1414.2</ele>
        <time>2011-04-10T08:20:22Z</time>
      </trkpt>
      <trkpt lat="43.128144" lon="-3.536620">
        <ele>1409.9</ele>
        <time>2011-04-10T08:20:27Z</time>
      </trkpt>
      <trkpt lat="43.128025" lon="-3.536490">
        <ele>1405.1</ele>
        <time>2011-04-10T08:20:33Z</time>
      </trkpt>
      <trkpt lat="43.128002" lon="-3.536466">
        <ele>1405.1</ele>
        <time>2011-04-10T08:20:34Z</time>
      </trkpt>
      <trkpt lat="43.127869" lon="-3.536315">
        <ele>1402.2</ele>
        <time>2011-04-10T08:20:40Z</time>
      </trkpt>
      <trkpt lat="43.127714" lon="-3.536137">
        <ele>1398.4</ele>
        <time>2011-04-10T08:20:47Z</time>
      </trkpt>
      <trkpt lat="43.127410" lon="-3.535935">
        <ele>1396.5</ele>
        <time>2011-04-10T08:21:00Z</time>
      </trkpt>
      <trkpt lat="43.127141" lon="-3.535727">
        <ele>1395.5</ele>
        <time>2011-04-10T08:21:18Z</time>
      </trkpt>
      <trkpt lat="43.127122" lon="-3.535687">
        <ele>1394.5</ele>
        <time>2011-04-10T08:21:20Z</time>
      </trkpt>
      <trkpt lat="43.127098" lon="-3.535620">
        <ele>1393.1</ele>
        <time>2011-04-10T08:21:23Z</time>
      </trkpt>
      <trkpt lat="43.126998" lon="-3.535439">
        <ele>1393.6</ele>
        <time>2011-04-10T08:21:32Z</time>
      </trkpt>
      <trkpt lat="43.126942" lon="-3.535348">
        <ele>1395.0</ele>
        <time>2011-04-10T08:21:38Z</time>
      </trkpt>
      <trkpt lat="43.126781" lon="-3.535034">
        <ele>1397.4</ele>
        <time>2011-04-10T08:21:58Z</time>
      </trkpt>
      <trkpt lat="43.126691" lon="-3.534811">
        <ele>1400.8</ele>
        <time>2011-04-10T08:22:12Z</time>
      </trkpt>
      <trkpt lat="43.126578" lon="-3.534577">
        <ele>1403.7</ele>
        <time>2011-04-10T08:22:28Z</time>
      </trkpt>
      <trkpt lat="43.126428" lon="-3.534304">
        <ele>1407.0</ele>
        <time>2011-04-10T08:22:48Z</time>
      </trkpt>
      <trkpt lat="43.126363" lon="-3.534173">
        <ele>1410.4</ele>
        <time>2011-04-10T08:22:58Z</time>
      </trkpt>
      <trkpt lat="43.126268" lon="-3.533968">
        <ele>1413.8</ele>
        <time>2011-04-10T08:23:14Z</time>
      </trkpt>
      <trkpt lat="43.126210" lon="-3.533843">
        <ele>1416.6</ele>
        <time>2011-04-10T08:23:25Z</time>
      </trkpt>
      <trkpt lat="43.126195" lon="-3.533813">
        <ele>1418.1</ele>
        <time>2011-04-10T08:23:28Z</time>
      </trkpt>
      <trkpt lat="43.126110" lon="-3.533664">
        <ele>1422.4</ele>
        <time>2011-04-10T08:23:44Z</time>
      </trkpt>
      <trkpt lat="43.126043" lon="-3.533501">
        <ele>1424.3</ele>
        <time>2011-04-10T08:24:01Z</time>
      </trkpt>
      <trkpt lat="43.126003" lon="-3.533398">
        <ele>1428.2</ele>
        <time>2011-04-10T08:24:12Z</time>
      </trkpt>
      <trkpt lat="43.125953" lon="-3.533285">
        <ele>1431.1</ele>
        <time>2011-04-10T08:24:25Z</time>
      </trkpt>
      <trkpt lat="43.125912" lon="-3.533207">
        <ele>1433.5</ele>
        <time>2011-04-10T08:24:34Z</time>
      </trkpt>
      <trkpt lat="43.125878" lon="-3.533163">
        <ele>1436.8</ele>
        <time>2011-04-10T08:24:40Z</time>
      </trkpt>
      <trkpt lat="43.125793" lon="-3.533021">
        <ele>1440.2</ele>
        <time>2011-04-10T08:24:56Z</time>
      </trkpt>
      <trkpt lat="43.125741" lon="-3.532909">
        <ele>1443.6</ele>
        <time>2011-04-10T08:25:08Z</time>
      </trkpt>
      <trkpt lat="43.125682" lon="-3.532759">
        <ele>1446.4</ele>
        <time>2011-04-10T08:25:23Z</time>
      </trkpt>
      <trkpt lat="43.125668" lon="-3.532680">
        <ele>1450.3</ele>
        <time>2011-04-10T08:25:31Z</time>
      </trkpt>
      <trkpt lat="43.125672" lon="-3.532600">
        <ele>1452.2</ele>
        <time>2011-04-10T08:25:39Z</time>
      </trkpt>
      <trkpt lat="43.125650" lon="-3.532529">
        <ele>1455.6</ele>
        <time>2011-04-10T08:25:47Z</time>
      </trkpt>
      <trkpt lat="43.125601" lon="-3.532431">
        <ele>1459.4</ele>
        <time>2011-04-10T08:26:01Z</time>
      </trkpt>
      <trkpt lat="43.125599" lon="-3.532421">
        <ele>1459.4</ele>
        <time>2011-04-10T08:26:02Z</time>
      </trkpt>
      <trkpt lat="43.125585" lon="-3.532319">
        <ele>1462.3</ele>
        <time>2011-04-10T08:26:12Z</time>
      </trkpt>
      <trkpt lat="43.125579" lon="-3.532297">
        <ele>1462.8</ele>
        <time>2011-04-10T08:26:14Z</time>
      </trkpt>
      <trkpt lat="43.125565" lon="-3.532265">
        <ele>1462.8</ele>
        <time>2011-04-10T08:26:17Z</time>
      </trkpt>
      <trkpt lat="43.125518" lon="-3.532071">
        <ele>1465.7</ele>
        <time>2011-04-10T08:26:33Z</time>
      </trkpt>
      <trkpt lat="43.125494" lon="-3.531987">
        <ele>1467.6</ele>
        <time>2011-04-10T08:26:40Z</time>
      </trkpt>
      <trkpt lat="43.125434" lon="-3.531857">
        <ele>1471.4</ele>
        <time>2011-04-10T08:26:51Z</time>
      </trkpt>
      <trkpt lat="43.125394" lon="-3.531786">
        <ele>1472.9</ele>
        <time>2011-04-10T08:26:57Z</time>
      </trkpt>
      <trkpt lat="43.125379" lon="-3.531764">
        <ele>1474.3</ele>
        <time>2011-04-10T08:26:59Z</time>
      </trkpt>
      <trkpt lat="43.125353" lon="-3.531702">
        <ele>1475.3</ele>
        <time>2011-04-10T08:27:04Z</time>
      </trkpt>
      <trkpt lat="43.125247" lon="-3.531414">
        <ele>1476.7</ele>
        <time>2011-04-10T08:27:24Z</time>
      </trkpt>
      <trkpt lat="43.125235" lon="-3.531385">
        <ele>1479.1</ele>
        <time>2011-04-10T08:27:26Z</time>
      </trkpt>
      <trkpt lat="43.125157" lon="-3.531152">
        <ele>1483.0</ele>
        <time>2011-04-10T08:27:42Z</time>
      </trkpt>
      <trkpt lat="43.125151" lon="-3.531138">
        <ele>1482.5</ele>
        <time>2011-04-10T08:27:43Z</time>
      </trkpt>
      <trkpt lat="43.125044" lon="-3.530887">
        <ele>1484.4</ele>
        <time>2011-04-10T08:28:00Z</time>
      </trkpt>
      <trkpt lat="43.124981" lon="-3.530682">
        <ele>1487.3</ele>
        <time>2011-04-10T08:28:14Z</time>
      </trkpt>
      <trkpt lat="43.124969" lon="-3.530600">
        <ele>1489.7</ele>
        <time>2011-04-10T08:28:19Z</time>
      </trkpt>
      <trkpt lat="43.124879" lon="-3.530258">
        <ele>1492.1</ele>
        <time>2011-04-10T08:28:38Z</time>
      </trkpt>
      <trkpt lat="43.124814" lon="-3.529841">
        <ele>1492.6</ele>
        <time>2011-04-10T08:28:57Z</time>
      </trkpt>
      <trkpt lat="43.124798" lon="-3.529384">
        <ele>1491.6</ele>
        <time>2011-04-10T08:29:12Z</time>
      </trkpt>
      <trkpt lat="43.124795" lon="-3.528879">
        <ele>1489.2</ele>
        <time>2011-04-10T08:29:28Z</time>
      </trkpt>
      <trkpt lat="43.124797" lon="-3.528435">
        <ele>1487.3</ele>
        <time>2011-04-10T08:29:45Z</time>
      </trkpt>
      <trkpt lat="43.124799" lon="-3.528399">
        <ele>1487.3</ele>
        <time>2011-04-10T08:29:46Z</time>
      </trkpt>
      <trkpt lat="43.124812" lon="-3.527944">
        <ele>1486.8</ele>
        <time>2011-04-10T08:30:02Z</time>
      </trkpt>
      <trkpt lat="43.124820" lon="-3.527735">
        <ele>1487.3</ele>
        <time>2011-04-10T08:30:11Z</time>
      </trkpt>
      <trkpt lat="43.124812" lon="-3.527473">
        <ele>1486.8</ele>
        <time>2011-04-10T08:30:22Z</time>
      </trkpt>
      <trkpt lat="43.124844" lon="-3.527044">
        <ele>1484.9</ele>
        <time>2011-04-10T08:30:40Z</time>
      </trkpt>
      <trkpt lat="43.124851" lon="-3.526598">
        <ele>1485.4</ele>
        <time>2011-04-10T08:30:59Z</time>
      </trkpt>
      <trkpt lat="43.124889" lon="-3.526207">
        <ele>1484.9</ele>
        <time>2011-04-10T08:31:16Z</time>
      </trkpt>
      <trkpt lat="43.124937" lon="-3.525725">
        <ele>1483.9</ele>
        <time>2011-04-10T08:31:36Z</time>
      </trkpt>
      <trkpt lat="43.124996" lon="-3.525310">
        <ele>1480.6</ele>
        <time>2011-04-10T08:31:52Z</time>
      </trkpt>
      <trkpt lat="43.125050" lon="-3.525045">
        <ele>1476.7</ele>
        <time>2011-04-10T08:32:02Z</time>
      </trkpt>
      <trkpt lat="43.125174" lon="-3.524766">
        <ele>1473.4</ele>
        <time>2011-04-10T08:32:14Z</time>
      </trkpt>
      <trkpt lat="43.125267" lon="-3.524449">
        <ele>1470.5</ele>
        <time>2011-04-10T08:32:27Z</time>
      </trkpt>
      <trkpt lat="43.125385" lon="-3.524136">
        <ele>1469.0</ele>
        <time>2011-04-10T08:32:41Z</time>
      </trkpt>
      <trkpt lat="43.125494" lon="-3.523784">
        <ele>1466.6</ele>
        <time>2011-04-10T08:32:54Z</time>
      </trkpt>
      <trkpt lat="43.125575" lon="-3.523592">
        <ele>1461.8</ele>
        <time>2011-04-10T08:33:02Z</time>
      </trkpt>
      <trkpt lat="43.125590" lon="-3.523574">
        <ele>1461.8</ele>
        <time>2011-04-10T08:33:03Z</time>
      </trkpt>
      <trkpt lat="43.125760" lon="-3.523325">
        <ele>1458.0</ele>
        <time>2011-04-10T08:33:14Z</time>
      </trkpt>
      <trkpt lat="43.126003" lon="-3.522996">
        <ele>1457.5</ele>
        <time>2011-04-10T08:33:29Z</time>
      </trkpt>
      <trkpt lat="43.126012" lon="-3.522874">
        <ele>1457.0</ele>
        <time>2011-04-10T08:33:33Z</time>
      </trkpt>
      <trkpt lat="43.125955" lon="-3.522509">
        <ele>1453.7</ele>
        <time>2011-04-10T08:33:45Z</time>
      </trkpt>
      <trkpt lat="43.125946" lon="-3.522482">
        <ele>1453.2</ele>
        <time>2011-04-10T08:33:46Z</time>
      </trkpt>
      <trkpt lat="43.125892" lon="-3.522340">
        <ele>1450.3</ele>
        <time>2011-04-10T08:33:52Z</time>
      </trkpt>
      <trkpt lat="43.125810" lon="-3.522177">
        <ele>1446.9</ele>
        <time>2011-04-10T08:34:00Z</time>
      </trkpt>
      <trkpt lat="43.125806" lon="-3.522134">
        <ele>1445.5</ele>
        <time>2011-04-10T08:34:02Z</time>
      </trkpt>
      <trkpt lat="43.125788" lon="-3.521946">
        <ele>1443.1</ele>
        <time>2011-04-10T08:34:10Z</time>
      </trkpt>
      <trkpt lat="43.125774" lon="-3.521701">
        <ele>1439.7</ele>
        <time>2011-04-10T08:34:21Z</time>
      </trkpt>
      <trkpt lat="43.125835" lon="-3.521612">
        <ele>1439.2</ele>
        <time>2011-04-10T08:34:26Z</time>
      </trkpt>
      <trkpt lat="43.125980" lon="-3.521448">
        <ele>1441.6</ele>
        <time>2011-04-10T08:34:36Z</time>
      </trkpt>
      <trkpt lat="43.126002" lon="-3.521176">
        <ele>1436.8</ele>
        <time>2011-04-10T08:34:47Z</time>
      </trkpt>
      <trkpt lat="43.125966" lon="-3.521004">
        <ele>1434.9</ele>
        <time>2011-04-10T08:34:54Z</time>
      </trkpt>
      <trkpt lat="43.125932" lon="-3.520801">
        <ele>1432.0</ele>
        <time>2011-04-10T08:35:03Z</time>
      </trkpt>
      <trkpt lat="43.125934" lon="-3.520633">
        <ele>1427.2</ele>
        <time>2011-04-10T08:35:11Z</time>
      </trkpt>
      <trkpt lat="43.125933" lon="-3.520615">
        <ele>1426.7</ele>
        <time>2011-04-10T08:35:12Z</time>
      </trkpt>
      <trkpt lat="43.125933" lon="-3.520554">
        <ele>1424.3</ele>
        <time>2011-04-10T08:35:16Z</time>
      </trkpt>
      <trkpt lat="43.125951" lon="-3.520510">
        <ele>1421.0</ele>
        <time>2011-04-10T08:35:19Z</time>
      </trkpt>
      <trkpt lat="43.125978" lon="-3.520421">
        <ele>1420.5</ele>
        <time>2011-04-10T08:35:26Z</time>
      </trkpt>
      <trkpt lat="43.125991" lon="-3.520297">
        <ele>1415.7</ele>
        <time>2011-04-10T08:35:35Z</time>
      </trkpt>
      <trkpt lat="43.125982" lon="-3.520270">
        <ele>1415.2</ele>
        <time>2011-04-10T08:35:37Z</time>
      </trkpt>
      <trkpt lat="43.125989" lon="-3.520239">
        <ele>1413.3</ele>
        <time>2011-04-10T08:35:42Z</time>
      </trkpt>
      <trkpt lat="43.126013" lon="-3.520213">
        <ele>1412.8</ele>
        <time>2011-04-10T08:35:45Z</time>
      </trkpt>
      <trkpt lat="43.126017" lon="-3.520103">
        <ele>1409.4</ele>
        <time>2011-04-10T08:35:52Z</time>
      </trkpt>
      <trkpt lat="43.126029" lon="-3.520037">
        <ele>1406.5</ele>
        <time>2011-04-10T08:35:56Z</time>
      </trkpt>
      <trkpt lat="43.126038" lon="-3.519967">
        <ele>1402.2</ele>
        <time>2011-04-10T08:35:59Z</time>
      </trkpt>
      <trkpt lat="43.126057" lon="-3.519843">
        <ele>1399.3</ele>
        <time>2011-04-10T08:36:05Z</time>
      </trkpt>
      <trkpt lat="43.126060" lon="-3.519823">
        <ele>1399.3</ele>
        <time>2011-04-10T08:36:06Z</time>
      </trkpt>
      <trkpt lat="43.126075" lon="-3.519769">
        <ele>1396.5</ele>
        <time>2011-04-10T08:36:09Z</time>
      </trkpt>
      <trkpt lat="43.126099" lon="-3.519625">
        <ele>1395.5</ele>
        <time>2011-04-10T08:36:16Z</time>
      </trkpt>
      <trkpt lat="43.126139" lon="-3.519465">
        <ele>1392.6</ele>
        <time>2011-04-10T08:36:24Z</time>
      </trkpt>
      <trkpt lat="43.126154" lon="-3.519433">
        <ele>1386.8</ele>
        <time>2011-04-10T08:36:26Z</time>
      </trkpt>
      <trkpt lat="43.126192" lon="-3.519372">
        <ele>1387.8</ele>
        <time>2011-04-10T08:36:30Z</time>
      </trkpt>
      <trkpt lat="43.126224" lon="-3.519290">
        <ele>1384.0</ele>
        <time>2011-04-10T08:36:34Z</time>
      </trkpt>
      <trkpt lat="43.126233" lon="-3.519268">
        <ele>1384.0</ele>
        <time>2011-04-10T08:36:35Z</time>
      </trkpt>
      <trkpt lat="43.126260" lon="-3.519087">
        <ele>1382.5</ele>
        <time>2011-04-10T08:36:43Z</time>
      </trkpt>
      <trkpt lat="43.126253" lon="-3.518973">
        <ele>1378.2</ele>
        <time>2011-04-10T08:36:48Z</time>
      </trkpt>
      <trkpt lat="43.126264" lon="-3.518881">
        <ele>1375.8</ele>
        <time>2011-04-10T08:36:52Z</time>
      </trkpt>
      <trkpt lat="43.126218" lon="-3.518801">
        <ele>1371.5</ele>
        <time>2011-04-10T08:36:57Z</time>
      </trkpt>
      <trkpt lat="43.126219" lon="-3.518793">
        <ele>1369.5</ele>
        <time>2011-04-10T08:36:58Z</time>
      </trkpt>
      <trkpt lat="43.126237" lon="-3.518771">
        <ele>1368.6</ele>
        <time>2011-04-10T08:37:00Z</time>
      </trkpt>
      <trkpt lat="43.126233" lon="-3.518692">
        <ele>1370.5</ele>
        <time>2011-04-10T08:37:04Z</time>
      </trkpt>
      <trkpt lat="43.126177" lon="-3.518620">
        <ele>1369.5</ele>
        <time>2011-04-10T08:37:08Z</time>
      </trkpt>
      <trkpt lat="43.126163" lon="-3.518564">
        <ele>1367.6</ele>
        <time>2011-04-10T08:37:11Z</time>
      </trkpt>
      <trkpt lat="43.126171" lon="-3.518433">
        <ele>1360.4</ele>
        <time>2011-04-10T08:37:17Z</time>
      </trkpt>
      <trkpt lat="43.126178" lon="-3.518407">
        <ele>1362.3</ele>
        <time>2011-04-10T08:37:18Z</time>
      </trkpt>
      <trkpt lat="43.126168" lon="-3.518214">
        <ele>1357.0</ele>
        <time>2011-04-10T08:37:25Z</time>
      </trkpt>
      <trkpt lat="43.126169" lon="-3.518086">
        <ele>1357.0</ele>
        <time>2011-04-10T08:37:30Z</time>
      </trkpt>
      <trkpt lat="43.126198" lon="-3.518026">
        <ele>1352.7</ele>
        <time>2011-04-10T08:37:33Z</time>
      </trkpt>
      <trkpt lat="43.126211" lon="-3.518001">
        <ele>1352.7</ele>
        <time>2011-04-10T08:37:34Z</time>
      </trkpt>
      <trkpt lat="43.126247" lon="-3.517877">
        <ele>1349.8</ele>
        <time>2011-04-10T08:37:39Z</time>
      </trkpt>
      <trkpt lat="43.126256" lon="-3.517769">
        <ele>1348.9</ele>
        <time>2011-04-10T08:37:43Z</time>
      </trkpt>
      <trkpt lat="43.126263" lon="-3.517517">
        <ele>1346.0</ele>
        <time>2011-04-10T08:37:53Z</time>
      </trkpt>
      <trkpt lat="43.126261" lon="-3.517489">
        <ele>1346.0</ele>
        <time>2011-04-10T08:37:54Z</time>
      </trkpt>
      <trkpt lat="43.126230" lon="-3.517242">
        <ele>1342.1</ele>
        <time>2011-04-10T08:38:04Z</time>
      </trkpt>
      <trkpt lat="43.126228" lon="-3.517219">
        <ele>1342.6</ele>
        <time>2011-04-10T08:38:05Z</time>
      </trkpt>
      <trkpt lat="43.126216" lon="-3.517045">
        <ele>1340.2</ele>
        <time>2011-04-10T08:38:13Z</time>
      </trkpt>
      <trkpt lat="43.126205" lon="-3.517006">
        <ele>1339.3</ele>
        <time>2011-04-10T08:38:15Z</time>
      </trkpt>
      <trkpt lat="43.126194" lon="-3.516925">
        <ele>1339.3</ele>
        <time>2011-04-10T08:38:18Z</time>
      </trkpt>
      <trkpt lat="43.126121" lon="-3.516515">
        <ele>1337.8</ele>
        <time>2011-04-10T08:38:33Z</time>
      </trkpt>
      <trkpt lat="43.126093" lon="-3.516313">
        <ele>1335.4</ele>
        <time>2011-04-10T08:38:41Z</time>
      </trkpt>
      <trkpt lat="43.126041" lon="-3.515993">
        <ele>1333.0</ele>
        <time>2011-04-10T08:38:53Z</time>
      </trkpt>
      <trkpt lat="43.126008" lon="-3.515690">
        <ele>1330.1</ele>
        <time>2011-04-10T08:39:04Z</time>
      </trkpt>
      <trkpt lat="43.125976" lon="-3.515486">
        <ele>1325.3</ele>
        <time>2011-04-10T08:39:13Z</time>
      </trkpt>
      <trkpt lat="43.125968" lon="-3.515465">
        <ele>1334.9</ele>
        <time>2011-04-10T08:39:14Z</time>
      </trkpt>
      <trkpt lat="43.125958" lon="-3.515446">
        <ele>1319.5</ele>
        <time>2011-04-10T08:39:15Z</time>
      </trkpt>
      <trkpt lat="43.125948" lon="-3.515428">
        <ele>1339.7</ele>
        <time>2011-04-10T08:39:16Z</time>
      </trkpt>
      <trkpt lat="43.125938" lon="-3.515410">
        <ele>1330.1</ele>
        <time>2011-04-10T08:39:17Z</time>
      </trkpt>
      <trkpt lat="43.125834" lon="-3.515132">
        <ele>1327.2</ele>
        <time>2011-04-10T08:39:30Z</time>
      </trkpt>
      <trkpt lat="43.125720" lon="-3.514619">
        <ele>1325.8</ele>
        <time>2011-04-10T08:39:51Z</time>
      </trkpt>
      <trkpt lat="43.125631" lon="-3.514134">
        <ele>1324.4</ele>
        <time>2011-04-10T08:40:11Z</time>
      </trkpt>
      <trkpt lat="43.125585" lon="-3.513843">
        <ele>1321.5</ele>
        <time>2011-04-10T08:40:23Z</time>
      </trkpt>
      <trkpt lat="43.125513" lon="-3.513380">
        <ele>1319.1</ele>
        <time>2011-04-10T08:40:41Z</time>
      </trkpt>
      <trkpt lat="43.125508" lon="-3.513356">
        <ele>1319.1</ele>
        <time>2011-04-10T08:40:42Z</time>
      </trkpt>
      <trkpt lat="43.125434" lon="-3.512851">
        <ele>1315.7</ele>
        <time>2011-04-10T08:41:02Z</time>
      </trkpt>
      <trkpt lat="43.125368" lon="-3.512509">
        <ele>1313.8</ele>
        <time>2011-04-10T08:41:16Z</time>
      </trkpt>
      <trkpt lat="43.125361" lon="-3.512384">
        <ele>1309.9</ele>
        <time>2011-04-10T08:41:21Z</time>
      </trkpt>
      <trkpt lat="43.125357" lon="-3.512359">
        <ele>1314.7</ele>
        <time>2011-04-10T08:41:22Z</time>
      </trkpt>
      <trkpt lat="43.125351" lon="-3.512310">
        <ele>1309.0</ele>
        <time>2011-04-10T08:41:24Z</time>
      </trkpt>
      <trkpt lat="43.125348" lon="-3.512285">
        <ele>1316.7</ele>
        <time>2011-04-10T08:41:25Z</time>
      </trkpt>
      <trkpt lat="43.125344" lon="-3.512261">
        <ele>1308.0</ele>
        <time>2011-04-10T08:41:26Z</time>
      </trkpt>
      <trkpt lat="43.125340" lon="-3.512237">
        <ele>1315.2</ele>
        <time>2011-04-10T08:41:27Z</time>
      </trkpt>
      <trkpt lat="43.125336" lon="-3.512213">
        <ele>1306.6</ele>
        <time>2011-04-10T08:41:28Z</time>
      </trkpt>
      <trkpt lat="43.125332" lon="-3.512188">
        <ele>1323.4</ele>
        <time>2011-04-10T08:41:29Z</time>
      </trkpt>
      <trkpt lat="43.125327" lon="-3.512162">
        <ele>1312.8</ele>
        <time>2011-04-10T08:41:30Z</time>
      </trkpt>
      <trkpt lat="43.125317" lon="-3.512109">
        <ele>1312.3</ele>
        <time>2011-04-10T08:41:32Z</time>
      </trkpt>
      <trkpt lat="43.125202" lon="-3.511508">
        <ele>1309.9</ele>
        <time>2011-04-10T08:41:55Z</time>
      </trkpt>
      <trkpt lat="43.125109" lon="-3.511104">
        <ele>1307.0</ele>
        <time>2011-04-10T08:42:06Z</time>
      </trkpt>
      <trkpt lat="43.125061" lon="-3.510930">
        <ele>1305.1</ele>
        <time>2011-04-10T08:42:11Z</time>
      </trkpt>
      <trkpt lat="43.124813" lon="-3.510455">
        <ele>1303.2</ele>
        <time>2011-04-10T08:42:29Z</time>
      </trkpt>
      <trkpt lat="43.124550" lon="-3.509970">
        <ele>1303.7</ele>
        <time>2011-04-10T08:42:46Z</time>
      </trkpt>
      <trkpt lat="43.124390" lon="-3.509677">
        <ele>1305.6</ele>
        <time>2011-04-10T08:43:03Z</time>
      </trkpt>
      <trkpt lat="43.124274" lon="-3.509397">
        <ele>1308.0</ele>
        <time>2011-04-10T08:43:18Z</time>
      </trkpt>
      <trkpt lat="43.124267" lon="-3.509377">
        <ele>1302.7</ele>
        <time>2011-04-10T08:43:19Z</time>
      </trkpt>
      <trkpt lat="43.124259" lon="-3.509357">
        <ele>1309.5</ele>
        <time>2011-04-10T08:43:20Z</time>
      </trkpt>
      <trkpt lat="43.124080" lon="-3.508977">
        <ele>1309.9</ele>
        <time>2011-04-10T08:43:41Z</time>
      </trkpt>
      <trkpt lat="43.123952" lon="-3.508590">
        <ele>1311.9</ele>
        <time>2011-04-10T08:44:01Z</time>
      </trkpt>
      <trkpt lat="43.123932" lon="-3.508330">
        <ele>1313.3</ele>
        <time>2011-04-10T08:44:13Z</time>
      </trkpt>
      <trkpt lat="43.123769" lon="-3.508131">
        <ele>1311.9</ele>
        <time>2011-04-10T08:44:26Z</time>
      </trkpt>
      <trkpt lat="43.123653" lon="-3.507788">
        <ele>1310.9</ele>
        <time>2011-04-10T08:44:42Z</time>
      </trkpt>
      <trkpt lat="43.123520" lon="-3.507462">
        <ele>1314.3</ele>
        <time>2011-04-10T08:44:59Z</time>
      </trkpt>
      <trkpt lat="43.123439" lon="-3.507339">
        <ele>1317.6</ele>
        <time>2011-04-10T08:45:08Z</time>
      </trkpt>
      <trkpt lat="43.123330" lon="-3.507246">
        <ele>1320.0</ele>
        <time>2011-04-10T08:45:18Z</time>
      </trkpt>
      <trkpt lat="43.122999" lon="-3.507101">
        <ele>1321.9</ele>
        <time>2011-04-10T08:45:40Z</time>
      </trkpt>
      <trkpt lat="43.122796" lon="-3.506888">
        <ele>1324.8</ele>
        <time>2011-04-10T08:45:57Z</time>
      </trkpt>
      <trkpt lat="43.122793" lon="-3.506723">
        <ele>1328.2</ele>
        <time>2011-04-10T08:46:05Z</time>
      </trkpt>
      <trkpt lat="43.122762" lon="-3.506408">
        <ele>1330.6</ele>
        <time>2011-04-10T08:46:21Z</time>
      </trkpt>
      <trkpt lat="43.122710" lon="-3.506072">
        <ele>1333.5</ele>
        <time>2011-04-10T08:46:39Z</time>
      </trkpt>
      <trkpt lat="43.122655" lon="-3.505710">
        <ele>1335.9</ele>
        <time>2011-04-10T08:46:58Z</time>
      </trkpt>
      <trkpt lat="43.122567" lon="-3.505353">
        <ele>1336.9</ele>
        <time>2011-04-10T08:47:15Z</time>
      </trkpt>
      <trkpt lat="43.122549" lon="-3.504969">
        <ele>1337.8</ele>
        <time>2011-04-10T08:47:33Z</time>
      </trkpt>
      <trkpt lat="43.122543" lon="-3.504836">
        <ele>1339.3</ele>
        <time>2011-04-10T08:47:39Z</time>
      </trkpt>
      <trkpt lat="43.122539" lon="-3.504612">
        <ele>1340.2</ele>
        <time>2011-04-10T08:47:49Z</time>
      </trkpt>
      <trkpt lat="43.122531" lon="-3.504148">
        <ele>1340.7</ele>
        <time>2011-04-10T08:48:10Z</time>
      </trkpt>
      <trkpt lat="43.122523" lon="-3.503794">
        <ele>1342.6</ele>
        <time>2011-04-10T08:48:26Z</time>
      </trkpt>
      <trkpt lat="43.122471" lon="-3.503337">
        <ele>1343.6</ele>
        <time>2011-04-10T08:48:47Z</time>
      </trkpt>
      <trkpt lat="43.122431" lon="-3.502916">
        <ele>1344.1</ele>
        <time>2011-04-10T08:49:07Z</time>
      </trkpt>
      <trkpt lat="43.122319" lon="-3.502656">
        <ele>1347.4</ele>
        <time>2011-04-10T08:49:23Z</time>
      </trkpt>
      <trkpt lat="43.122310" lon="-3.502638">
        <ele>1347.4</ele>
        <time>2011-04-10T08:49:24Z</time>
      </trkpt>
      <trkpt lat="43.122236" lon="-3.502311">
        <ele>1348.9</ele>
        <time>2011-04-10T08:49:41Z</time>
      </trkpt>
      <trkpt lat="43.122203" lon="-3.502005">
        <ele>1351.8</ele>
        <time>2011-04-10T08:49:56Z</time>
      </trkpt>
      <trkpt lat="43.122209" lon="-3.501618">
        <ele>1352.7</ele>
        <time>2011-04-10T08:50:14Z</time>
      </trkpt>
      <trkpt lat="43.122226" lon="-3.501265">
        <ele>1354.6</ele>
        <time>2011-04-10T08:50:32Z</time>
      </trkpt>
      <trkpt lat="43.122176" lon="-3.500872">
        <ele>1356.1</ele>
        <time>2011-04-10T08:50:51Z</time>
      </trkpt>
      <trkpt lat="43.122163" lon="-3.500662">
        <ele>1359.4</ele>
        <time>2011-04-10T08:51:01Z</time>
      </trkpt>
      <trkpt lat="43.122160" lon="-3.500642">
        <ele>1359.4</ele>
        <time>2011-04-10T08:51:02Z</time>
      </trkpt>
      <trkpt lat="43.122185" lon="-3.500373">
        <ele>1359.0</ele>
        <time>2011-04-10T08:51:16Z</time>
      </trkpt>
      <trkpt lat="43.122241" lon="-3.500279">
        <ele>1361.8</ele>
        <time>2011-04-10T08:51:22Z</time>
      </trkpt>
      <trkpt lat="43.122326" lon="-3.500065">
        <ele>1365.2</ele>
        <time>2011-04-10T08:51:34Z</time>
      </trkpt>
      <trkpt lat="43.122408" lon="-3.499923">
        <ele>1364.7</ele>
        <time>2011-04-10T08:51:43Z</time>
      </trkpt>
      <trkpt lat="43.122391" lon="-3.499803">
        <ele>1365.7</ele>
        <time>2011-04-10T08:51:49Z</time>
      </trkpt>
      <trkpt lat="43.122335" lon="-3.499414">
        <ele>1366.7</ele>
        <time>2011-04-10T08:52:08Z</time>
      </trkpt>
      <trkpt lat="43.122347" lon="-3.499007">
        <ele>1367.6</ele>
        <time>2011-04-10T08:52:27Z</time>
      </trkpt>
      <trkpt lat="43.122255" lon="-3.498598">
        <ele>1366.7</ele>
        <time>2011-04-10T08:52:46Z</time>
      </trkpt>
      <trkpt lat="43.122237" lon="-3.498231">
        <ele>1364.7</ele>
        <time>2011-04-10T08:53:03Z</time>
      </trkpt>
      <trkpt lat="43.122227" lon="-3.498148">
        <ele>1363.8</ele>
        <time>2011-04-10T08:53:07Z</time>
      </trkpt>
      <trkpt lat="43.122221" lon="-3.498084">
        <ele>1361.8</ele>
        <time>2011-04-10T08:53:10Z</time>
      </trkpt>
      <trkpt lat="43.122217" lon="-3.497822">
        <ele>1359.0</ele>
        <time>2011-04-10T08:53:21Z</time>
      </trkpt>
      <trkpt lat="43.122232" lon="-3.497742">
        <ele>1357.0</ele>
        <time>2011-04-10T08:53:25Z</time>
      </trkpt>
      <trkpt lat="43.122172" lon="-3.497657">
        <ele>1358.5</ele>
        <time>2011-04-10T08:53:31Z</time>
      </trkpt>
      <trkpt lat="43.122106" lon="-3.497628">
        <ele>1357.5</ele>
        <time>2011-04-10T08:53:35Z</time>
      </trkpt>
      <trkpt lat="43.121878" lon="-3.497503">
        <ele>1354.2</ele>
        <time>2011-04-10T08:53:50Z</time>
      </trkpt>
      <trkpt lat="43.121749" lon="-3.497368">
        <ele>1350.8</ele>
        <time>2011-04-10T08:54:01Z</time>
      </trkpt>
      <trkpt lat="43.121699" lon="-3.497333">
        <ele>1349.8</ele>
        <time>2011-04-10T08:54:04Z</time>
      </trkpt>
      <trkpt lat="43.121697" lon="-3.497179">
        <ele>1348.9</ele>
        <time>2011-04-10T08:54:11Z</time>
      </trkpt>
      <trkpt lat="43.121713" lon="-3.497142">
        <ele>1347.9</ele>
        <time>2011-04-10T08:54:13Z</time>
      </trkpt>
      <trkpt lat="43.121801" lon="-3.496935">
        <ele>1347.4</ele>
        <time>2011-04-10T08:54:24Z</time>
      </trkpt>
      <trkpt lat="43.121870" lon="-3.496796">
        <ele>1344.5</ele>
        <time>2011-04-10T08:54:31Z</time>
      </trkpt>
      <trkpt lat="43.121882" lon="-3.496779">
        <ele>1345.5</ele>
        <time>2011-04-10T08:54:32Z</time>
      </trkpt>
      <trkpt lat="43.121906" lon="-3.496740">
        <ele>1346.9</ele>
        <time>2011-04-10T08:54:34Z</time>
      </trkpt>
      <trkpt lat="43.121918" lon="-3.496720">
        <ele>1343.6</ele>
        <time>2011-04-10T08:54:35Z</time>
      </trkpt>
      <trkpt lat="43.121929" lon="-3.496700">
        <ele>1345.5</ele>
        <time>2011-04-10T08:54:36Z</time>
      </trkpt>
      <trkpt lat="43.121955" lon="-3.496657">
        <ele>1346.5</ele>
        <time>2011-04-10T08:54:38Z</time>
      </trkpt>
      <trkpt lat="43.122017" lon="-3.496521">
        <ele>1345.0</ele>
        <time>2011-04-10T08:54:44Z</time>
      </trkpt>
      <trkpt lat="43.121923" lon="-3.496378">
        <ele>1343.6</ele>
        <time>2011-04-10T08:54:51Z</time>
      </trkpt>
      <trkpt lat="43.121847" lon="-3.496256">
        <ele>1340.2</ele>
        <time>2011-04-10T08:54:58Z</time>
      </trkpt>
      <trkpt lat="43.121840" lon="-3.496237">
        <ele>1340.2</ele>
        <time>2011-04-10T08:54:59Z</time>
      </trkpt>
      <trkpt lat="43.121752" lon="-3.496024">
        <ele>1336.9</ele>
        <time>2011-04-10T08:55:11Z</time>
      </trkpt>
      <trkpt lat="43.121736" lon="-3.495989">
        <ele>1335.9</ele>
        <time>2011-04-10T08:55:13Z</time>
      </trkpt>
      <trkpt lat="43.121657" lon="-3.495814">
        <ele>1332.0</ele>
        <time>2011-04-10T08:55:24Z</time>
      </trkpt>
      <trkpt lat="43.121639" lon="-3.495781">
        <ele>1330.6</ele>
        <time>2011-04-10T08:55:26Z</time>
      </trkpt>
      <trkpt lat="43.121592" lon="-3.495683">
        <ele>1328.7</ele>
        <time>2011-04-10T08:55:32Z</time>
      </trkpt>
      <trkpt lat="43.121599" lon="-3.495555">
        <ele>1326.3</ele>
        <time>2011-04-10T08:55:38Z</time>
      </trkpt>
      <trkpt lat="43.121550" lon="-3.495369">
        <ele>1322.9</ele>
        <time>2011-04-10T08:55:48Z</time>
      </trkpt>
      <trkpt lat="43.121566" lon="-3.495276">
        <ele>1321.5</ele>
        <time>2011-04-10T08:55:53Z</time>
      </trkpt>
      <trkpt lat="43.121646" lon="-3.494964">
        <ele>1322.4</ele>
        <time>2011-04-10T08:56:08Z</time>
      </trkpt>
      <trkpt lat="43.121655" lon="-3.494560">
        <ele>1321.5</ele>
        <time>2011-04-10T08:56:26Z</time>
      </trkpt>
      <trkpt lat="43.121565" lon="-3.494162">
        <ele>1318.6</ele>
        <time>2011-04-10T08:56:44Z</time>
      </trkpt>
      <trkpt lat="43.121525" lon="-3.493956">
        <ele>1319.5</ele>
        <time>2011-04-10T08:56:53Z</time>
      </trkpt>
      <trkpt lat="43.121516" lon="-3.493920">
        <ele>1318.6</ele>
        <time>2011-04-10T08:56:55Z</time>
      </trkpt>
      <trkpt lat="43.121459" lon="-3.493559">
        <ele>1315.7</ele>
        <time>2011-04-10T08:57:12Z</time>
      </trkpt>
      <trkpt lat="43.121416" lon="-3.493269">
        <ele>1315.7</ele>
        <time>2011-04-10T08:57:25Z</time>
      </trkpt>
      <trkpt lat="43.121407" lon="-3.493148">
        <ele>1314.3</ele>
        <time>2011-04-10T08:57:30Z</time>
      </trkpt>
      <trkpt lat="43.121356" lon="-3.492777">
        <ele>1314.7</ele>
        <time>2011-04-10T08:57:46Z</time>
      </trkpt>
      <trkpt lat="43.121243" lon="-3.492340">
        <ele>1312.8</ele>
        <time>2011-04-10T08:58:05Z</time>
      </trkpt>
      <trkpt lat="43.121117" lon="-3.491858">
        <ele>1311.4</ele>
        <time>2011-04-10T08:58:26Z</time>
      </trkpt>
      <trkpt lat="43.121016" lon="-3.491401">
        <ele>1310.4</ele>
        <time>2011-04-10T08:58:45Z</time>
      </trkpt>
      <trkpt lat="43.120969" lon="-3.491163">
        <ele>1307.0</ele>
        <time>2011-04-10T08:58:55Z</time>
      </trkpt>
      <trkpt lat="43.120913" lon="-3.490853">
        <ele>1305.1</ele>
        <time>2011-04-10T08:59:08Z</time>
      </trkpt>
      <trkpt lat="43.120909" lon="-3.490828">
        <ele>1305.1</ele>
        <time>2011-04-10T08:59:09Z</time>
      </trkpt>
      <trkpt lat="43.120901" lon="-3.490752">
        <ele>1299.8</ele>
        <time>2011-04-10T08:59:12Z</time>
      </trkpt>
      <trkpt lat="43.120898" lon="-3.490728">
        <ele>1301.3</ele>
        <time>2011-04-10T08:59:13Z</time>
      </trkpt>
      <trkpt lat="43.120894" lon="-3.490702">
        <ele>1313.3</ele>
        <time>2011-04-10T08:59:14Z</time>
      </trkpt>
      <trkpt lat="43.120891" lon="-3.490677">
        <ele>1306.1</ele>
        <time>2011-04-10T08:59:15Z</time>
      </trkpt>
      <trkpt lat="43.120876" lon="-3.490598">
        <ele>1303.7</ele>
        <time>2011-04-10T08:59:18Z</time>
      </trkpt>
      <trkpt lat="43.120768" lon="-3.489999">
        <ele>1303.7</ele>
        <time>2011-04-10T08:59:39Z</time>
      </trkpt>
      <trkpt lat="43.120689" lon="-3.489487">
        <ele>1303.2</ele>
        <time>2011-04-10T08:59:55Z</time>
      </trkpt>
      <trkpt lat="43.120655" lon="-3.489154">
        <ele>1300.8</ele>
        <time>2011-04-10T09:00:05Z</time>
      </trkpt>
      <trkpt lat="43.120634" lon="-3.488914">
        <ele>1297.4</ele>
        <time>2011-04-10T09:00:12Z</time>
      </trkpt>
      <trkpt lat="43.120633" lon="-3.488879">
        <ele>1300.3</ele>
        <time>2011-04-10T09:00:13Z</time>
      </trkpt>
      <trkpt lat="43.120604" lon="-3.488570">
        <ele>1296.5</ele>
        <time>2011-04-10T09:00:22Z</time>
      </trkpt>
      <trkpt lat="43.120597" lon="-3.488537">
        <ele>1296.5</ele>
        <time>2011-04-10T09:00:23Z</time>
      </trkpt>
      <trkpt lat="43.120577" lon="-3.488417">
        <ele>1294.1</ele>
        <time>2011-04-10T09:00:26Z</time>
      </trkpt>
      <trkpt lat="43.120558" lon="-3.488117">
        <ele>1292.6</ele>
        <time>2011-04-10T09:00:35Z</time>
      </trkpt>
      <trkpt lat="43.120555" lon="-3.488011">
        <ele>1287.3</ele>
        <time>2011-04-10T09:00:38Z</time>
      </trkpt>
      <trkpt lat="43.120553" lon="-3.487976">
        <ele>1297.4</ele>
        <time>2011-04-10T09:00:39Z</time>
      </trkpt>
      <trkpt lat="43.120552" lon="-3.487941">
        <ele>1297.4</ele>
        <time>2011-04-10T09:00:40Z</time>
      </trkpt>
      <trkpt lat="43.120549" lon="-3.487905">
        <ele>1292.6</ele>
        <time>2011-04-10T09:00:41Z</time>
      </trkpt>
      <trkpt lat="43.120545" lon="-3.487870">
        <ele>1292.1</ele>
        <time>2011-04-10T09:00:42Z</time>
      </trkpt>
      <trkpt lat="43.120516" lon="-3.487497">
        <ele>1289.3</ele>
        <time>2011-04-10T09:00:52Z</time>
      </trkpt>
      <trkpt lat="43.120476" lon="-3.487007">
        <ele>1288.3</ele>
        <time>2011-04-10T09:01:05Z</time>
      </trkpt>
      <trkpt lat="43.120409" lon="-3.486348">
        <ele>1286.9</ele>
        <time>2011-04-10T09:01:23Z</time>
      </trkpt>
      <trkpt lat="43.120366" lon="-3.485740">
        <ele>1284.9</ele>
        <time>2011-04-10T09:01:40Z</time>
      </trkpt>
      <trkpt lat="43.120322" lon="-3.485127">
        <ele>1281.6</ele>
        <time>2011-04-10T09:01:57Z</time>
      </trkpt>
      <trkpt lat="43.120280" lon="-3.484653">
        <ele>1280.6</ele>
        <time>2011-04-10T09:02:11Z</time>
      </trkpt>
      <trkpt lat="43.120133" lon="-3.484067">
        <ele>1278.2</ele>
        <time>2011-04-10T09:02:27Z</time>
      </trkpt>
      <trkpt lat="43.120046" lon="-3.483945">
        <ele>1276.3</ele>
        <time>2011-04-10T09:02:31Z</time>
      </trkpt>
      <trkpt lat="43.119891" lon="-3.483805">
        <ele>1273.4</ele>
        <time>2011-04-10T09:02:37Z</time>
      </trkpt>
      <trkpt lat="43.119570" lon="-3.483680">
        <ele>1270.5</ele>
        <time>2011-04-10T09:02:48Z</time>
      </trkpt>
      <trkpt lat="43.119290" lon="-3.483756">
        <ele>1266.7</ele>
        <time>2011-04-10T09:02:58Z</time>
      </trkpt>
      <trkpt lat="43.119237" lon="-3.483795">
        <ele>1265.7</ele>
        <time>2011-04-10T09:03:00Z</time>
      </trkpt>
      <trkpt lat="43.119042" lon="-3.484100">
        <ele>1262.8</ele>
        <time>2011-04-10T09:03:10Z</time>
      </trkpt>
      <trkpt lat="43.118983" lon="-3.484281">
        <ele>1261.4</ele>
        <time>2011-04-10T09:03:15Z</time>
      </trkpt>
      <trkpt lat="43.118866" lon="-3.484494">
        <ele>1259.5</ele>
        <time>2011-04-10T09:03:22Z</time>
      </trkpt>
      <trkpt lat="43.118777" lon="-3.484467">
        <ele>1256.6</ele>
        <time>2011-04-10T09:03:26Z</time>
      </trkpt>
      <trkpt lat="43.118736" lon="-3.484425">
        <ele>1254.7</ele>
        <time>2011-04-10T09:03:28Z</time>
      </trkpt>
      <trkpt lat="43.118668" lon="-3.484330">
        <ele>1250.8</ele>
        <time>2011-04-10T09:03:32Z</time>
      </trkpt>
      <trkpt lat="43.118650" lon="-3.484313">
        <ele>1250.8</ele>
        <time>2011-04-10T09:03:33Z</time>
      </trkpt>
      <trkpt lat="43.118541" lon="-3.484222">
        <ele>1248.4</ele>
        <time>2011-04-10T09:03:39Z</time>
      </trkpt>
      <trkpt lat="43.118413" lon="-3.484179">
        <ele>1245.0</ele>
        <time>2011-04-10T09:03:45Z</time>
      </trkpt>
      <trkpt lat="43.118321" lon="-3.484118">
        <ele>1242.2</ele>
        <time>2011-04-10T09:03:49Z</time>
      </trkpt>
      <trkpt lat="43.118153" lon="-3.483976">
        <ele>1239.3</ele>
        <time>2011-04-10T09:03:57Z</time>
      </trkpt>
      <trkpt lat="43.118112" lon="-3.483933">
        <ele>1238.3</ele>
        <time>2011-04-10T09:03:59Z</time>
      </trkpt>
      <trkpt lat="43.118047" lon="-3.483876">
        <ele>1236.4</ele>
        <time>2011-04-10T09:04:02Z</time>
      </trkpt>
      <trkpt lat="43.117987" lon="-3.483817">
        <ele>1235.0</ele>
        <time>2011-04-10T09:04:05Z</time>
      </trkpt>
      <trkpt lat="43.117891" lon="-3.483762">
        <ele>1232.1</ele>
        <time>2011-04-10T09:04:09Z</time>
      </trkpt>
      <trkpt lat="43.117869" lon="-3.483752">
        <ele>1231.6</ele>
        <time>2011-04-10T09:04:10Z</time>
      </trkpt>
      <trkpt lat="43.117719" lon="-3.483581">
        <ele>1227.3</ele>
        <time>2011-04-10T09:04:17Z</time>
      </trkpt>
      <trkpt lat="43.117697" lon="-3.483549">
        <ele>1227.7</ele>
        <time>2011-04-10T09:04:18Z</time>
      </trkpt>
      <trkpt lat="43.117451" lon="-3.483313">
        <ele>1223.4</ele>
        <time>2011-04-10T09:04:28Z</time>
      </trkpt>
      <trkpt lat="43.117253" lon="-3.483199">
        <ele>1219.6</ele>
        <time>2011-04-10T09:04:36Z</time>
      </trkpt>
      <trkpt lat="43.117231" lon="-3.483189">
        <ele>1219.6</ele>
        <time>2011-04-10T09:04:37Z</time>
      </trkpt>
      <trkpt lat="43.117067" lon="-3.483069">
        <ele>1216.2</ele>
        <time>2011-04-10T09:04:44Z</time>
      </trkpt>
      <trkpt lat="43.116993" lon="-3.483019">
        <ele>1214.8</ele>
        <time>2011-04-10T09:04:47Z</time>
      </trkpt>
      <trkpt lat="43.116743" lon="-3.482840">
        <ele>1211.4</ele>
        <time>2011-04-10T09:04:57Z</time>
      </trkpt>
      <trkpt lat="43.116700" lon="-3.482721">
        <ele>1210.0</ele>
        <time>2011-04-10T09:05:00Z</time>
      </trkpt>
      <trkpt lat="43.116689" lon="-3.482635">
        <ele>1208.5</ele>
        <time>2011-04-10T09:05:02Z</time>
      </trkpt>
      <trkpt lat="43.116654" lon="-3.482308">
        <ele>1205.1</ele>
        <time>2011-04-10T09:05:11Z</time>
      </trkpt>
      <trkpt lat="43.116624" lon="-3.482249">
        <ele>1204.2</ele>
        <time>2011-04-10T09:05:13Z</time>
      </trkpt>
      <trkpt lat="43.116606" lon="-3.482222">
        <ele>1203.2</ele>
        <time>2011-04-10T09:05:14Z</time>
      </trkpt>
      <trkpt lat="43.116593" lon="-3.482167">
        <ele>1202.7</ele>
        <time>2011-04-10T09:05:16Z</time>
      </trkpt>
      <trkpt lat="43.116554" lon="-3.482039">
        <ele>1200.3</ele>
        <time>2011-04-10T09:05:21Z</time>
      </trkpt>
      <trkpt lat="43.116455" lon="-3.481948">
        <ele>1198.9</ele>
        <time>2011-04-10T09:05:26Z</time>
      </trkpt>
      <trkpt lat="43.116300" lon="-3.481742">
        <ele>1196.0</ele>
        <time>2011-04-10T09:05:35Z</time>
      </trkpt>
      <trkpt lat="43.116273" lon="-3.481698">
        <ele>1195.5</ele>
        <time>2011-04-10T09:05:37Z</time>
      </trkpt>
      <trkpt lat="43.116241" lon="-3.481582">
        <ele>1194.6</ele>
        <time>2011-04-10T09:05:41Z</time>
      </trkpt>
      <trkpt lat="43.116188" lon="-3.481449">
        <ele>1191.7</ele>
        <time>2011-04-10T09:05:46Z</time>
      </trkpt>
      <trkpt lat="43.116201" lon="-3.481336">
        <ele>1187.4</ele>
        <time>2011-04-10T09:05:51Z</time>
      </trkpt>
      <trkpt lat="43.116201" lon="-3.481321">
        <ele>1191.7</ele>
        <time>2011-04-10T09:05:52Z</time>
      </trkpt>
      <trkpt lat="43.116202" lon="-3.481305">
        <ele>1188.3</ele>
        <time>2011-04-10T09:05:53Z</time>
      </trkpt>
      <trkpt lat="43.116188" lon="-3.481283">
        <ele>1188.8</ele>
        <time>2011-04-10T09:05:55Z</time>
      </trkpt>
      <trkpt lat="43.116164" lon="-3.481271">
        <ele>1187.8</ele>
        <time>2011-04-10T09:05:57Z</time>
      </trkpt>
      <trkpt lat="43.116133" lon="-3.481224">
        <ele>1184.5</ele>
        <time>2011-04-10T09:05:59Z</time>
      </trkpt>
      <trkpt lat="43.116121" lon="-3.481197">
        <ele>1189.3</ele>
        <time>2011-04-10T09:06:00Z</time>
      </trkpt>
      <trkpt lat="43.116093" lon="-3.481151">
        <ele>1185.9</ele>
        <time>2011-04-10T09:06:02Z</time>
      </trkpt>
      <trkpt lat="43.116084" lon="-3.481121">
        <ele>1185.4</ele>
        <time>2011-04-10T09:06:03Z</time>
      </trkpt>
      <trkpt lat="43.116072" lon="-3.480977">
        <ele>1185.0</ele>
        <time>2011-04-10T09:06:08Z</time>
      </trkpt>
      <trkpt lat="43.115981" lon="-3.480838">
        <ele>1181.1</ele>
        <time>2011-04-10T09:06:14Z</time>
      </trkpt>
      <trkpt lat="43.115962" lon="-3.480814">
        <ele>1181.1</ele>
        <time>2011-04-10T09:06:15Z</time>
      </trkpt>
      <trkpt lat="43.115861" lon="-3.480669">
        <ele>1178.7</ele>
        <time>2011-04-10T09:06:21Z</time>
      </trkpt>
      <trkpt lat="43.115812" lon="-3.480556">
        <ele>1176.8</ele>
        <time>2011-04-10T09:06:25Z</time>
      </trkpt>
      <trkpt lat="43.115800" lon="-3.480523">
        <ele>1176.8</ele>
        <time>2011-04-10T09:06:26Z</time>
      </trkpt>
      <trkpt lat="43.115699" lon="-3.480416">
        <ele>1174.9</ele>
        <time>2011-04-10T09:06:31Z</time>
      </trkpt>
      <trkpt lat="43.115498" lon="-3.480250">
        <ele>1170.1</ele>
        <time>2011-04-10T09:06:40Z</time>
      </trkpt>
      <trkpt lat="43.115476" lon="-3.480228">
        <ele>1170.5</ele>
        <time>2011-04-10T09:06:41Z</time>
      </trkpt>
      <trkpt lat="43.115290" lon="-3.479959">
        <ele>1167.2</ele>
        <time>2011-04-10T09:06:51Z</time>
      </trkpt>
      <trkpt lat="43.115169" lon="-3.479866">
        <ele>1165.7</ele>
        <time>2011-04-10T09:06:56Z</time>
      </trkpt>
      <trkpt lat="43.115048" lon="-3.479839">
        <ele>1163.8</ele>
        <time>2011-04-10T09:07:01Z</time>
      </trkpt>
      <trkpt lat="43.114986" lon="-3.479754">
        <ele>1162.4</ele>
        <time>2011-04-10T09:07:04Z</time>
      </trkpt>
      <trkpt lat="43.114902" lon="-3.479564">
        <ele>1158.5</ele>
        <time>2011-04-10T09:07:09Z</time>
      </trkpt>
      <trkpt lat="43.114775" lon="-3.479255">
        <ele>1156.6</ele>
        <time>2011-04-10T09:07:17Z</time>
      </trkpt>
      <trkpt lat="43.114742" lon="-3.479181">
        <ele>1154.7</ele>
        <time>2011-04-10T09:07:19Z</time>
      </trkpt>
      <trkpt lat="43.114640" lon="-3.478955">
        <ele>1151.8</ele>
        <time>2011-04-10T09:07:25Z</time>
      </trkpt>
      <trkpt lat="43.114578" lon="-3.478780">
        <ele>1150.4</ele>
        <time>2011-04-10T09:07:29Z</time>
      </trkpt>
      <trkpt lat="43.114530" lon="-3.478649">
        <ele>1147.0</ele>
        <time>2011-04-10T09:07:32Z</time>
      </trkpt>
      <trkpt lat="43.114510" lon="-3.478605">
        <ele>1146.5</ele>
        <time>2011-04-10T09:07:33Z</time>
      </trkpt>
      <trkpt lat="43.114409" lon="-3.478331">
        <ele>1144.6</ele>
        <time>2011-04-10T09:07:39Z</time>
      </trkpt>
      <trkpt lat="43.114360" lon="-3.478143">
        <ele>1141.7</ele>
        <time>2011-04-10T09:07:43Z</time>
      </trkpt>
      <trkpt lat="43.114308" lon="-3.477924">
        <ele>1137.4</ele>
        <time>2011-04-10T09:07:48Z</time>
      </trkpt>
      <trkpt lat="43.114298" lon="-3.477881">
        <ele>1138.3</ele>
        <time>2011-04-10T09:07:49Z</time>
      </trkpt>
      <trkpt lat="43.114266" lon="-3.477757">
        <ele>1136.9</ele>
        <time>2011-04-10T09:07:52Z</time>
      </trkpt>
      <trkpt lat="43.114241" lon="-3.477642">
        <ele>1135.5</ele>
        <time>2011-04-10T09:07:55Z</time>
      </trkpt>
      <trkpt lat="43.114220" lon="-3.477405">
        <ele>1133.5</ele>
        <time>2011-04-10T09:08:01Z</time>
      </trkpt>
      <trkpt lat="43.114233" lon="-3.477120">
        <ele>1129.7</ele>
        <time>2011-04-10T09:08:08Z</time>
      </trkpt>
      <trkpt lat="43.114240" lon="-3.477080">
        <ele>1129.7</ele>
        <time>2011-04-10T09:08:09Z</time>
      </trkpt>
      <trkpt lat="43.114262" lon="-3.476960">
        <ele>1126.8</ele>
        <time>2011-04-10T09:08:12Z</time>
      </trkpt>
      <trkpt lat="43.114334" lon="-3.476748">
        <ele>1124.4</ele>
        <time>2011-04-10T09:08:18Z</time>
      </trkpt>
      <trkpt lat="43.114405" lon="-3.476539">
        <ele>1121.5</ele>
        <time>2011-04-10T09:08:24Z</time>
      </trkpt>
      <trkpt lat="43.114422" lon="-3.476423">
        <ele>1119.6</ele>
        <time>2011-04-10T09:08:27Z</time>
      </trkpt>
      <trkpt lat="43.114425" lon="-3.476347">
        <ele>1117.7</ele>
        <time>2011-04-10T09:08:29Z</time>
      </trkpt>
      <trkpt lat="43.114396" lon="-3.476127">
        <ele>1114.8</ele>
        <time>2011-04-10T09:08:35Z</time>
      </trkpt>
      <trkpt lat="43.114369" lon="-3.476010">
        <ele>1113.3</ele>
        <time>2011-04-10T09:08:38Z</time>
      </trkpt>
      <trkpt lat="43.114349" lon="-3.475878">
        <ele>1110.9</ele>
        <time>2011-04-10T09:08:41Z</time>
      </trkpt>
      <trkpt lat="43.114280" lon="-3.475725">
        <ele>1107.6</ele>
        <time>2011-04-10T09:08:45Z</time>
      </trkpt>
      <trkpt lat="43.114228" lon="-3.475626">
        <ele>1105.7</ele>
        <time>2011-04-10T09:08:48Z</time>
      </trkpt>
      <trkpt lat="43.114098" lon="-3.475373">
        <ele>1102.3</ele>
        <time>2011-04-10T09:08:56Z</time>
      </trkpt>
      <trkpt lat="43.114062" lon="-3.475313">
        <ele>1099.9</ele>
        <time>2011-04-10T09:08:58Z</time>
      </trkpt>
      <trkpt lat="43.113956" lon="-3.475121">
        <ele>1097.0</ele>
        <time>2011-04-10T09:09:04Z</time>
      </trkpt>
      <trkpt lat="43.113837" lon="-3.474956">
        <ele>1093.6</ele>
        <time>2011-04-10T09:09:10Z</time>
      </trkpt>
      <trkpt lat="43.113739" lon="-3.474815">
        <ele>1089.8</ele>
        <time>2011-04-10T09:09:15Z</time>
      </trkpt>
      <trkpt lat="43.113630" lon="-3.474653">
        <ele>1086.4</ele>
        <time>2011-04-10T09:09:21Z</time>
      </trkpt>
      <trkpt lat="43.113612" lon="-3.474626">
        <ele>1086.4</ele>
        <time>2011-04-10T09:09:22Z</time>
      </trkpt>
      <trkpt lat="43.113574" lon="-3.474574">
        <ele>1085.0</ele>
        <time>2011-04-10T09:09:24Z</time>
      </trkpt>
      <trkpt lat="43.113504" lon="-3.474465">
        <ele>1081.6</ele>
        <time>2011-04-10T09:09:28Z</time>
      </trkpt>
      <trkpt lat="43.113426" lon="-3.474372">
        <ele>1079.7</ele>
        <time>2011-04-10T09:09:32Z</time>
      </trkpt>
      <trkpt lat="43.113313" lon="-3.474234">
        <ele>1078.3</ele>
        <time>2011-04-10T09:09:38Z</time>
      </trkpt>
      <trkpt lat="43.113252" lon="-3.474178">
        <ele>1075.9</ele>
        <time>2011-04-10T09:09:41Z</time>
      </trkpt>
      <trkpt lat="43.113215" lon="-3.474134">
        <ele>1074.4</ele>
        <time>2011-04-10T09:09:43Z</time>
      </trkpt>
      <trkpt lat="43.113095" lon="-3.474005">
        <ele>1070.6</ele>
        <time>2011-04-10T09:09:49Z</time>
      </trkpt>
      <trkpt lat="43.113075" lon="-3.473980">
        <ele>1070.6</ele>
        <time>2011-04-10T09:09:50Z</time>
      </trkpt>
      <trkpt lat="43.112997" lon="-3.473877">
        <ele>1067.7</ele>
        <time>2011-04-10T09:09:54Z</time>
      </trkpt>
      <trkpt lat="43.112979" lon="-3.473852">
        <ele>1067.7</ele>
        <time>2011-04-10T09:09:55Z</time>
      </trkpt>
      <trkpt lat="43.112872" lon="-3.473701">
        <ele>1064.3</ele>
        <time>2011-04-10T09:10:01Z</time>
      </trkpt>
      <trkpt lat="43.112801" lon="-3.473591">
        <ele>1061.4</ele>
        <time>2011-04-10T09:10:05Z</time>
      </trkpt>
      <trkpt lat="43.112714" lon="-3.473446">
        <ele>1058.1</ele>
        <time>2011-04-10T09:10:10Z</time>
      </trkpt>
      <trkpt lat="43.112617" lon="-3.473272">
        <ele>1054.7</ele>
        <time>2011-04-10T09:10:16Z</time>
      </trkpt>
      <trkpt lat="43.112595" lon="-3.473202">
        <ele>1053.7</ele>
        <time>2011-04-10T09:10:18Z</time>
      </trkpt>
      <trkpt lat="43.112473" lon="-3.473035">
        <ele>1051.3</ele>
        <time>2011-04-10T09:10:24Z</time>
      </trkpt>
      <trkpt lat="43.112397" lon="-3.472960">
        <ele>1050.4</ele>
        <time>2011-04-10T09:10:27Z</time>
      </trkpt>
      <trkpt lat="43.112323" lon="-3.472879">
        <ele>1046.5</ele>
        <time>2011-04-10T09:10:30Z</time>
      </trkpt>
      <trkpt lat="43.112301" lon="-3.472852">
        <ele>1047.0</ele>
        <time>2011-04-10T09:10:31Z</time>
      </trkpt>
      <trkpt lat="43.112236" lon="-3.472771">
        <ele>1044.6</ele>
        <time>2011-04-10T09:10:34Z</time>
      </trkpt>
      <trkpt lat="43.112156" lon="-3.472649">
        <ele>1043.2</ele>
        <time>2011-04-10T09:10:38Z</time>
      </trkpt>
      <trkpt lat="43.112045" lon="-3.472460">
        <ele>1038.8</ele>
        <time>2011-04-10T09:10:44Z</time>
      </trkpt>
      <trkpt lat="43.111901" lon="-3.472215">
        <ele>1035.5</ele>
        <time>2011-04-10T09:10:52Z</time>
      </trkpt>
      <trkpt lat="43.111871" lon="-3.472144">
        <ele>1034.5</ele>
        <time>2011-04-10T09:10:54Z</time>
      </trkpt>
      <trkpt lat="43.111801" lon="-3.471973">
        <ele>1032.6</ele>
        <time>2011-04-10T09:10:59Z</time>
      </trkpt>
      <trkpt lat="43.111684" lon="-3.471615">
        <ele>1028.7</ele>
        <time>2011-04-10T09:11:09Z</time>
      </trkpt>
      <trkpt lat="43.111580" lon="-3.471373">
        <ele>1025.4</ele>
        <time>2011-04-10T09:11:16Z</time>
      </trkpt>
      <trkpt lat="43.111562" lon="-3.471342">
        <ele>1025.9</ele>
        <time>2011-04-10T09:11:17Z</time>
      </trkpt>
      <trkpt lat="43.111487" lon="-3.471217">
        <ele>1023.0</ele>
        <time>2011-04-10T09:11:21Z</time>
      </trkpt>
      <trkpt lat="43.111452" lon="-3.471153">
        <ele>1022.0</ele>
        <time>2011-04-10T09:11:23Z</time>
      </trkpt>
      <trkpt lat="43.111416" lon="-3.471091">
        <ele>1020.6</ele>
        <time>2011-04-10T09:11:25Z</time>
      </trkpt>
      <trkpt lat="43.111254" lon="-3.470855">
        <ele>1017.2</ele>
        <time>2011-04-10T09:11:33Z</time>
      </trkpt>
      <trkpt lat="43.111236" lon="-3.470826">
        <ele>1017.2</ele>
        <time>2011-04-10T09:11:34Z</time>
      </trkpt>
      <trkpt lat="43.111150" lon="-3.470624">
        <ele>1014.8</ele>
        <time>2011-04-10T09:11:40Z</time>
      </trkpt>
      <trkpt lat="43.111099" lon="-3.470520">
        <ele>1011.0</ele>
        <time>2011-04-10T09:11:43Z</time>
      </trkpt>
      <trkpt lat="43.111079" lon="-3.470491">
        <ele>1011.0</ele>
        <time>2011-04-10T09:11:44Z</time>
      </trkpt>
      <trkpt lat="43.111008" lon="-3.470367">
        <ele>1008.6</ele>
        <time>2011-04-10T09:11:48Z</time>
      </trkpt>
      <trkpt lat="43.110884" lon="-3.470144">
        <ele>1004.2</ele>
        <time>2011-04-10T09:11:55Z</time>
      </trkpt>
      <trkpt lat="43.110866" lon="-3.470112">
        <ele>1003.8</ele>
        <time>2011-04-10T09:11:56Z</time>
      </trkpt>
      <trkpt lat="43.110724" lon="-3.469850">
        <ele>1000.9</ele>
        <time>2011-04-10T09:12:04Z</time>
      </trkpt>
      <trkpt lat="43.110626" lon="-3.469666">
        <ele>997.0</ele>
        <time>2011-04-10T09:12:10Z</time>
      </trkpt>
      <trkpt lat="43.110606" lon="-3.469640">
        <ele>997.5</ele>
        <time>2011-04-10T09:12:11Z</time>
      </trkpt>
      <trkpt lat="43.110440" lon="-3.469399">
        <ele>994.1</ele>
        <time>2011-04-10T09:12:20Z</time>
      </trkpt>
      <trkpt lat="43.110341" lon="-3.469278">
        <ele>991.7</ele>
        <time>2011-04-10T09:12:25Z</time>
      </trkpt>
      <trkpt lat="43.110240" lon="-3.469120">
        <ele>990.3</ele>
        <time>2011-04-10T09:12:30Z</time>
      </trkpt>
      <trkpt lat="43.110114" lon="-3.468928">
        <ele>987.4</ele>
        <time>2011-04-10T09:12:36Z</time>
      </trkpt>
      <trkpt lat="43.109952" lon="-3.468659">
        <ele>984.5</ele>
        <time>2011-04-10T09:12:44Z</time>
      </trkpt>
      <trkpt lat="43.109889" lon="-3.468557">
        <ele>982.6</ele>
        <time>2011-04-10T09:12:47Z</time>
      </trkpt>
      <trkpt lat="43.109768" lon="-3.468367">
        <ele>980.7</ele>
        <time>2011-04-10T09:12:53Z</time>
      </trkpt>
      <trkpt lat="43.109691" lon="-3.468247">
        <ele>977.3</ele>
        <time>2011-04-10T09:12:57Z</time>
      </trkpt>
      <trkpt lat="43.109668" lon="-3.468222">
        <ele>977.8</ele>
        <time>2011-04-10T09:12:58Z</time>
      </trkpt>
      <trkpt lat="43.109567" lon="-3.468022">
        <ele>974.9</ele>
        <time>2011-04-10T09:13:04Z</time>
      </trkpt>
      <trkpt lat="43.109488" lon="-3.467845">
        <ele>973.5</ele>
        <time>2011-04-10T09:13:09Z</time>
      </trkpt>
      <trkpt lat="43.109296" lon="-3.467553">
        <ele>969.6</ele>
        <time>2011-04-10T09:13:19Z</time>
      </trkpt>
      <trkpt lat="43.109241" lon="-3.467460">
        <ele>967.7</ele>
        <time>2011-04-10T09:13:22Z</time>
      </trkpt>
      <trkpt lat="43.109125" lon="-3.467285">
        <ele>964.8</ele>
        <time>2011-04-10T09:13:28Z</time>
      </trkpt>
      <trkpt lat="43.109068" lon="-3.467250">
        <ele>963.4</ele>
        <time>2011-04-10T09:13:30Z</time>
      </trkpt>
      <trkpt lat="43.108972" lon="-3.467226">
        <ele>961.9</ele>
        <time>2011-04-10T09:13:33Z</time>
      </trkpt>
      <trkpt lat="43.108824" lon="-3.467249">
        <ele>958.6</ele>
        <time>2011-04-10T09:13:38Z</time>
      </trkpt>
      <trkpt lat="43.108794" lon="-3.467263">
        <ele>958.6</ele>
        <time>2011-04-10T09:13:39Z</time>
      </trkpt>
      <trkpt lat="43.108655" lon="-3.467364">
        <ele>955.2</ele>
        <time>2011-04-10T09:13:44Z</time>
      </trkpt>
      <trkpt lat="43.108631" lon="-3.467388">
        <ele>955.2</ele>
        <time>2011-04-10T09:13:45Z</time>
      </trkpt>
      <trkpt lat="43.108416" lon="-3.467578">
        <ele>951.8</ele>
        <time>2011-04-10T09:13:54Z</time>
      </trkpt>
      <trkpt lat="43.108212" lon="-3.467772">
        <ele>949.0</ele>
        <time>2011-04-10T09:14:03Z</time>
      </trkpt>
      <trkpt lat="43.107933" lon="-3.467980">
        <ele>945.6</ele>
        <time>2011-04-10T09:14:14Z</time>
      </trkpt>
      <trkpt lat="43.107821" lon="-3.468014">
        <ele>942.7</ele>
        <time>2011-04-10T09:14:18Z</time>
      </trkpt>
      <trkpt lat="43.107793" lon="-3.468023">
        <ele>942.7</ele>
        <time>2011-04-10T09:14:19Z</time>
      </trkpt>
      <trkpt lat="43.107601" lon="-3.468036">
        <ele>937.9</ele>
        <time>2011-04-10T09:14:26Z</time>
      </trkpt>
      <trkpt lat="43.107571" lon="-3.468032">
        <ele>944.6</ele>
        <time>2011-04-10T09:14:27Z</time>
      </trkpt>
      <trkpt lat="43.107543" lon="-3.468028">
        <ele>944.6</ele>
        <time>2011-04-10T09:14:28Z</time>
      </trkpt>
      <trkpt lat="43.107513" lon="-3.468027">
        <ele>939.8</ele>
        <time>2011-04-10T09:14:29Z</time>
      </trkpt>
      <trkpt lat="43.107483" lon="-3.468021">
        <ele>939.8</ele>
        <time>2011-04-10T09:14:30Z</time>
      </trkpt>
      <trkpt lat="43.107317" lon="-3.467931">
        <ele>937.9</ele>
        <time>2011-04-10T09:14:36Z</time>
      </trkpt>
      <trkpt lat="43.107264" lon="-3.467888">
        <ele>935.5</ele>
        <time>2011-04-10T09:14:38Z</time>
      </trkpt>
      <trkpt lat="43.107193" lon="-3.467826">
        <ele>933.6</ele>
        <time>2011-04-10T09:14:41Z</time>
      </trkpt>
      <trkpt lat="43.107074" lon="-3.467612">
        <ele>929.7</ele>
        <time>2011-04-10T09:14:48Z</time>
      </trkpt>
      <trkpt lat="43.107022" lon="-3.467525">
        <ele>928.3</ele>
        <time>2011-04-10T09:14:51Z</time>
      </trkpt>
      <trkpt lat="43.106934" lon="-3.467340">
        <ele>924.9</ele>
        <time>2011-04-10T09:14:57Z</time>
      </trkpt>
      <trkpt lat="43.106883" lon="-3.467202">
        <ele>923.0</ele>
        <time>2011-04-10T09:15:01Z</time>
      </trkpt>
      <trkpt lat="43.106825" lon="-3.466841">
        <ele>920.6</ele>
        <time>2011-04-10T09:15:10Z</time>
      </trkpt>
      <trkpt lat="43.106798" lon="-3.466730">
        <ele>918.2</ele>
        <time>2011-04-10T09:15:13Z</time>
      </trkpt>
      <trkpt lat="43.106712" lon="-3.466344">
        <ele>914.8</ele>
        <time>2011-04-10T09:15:23Z</time>
      </trkpt>
      <trkpt lat="43.106657" lon="-3.466047">
        <ele>911.0</ele>
        <time>2011-04-10T09:15:31Z</time>
      </trkpt>
      <trkpt lat="43.106646" lon="-3.466006">
        <ele>910.5</ele>
        <time>2011-04-10T09:15:32Z</time>
      </trkpt>
      <trkpt lat="43.106567" lon="-3.465756">
        <ele>907.1</ele>
        <time>2011-04-10T09:15:39Z</time>
      </trkpt>
      <trkpt lat="43.106520" lon="-3.465569">
        <ele>904.7</ele>
        <time>2011-04-10T09:15:44Z</time>
      </trkpt>
      <trkpt lat="43.106458" lon="-3.465267">
        <ele>900.9</ele>
        <time>2011-04-10T09:15:52Z</time>
      </trkpt>
      <trkpt lat="43.106405" lon="-3.464832">
        <ele>897.5</ele>
        <time>2011-04-10T09:16:03Z</time>
      </trkpt>
      <trkpt lat="43.106391" lon="-3.464750">
        <ele>896.1</ele>
        <time>2011-04-10T09:16:05Z</time>
      </trkpt>
      <trkpt lat="43.106329" lon="-3.464521">
        <ele>892.2</ele>
        <time>2011-04-10T09:16:11Z</time>
      </trkpt>
      <trkpt lat="43.106317" lon="-3.464484">
        <ele>892.2</ele>
        <time>2011-04-10T09:16:12Z</time>
      </trkpt>
      <trkpt lat="43.106216" lon="-3.464268">
        <ele>889.8</ele>
        <time>2011-04-10T09:16:18Z</time>
      </trkpt>
      <trkpt lat="43.105972" lon="-3.463827">
        <ele>886.5</ele>
        <time>2011-04-10T09:16:32Z</time>
      </trkpt>
      <trkpt lat="43.105680" lon="-3.463306">
        <ele>884.6</ele>
        <time>2011-04-10T09:16:49Z</time>
      </trkpt>
      <trkpt lat="43.105422" lon="-3.462848">
        <ele>883.6</ele>
        <time>2011-04-10T09:17:06Z</time>
      </trkpt>
      <trkpt lat="43.105270" lon="-3.462515">
        <ele>880.2</ele>
        <time>2011-04-10T09:17:17Z</time>
      </trkpt>
      <trkpt lat="43.105256" lon="-3.462487">
        <ele>880.2</ele>
        <time>2011-04-10T09:17:18Z</time>
      </trkpt>
      <trkpt lat="43.105169" lon="-3.462311">
        <ele>877.3</ele>
        <time>2011-04-10T09:17:24Z</time>
      </trkpt>
      <trkpt lat="43.105106" lon="-3.462179">
        <ele>876.4</ele>
        <time>2011-04-10T09:17:28Z</time>
      </trkpt>
      <trkpt lat="43.105054" lon="-3.462083">
        <ele>874.5</ele>
        <time>2011-04-10T09:17:31Z</time>
      </trkpt>
      <trkpt lat="43.104892" lon="-3.461796">
        <ele>870.6</ele>
        <time>2011-04-10T09:17:41Z</time>
      </trkpt>
      <trkpt lat="43.104874" lon="-3.461769">
        <ele>870.6</ele>
        <time>2011-04-10T09:17:42Z</time>
      </trkpt>
      <trkpt lat="43.104744" lon="-3.461582">
        <ele>866.8</ele>
        <time>2011-04-10T09:17:49Z</time>
      </trkpt>
      <trkpt lat="43.104723" lon="-3.461554">
        <ele>867.2</ele>
        <time>2011-04-10T09:17:50Z</time>
      </trkpt>
      <trkpt lat="43.104520" lon="-3.461285">
        <ele>863.9</ele>
        <time>2011-04-10T09:18:00Z</time>
      </trkpt>
      <trkpt lat="43.104356" lon="-3.461042">
        <ele>862.0</ele>
        <time>2011-04-10T09:18:09Z</time>
      </trkpt>
      <trkpt lat="43.104282" lon="-3.460940">
        <ele>858.6</ele>
        <time>2011-04-10T09:18:13Z</time>
      </trkpt>
      <trkpt lat="43.104248" lon="-3.460887">
        <ele>857.6</ele>
        <time>2011-04-10T09:18:15Z</time>
      </trkpt>
      <trkpt lat="43.104099" lon="-3.460643">
        <ele>853.8</ele>
        <time>2011-04-10T09:18:24Z</time>
      </trkpt>
      <trkpt lat="43.104084" lon="-3.460615">
        <ele>854.7</ele>
        <time>2011-04-10T09:18:25Z</time>
      </trkpt>
      <trkpt lat="43.104007" lon="-3.460434">
        <ele>851.4</ele>
        <time>2011-04-10T09:18:31Z</time>
      </trkpt>
      <trkpt lat="43.103979" lon="-3.460371">
        <ele>850.9</ele>
        <time>2011-04-10T09:18:33Z</time>
      </trkpt>
      <trkpt lat="43.103966" lon="-3.460338">
        <ele>849.9</ele>
        <time>2011-04-10T09:18:34Z</time>
      </trkpt>
      <trkpt lat="43.103942" lon="-3.460073">
        <ele>846.6</ele>
        <time>2011-04-10T09:18:41Z</time>
      </trkpt>
      <trkpt lat="43.103926" lon="-3.460001">
        <ele>845.1</ele>
        <time>2011-04-10T09:18:43Z</time>
      </trkpt>
      <trkpt lat="43.103894" lon="-3.459861">
        <ele>843.7</ele>
        <time>2011-04-10T09:18:47Z</time>
      </trkpt>
      <trkpt lat="43.103825" lon="-3.459623">
        <ele>840.8</ele>
        <time>2011-04-10T09:18:54Z</time>
      </trkpt>
      <trkpt lat="43.103727" lon="-3.459294">
        <ele>838.4</ele>
        <time>2011-04-10T09:19:04Z</time>
      </trkpt>
      <trkpt lat="43.103668" lon="-3.459095">
        <ele>835.0</ele>
        <time>2011-04-10T09:19:10Z</time>
      </trkpt>
      <trkpt lat="43.103656" lon="-3.459062">
        <ele>835.0</ele>
        <time>2011-04-10T09:19:11Z</time>
      </trkpt>
      <trkpt lat="43.103600" lon="-3.458937">
        <ele>832.6</ele>
        <time>2011-04-10T09:19:15Z</time>
      </trkpt>
      <trkpt lat="43.103400" lon="-3.458644">
        <ele>829.3</ele>
        <time>2011-04-10T09:19:26Z</time>
      </trkpt>
      <trkpt lat="43.103381" lon="-3.458616">
        <ele>829.3</ele>
        <time>2011-04-10T09:19:27Z</time>
      </trkpt>
      <trkpt lat="43.103175" lon="-3.458328">
        <ele>825.9</ele>
        <time>2011-04-10T09:19:38Z</time>
      </trkpt>
      <trkpt lat="43.103134" lon="-3.458284">
        <ele>824.9</ele>
        <time>2011-04-10T09:19:40Z</time>
      </trkpt>
      <trkpt lat="43.103044" lon="-3.458216">
        <ele>823.5</ele>
        <time>2011-04-10T09:19:44Z</time>
      </trkpt>
      <trkpt lat="43.102853" lon="-3.458091">
        <ele>819.2</ele>
        <time>2011-04-10T09:19:52Z</time>
      </trkpt>
      <trkpt lat="43.102826" lon="-3.458077">
        <ele>819.7</ele>
        <time>2011-04-10T09:19:53Z</time>
      </trkpt>
      <trkpt lat="43.102774" lon="-3.458052">
        <ele>817.7</ele>
        <time>2011-04-10T09:19:55Z</time>
      </trkpt>
      <trkpt lat="43.102525" lon="-3.458023">
        <ele>815.3</ele>
        <time>2011-04-10T09:20:04Z</time>
      </trkpt>
      <trkpt lat="43.102343" lon="-3.458135">
        <ele>812.9</ele>
        <time>2011-04-10T09:20:11Z</time>
      </trkpt>
      <trkpt lat="43.102161" lon="-3.458303">
        <ele>809.6</ele>
        <time>2011-04-10T09:20:19Z</time>
      </trkpt>
      <trkpt lat="43.102139" lon="-3.458318">
        <ele>809.6</ele>
        <time>2011-04-10T09:20:20Z</time>
      </trkpt>
      <trkpt lat="43.102043" lon="-3.458359">
        <ele>807.2</ele>
        <time>2011-04-10T09:20:24Z</time>
      </trkpt>
      <trkpt lat="43.101934" lon="-3.458309">
        <ele>803.8</ele>
        <time>2011-04-10T09:20:29Z</time>
      </trkpt>
      <trkpt lat="43.101833" lon="-3.458117">
        <ele>800.9</ele>
        <time>2011-04-10T09:20:37Z</time>
      </trkpt>
      <trkpt lat="43.101822" lon="-3.458101">
        <ele>800.4</ele>
        <time>2011-04-10T09:20:38Z</time>
      </trkpt>
      <trkpt lat="43.101818" lon="-3.458066">
        <ele>800.4</ele>
        <time>2011-04-10T09:20:54Z</time>
      </trkpt>
      <trkpt lat="43.101824" lon="-3.458048">
        <ele>800.4</ele>
        <time>2011-04-10T09:21:10Z</time>
      </trkpt>
      <trkpt lat="43.101823" lon="-3.458048">
        <ele>800.0</ele>
        <time>2011-04-10T09:21:34Z</time>
      </trkpt>
      <trkpt lat="43.101836" lon="-3.458044">
        <ele>800.0</ele>
        <time>2011-04-10T09:21:39Z</time>
      </trkpt>
      <trkpt lat="43.101918" lon="-3.457962">
        <ele>800.0</ele>
        <time>2011-04-10T09:21:48Z</time>
      </trkpt>
      <trkpt lat="43.101921" lon="-3.457983">
        <ele>800.4</ele>
        <time>2011-04-10T09:22:02Z</time>
      </trkpt>
      <trkpt lat="43.101916" lon="-3.457978">
        <ele>800.0</ele>
        <time>2011-04-10T09:22:22Z</time>
      </trkpt>
      <trkpt lat="43.101917" lon="-3.457981">
        <ele>800.0</ele>
        <time>2011-04-10T09:23:00Z</time>
      </trkpt>
      <trkpt lat="43.101908" lon="-3.457973">
        <ele>800.4</ele>
        <time>2011-04-10T09:23:25Z</time>
      </trkpt>
      <trkpt lat="43.101909" lon="-3.457970">
        <ele>801.4</ele>
        <time>2011-04-10T09:24:32Z</time>
      </trkpt>
      <trkpt lat="43.101900" lon="-3.457976">
        <ele>800.9</ele>
        <time>2011-04-10T09:24:35Z</time>
      </trkpt>
      <trkpt lat="43.101824" lon="-3.458034">
        <ele>800.0</ele>
        <time>2011-04-10T09:24:52Z</time>
      </trkpt>
      <trkpt lat="43.101809" lon="-3.458037">
        <ele>800.4</ele>
        <time>2011-04-10T09:25:04Z</time>
      </trkpt>
      <trkpt lat="43.101815" lon="-3.458041">
        <ele>800.0</ele>
        <time>2011-04-10T09:25:35Z</time>
      </trkpt>
      <trkpt lat="43.101825" lon="-3.458048">
        <ele>799.5</ele>
        <time>2011-04-10T09:26:31Z</time>
      </trkpt>
      <trkpt lat="43.101826" lon="-3.458085">
        <ele>799.5</ele>
        <time>2011-04-10T09:26:44Z</time>
      </trkpt>
      <trkpt lat="43.101856" lon="-3.458094">
        <ele>799.5</ele>
        <time>2011-04-10T09:26:56Z</time>
      </trkpt>
      <trkpt lat="43.101879" lon="-3.458047">
        <ele>799.0</ele>
        <time>2011-04-10T09:27:00Z</time>
      </trkpt>
      <trkpt lat="43.101906" lon="-3.457986">
        <ele>800.4</ele>
        <time>2011-04-10T09:27:11Z</time>
      </trkpt>
      <trkpt lat="43.101878" lon="-3.457991">
        <ele>799.0</ele>
        <time>2011-04-10T09:27:13Z</time>
      </trkpt>
      <trkpt lat="43.101832" lon="-3.458047">
        <ele>798.0</ele>
        <time>2011-04-10T09:27:28Z</time>
      </trkpt>
      <trkpt lat="43.101832" lon="-3.458066">
        <ele>799.5</ele>
        <time>2011-04-10T09:27:43Z</time>
      </trkpt>
      <trkpt lat="43.101851" lon="-3.458021">
        <ele>799.0</ele>
        <time>2011-04-10T09:27:51Z</time>
      </trkpt>
      <trkpt lat="43.101861" lon="-3.457689">
        <ele>797.6</ele>
        <time>2011-04-10T09:28:06Z</time>
      </trkpt>
      <trkpt lat="43.101868" lon="-3.457414">
        <ele>795.6</ele>
        <time>2011-04-10T09:28:17Z</time>
      </trkpt>
      <trkpt lat="43.101886" lon="-3.456888">
        <ele>792.7</ele>
        <time>2011-04-10T09:28:38Z</time>
      </trkpt>
      <trkpt lat="43.101872" lon="-3.456424">
        <ele>788.9</ele>
        <time>2011-04-10T09:28:57Z</time>
      </trkpt>
      <trkpt lat="43.101843" lon="-3.456043">
        <ele>785.5</ele>
        <time>2011-04-10T09:29:12Z</time>
      </trkpt>
      <trkpt lat="43.101816" lon="-3.455717">
        <ele>781.7</ele>
        <time>2011-04-10T09:29:25Z</time>
      </trkpt>
      <trkpt lat="43.101777" lon="-3.455435">
        <ele>778.8</ele>
        <time>2011-04-10T09:29:36Z</time>
      </trkpt>
      <trkpt lat="43.101745" lon="-3.455329">
        <ele>777.8</ele>
        <time>2011-04-10T09:29:40Z</time>
      </trkpt>
      <trkpt lat="43.101722" lon="-3.455276">
        <ele>775.4</ele>
        <time>2011-04-10T09:29:42Z</time>
      </trkpt>
      <trkpt lat="43.101544" lon="-3.455007">
        <ele>772.6</ele>
        <time>2011-04-10T09:29:53Z</time>
      </trkpt>
      <trkpt lat="43.101594" lon="-3.454921">
        <ele>772.6</ele>
        <time>2011-04-10T09:29:58Z</time>
      </trkpt>
      <trkpt lat="43.101775" lon="-3.454896">
        <ele>769.2</ele>
        <time>2011-04-10T09:30:09Z</time>
      </trkpt>
      <trkpt lat="43.101787" lon="-3.454859">
        <ele>769.2</ele>
        <time>2011-04-10T09:30:13Z</time>
      </trkpt>
      <trkpt lat="43.101806" lon="-3.454782">
        <ele>769.2</ele>
        <time>2011-04-10T09:30:18Z</time>
      </trkpt>
      <trkpt lat="43.101890" lon="-3.454646">
        <ele>769.7</ele>
        <time>2011-04-10T09:30:26Z</time>
      </trkpt>
      <trkpt lat="43.101937" lon="-3.454674">
        <ele>769.2</ele>
        <time>2011-04-10T09:30:30Z</time>
      </trkpt>
      <trkpt lat="43.101971" lon="-3.454721">
        <ele>769.7</ele>
        <time>2011-04-10T09:30:33Z</time>
      </trkpt>
      <trkpt lat="43.101998" lon="-3.454740">
        <ele>769.2</ele>
        <time>2011-04-10T09:30:50Z</time>
      </trkpt>
      <trkpt lat="43.101990" lon="-3.454734">
        <ele>769.2</ele>
        <time>2011-04-10T09:31:04Z</time>
      </trkpt>
      <trkpt lat="43.101972" lon="-3.454653">
        <ele>769.7</ele>
        <time>2011-04-10T09:31:09Z</time>
      </trkpt>
      <trkpt lat="43.102053" lon="-3.454468">
        <ele>770.2</ele>
        <time>2011-04-10T09:31:20Z</time>
      </trkpt>
      <trkpt lat="43.102301" lon="-3.454707">
        <ele>771.1</ele>
        <time>2011-04-10T09:31:37Z</time>
      </trkpt>
      <trkpt lat="43.102601" lon="-3.455040">
        <ele>770.6</ele>
        <time>2011-04-10T09:31:59Z</time>
      </trkpt>
      <trkpt lat="43.102958" lon="-3.455273">
        <ele>771.1</ele>
        <time>2011-04-10T09:32:21Z</time>
      </trkpt>
      <trkpt lat="43.103077" lon="-3.455376">
        <ele>772.6</ele>
        <time>2011-04-10T09:32:29Z</time>
      </trkpt>
      <trkpt lat="43.103419" lon="-3.455574">
        <ele>773.5</ele>
        <time>2011-04-10T09:32:50Z</time>
      </trkpt>
      <trkpt lat="43.103794" lon="-3.455593">
        <ele>775.0</ele>
        <time>2011-04-10T09:33:11Z</time>
      </trkpt>
      <trkpt lat="43.104067" lon="-3.455310">
        <ele>774.0</ele>
        <time>2011-04-10T09:33:31Z</time>
      </trkpt>
      <trkpt lat="43.104369" lon="-3.455145">
        <ele>775.0</ele>
        <time>2011-04-10T09:33:50Z</time>
      </trkpt>
      <trkpt lat="43.104301" lon="-3.454708">
        <ele>774.5</ele>
        <time>2011-04-10T09:34:08Z</time>
      </trkpt>
      <trkpt lat="43.104224" lon="-3.454387">
        <ele>773.0</ele>
        <time>2011-04-10T09:34:24Z</time>
      </trkpt>
      <trkpt lat="43.104222" lon="-3.454380">
        <ele>773.0</ele>
        <time>2011-04-10T09:34:25Z</time>
      </trkpt>
      <trkpt lat="43.104240" lon="-3.454365">
        <ele>774.0</ele>
        <time>2011-04-10T09:34:27Z</time>
      </trkpt>
      <trkpt lat="43.104343" lon="-3.454384">
        <ele>773.0</ele>
        <time>2011-04-10T09:34:34Z</time>
      </trkpt>
      <trkpt lat="43.104361" lon="-3.454311">
        <ele>775.4</ele>
        <time>2011-04-10T09:34:39Z</time>
      </trkpt>
      <trkpt lat="43.104277" lon="-3.454011">
        <ele>778.8</ele>
        <time>2011-04-10T09:34:56Z</time>
      </trkpt>
      <trkpt lat="43.104176" lon="-3.453737">
        <ele>782.2</ele>
        <time>2011-04-10T09:35:13Z</time>
      </trkpt>
      <trkpt lat="43.104045" lon="-3.453444">
        <ele>785.5</ele>
        <time>2011-04-10T09:35:32Z</time>
      </trkpt>
      <trkpt lat="43.104051" lon="-3.453430">
        <ele>785.1</ele>
        <time>2011-04-10T09:35:34Z</time>
      </trkpt>
      <trkpt lat="43.104077" lon="-3.453427">
        <ele>786.5</ele>
        <time>2011-04-10T09:35:37Z</time>
      </trkpt>
      <trkpt lat="43.104240" lon="-3.453533">
        <ele>787.0</ele>
        <time>2011-04-10T09:35:51Z</time>
      </trkpt>
      <trkpt lat="43.104434" lon="-3.453677">
        <ele>787.9</ele>
        <time>2011-04-10T09:36:07Z</time>
      </trkpt>
      <trkpt lat="43.104648" lon="-3.453773">
        <ele>790.3</ele>
        <time>2011-04-10T09:36:23Z</time>
      </trkpt>
      <trkpt lat="43.104675" lon="-3.453769">
        <ele>791.8</ele>
        <time>2011-04-10T09:36:25Z</time>
      </trkpt>
      <trkpt lat="43.104777" lon="-3.453762">
        <ele>792.3</ele>
        <time>2011-04-10T09:36:32Z</time>
      </trkpt>
      <trkpt lat="43.104875" lon="-3.453790">
        <ele>794.2</ele>
        <time>2011-04-10T09:36:39Z</time>
      </trkpt>
      <trkpt lat="43.105062" lon="-3.453862">
        <ele>797.6</ele>
        <time>2011-04-10T09:36:53Z</time>
      </trkpt>
      <trkpt lat="43.105362" lon="-3.453931">
        <ele>799.5</ele>
        <time>2011-04-10T09:37:15Z</time>
      </trkpt>
      <trkpt lat="43.105559" lon="-3.453835">
        <ele>802.4</ele>
        <time>2011-04-10T09:37:32Z</time>
      </trkpt>
      <trkpt lat="43.105624" lon="-3.453725">
        <ele>806.2</ele>
        <time>2011-04-10T09:37:41Z</time>
      </trkpt>
      <trkpt lat="43.105658" lon="-3.453662">
        <ele>807.2</ele>
        <time>2011-04-10T09:37:46Z</time>
      </trkpt>
      <trkpt lat="43.105686" lon="-3.453614">
        <ele>808.6</ele>
        <time>2011-04-10T09:37:50Z</time>
      </trkpt>
      <trkpt lat="43.105784" lon="-3.453441">
        <ele>811.5</ele>
        <time>2011-04-10T09:38:05Z</time>
      </trkpt>
      <trkpt lat="43.105891" lon="-3.453227">
        <ele>814.4</ele>
        <time>2011-04-10T09:38:21Z</time>
      </trkpt>
      <trkpt lat="43.105999" lon="-3.452970">
        <ele>817.7</ele>
        <time>2011-04-10T09:38:39Z</time>
      </trkpt>
      <trkpt lat="43.106102" lon="-3.452807">
        <ele>821.1</ele>
        <time>2011-04-10T09:38:52Z</time>
      </trkpt>
      <trkpt lat="43.106221" lon="-3.452600">
        <ele>824.5</ele>
        <time>2011-04-10T09:39:07Z</time>
      </trkpt>
      <trkpt lat="43.106229" lon="-3.452584">
        <ele>824.0</ele>
        <time>2011-04-10T09:39:08Z</time>
      </trkpt>
      <trkpt lat="43.106387" lon="-3.452296">
        <ele>826.9</ele>
        <time>2011-04-10T09:39:28Z</time>
      </trkpt>
      <trkpt lat="43.106550" lon="-3.452050">
        <ele>830.2</ele>
        <time>2011-04-10T09:39:45Z</time>
      </trkpt>
      <trkpt lat="43.106709" lon="-3.451836">
        <ele>832.6</ele>
        <time>2011-04-10T09:40:01Z</time>
      </trkpt>
      <trkpt lat="43.106898" lon="-3.451565">
        <ele>836.0</ele>
        <time>2011-04-10T09:40:23Z</time>
      </trkpt>
      <trkpt lat="43.107030" lon="-3.451359">
        <ele>839.4</ele>
        <time>2011-04-10T09:40:38Z</time>
      </trkpt>
      <trkpt lat="43.107200" lon="-3.451114">
        <ele>842.7</ele>
        <time>2011-04-10T09:40:57Z</time>
      </trkpt>
      <trkpt lat="43.107375" lon="-3.450883">
        <ele>845.1</ele>
        <time>2011-04-10T09:41:17Z</time>
      </trkpt>
      <trkpt lat="43.107394" lon="-3.450858">
        <ele>846.1</ele>
        <time>2011-04-10T09:41:19Z</time>
      </trkpt>
      <trkpt lat="43.107607" lon="-3.450590">
        <ele>849.0</ele>
        <time>2011-04-10T09:41:41Z</time>
      </trkpt>
      <trkpt lat="43.107733" lon="-3.450432">
        <ele>852.3</ele>
        <time>2011-04-10T09:41:54Z</time>
      </trkpt>
      <trkpt lat="43.107942" lon="-3.450224">
        <ele>855.7</ele>
        <time>2011-04-10T09:42:13Z</time>
      </trkpt>
      <trkpt lat="43.108007" lon="-3.450167">
        <ele>857.2</ele>
        <time>2011-04-10T09:42:19Z</time>
      </trkpt>
      <trkpt lat="43.108197" lon="-3.449968">
        <ele>860.5</ele>
        <time>2011-04-10T09:42:37Z</time>
      </trkpt>
      <trkpt lat="43.108366" lon="-3.449739">
        <ele>863.9</ele>
        <time>2011-04-10T09:42:57Z</time>
      </trkpt>
      <trkpt lat="43.108499" lon="-3.449564">
        <ele>867.7</ele>
        <time>2011-04-10T09:43:13Z</time>
      </trkpt>
      <trkpt lat="43.108572" lon="-3.449463">
        <ele>870.6</ele>
        <time>2011-04-10T09:43:22Z</time>
      </trkpt>
      <trkpt lat="43.108611" lon="-3.449406">
        <ele>871.6</ele>
        <time>2011-04-10T09:43:27Z</time>
      </trkpt>
      <trkpt lat="43.108685" lon="-3.449292">
        <ele>874.9</ele>
        <time>2011-04-10T09:43:37Z</time>
      </trkpt>
      <trkpt lat="43.108851" lon="-3.449113">
        <ele>878.3</ele>
        <time>2011-04-10T09:43:56Z</time>
      </trkpt>
      <trkpt lat="43.108940" lon="-3.449026">
        <ele>881.7</ele>
        <time>2011-04-10T09:44:06Z</time>
      </trkpt>
      <trkpt lat="43.109124" lon="-3.448856">
        <ele>884.6</ele>
        <time>2011-04-10T09:44:26Z</time>
      </trkpt>
      <trkpt lat="43.109229" lon="-3.448756">
        <ele>888.4</ele>
        <time>2011-04-10T09:44:38Z</time>
      </trkpt>
      <trkpt lat="43.109346" lon="-3.448646">
        <ele>891.3</ele>
        <time>2011-04-10T09:44:51Z</time>
      </trkpt>
      <trkpt lat="43.109381" lon="-3.448610">
        <ele>891.3</ele>
        <time>2011-04-10T09:44:55Z</time>
      </trkpt>
      <trkpt lat="43.109475" lon="-3.448504">
        <ele>894.2</ele>
        <time>2011-04-10T09:45:06Z</time>
      </trkpt>
      <trkpt lat="43.109538" lon="-3.448427">
        <ele>897.5</ele>
        <time>2011-04-10T09:45:14Z</time>
      </trkpt>
      <trkpt lat="43.109545" lon="-3.448416">
        <ele>897.5</ele>
        <time>2011-04-10T09:45:15Z</time>
      </trkpt>
      <trkpt lat="43.109660" lon="-3.448246">
        <ele>899.9</ele>
        <time>2011-04-10T09:45:31Z</time>
      </trkpt>
      <trkpt lat="43.109720" lon="-3.448153">
        <ele>902.8</ele>
        <time>2011-04-10T09:45:39Z</time>
      </trkpt>
      <trkpt lat="43.109847" lon="-3.447958">
        <ele>906.2</ele>
        <time>2011-04-10T09:45:56Z</time>
      </trkpt>
      <trkpt lat="43.110024" lon="-3.447741">
        <ele>908.6</ele>
        <time>2011-04-10T09:46:17Z</time>
      </trkpt>
      <trkpt lat="43.110150" lon="-3.447587">
        <ele>913.4</ele>
        <time>2011-04-10T09:46:31Z</time>
      </trkpt>
      <trkpt lat="43.110157" lon="-3.447572">
        <ele>913.4</ele>
        <time>2011-04-10T09:46:32Z</time>
      </trkpt>
      <trkpt lat="43.110323" lon="-3.447349">
        <ele>915.3</ele>
        <time>2011-04-10T09:46:51Z</time>
      </trkpt>
      <trkpt lat="43.110416" lon="-3.447253">
        <ele>918.2</ele>
        <time>2011-04-10T09:47:00Z</time>
      </trkpt>
      <trkpt lat="43.110517" lon="-3.447123">
        <ele>921.6</ele>
        <time>2011-04-10T09:47:10Z</time>
      </trkpt>
      <trkpt lat="43.110707" lon="-3.446838">
        <ele>923.0</ele>
        <time>2011-04-10T09:47:30Z</time>
      </trkpt>
      <trkpt lat="43.110870" lon="-3.446488">
        <ele>924.4</ele>
        <time>2011-04-10T09:47:51Z</time>
      </trkpt>
      <trkpt lat="43.110893" lon="-3.446409">
        <ele>926.4</ele>
        <time>2011-04-10T09:47:55Z</time>
      </trkpt>
      <trkpt lat="43.111028" lon="-3.446029">
        <ele>927.8</ele>
        <time>2011-04-10T09:48:15Z</time>
      </trkpt>
      <trkpt lat="43.111159" lon="-3.445591">
        <ele>931.2</ele>
        <time>2011-04-10T09:48:38Z</time>
      </trkpt>
      <trkpt lat="43.111286" lon="-3.445142">
        <ele>932.1</ele>
        <time>2011-04-10T09:49:00Z</time>
      </trkpt>
      <trkpt lat="43.111398" lon="-3.444691">
        <ele>932.6</ele>
        <time>2011-04-10T09:49:21Z</time>
      </trkpt>
      <trkpt lat="43.111514" lon="-3.444261">
        <ele>933.6</ele>
        <time>2011-04-10T09:49:41Z</time>
      </trkpt>
      <trkpt lat="43.111653" lon="-3.443863">
        <ele>935.0</ele>
        <time>2011-04-10T09:50:01Z</time>
      </trkpt>
      <trkpt lat="43.111841" lon="-3.443423">
        <ele>936.0</ele>
        <time>2011-04-10T09:50:25Z</time>
      </trkpt>
      <trkpt lat="43.111940" lon="-3.442985">
        <ele>937.4</ele>
        <time>2011-04-10T09:50:48Z</time>
      </trkpt>
      <trkpt lat="43.112092" lon="-3.442699">
        <ele>937.9</ele>
        <time>2011-04-10T09:51:06Z</time>
      </trkpt>
      <trkpt lat="43.112191" lon="-3.442489">
        <ele>941.3</ele>
        <time>2011-04-10T09:51:18Z</time>
      </trkpt>
      <trkpt lat="43.112199" lon="-3.442470">
        <ele>941.3</ele>
        <time>2011-04-10T09:51:19Z</time>
      </trkpt>
      <trkpt lat="43.112287" lon="-3.442272">
        <ele>941.7</ele>
        <time>2011-04-10T09:51:30Z</time>
      </trkpt>
      <trkpt lat="43.112334" lon="-3.442185">
        <ele>941.7</ele>
        <time>2011-04-10T09:51:35Z</time>
      </trkpt>
      <trkpt lat="43.112405" lon="-3.442057">
        <ele>943.7</ele>
        <time>2011-04-10T09:51:43Z</time>
      </trkpt>
      <trkpt lat="43.112474" lon="-3.441901">
        <ele>945.1</ele>
        <time>2011-04-10T09:51:52Z</time>
      </trkpt>
      <trkpt lat="43.112596" lon="-3.441520">
        <ele>949.0</ele>
        <time>2011-04-10T09:52:13Z</time>
      </trkpt>
      <trkpt lat="43.112694" lon="-3.441095">
        <ele>950.4</ele>
        <time>2011-04-10T09:52:35Z</time>
      </trkpt>
      <trkpt lat="43.112826" lon="-3.440747">
        <ele>953.8</ele>
        <time>2011-04-10T09:52:54Z</time>
      </trkpt>
      <trkpt lat="43.112968" lon="-3.440381">
        <ele>956.2</ele>
        <time>2011-04-10T09:53:14Z</time>
      </trkpt>
      <trkpt lat="43.113061" lon="-3.439880">
        <ele>954.7</ele>
        <time>2011-04-10T09:53:37Z</time>
      </trkpt>
      <trkpt lat="43.113166" lon="-3.439490">
        <ele>958.1</ele>
        <time>2011-04-10T09:53:55Z</time>
      </trkpt>
      <trkpt lat="43.113174" lon="-3.439469">
        <ele>958.1</ele>
        <time>2011-04-10T09:53:56Z</time>
      </trkpt>
      <trkpt lat="43.113242" lon="-3.439332">
        <ele>954.7</ele>
        <time>2011-04-10T09:54:03Z</time>
      </trkpt>
      <trkpt lat="43.113349" lon="-3.438792">
        <ele>956.2</ele>
        <time>2011-04-10T09:54:26Z</time>
      </trkpt>
      <trkpt lat="43.113359" lon="-3.438721">
        <ele>957.6</ele>
        <time>2011-04-10T09:54:29Z</time>
      </trkpt>
      <trkpt lat="43.113366" lon="-3.438674">
        <ele>956.6</ele>
        <time>2011-04-10T09:54:31Z</time>
      </trkpt>
      <trkpt lat="43.113450" lon="-3.438200">
        <ele>956.2</ele>
        <time>2011-04-10T09:54:52Z</time>
      </trkpt>
      <trkpt lat="43.113611" lon="-3.437678">
        <ele>955.7</ele>
        <time>2011-04-10T09:55:17Z</time>
      </trkpt>
      <trkpt lat="43.113735" lon="-3.437086">
        <ele>955.7</ele>
        <time>2011-04-10T09:55:42Z</time>
      </trkpt>
      <trkpt lat="43.113872" lon="-3.436652">
        <ele>955.2</ele>
        <time>2011-04-10T09:56:02Z</time>
      </trkpt>
      <trkpt lat="43.113978" lon="-3.436228">
        <ele>957.1</ele>
        <time>2011-04-10T09:56:21Z</time>
      </trkpt>
      <trkpt lat="43.114161" lon="-3.435774">
        <ele>958.6</ele>
        <time>2011-04-10T09:56:44Z</time>
      </trkpt>
      <trkpt lat="43.114401" lon="-3.435358">
        <ele>959.5</ele>
        <time>2011-04-10T09:57:08Z</time>
      </trkpt>
      <trkpt lat="43.114685" lon="-3.434984">
        <ele>960.5</ele>
        <time>2011-04-10T09:57:32Z</time>
      </trkpt>
      <trkpt lat="43.115006" lon="-3.434580">
        <ele>960.0</ele>
        <time>2011-04-10T09:57:58Z</time>
      </trkpt>
      <trkpt lat="43.115230" lon="-3.434183">
        <ele>960.0</ele>
        <time>2011-04-10T09:58:19Z</time>
      </trkpt>
      <trkpt lat="43.115429" lon="-3.433721">
        <ele>959.5</ele>
        <time>2011-04-10T09:58:41Z</time>
      </trkpt>
      <trkpt lat="43.115613" lon="-3.433348">
        <ele>956.6</ele>
        <time>2011-04-10T09:58:59Z</time>
      </trkpt>
      <trkpt lat="43.115769" lon="-3.432940">
        <ele>953.3</ele>
        <time>2011-04-10T09:59:18Z</time>
      </trkpt>
      <trkpt lat="43.115958" lon="-3.432575">
        <ele>951.8</ele>
        <time>2011-04-10T09:59:37Z</time>
      </trkpt>
      <trkpt lat="43.116219" lon="-3.432377">
        <ele>951.4</ele>
        <time>2011-04-10T09:59:55Z</time>
      </trkpt>
      <trkpt lat="43.116492" lon="-3.432278">
        <ele>952.8</ele>
        <time>2011-04-10T10:00:13Z</time>
      </trkpt>
      <trkpt lat="43.116726" lon="-3.432168">
        <ele>955.7</ele>
        <time>2011-04-10T10:00:32Z</time>
      </trkpt>
      <trkpt lat="43.116910" lon="-3.432108">
        <ele>959.5</ele>
        <time>2011-04-10T10:00:47Z</time>
      </trkpt>
      <trkpt lat="43.117030" lon="-3.431980">
        <ele>962.9</ele>
        <time>2011-04-10T10:01:00Z</time>
      </trkpt>
      <trkpt lat="43.117139" lon="-3.431828">
        <ele>965.8</ele>
        <time>2011-04-10T10:01:15Z</time>
      </trkpt>
      <trkpt lat="43.117212" lon="-3.431737">
        <ele>970.1</ele>
        <time>2011-04-10T10:01:26Z</time>
      </trkpt>
      <trkpt lat="43.117327" lon="-3.431611">
        <ele>971.5</ele>
        <time>2011-04-10T10:01:43Z</time>
      </trkpt>
      <trkpt lat="43.117366" lon="-3.431567">
        <ele>972.0</ele>
        <time>2011-04-10T10:01:48Z</time>
      </trkpt>
      <trkpt lat="43.117382" lon="-3.431521">
        <ele>973.0</ele>
        <time>2011-04-10T10:01:52Z</time>
      </trkpt>
      <trkpt lat="43.117433" lon="-3.431459">
        <ele>976.4</ele>
        <time>2011-04-10T10:01:59Z</time>
      </trkpt>
      <trkpt lat="43.117554" lon="-3.431299">
        <ele>979.2</ele>
        <time>2011-04-10T10:02:16Z</time>
      </trkpt>
      <trkpt lat="43.117612" lon="-3.431201">
        <ele>982.6</ele>
        <time>2011-04-10T10:02:25Z</time>
      </trkpt>
      <trkpt lat="43.117657" lon="-3.431133">
        <ele>984.5</ele>
        <time>2011-04-10T10:02:32Z</time>
      </trkpt>
      <trkpt lat="43.117736" lon="-3.431019">
        <ele>986.9</ele>
        <time>2011-04-10T10:02:43Z</time>
      </trkpt>
      <trkpt lat="43.117847" lon="-3.430841">
        <ele>987.4</ele>
        <time>2011-04-10T10:03:00Z</time>
      </trkpt>
      <trkpt lat="43.117874" lon="-3.430797">
        <ele>989.8</ele>
        <time>2011-04-10T10:03:04Z</time>
      </trkpt>
      <trkpt lat="43.117930" lon="-3.430691">
        <ele>991.3</ele>
        <time>2011-04-10T10:03:13Z</time>
      </trkpt>
      <trkpt lat="43.117941" lon="-3.430667">
        <ele>990.3</ele>
        <time>2011-04-10T10:03:15Z</time>
      </trkpt>
      <trkpt lat="43.117955" lon="-3.430644">
        <ele>993.2</ele>
        <time>2011-04-10T10:03:17Z</time>
      </trkpt>
      <trkpt lat="43.117963" lon="-3.430632">
        <ele>992.2</ele>
        <time>2011-04-10T10:03:18Z</time>
      </trkpt>
      <trkpt lat="43.118035" lon="-3.430507">
        <ele>996.1</ele>
        <time>2011-04-10T10:03:29Z</time>
      </trkpt>
      <trkpt lat="43.118042" lon="-3.430496">
        <ele>995.6</ele>
        <time>2011-04-10T10:03:30Z</time>
      </trkpt>
      <trkpt lat="43.118164" lon="-3.430277">
        <ele>998.9</ele>
        <time>2011-04-10T10:03:48Z</time>
      </trkpt>
      <trkpt lat="43.118209" lon="-3.430211">
        <ele>999.9</ele>
        <time>2011-04-10T10:03:54Z</time>
      </trkpt>
      <trkpt lat="43.118238" lon="-3.430144">
        <ele>1001.4</ele>
        <time>2011-04-10T10:03:59Z</time>
      </trkpt>
      <trkpt lat="43.118358" lon="-3.429930">
        <ele>1003.8</ele>
        <time>2011-04-10T10:04:17Z</time>
      </trkpt>
      <trkpt lat="43.118446" lon="-3.429752">
        <ele>1007.1</ele>
        <time>2011-04-10T10:04:31Z</time>
      </trkpt>
      <trkpt lat="43.118541" lon="-3.429530">
        <ele>1010.5</ele>
        <time>2011-04-10T10:04:47Z</time>
      </trkpt>
      <trkpt lat="43.118669" lon="-3.429317">
        <ele>1013.8</ele>
        <time>2011-04-10T10:05:04Z</time>
      </trkpt>
      <trkpt lat="43.118775" lon="-3.429123">
        <ele>1017.2</ele>
        <time>2011-04-10T10:05:19Z</time>
      </trkpt>
      <trkpt lat="43.118921" lon="-3.428833">
        <ele>1020.1</ele>
        <time>2011-04-10T10:05:40Z</time>
      </trkpt>
      <trkpt lat="43.119005" lon="-3.428707">
        <ele>1023.5</ele>
        <time>2011-04-10T10:05:52Z</time>
      </trkpt>
      <trkpt lat="43.119117" lon="-3.428496">
        <ele>1025.9</ele>
        <time>2011-04-10T10:06:10Z</time>
      </trkpt>
      <trkpt lat="43.119160" lon="-3.428411">
        <ele>1028.7</ele>
        <time>2011-04-10T10:06:18Z</time>
      </trkpt>
      <trkpt lat="43.119278" lon="-3.428204">
        <ele>1031.6</ele>
        <time>2011-04-10T10:06:37Z</time>
      </trkpt>
      <trkpt lat="43.119361" lon="-3.428060">
        <ele>1036.0</ele>
        <time>2011-04-10T10:06:50Z</time>
      </trkpt>
      <trkpt lat="43.119366" lon="-3.428047">
        <ele>1036.0</ele>
        <time>2011-04-10T10:06:51Z</time>
      </trkpt>
      <trkpt lat="43.119399" lon="-3.427973">
        <ele>1037.4</ele>
        <time>2011-04-10T10:06:57Z</time>
      </trkpt>
      <trkpt lat="43.119512" lon="-3.427820">
        <ele>1039.8</ele>
        <time>2011-04-10T10:07:13Z</time>
      </trkpt>
      <trkpt lat="43.119584" lon="-3.427703">
        <ele>1043.2</ele>
        <time>2011-04-10T10:07:24Z</time>
      </trkpt>
      <trkpt lat="43.119698" lon="-3.427536">
        <ele>1045.6</ele>
        <time>2011-04-10T10:07:41Z</time>
      </trkpt>
      <trkpt lat="43.119806" lon="-3.427369">
        <ele>1048.0</ele>
        <time>2011-04-10T10:07:57Z</time>
      </trkpt>
      <trkpt lat="43.119868" lon="-3.427273">
        <ele>1050.9</ele>
        <time>2011-04-10T10:08:06Z</time>
      </trkpt>
      <trkpt lat="43.119926" lon="-3.427203">
        <ele>1052.3</ele>
        <time>2011-04-10T10:08:14Z</time>
      </trkpt>
      <trkpt lat="43.120057" lon="-3.427064">
        <ele>1056.6</ele>
        <time>2011-04-10T10:08:31Z</time>
      </trkpt>
      <trkpt lat="43.120086" lon="-3.427030">
        <ele>1057.1</ele>
        <time>2011-04-10T10:08:35Z</time>
      </trkpt>
      <trkpt lat="43.120094" lon="-3.427024">
        <ele>1056.6</ele>
        <time>2011-04-10T10:08:36Z</time>
      </trkpt>
      <trkpt lat="43.120284" lon="-3.426938">
        <ele>1060.5</ele>
        <time>2011-04-10T10:08:54Z</time>
      </trkpt>
      <trkpt lat="43.120462" lon="-3.426891">
        <ele>1063.8</ele>
        <time>2011-04-10T10:09:09Z</time>
      </trkpt>
      <trkpt lat="43.120656" lon="-3.426850">
        <ele>1066.7</ele>
        <time>2011-04-10T10:09:28Z</time>
      </trkpt>
      <trkpt lat="43.120780" lon="-3.426812">
        <ele>1070.6</ele>
        <time>2011-04-10T10:09:40Z</time>
      </trkpt>
      <trkpt lat="43.120926" lon="-3.426697">
        <ele>1073.0</ele>
        <time>2011-04-10T10:09:56Z</time>
      </trkpt>
      <trkpt lat="43.120984" lon="-3.426645">
        <ele>1076.8</ele>
        <time>2011-04-10T10:10:03Z</time>
      </trkpt>
      <trkpt lat="43.121089" lon="-3.426542">
        <ele>1079.7</ele>
        <time>2011-04-10T10:10:18Z</time>
      </trkpt>
      <trkpt lat="43.121097" lon="-3.426540">
        <ele>1080.2</ele>
        <time>2011-04-10T10:10:19Z</time>
      </trkpt>
      <trkpt lat="43.121184" lon="-3.426524">
        <ele>1081.6</ele>
        <time>2011-04-10T10:10:29Z</time>
      </trkpt>
      <trkpt lat="43.121356" lon="-3.426443">
        <ele>1085.5</ele>
        <time>2011-04-10T10:10:49Z</time>
      </trkpt>
      <trkpt lat="43.121422" lon="-3.426397">
        <ele>1089.8</ele>
        <time>2011-04-10T10:10:57Z</time>
      </trkpt>
      <trkpt lat="43.121431" lon="-3.426393">
        <ele>1089.8</ele>
        <time>2011-04-10T10:10:58Z</time>
      </trkpt>
      <trkpt lat="43.121591" lon="-3.426330">
        <ele>1092.7</ele>
        <time>2011-04-10T10:11:16Z</time>
      </trkpt>
      <trkpt lat="43.121659" lon="-3.426311">
        <ele>1095.6</ele>
        <time>2011-04-10T10:11:23Z</time>
      </trkpt>
      <trkpt lat="43.121741" lon="-3.426266">
        <ele>1098.4</ele>
        <time>2011-04-10T10:11:32Z</time>
      </trkpt>
      <trkpt lat="43.121843" lon="-3.426178">
        <ele>1101.3</ele>
        <time>2011-04-10T10:11:45Z</time>
      </trkpt>
      <trkpt lat="43.121859" lon="-3.426166">
        <ele>1101.3</ele>
        <time>2011-04-10T10:11:47Z</time>
      </trkpt>
      <trkpt lat="43.121887" lon="-3.426157">
        <ele>1100.8</ele>
        <time>2011-04-10T10:11:50Z</time>
      </trkpt>
      <trkpt lat="43.121991" lon="-3.426102">
        <ele>1105.2</ele>
        <time>2011-04-10T10:12:01Z</time>
      </trkpt>
      <trkpt lat="43.122051" lon="-3.426074">
        <ele>1105.2</ele>
        <time>2011-04-10T10:12:07Z</time>
      </trkpt>
      <trkpt lat="43.122089" lon="-3.426021">
        <ele>1106.1</ele>
        <time>2011-04-10T10:12:12Z</time>
      </trkpt>
      <trkpt lat="43.122160" lon="-3.425960">
        <ele>1110.0</ele>
        <time>2011-04-10T10:12:20Z</time>
      </trkpt>
      <trkpt lat="43.122267" lon="-3.425875">
        <ele>1114.3</ele>
        <time>2011-04-10T10:12:31Z</time>
      </trkpt>
      <trkpt lat="43.122381" lon="-3.425778">
        <ele>1115.3</ele>
        <time>2011-04-10T10:12:43Z</time>
      </trkpt>
      <trkpt lat="43.122513" lon="-3.425669">
        <ele>1119.1</ele>
        <time>2011-04-10T10:12:57Z</time>
      </trkpt>
      <trkpt lat="43.122669" lon="-3.425559">
        <ele>1122.5</ele>
        <time>2011-04-10T10:13:13Z</time>
      </trkpt>
      <trkpt lat="43.122785" lon="-3.425395">
        <ele>1124.9</ele>
        <time>2011-04-10T10:13:28Z</time>
      </trkpt>
      <trkpt lat="43.122864" lon="-3.425301">
        <ele>1127.8</ele>
        <time>2011-04-10T10:13:37Z</time>
      </trkpt>
      <trkpt lat="43.123029" lon="-3.425089">
        <ele>1130.2</ele>
        <time>2011-04-10T10:13:56Z</time>
      </trkpt>
      <trkpt lat="43.123201" lon="-3.424877">
        <ele>1132.6</ele>
        <time>2011-04-10T10:14:16Z</time>
      </trkpt>
      <trkpt lat="43.123252" lon="-3.424819">
        <ele>1135.0</ele>
        <time>2011-04-10T10:14:22Z</time>
      </trkpt>
      <trkpt lat="43.123329" lon="-3.424740">
        <ele>1136.4</ele>
        <time>2011-04-10T10:14:31Z</time>
      </trkpt>
      <trkpt lat="43.123483" lon="-3.424542">
        <ele>1139.8</ele>
        <time>2011-04-10T10:14:50Z</time>
      </trkpt>
      <trkpt lat="43.123566" lon="-3.424404">
        <ele>1141.2</ele>
        <time>2011-04-10T10:15:01Z</time>
      </trkpt>
      <trkpt lat="43.123654" lon="-3.424255">
        <ele>1144.1</ele>
        <time>2011-04-10T10:15:12Z</time>
      </trkpt>
      <trkpt lat="43.123875" lon="-3.423992">
        <ele>1141.7</ele>
        <time>2011-04-10T10:15:32Z</time>
      </trkpt>
      <trkpt lat="43.124068" lon="-3.423839">
        <ele>1142.7</ele>
        <time>2011-04-10T10:15:46Z</time>
      </trkpt>
      <trkpt lat="43.124112" lon="-3.423818">
        <ele>1144.1</ele>
        <time>2011-04-10T10:15:49Z</time>
      </trkpt>
      <trkpt lat="43.124243" lon="-3.423787">
        <ele>1142.7</ele>
        <time>2011-04-10T10:15:57Z</time>
      </trkpt>
      <trkpt lat="43.124378" lon="-3.423769">
        <ele>1139.8</ele>
        <time>2011-04-10T10:16:05Z</time>
      </trkpt>
      <trkpt lat="43.124462" lon="-3.423753">
        <ele>1142.7</ele>
        <time>2011-04-10T10:16:10Z</time>
      </trkpt>
      <trkpt lat="43.124477" lon="-3.423749">
        <ele>1141.7</ele>
        <time>2011-04-10T10:16:11Z</time>
      </trkpt>
      <trkpt lat="43.124578" lon="-3.423722">
        <ele>1139.3</ele>
        <time>2011-04-10T10:16:18Z</time>
      </trkpt>
      <trkpt lat="43.124606" lon="-3.423722">
        <ele>1143.1</ele>
        <time>2011-04-10T10:16:20Z</time>
      </trkpt>
      <trkpt lat="43.124737" lon="-3.423684">
        <ele>1146.0</ele>
        <time>2011-04-10T10:16:30Z</time>
      </trkpt>
      <trkpt lat="43.124942" lon="-3.423650">
        <ele>1149.4</ele>
        <time>2011-04-10T10:16:48Z</time>
      </trkpt>
      <trkpt lat="43.125158" lon="-3.423648">
        <ele>1152.8</ele>
        <time>2011-04-10T10:17:07Z</time>
      </trkpt>
      <trkpt lat="43.125170" lon="-3.423648">
        <ele>1152.8</ele>
        <time>2011-04-10T10:17:08Z</time>
      </trkpt>
      <trkpt lat="43.125258" lon="-3.423657">
        <ele>1153.2</ele>
        <time>2011-04-10T10:17:16Z</time>
      </trkpt>
      <trkpt lat="43.125443" lon="-3.423655">
        <ele>1154.2</ele>
        <time>2011-04-10T10:17:33Z</time>
      </trkpt>
      <trkpt lat="43.125466" lon="-3.423655">
        <ele>1157.6</ele>
        <time>2011-04-10T10:17:35Z</time>
      </trkpt>
      <trkpt lat="43.125587" lon="-3.423687">
        <ele>1160.9</ele>
        <time>2011-04-10T10:17:47Z</time>
      </trkpt>
      <trkpt lat="43.125787" lon="-3.423684">
        <ele>1163.8</ele>
        <time>2011-04-10T10:18:06Z</time>
      </trkpt>
      <trkpt lat="43.125974" lon="-3.423687">
        <ele>1165.7</ele>
        <time>2011-04-10T10:18:22Z</time>
      </trkpt>
      <trkpt lat="43.126006" lon="-3.423684">
        <ele>1167.7</ele>
        <time>2011-04-10T10:18:25Z</time>
      </trkpt>
      <trkpt lat="43.126105" lon="-3.423660">
        <ele>1171.5</ele>
        <time>2011-04-10T10:18:35Z</time>
      </trkpt>
      <trkpt lat="43.126123" lon="-3.423656">
        <ele>1170.1</ele>
        <time>2011-04-10T10:18:37Z</time>
      </trkpt>
      <trkpt lat="43.126223" lon="-3.423660">
        <ele>1173.4</ele>
        <time>2011-04-10T10:18:47Z</time>
      </trkpt>
      <trkpt lat="43.126311" lon="-3.423684">
        <ele>1176.8</ele>
        <time>2011-04-10T10:18:57Z</time>
      </trkpt>
      <trkpt lat="43.126320" lon="-3.423685">
        <ele>1176.8</ele>
        <time>2011-04-10T10:18:58Z</time>
      </trkpt>
      <trkpt lat="43.126414" lon="-3.423683">
        <ele>1179.7</ele>
        <time>2011-04-10T10:19:08Z</time>
      </trkpt>
      <trkpt lat="43.126623" lon="-3.423673">
        <ele>1182.1</ele>
        <time>2011-04-10T10:19:28Z</time>
      </trkpt>
      <trkpt lat="43.126867" lon="-3.423644">
        <ele>1183.5</ele>
        <time>2011-04-10T10:19:47Z</time>
      </trkpt>
      <trkpt lat="43.127102" lon="-3.423612">
        <ele>1184.5</ele>
        <time>2011-04-10T10:20:05Z</time>
      </trkpt>
      <trkpt lat="43.127193" lon="-3.423608">
        <ele>1185.4</ele>
        <time>2011-04-10T10:20:12Z</time>
      </trkpt>
      <trkpt lat="43.127326" lon="-3.423609">
        <ele>1188.8</ele>
        <time>2011-04-10T10:20:22Z</time>
      </trkpt>
      <trkpt lat="43.127339" lon="-3.423605">
        <ele>1188.8</ele>
        <time>2011-04-10T10:20:23Z</time>
      </trkpt>
      <trkpt lat="43.127364" lon="-3.423606">
        <ele>1187.4</ele>
        <time>2011-04-10T10:20:25Z</time>
      </trkpt>
      <trkpt lat="43.127405" lon="-3.423607">
        <ele>1188.8</ele>
        <time>2011-04-10T10:20:28Z</time>
      </trkpt>
      <trkpt lat="43.127445" lon="-3.423610">
        <ele>1190.7</ele>
        <time>2011-04-10T10:20:31Z</time>
      </trkpt>
      <trkpt lat="43.127614" lon="-3.423649">
        <ele>1193.6</ele>
        <time>2011-04-10T10:20:45Z</time>
      </trkpt>
      <trkpt lat="43.127686" lon="-3.423664">
        <ele>1194.6</ele>
        <time>2011-04-10T10:20:51Z</time>
      </trkpt>
      <trkpt lat="43.127709" lon="-3.423667">
        <ele>1193.1</ele>
        <time>2011-04-10T10:20:53Z</time>
      </trkpt>
      <trkpt lat="43.127871" lon="-3.423688">
        <ele>1197.0</ele>
        <time>2011-04-10T10:21:07Z</time>
      </trkpt>
      <trkpt lat="43.127995" lon="-3.423713">
        <ele>1199.9</ele>
        <time>2011-04-10T10:21:18Z</time>
      </trkpt>
      <trkpt lat="43.128187" lon="-3.423758">
        <ele>1200.3</ele>
        <time>2011-04-10T10:21:35Z</time>
      </trkpt>
      <trkpt lat="43.128295" lon="-3.423763">
        <ele>1201.8</ele>
        <time>2011-04-10T10:21:45Z</time>
      </trkpt>
      <trkpt lat="43.128389" lon="-3.423760">
        <ele>1204.7</ele>
        <time>2011-04-10T10:21:55Z</time>
      </trkpt>
      <trkpt lat="43.128398" lon="-3.423763">
        <ele>1205.1</ele>
        <time>2011-04-10T10:21:56Z</time>
      </trkpt>
      <trkpt lat="43.128434" lon="-3.423769">
        <ele>1206.6</ele>
        <time>2011-04-10T10:22:00Z</time>
      </trkpt>
      <trkpt lat="43.128561" lon="-3.423786">
        <ele>1210.0</ele>
        <time>2011-04-10T10:22:14Z</time>
      </trkpt>
      <trkpt lat="43.128594" lon="-3.423791">
        <ele>1212.8</ele>
        <time>2011-04-10T10:22:17Z</time>
      </trkpt>
      <trkpt lat="43.128775" lon="-3.423809">
        <ele>1215.2</ele>
        <time>2011-04-10T10:22:35Z</time>
      </trkpt>
      <trkpt lat="43.128855" lon="-3.423794">
        <ele>1216.2</ele>
        <time>2011-04-10T10:22:43Z</time>
      </trkpt>
      <trkpt lat="43.128930" lon="-3.423795">
        <ele>1220.1</ele>
        <time>2011-04-10T10:22:50Z</time>
      </trkpt>
      <trkpt lat="43.128941" lon="-3.423795">
        <ele>1220.1</ele>
        <time>2011-04-10T10:22:51Z</time>
      </trkpt>
      <trkpt lat="43.129000" lon="-3.423791">
        <ele>1222.5</ele>
        <time>2011-04-10T10:22:57Z</time>
      </trkpt>
      <trkpt lat="43.129009" lon="-3.423793">
        <ele>1220.1</ele>
        <time>2011-04-10T10:22:58Z</time>
      </trkpt>
      <trkpt lat="43.129050" lon="-3.423813">
        <ele>1221.5</ele>
        <time>2011-04-10T10:23:02Z</time>
      </trkpt>
      <trkpt lat="43.129136" lon="-3.423867">
        <ele>1224.9</ele>
        <time>2011-04-10T10:23:11Z</time>
      </trkpt>
      <trkpt lat="43.129150" lon="-3.423887">
        <ele>1223.9</ele>
        <time>2011-04-10T10:23:13Z</time>
      </trkpt>
      <trkpt lat="43.129180" lon="-3.423935">
        <ele>1224.9</ele>
        <time>2011-04-10T10:23:18Z</time>
      </trkpt>
      <trkpt lat="43.129332" lon="-3.424071">
        <ele>1229.2</ele>
        <time>2011-04-10T10:23:36Z</time>
      </trkpt>
      <trkpt lat="43.129484" lon="-3.424202">
        <ele>1233.0</ele>
        <time>2011-04-10T10:23:53Z</time>
      </trkpt>
      <trkpt lat="43.129630" lon="-3.424343">
        <ele>1235.4</ele>
        <time>2011-04-10T10:24:10Z</time>
      </trkpt>
      <trkpt lat="43.129786" lon="-3.424492">
        <ele>1238.8</ele>
        <time>2011-04-10T10:24:28Z</time>
      </trkpt>
      <trkpt lat="43.129862" lon="-3.424564">
        <ele>1241.7</ele>
        <time>2011-04-10T10:24:38Z</time>
      </trkpt>
      <trkpt lat="43.129907" lon="-3.424624">
        <ele>1245.0</ele>
        <time>2011-04-10T10:24:45Z</time>
      </trkpt>
      <trkpt lat="43.129914" lon="-3.424635">
        <ele>1245.0</ele>
        <time>2011-04-10T10:24:46Z</time>
      </trkpt>
      <trkpt lat="43.130038" lon="-3.424678">
        <ele>1247.4</ele>
        <time>2011-04-10T10:25:02Z</time>
      </trkpt>
      <trkpt lat="43.130044" lon="-3.424669">
        <ele>1247.4</ele>
        <time>2011-04-10T10:25:03Z</time>
      </trkpt>
      <trkpt lat="43.130066" lon="-3.424634">
        <ele>1247.4</ele>
        <time>2011-04-10T10:25:07Z</time>
      </trkpt>
      <trkpt lat="43.130108" lon="-3.424518">
        <ele>1251.8</ele>
        <time>2011-04-10T10:25:16Z</time>
      </trkpt>
      <trkpt lat="43.130208" lon="-3.424278">
        <ele>1253.2</ele>
        <time>2011-04-10T10:25:34Z</time>
      </trkpt>
      <trkpt lat="43.130316" lon="-3.424071">
        <ele>1253.7</ele>
        <time>2011-04-10T10:25:50Z</time>
      </trkpt>
      <trkpt lat="43.130345" lon="-3.424012">
        <ele>1257.1</ele>
        <time>2011-04-10T10:25:54Z</time>
      </trkpt>
      <trkpt lat="43.130353" lon="-3.423999">
        <ele>1256.6</ele>
        <time>2011-04-10T10:25:55Z</time>
      </trkpt>
      <trkpt lat="43.130461" lon="-3.423824">
        <ele>1259.5</ele>
        <time>2011-04-10T10:26:08Z</time>
      </trkpt>
      <trkpt lat="43.130535" lon="-3.423683">
        <ele>1260.4</ele>
        <time>2011-04-10T10:26:18Z</time>
      </trkpt>
      <trkpt lat="43.130714" lon="-3.423372">
        <ele>1262.3</ele>
        <time>2011-04-10T10:26:40Z</time>
      </trkpt>
      <trkpt lat="43.130846" lon="-3.423131">
        <ele>1265.7</ele>
        <time>2011-04-10T10:26:56Z</time>
      </trkpt>
      <trkpt lat="43.130865" lon="-3.423105">
        <ele>1266.7</ele>
        <time>2011-04-10T10:26:58Z</time>
      </trkpt>
      <trkpt lat="43.131026" lon="-3.422891">
        <ele>1269.6</ele>
        <time>2011-04-10T10:27:14Z</time>
      </trkpt>
      <trkpt lat="43.131242" lon="-3.422654">
        <ele>1273.4</ele>
        <time>2011-04-10T10:27:34Z</time>
      </trkpt>
      <trkpt lat="43.131252" lon="-3.422640">
        <ele>1272.9</ele>
        <time>2011-04-10T10:27:35Z</time>
      </trkpt>
      <trkpt lat="43.131283" lon="-3.422600">
        <ele>1271.5</ele>
        <time>2011-04-10T10:27:38Z</time>
      </trkpt>
      <trkpt lat="43.131395" lon="-3.422519">
        <ele>1274.4</ele>
        <time>2011-04-10T10:27:47Z</time>
      </trkpt>
      <trkpt lat="43.131550" lon="-3.422486">
        <ele>1274.8</ele>
        <time>2011-04-10T10:27:58Z</time>
      </trkpt>
      <trkpt lat="43.131781" lon="-3.422369">
        <ele>1277.7</ele>
        <time>2011-04-10T10:28:15Z</time>
      </trkpt>
      <trkpt lat="43.132033" lon="-3.422148">
        <ele>1279.7</ele>
        <time>2011-04-10T10:28:36Z</time>
      </trkpt>
      <trkpt lat="43.132194" lon="-3.421971">
        <ele>1280.6</ele>
        <time>2011-04-10T10:28:51Z</time>
      </trkpt>
      <trkpt lat="43.132296" lon="-3.421886">
        <ele>1277.7</ele>
        <time>2011-04-10T10:29:00Z</time>
      </trkpt>
      <trkpt lat="43.132321" lon="-3.421858">
        <ele>1280.6</ele>
        <time>2011-04-10T10:29:02Z</time>
      </trkpt>
      <trkpt lat="43.132342" lon="-3.421833">
        <ele>1282.1</ele>
        <time>2011-04-10T10:29:04Z</time>
      </trkpt>
      <trkpt lat="43.132441" lon="-3.421615">
        <ele>1282.5</ele>
        <time>2011-04-10T10:29:19Z</time>
      </trkpt>
      <trkpt lat="43.132452" lon="-3.421548">
        <ele>1281.6</ele>
        <time>2011-04-10T10:29:23Z</time>
      </trkpt>
      <trkpt lat="43.132448" lon="-3.421506">
        <ele>1279.2</ele>
        <time>2011-04-10T10:29:26Z</time>
      </trkpt>
      <trkpt lat="43.132417" lon="-3.421486">
        <ele>1276.8</ele>
        <time>2011-04-10T10:29:29Z</time>
      </trkpt>
      <trkpt lat="43.132408" lon="-3.421474">
        <ele>1272.9</ele>
        <time>2011-04-10T10:29:30Z</time>
      </trkpt>
      <trkpt lat="43.132402" lon="-3.421462">
        <ele>1287.8</ele>
        <time>2011-04-10T10:29:31Z</time>
      </trkpt>
      <trkpt lat="43.132417" lon="-3.421388">
        <ele>1279.2</ele>
        <time>2011-04-10T10:29:35Z</time>
      </trkpt>
      <trkpt lat="43.132475" lon="-3.421258">
        <ele>1279.7</ele>
        <time>2011-04-10T10:29:42Z</time>
      </trkpt>
      <trkpt lat="43.132559" lon="-3.421088">
        <ele>1281.6</ele>
        <time>2011-04-10T10:29:52Z</time>
      </trkpt>
      <trkpt lat="43.132609" lon="-3.420945">
        <ele>1284.5</ele>
        <time>2011-04-10T10:30:00Z</time>
      </trkpt>
      <trkpt lat="43.132608" lon="-3.420754">
        <ele>1284.5</ele>
        <time>2011-04-10T10:30:10Z</time>
      </trkpt>
      <trkpt lat="43.132610" lon="-3.420657">
        <ele>1284.9</ele>
        <time>2011-04-10T10:30:15Z</time>
      </trkpt>
      <trkpt lat="43.132611" lon="-3.420556">
        <ele>1284.9</ele>
        <time>2011-04-10T10:30:21Z</time>
      </trkpt>
      <trkpt lat="43.132674" lon="-3.420384">
        <ele>1285.9</ele>
        <time>2011-04-10T10:30:32Z</time>
      </trkpt>
      <trkpt lat="43.132711" lon="-3.420270">
        <ele>1286.4</ele>
        <time>2011-04-10T10:30:38Z</time>
      </trkpt>
      <trkpt lat="43.132724" lon="-3.420187">
        <ele>1287.3</ele>
        <time>2011-04-10T10:30:43Z</time>
      </trkpt>
      <trkpt lat="43.132732" lon="-3.420136">
        <ele>1285.4</ele>
        <time>2011-04-10T10:30:46Z</time>
      </trkpt>
      <trkpt lat="43.132747" lon="-3.420111">
        <ele>1284.9</ele>
        <time>2011-04-10T10:30:48Z</time>
      </trkpt>
      <trkpt lat="43.132746" lon="-3.420050">
        <ele>1288.3</ele>
        <time>2011-04-10T10:30:51Z</time>
      </trkpt>
      <trkpt lat="43.132745" lon="-3.420029">
        <ele>1289.3</ele>
        <time>2011-04-10T10:30:52Z</time>
      </trkpt>
      <trkpt lat="43.132769" lon="-3.419987">
        <ele>1287.8</ele>
        <time>2011-04-10T10:30:55Z</time>
      </trkpt>
      <trkpt lat="43.132791" lon="-3.419924">
        <ele>1288.8</ele>
        <time>2011-04-10T10:30:59Z</time>
      </trkpt>
      <trkpt lat="43.132818" lon="-3.419760">
        <ele>1293.1</ele>
        <time>2011-04-10T10:31:08Z</time>
      </trkpt>
      <trkpt lat="43.132824" lon="-3.419740">
        <ele>1292.6</ele>
        <time>2011-04-10T10:31:09Z</time>
      </trkpt>
      <trkpt lat="43.132873" lon="-3.419665">
        <ele>1297.0</ele>
        <time>2011-04-10T10:31:15Z</time>
      </trkpt>
      <trkpt lat="43.132897" lon="-3.419628">
        <ele>1285.9</ele>
        <time>2011-04-10T10:31:18Z</time>
      </trkpt>
      <trkpt lat="43.132905" lon="-3.419612">
        <ele>1302.2</ele>
        <time>2011-04-10T10:31:19Z</time>
      </trkpt>
      <trkpt lat="43.132913" lon="-3.419599">
        <ele>1295.0</ele>
        <time>2011-04-10T10:31:20Z</time>
      </trkpt>
      <trkpt lat="43.132921" lon="-3.419587">
        <ele>1299.4</ele>
        <time>2011-04-10T10:31:21Z</time>
      </trkpt>
      <trkpt lat="43.132963" lon="-3.419428">
        <ele>1299.8</ele>
        <time>2011-04-10T10:31:31Z</time>
      </trkpt>
      <trkpt lat="43.132973" lon="-3.419358">
        <ele>1302.2</ele>
        <time>2011-04-10T10:31:35Z</time>
      </trkpt>
      <trkpt lat="43.133001" lon="-3.419046">
        <ele>1302.7</ele>
        <time>2011-04-10T10:31:54Z</time>
      </trkpt>
      <trkpt lat="43.133029" lon="-3.418881">
        <ele>1306.6</ele>
        <time>2011-04-10T10:32:04Z</time>
      </trkpt>
      <trkpt lat="43.133042" lon="-3.418734">
        <ele>1308.0</ele>
        <time>2011-04-10T10:32:13Z</time>
      </trkpt>
      <trkpt lat="43.133086" lon="-3.418470">
        <ele>1310.9</ele>
        <time>2011-04-10T10:32:30Z</time>
      </trkpt>
      <trkpt lat="43.133096" lon="-3.418361">
        <ele>1311.9</ele>
        <time>2011-04-10T10:32:37Z</time>
      </trkpt>
      <trkpt lat="43.133110" lon="-3.418303">
        <ele>1311.9</ele>
        <time>2011-04-10T10:32:41Z</time>
      </trkpt>
      <trkpt lat="43.133167" lon="-3.418070">
        <ele>1313.8</ele>
        <time>2011-04-10T10:32:57Z</time>
      </trkpt>
      <trkpt lat="43.133182" lon="-3.418028">
        <ele>1316.7</ele>
        <time>2011-04-10T10:33:00Z</time>
      </trkpt>
      <trkpt lat="43.133193" lon="-3.418000">
        <ele>1317.6</ele>
        <time>2011-04-10T10:33:02Z</time>
      </trkpt>
      <trkpt lat="43.133251" lon="-3.417833">
        <ele>1317.6</ele>
        <time>2011-04-10T10:33:15Z</time>
      </trkpt>
      <trkpt lat="43.133293" lon="-3.417688">
        <ele>1321.0</ele>
        <time>2011-04-10T10:33:26Z</time>
      </trkpt>
      <trkpt lat="43.133319" lon="-3.417551">
        <ele>1321.5</ele>
        <time>2011-04-10T10:33:35Z</time>
      </trkpt>
      <trkpt lat="43.133331" lon="-3.417506">
        <ele>1324.4</ele>
        <time>2011-04-10T10:33:38Z</time>
      </trkpt>
      <trkpt lat="43.133337" lon="-3.417496">
        <ele>1327.7</ele>
        <time>2011-04-10T10:33:39Z</time>
      </trkpt>
      <trkpt lat="43.133358" lon="-3.417460">
        <ele>1324.8</ele>
        <time>2011-04-10T10:33:42Z</time>
      </trkpt>
      <trkpt lat="43.133367" lon="-3.417431">
        <ele>1323.4</ele>
        <time>2011-04-10T10:33:44Z</time>
      </trkpt>
      <trkpt lat="43.133386" lon="-3.417391">
        <ele>1326.8</ele>
        <time>2011-04-10T10:33:47Z</time>
      </trkpt>
      <trkpt lat="43.133427" lon="-3.417254">
        <ele>1328.7</ele>
        <time>2011-04-10T10:33:57Z</time>
      </trkpt>
      <trkpt lat="43.133443" lon="-3.417193">
        <ele>1328.2</ele>
        <time>2011-04-10T10:34:02Z</time>
      </trkpt>
      <trkpt lat="43.133456" lon="-3.417157">
        <ele>1329.2</ele>
        <time>2011-04-10T10:34:05Z</time>
      </trkpt>
      <trkpt lat="43.133467" lon="-3.417082">
        <ele>1330.6</ele>
        <time>2011-04-10T10:34:11Z</time>
      </trkpt>
      <trkpt lat="43.133494" lon="-3.417027">
        <ele>1331.6</ele>
        <time>2011-04-10T10:34:16Z</time>
      </trkpt>
      <trkpt lat="43.133521" lon="-3.416932">
        <ele>1334.9</ele>
        <time>2011-04-10T10:34:24Z</time>
      </trkpt>
      <trkpt lat="43.133551" lon="-3.416843">
        <ele>1337.8</ele>
        <time>2011-04-10T10:34:31Z</time>
      </trkpt>
      <trkpt lat="43.133597" lon="-3.416648">
        <ele>1338.3</ele>
        <time>2011-04-10T10:34:46Z</time>
      </trkpt>
      <trkpt lat="43.133633" lon="-3.416415">
        <ele>1341.7</ele>
        <time>2011-04-10T10:35:02Z</time>
      </trkpt>
      <trkpt lat="43.133723" lon="-3.416157">
        <ele>1341.7</ele>
        <time>2011-04-10T10:35:19Z</time>
      </trkpt>
      <trkpt lat="43.133840" lon="-3.415941">
        <ele>1342.6</ele>
        <time>2011-04-10T10:35:34Z</time>
      </trkpt>
      <trkpt lat="43.133939" lon="-3.415666">
        <ele>1346.0</ele>
        <time>2011-04-10T10:35:53Z</time>
      </trkpt>
      <trkpt lat="43.133939" lon="-3.415663">
        <ele>1342.6</ele>
        <time>2011-04-10T10:36:00Z</time>
      </trkpt>
      <trkpt lat="43.133935" lon="-3.415661">
        <ele>1346.0</ele>
        <time>2011-04-10T10:36:04Z</time>
      </trkpt>
      <trkpt lat="43.133931" lon="-3.415653">
        <ele>1345.5</ele>
        <time>2011-04-10T10:36:23Z</time>
      </trkpt>
      <trkpt lat="43.133922" lon="-3.415659">
        <ele>1345.5</ele>
        <time>2011-04-10T10:36:57Z</time>
      </trkpt>
      <trkpt lat="43.133916" lon="-3.415655">
        <ele>1345.0</ele>
        <time>2011-04-10T10:37:11Z</time>
      </trkpt>
      <trkpt lat="43.133913" lon="-3.415577">
        <ele>1344.1</ele>
        <time>2011-04-10T10:37:15Z</time>
      </trkpt>
      <trkpt lat="43.133965" lon="-3.415261">
        <ele>1340.7</ele>
        <time>2011-04-10T10:37:29Z</time>
      </trkpt>
      <trkpt lat="43.134025" lon="-3.414792">
        <ele>1340.2</ele>
        <time>2011-04-10T10:37:48Z</time>
      </trkpt>
      <trkpt lat="43.134048" lon="-3.414431">
        <ele>1340.7</ele>
        <time>2011-04-10T10:38:03Z</time>
      </trkpt>
      <trkpt lat="43.134047" lon="-3.414366">
        <ele>1335.9</ele>
        <time>2011-04-10T10:38:06Z</time>
      </trkpt>
      <trkpt lat="43.134043" lon="-3.414342">
        <ele>1339.7</ele>
        <time>2011-04-10T10:38:07Z</time>
      </trkpt>
      <trkpt lat="43.134035" lon="-3.414149">
        <ele>1339.7</ele>
        <time>2011-04-10T10:38:15Z</time>
      </trkpt>
      <trkpt lat="43.134033" lon="-3.414099">
        <ele>1338.3</ele>
        <time>2011-04-10T10:38:17Z</time>
      </trkpt>
      <trkpt lat="43.134026" lon="-3.413781">
        <ele>1334.4</ele>
        <time>2011-04-10T10:38:28Z</time>
      </trkpt>
      <trkpt lat="43.134026" lon="-3.413749">
        <ele>1334.0</ele>
        <time>2011-04-10T10:38:29Z</time>
      </trkpt>
      <trkpt lat="43.134014" lon="-3.413302">
        <ele>1333.0</ele>
        <time>2011-04-10T10:38:45Z</time>
      </trkpt>
      <trkpt lat="43.133982" lon="-3.412841">
        <ele>1330.6</ele>
        <time>2011-04-10T10:39:02Z</time>
      </trkpt>
      <trkpt lat="43.133944" lon="-3.412754">
        <ele>1331.1</ele>
        <time>2011-04-10T10:39:06Z</time>
      </trkpt>
      <trkpt lat="43.133828" lon="-3.412473">
        <ele>1328.2</ele>
        <time>2011-04-10T10:39:19Z</time>
      </trkpt>
      <trkpt lat="43.133775" lon="-3.412137">
        <ele>1326.8</ele>
        <time>2011-04-10T10:39:32Z</time>
      </trkpt>
      <trkpt lat="43.133721" lon="-3.411776">
        <ele>1325.3</ele>
        <time>2011-04-10T10:39:46Z</time>
      </trkpt>
      <trkpt lat="43.133645" lon="-3.411347">
        <ele>1325.3</ele>
        <time>2011-04-10T10:40:05Z</time>
      </trkpt>
      <trkpt lat="43.133582" lon="-3.410847">
        <ele>1325.8</ele>
        <time>2011-04-10T10:40:25Z</time>
      </trkpt>
      <trkpt lat="43.133525" lon="-3.410484">
        <ele>1327.2</ele>
        <time>2011-04-10T10:40:42Z</time>
      </trkpt>
      <trkpt lat="43.133450" lon="-3.410129">
        <ele>1330.1</ele>
        <time>2011-04-10T10:40:59Z</time>
      </trkpt>
      <trkpt lat="43.133370" lon="-3.409817">
        <ele>1331.1</ele>
        <time>2011-04-10T10:41:15Z</time>
      </trkpt>
      <trkpt lat="43.133357" lon="-3.409464">
        <ele>1332.5</ele>
        <time>2011-04-10T10:41:31Z</time>
      </trkpt>
      <trkpt lat="43.133310" lon="-3.409006">
        <ele>1330.6</ele>
        <time>2011-04-10T10:41:49Z</time>
      </trkpt>
      <trkpt lat="43.133365" lon="-3.408933">
        <ele>1328.7</ele>
        <time>2011-04-10T10:41:52Z</time>
      </trkpt>
      <trkpt lat="43.133412" lon="-3.408912">
        <ele>1329.2</ele>
        <time>2011-04-10T10:41:54Z</time>
      </trkpt>
      <trkpt lat="43.133562" lon="-3.408865">
        <ele>1324.3</ele>
        <time>2011-04-10T10:42:04Z</time>
      </trkpt>
      <trkpt lat="43.133682" lon="-3.408832">
        <ele>1324.4</ele>
        <time>2011-04-10T10:42:05Z</time>
      </trkpt>
      <trkpt lat="43.133731" lon="-3.408802">
        <ele>1325.8</ele>
        <time>2011-04-10T10:42:07Z</time>
      </trkpt>
      <trkpt lat="43.133792" lon="-3.408775">
        <ele>1322.7</ele>
        <time>2011-04-10T10:42:09Z</time>
      </trkpt>
      <trkpt lat="43.133873" lon="-3.408741">
        <ele>1322.2</ele>
        <time>2011-04-10T10:42:12Z</time>
      </trkpt>
      <trkpt lat="43.133997" lon="-3.408684">
        <ele>1321.2</ele>
        <time>2011-04-10T10:42:14Z</time>
      </trkpt>
      <trkpt lat="43.134089" lon="-3.408650">
        <ele>1320.7</ele>
        <time>2011-04-10T10:42:16Z</time>
      </trkpt>
      <trkpt lat="43.134201" lon="-3.408599">
        <ele>1319.7</ele>
        <time>2011-04-10T10:42:27Z</time>
      </trkpt>
      <trkpt lat="43.134359" lon="-3.408570">
        <ele>1317.4</ele>
        <time>2011-04-10T10:42:38Z</time>
      </trkpt>
      <trkpt lat="43.134521" lon="-3.408510">
        <ele>1314.4</ele>
        <time>2011-04-10T10:42:41Z</time>
      </trkpt>
      <trkpt lat="43.134741" lon="-3.408485">
        <ele>1312.0</ele>
        <time>2011-04-10T10:42:53Z</time>
      </trkpt>
      <trkpt lat="43.135013" lon="-3.408488">
        <ele>1307.2</ele>
        <time>2011-04-10T10:42:58Z</time>
      </trkpt>
      <trkpt lat="43.135219" lon="-3.408496">
        <ele>1304.3</ele>
        <time>2011-04-10T10:43:02Z</time>
      </trkpt>
      <trkpt lat="43.135358" lon="-3.408505">
        <ele>1301.9</ele>
        <time>2011-04-10T10:43:11Z</time>
      </trkpt>
      <trkpt lat="43.135520" lon="-3.408559">
        <ele>1300.2</ele>
        <time>2011-04-10T10:43:12Z</time>
      </trkpt>
      <trkpt lat="43.135668" lon="-3.408567">
        <ele>1297.0</ele>
        <time>2011-04-10T10:43:19Z</time>
      </trkpt>
      <trkpt lat="43.135794" lon="-3.408567">
        <ele>1294.2</ele>
        <time>2011-04-10T10:43:29Z</time>
      </trkpt>
      <trkpt lat="43.135905" lon="-3.408572">
        <ele>1285.4</ele>
        <time>2011-04-10T10:43:31Z</time>
      </trkpt>
      <trkpt lat="43.135967" lon="-3.408519">
        <ele>1283.6</ele>
        <time>2011-04-10T10:43:40Z</time>
      </trkpt>
      <trkpt lat="43.136035" lon="-3.408435">
        <ele>1282.0</ele>
        <time>2011-04-10T10:43:46Z</time>
      </trkpt>
      <trkpt lat="43.136119" lon="-3.408397">
        <ele>1280.4</ele>
        <time>2011-04-10T10:43:47Z</time>
      </trkpt>
      <trkpt lat="43.136182" lon="-3.408297">
        <ele>1278.8</ele>
        <time>2011-04-10T10:43:57Z</time>
      </trkpt>
      <trkpt lat="43.136244" lon="-3.408213">
        <ele>1277.2</ele>
        <time>2011-04-10T10:44:01Z</time>
      </trkpt>
      <trkpt lat="43.136306" lon="-3.408114">
        <ele>1275.7</ele>
        <time>2011-04-10T10:44:05Z</time>
      </trkpt>
      <trkpt lat="43.136363" lon="-3.408030">
        <ele>1274.6</ele>
        <time>2011-04-10T10:44:06Z</time>
      </trkpt>
      <trkpt lat="43.136425" lon="-3.407938">
        <ele>1273.6</ele>
        <time>2011-04-10T10:44:12Z</time>
      </trkpt>
      <trkpt lat="43.136481" lon="-3.407861">
        <ele>1272.7</ele>
        <time>2011-04-10T10:44:13Z</time>
      </trkpt>
      <trkpt lat="43.136600" lon="-3.407701">
        <ele>1270.8</ele>
        <time>2011-04-10T10:44:22Z</time>
      </trkpt>
      <trkpt lat="43.136666" lon="-3.407513">
        <ele>1271.0</ele>
        <time>2011-04-10T10:44:34Z</time>
      </trkpt>
      <trkpt lat="43.136686" lon="-3.407509">
        <ele>1271.0</ele>
        <time>2011-04-10T10:44:35Z</time>
      </trkpt>
      <trkpt lat="43.136714" lon="-3.407425">
        <ele>1266.4</ele>
        <time>2011-04-10T10:44:39Z</time>
      </trkpt>
      <trkpt lat="43.136748" lon="-3.407310">
        <ele>1264.1</ele>
        <time>2011-04-10T10:44:40Z</time>
      </trkpt>
      <trkpt lat="43.136777" lon="-3.407164">
        <ele>1261.6</ele>
        <time>2011-04-10T10:44:42Z</time>
      </trkpt>
      <trkpt lat="43.136845" lon="-3.407034">
        <ele>1258.5</ele>
        <time>2011-04-10T10:44:50Z</time>
      </trkpt>
      <trkpt lat="43.136896" lon="-3.406957">
        <ele>1256.6</ele>
        <time>2011-04-10T10:44:52Z</time>
      </trkpt>
      <trkpt lat="43.136935" lon="-3.406888">
        <ele>1254.7</ele>
        <time>2011-04-10T10:45:00Z</time>
      </trkpt>
      <trkpt lat="43.136986" lon="-3.406804">
        <ele>1252.5</ele>
        <time>2011-04-10T10:45:03Z</time>
      </trkpt>
      <trkpt lat="43.137048" lon="-3.406728">
        <ele>1250.3</ele>
        <time>2011-04-10T10:45:06Z</time>
      </trkpt>
      <trkpt lat="43.137082" lon="-3.406659">
        <ele>1248.9</ele>
        <time>2011-04-10T10:45:11Z</time>
      </trkpt>
      <trkpt lat="43.137156" lon="-3.406582">
        <ele>1247.1</ele>
        <time>2011-04-10T10:45:15Z</time>
      </trkpt>
      <trkpt lat="43.137167" lon="-3.406475">
        <ele>1245.8</ele>
        <time>2011-04-10T10:45:16Z</time>
      </trkpt>
      <trkpt lat="43.137213" lon="-3.406414">
        <ele>1244.8</ele>
        <time>2011-04-10T10:45:18Z</time>
      </trkpt>
      <trkpt lat="43.137236" lon="-3.406314">
        <ele>1243.7</ele>
        <time>2011-04-10T10:45:26Z</time>
      </trkpt>
      <trkpt lat="43.137247" lon="-3.406229">
        <ele>1242.7</ele>
        <time>2011-04-10T10:45:31Z</time>
      </trkpt>
      <trkpt lat="43.137287" lon="-3.406130">
        <ele>1240.5</ele>
        <time>2011-04-10T10:45:34Z</time>
      </trkpt>
      <trkpt lat="43.137315" lon="-3.406061">
        <ele>1238.9</ele>
        <time>2011-04-10T10:45:38Z</time>
      </trkpt>
      <trkpt lat="43.137366" lon="-3.406007">
        <ele>1237.1</ele>
        <time>2011-04-10T10:45:41Z</time>
      </trkpt>
      <trkpt lat="43.137372" lon="-3.405892">
        <ele>1234.8</ele>
        <time>2011-04-10T10:45:43Z</time>
      </trkpt>
      <trkpt lat="43.137395" lon="-3.405800">
        <ele>1232.5</ele>
        <time>2011-04-10T10:45:45Z</time>
      </trkpt>
      <trkpt lat="43.137451" lon="-3.405747">
        <ele>1230.7</ele>
        <time>2011-04-10T10:45:49Z</time>
      </trkpt>
      <trkpt lat="43.137485" lon="-3.405678">
        <ele>1228.9</ele>
        <time>2011-04-10T10:45:50Z</time>
      </trkpt>
      <trkpt lat="43.137547" lon="-3.405601">
        <ele>1226.8</ele>
        <time>2011-04-10T10:45:56Z</time>
      </trkpt>
      <trkpt lat="43.137610" lon="-3.405548">
        <ele>1225.2</ele>
        <time>2011-04-10T10:45:59Z</time>
      </trkpt>
      <trkpt lat="43.137638" lon="-3.405464">
        <ele>1223.6</ele>
        <time>2011-04-10T10:46:00Z</time>
      </trkpt>
      <trkpt lat="43.137683" lon="-3.405402">
        <ele>1222.2</ele>
        <time>2011-04-10T10:46:04Z</time>
      </trkpt>
      <trkpt lat="43.137723" lon="-3.405334">
        <ele>1220.9</ele>
        <time>2011-04-10T10:46:10Z</time>
      </trkpt>
      <trkpt lat="43.137779" lon="-3.405265">
        <ele>1219.3</ele>
        <time>2011-04-10T10:46:13Z</time>
      </trkpt>
      <trkpt lat="43.137825" lon="-3.405134">
        <ele>1216.8</ele>
        <time>2011-04-10T10:46:14Z</time>
      </trkpt>
      <trkpt lat="43.137870" lon="-3.405042">
        <ele>1214.9</ele>
        <time>2011-04-10T10:46:21Z</time>
      </trkpt>
      <trkpt lat="43.137904" lon="-3.404943">
        <ele>1212.9</ele>
        <time>2011-04-10T10:46:28Z</time>
      </trkpt>
      <trkpt lat="43.137927" lon="-3.404866">
        <ele>1211.5</ele>
        <time>2011-04-10T10:46:29Z</time>
      </trkpt>
      <trkpt lat="43.137950" lon="-3.404789">
        <ele>1210.0</ele>
        <time>2011-04-10T10:46:35Z</time>
      </trkpt>
      <trkpt lat="43.137950" lon="-3.404705">
        <ele>1208.7</ele>
        <time>2011-04-10T10:46:37Z</time>
      </trkpt>
      <trkpt lat="43.137967" lon="-3.404620">
        <ele>1207.1</ele>
        <time>2011-04-10T10:47:02Z</time>
      </trkpt>
      <trkpt lat="43.137996" lon="-3.404551">
        <ele>1205.7</ele>
        <time>2011-04-10T10:47:05Z</time>
      </trkpt>
      <trkpt lat="43.138007" lon="-3.404467">
        <ele>1204.3</ele>
        <time>2011-04-10T10:47:17Z</time>
      </trkpt>
      <trkpt lat="43.138019" lon="-3.404336">
        <ele>1201.9</ele>
        <time>2011-04-10T10:47:26Z</time>
      </trkpt>
      <trkpt lat="43.138020" lon="-3.404221">
        <ele>1199.6</ele>
        <time>2011-04-10T10:47:34Z</time>
      </trkpt>
      <trkpt lat="43.138020" lon="-3.404106">
        <ele>1197.4</ele>
        <time>2011-04-10T10:47:44Z</time>
      </trkpt>
      <trkpt lat="43.138026" lon="-3.403983">
        <ele>1195.3</ele>
        <time>2011-04-10T10:47:46Z</time>
      </trkpt>
      <trkpt lat="43.138032" lon="-3.403898">
        <ele>1193.9</ele>
        <time>2011-04-10T10:47:49Z</time>
      </trkpt>
      <trkpt lat="43.138015" lon="-3.403821">
        <ele>1192.7</ele>
        <time>2011-04-10T10:47:55Z</time>
      </trkpt>
      <trkpt lat="43.138021" lon="-3.403745">
        <ele>1191.3</ele>
        <time>2011-04-10T10:47:59Z</time>
      </trkpt>
      <trkpt lat="43.138010" lon="-3.403660">
        <ele>1189.7</ele>
        <time>2011-04-10T10:48:02Z</time>
      </trkpt>
      <trkpt lat="43.137999" lon="-3.403560">
        <ele>1187.8</ele>
        <time>2011-04-10T10:48:07Z</time>
      </trkpt>
      <trkpt lat="43.137977" lon="-3.403475">
        <ele>1186.1</ele>
        <time>2011-04-10T10:48:08Z</time>
      </trkpt>
      <trkpt lat="43.137961" lon="-3.403383">
        <ele>1183.0</ele>
        <time>2011-04-10T10:48:15Z</time>
      </trkpt>
      <trkpt lat="43.137938" lon="-3.403291">
        <ele>1179.8</ele>
        <time>2011-04-10T10:48:23Z</time>
      </trkpt>
      <trkpt lat="43.137905" lon="-3.403221">
        <ele>1177.6</ele>
        <time>2011-04-10T10:48:27Z</time>
      </trkpt>
      <trkpt lat="43.137880" lon="-3.403122">
        <ele>1166.7</ele>
        <time>2011-04-10T10:48:38Z</time>
      </trkpt>
      <trkpt lat="43.137765" lon="-3.403061">
        <ele>1163.3</ele>
        <time>2011-04-10T10:48:46Z</time>
      </trkpt>
      <trkpt lat="43.137729" lon="-3.402872">
        <ele>1159.0</ele>
        <time>2011-04-10T10:49:00Z</time>
      </trkpt>
      <trkpt lat="43.137704" lon="-3.402850">
        <ele>1159.0</ele>
        <time>2011-04-10T10:49:02Z</time>
      </trkpt>
      <trkpt lat="43.137596" lon="-3.402741">
        <ele>1155.2</ele>
        <time>2011-04-10T10:49:10Z</time>
      </trkpt>
      <trkpt lat="43.137530" lon="-3.402640">
        <ele>1152.3</ele>
        <time>2011-04-10T10:49:16Z</time>
      </trkpt>
      <trkpt lat="43.137432" lon="-3.402531">
        <ele>1149.4</ele>
        <time>2011-04-10T10:49:24Z</time>
      </trkpt>
      <trkpt lat="43.137346" lon="-3.402412">
        <ele>1146.0</ele>
        <time>2011-04-10T10:49:31Z</time>
      </trkpt>
      <trkpt lat="43.137334" lon="-3.402396">
        <ele>1146.0</ele>
        <time>2011-04-10T10:49:32Z</time>
      </trkpt>
      <trkpt lat="43.137270" lon="-3.402278">
        <ele>1142.7</ele>
        <time>2011-04-10T10:49:39Z</time>
      </trkpt>
      <trkpt lat="43.137249" lon="-3.402245">
        <ele>1141.2</ele>
        <time>2011-04-10T10:49:41Z</time>
      </trkpt>
      <trkpt lat="43.137184" lon="-3.402174">
        <ele>1138.8</ele>
        <time>2011-04-10T10:49:46Z</time>
      </trkpt>
      <trkpt lat="43.137148" lon="-3.402049">
        <ele>1135.0</ele>
        <time>2011-04-10T10:49:51Z</time>
      </trkpt>
      <trkpt lat="43.137143" lon="-3.402024">
        <ele>1135.0</ele>
        <time>2011-04-10T10:49:52Z</time>
      </trkpt>
      <trkpt lat="43.137099" lon="-3.401832">
        <ele>1132.6</ele>
        <time>2011-04-10T10:50:01Z</time>
      </trkpt>
      <trkpt lat="43.137088" lon="-3.401740">
        <ele>1131.6</ele>
        <time>2011-04-10T10:50:05Z</time>
      </trkpt>
      <trkpt lat="43.137070" lon="-3.401690">
        <ele>1129.7</ele>
        <time>2011-04-10T10:50:08Z</time>
      </trkpt>
      <trkpt lat="43.137058" lon="-3.401513">
        <ele>1126.3</ele>
        <time>2011-04-10T10:50:17Z</time>
      </trkpt>
      <trkpt lat="43.137073" lon="-3.401295">
        <ele>1128.8</ele>
        <time>2011-04-10T10:50:31Z</time>
      </trkpt>
      <trkpt lat="43.137079" lon="-3.401118">
        <ele>1127.0</ele>
        <time>2011-04-10T10:50:34Z</time>
      </trkpt>
      <trkpt lat="43.137097" lon="-3.401018">
        <ele>1126.0</ele>
        <time>2011-04-10T10:50:36Z</time>
      </trkpt>
      <trkpt lat="43.137142" lon="-3.400826">
        <ele>1124.8</ele>
        <time>2011-04-10T10:50:50Z</time>
      </trkpt>
      <trkpt lat="43.137193" lon="-3.400704">
        <ele>1124.0</ele>
        <time>2011-04-10T10:50:56Z</time>
      </trkpt>
      <trkpt lat="43.137233" lon="-3.400581">
        <ele>1123.4</ele>
        <time>2011-04-10T10:51:01Z</time>
      </trkpt>
      <trkpt lat="43.137245" lon="-3.400420">
        <ele>1122.7</ele>
        <time>2011-04-10T10:51:10Z</time>
      </trkpt>
      <trkpt lat="43.137279" lon="-3.400297">
        <ele>1122.4</ele>
        <time>2011-04-10T10:51:23Z</time>
      </trkpt>
      <trkpt lat="43.137325" lon="-3.400197">
        <ele>1122.2</ele>
        <time>2011-04-10T10:51:25Z</time>
      </trkpt>
      <trkpt lat="43.137370" lon="-3.400028">
        <ele>1122.0</ele>
        <time>2011-04-10T10:51:37Z</time>
      </trkpt>
      <trkpt lat="43.137489" lon="-3.399768">
        <ele>1122.6</ele>
        <time>2011-04-10T10:51:49Z</time>
      </trkpt>
      <trkpt lat="43.137546" lon="-3.399669">
        <ele>1123.1</ele>
        <time>2011-04-10T10:51:50Z</time>
      </trkpt>
      <trkpt lat="43.137602" lon="-3.399577">
        <ele>1123.6</ele>
        <time>2011-04-10T10:51:51Z</time>
      </trkpt>
      <trkpt lat="43.137687" lon="-3.399539">
        <ele>1123.7</ele>
        <time>2011-04-10T10:51:52Z</time>
      </trkpt>
      <trkpt lat="43.137772" lon="-3.399393">
        <ele>1124.5</ele>
        <time>2011-04-10T10:52:02Z</time>
      </trkpt>
      <trkpt lat="43.137773" lon="-3.399241">
        <ele>1125.8</ele>
        <time>2011-04-10T10:52:16Z</time>
      </trkpt>
      <trkpt lat="43.137792" lon="-3.399212">
        <ele>1124.9</ele>
        <time>2011-04-10T10:52:18Z</time>
      </trkpt>
      <trkpt lat="43.137821" lon="-3.399169">
        <ele>1126.8</ele>
        <time>2011-04-10T10:52:21Z</time>
      </trkpt>
      <trkpt lat="43.137838" lon="-3.399139">
        <ele>1127.8</ele>
        <time>2011-04-10T10:52:23Z</time>
      </trkpt>
      <trkpt lat="43.137837" lon="-3.399113">
        <ele>1130.2</ele>
        <time>2011-04-10T10:52:25Z</time>
      </trkpt>
      <trkpt lat="43.137835" lon="-3.398931">
        <ele>1133.1</ele>
        <time>2011-04-10T10:52:36Z</time>
      </trkpt>
      <trkpt lat="43.137945" lon="-3.398681">
        <ele>1134.0</ele>
        <time>2011-04-10T10:52:53Z</time>
      </trkpt>
      <trkpt lat="43.138001" lon="-3.398559">
        <ele>1137.4</ele>
        <time>2011-04-10T10:53:02Z</time>
      </trkpt>
      <trkpt lat="43.138012" lon="-3.398530">
        <ele>1138.3</ele>
        <time>2011-04-10T10:53:04Z</time>
      </trkpt>
      <trkpt lat="43.138021" lon="-3.398502">
        <ele>1138.3</ele>
        <time>2011-04-10T10:53:06Z</time>
      </trkpt>
      <trkpt lat="43.138038" lon="-3.398439">
        <ele>1137.9</ele>
        <time>2011-04-10T10:53:10Z</time>
      </trkpt>
      <trkpt lat="43.138098" lon="-3.398350">
        <ele>1137.4</ele>
        <time>2011-04-10T10:53:19Z</time>
      </trkpt>
      <trkpt lat="43.138107" lon="-3.398324">
        <ele>1141.2</ele>
        <time>2011-04-10T10:53:21Z</time>
      </trkpt>
      <trkpt lat="43.138111" lon="-3.398311">
        <ele>1142.7</ele>
        <time>2011-04-10T10:53:22Z</time>
      </trkpt>
      <trkpt lat="43.138132" lon="-3.398256">
        <ele>1143.1</ele>
        <time>2011-04-10T10:53:26Z</time>
      </trkpt>
      <trkpt lat="43.138185" lon="-3.398163">
        <ele>1144.1</ele>
        <time>2011-04-10T10:53:34Z</time>
      </trkpt>
      <trkpt lat="43.138223" lon="-3.398080">
        <ele>1148.0</ele>
        <time>2011-04-10T10:53:41Z</time>
      </trkpt>
      <trkpt lat="43.138225" lon="-3.398066">
        <ele>1148.0</ele>
        <time>2011-04-10T10:53:42Z</time>
      </trkpt>
      <trkpt lat="43.138257" lon="-3.397972">
        <ele>1148.4</ele>
        <time>2011-04-10T10:53:50Z</time>
      </trkpt>
      <trkpt lat="43.138275" lon="-3.397903">
        <ele>1152.3</ele>
        <time>2011-04-10T10:53:56Z</time>
      </trkpt>
      <trkpt lat="43.138279" lon="-3.397893">
        <ele>1151.8</ele>
        <time>2011-04-10T10:53:57Z</time>
      </trkpt>
      <trkpt lat="43.138369" lon="-3.397709">
        <ele>1155.2</ele>
        <time>2011-04-10T10:54:14Z</time>
      </trkpt>
      <trkpt lat="43.138380" lon="-3.397684">
        <ele>1156.1</ele>
        <time>2011-04-10T10:54:16Z</time>
      </trkpt>
      <trkpt lat="43.138423" lon="-3.397584">
        <ele>1159.0</ele>
        <time>2011-04-10T10:54:24Z</time>
      </trkpt>
      <trkpt lat="43.138527" lon="-3.397413">
        <ele>1162.4</ele>
        <time>2011-04-10T10:54:40Z</time>
      </trkpt>
      <trkpt lat="43.138593" lon="-3.397273">
        <ele>1167.7</ele>
        <time>2011-04-10T10:54:52Z</time>
      </trkpt>
      <trkpt lat="43.138603" lon="-3.397250">
        <ele>1163.3</ele>
        <time>2011-04-10T10:54:54Z</time>
      </trkpt>
      <trkpt lat="43.138642" lon="-3.397192">
        <ele>1165.3</ele>
        <time>2011-04-10T10:55:00Z</time>
      </trkpt>
      <trkpt lat="43.138650" lon="-3.397168">
        <ele>1168.1</ele>
        <time>2011-04-10T10:55:02Z</time>
      </trkpt>
      <trkpt lat="43.138655" lon="-3.397157">
        <ele>1168.1</ele>
        <time>2011-04-10T10:55:03Z</time>
      </trkpt>
      <trkpt lat="43.138680" lon="-3.397099">
        <ele>1168.1</ele>
        <time>2011-04-10T10:55:08Z</time>
      </trkpt>
      <trkpt lat="43.138688" lon="-3.397074">
        <ele>1173.9</ele>
        <time>2011-04-10T10:55:10Z</time>
      </trkpt>
      <trkpt lat="43.138703" lon="-3.397039">
        <ele>1172.5</ele>
        <time>2011-04-10T10:55:13Z</time>
      </trkpt>
      <trkpt lat="43.138735" lon="-3.396983">
        <ele>1169.6</ele>
        <time>2011-04-10T10:55:18Z</time>
      </trkpt>
      <trkpt lat="43.138791" lon="-3.396891">
        <ele>1172.5</ele>
        <time>2011-04-10T10:55:26Z</time>
      </trkpt>
      <trkpt lat="43.138806" lon="-3.396853">
        <ele>1175.3</ele>
        <time>2011-04-10T10:55:29Z</time>
      </trkpt>
      <trkpt lat="43.138819" lon="-3.396829">
        <ele>1173.9</ele>
        <time>2011-04-10T10:55:31Z</time>
      </trkpt>
      <trkpt lat="43.138838" lon="-3.396795">
        <ele>1175.3</ele>
        <time>2011-04-10T10:55:34Z</time>
      </trkpt>
      <trkpt lat="43.138860" lon="-3.396734">
        <ele>1180.2</ele>
        <time>2011-04-10T10:55:39Z</time>
      </trkpt>
      <trkpt lat="43.138923" lon="-3.396608">
        <ele>1180.2</ele>
        <time>2011-04-10T10:55:51Z</time>
      </trkpt>
      <trkpt lat="43.138974" lon="-3.396490">
        <ele>1185.0</ele>
        <time>2011-04-10T10:56:00Z</time>
      </trkpt>
      <trkpt lat="43.138981" lon="-3.396479">
        <ele>1183.5</ele>
        <time>2011-04-10T10:56:01Z</time>
      </trkpt>
      <trkpt lat="43.138994" lon="-3.396456">
        <ele>1183.0</ele>
        <time>2011-04-10T10:56:03Z</time>
      </trkpt>
      <trkpt lat="43.139006" lon="-3.396431">
        <ele>1185.0</ele>
        <time>2011-04-10T10:56:05Z</time>
      </trkpt>
      <trkpt lat="43.139033" lon="-3.396367">
        <ele>1187.4</ele>
        <time>2011-04-10T10:56:10Z</time>
      </trkpt>
      <trkpt lat="43.139045" lon="-3.396325">
        <ele>1190.2</ele>
        <time>2011-04-10T10:56:13Z</time>
      </trkpt>
      <trkpt lat="43.139082" lon="-3.396203">
        <ele>1193.6</ele>
        <time>2011-04-10T10:56:22Z</time>
      </trkpt>
      <trkpt lat="43.139098" lon="-3.396162">
        <ele>1190.2</ele>
        <time>2011-04-10T10:56:25Z</time>
      </trkpt>
      <trkpt lat="43.139119" lon="-3.396104">
        <ele>1194.1</ele>
        <time>2011-04-10T10:56:29Z</time>
      </trkpt>
      <trkpt lat="43.139139" lon="-3.396044">
        <ele>1197.5</ele>
        <time>2011-04-10T10:56:33Z</time>
      </trkpt>
      <trkpt lat="43.139144" lon="-3.396029">
        <ele>1197.5</ele>
        <time>2011-04-10T10:56:34Z</time>
      </trkpt>
      <trkpt lat="43.139174" lon="-3.395964">
        <ele>1194.1</ele>
        <time>2011-04-10T10:56:39Z</time>
      </trkpt>
      <trkpt lat="43.139186" lon="-3.395919">
        <ele>1198.4</ele>
        <time>2011-04-10T10:56:42Z</time>
      </trkpt>
      <trkpt lat="43.139190" lon="-3.395903">
        <ele>1197.9</ele>
        <time>2011-04-10T10:56:43Z</time>
      </trkpt>
      <trkpt lat="43.139266" lon="-3.395720">
        <ele>1201.8</ele>
        <time>2011-04-10T10:56:55Z</time>
      </trkpt>
      <trkpt lat="43.139287" lon="-3.395654">
        <ele>1199.9</ele>
        <time>2011-04-10T10:56:59Z</time>
      </trkpt>
      <trkpt lat="43.139400" lon="-3.395360">
        <ele>1199.9</ele>
        <time>2011-04-10T10:57:18Z</time>
      </trkpt>
      <trkpt lat="43.139449" lon="-3.395190">
        <ele>1202.7</ele>
        <time>2011-04-10T10:57:29Z</time>
      </trkpt>
      <trkpt lat="43.139459" lon="-3.395158">
        <ele>1200.3</ele>
        <time>2011-04-10T10:57:31Z</time>
      </trkpt>
      <trkpt lat="43.139504" lon="-3.395037">
        <ele>1204.2</ele>
        <time>2011-04-10T10:57:39Z</time>
      </trkpt>
      <trkpt lat="43.139534" lon="-3.394935">
        <ele>1205.6</ele>
        <time>2011-04-10T10:57:45Z</time>
      </trkpt>
      <trkpt lat="43.139542" lon="-3.394919">
        <ele>1202.3</ele>
        <time>2011-04-10T10:57:46Z</time>
      </trkpt>
      <trkpt lat="43.139559" lon="-3.394891">
        <ele>1198.4</ele>
        <time>2011-04-10T10:57:48Z</time>
      </trkpt>
      <trkpt lat="43.139578" lon="-3.394861">
        <ele>1204.7</ele>
        <time>2011-04-10T10:57:50Z</time>
      </trkpt>
      <trkpt lat="43.139593" lon="-3.394792">
        <ele>1207.6</ele>
        <time>2011-04-10T10:57:54Z</time>
      </trkpt>
      <trkpt lat="43.139598" lon="-3.394753">
        <ele>1209.0</ele>
        <time>2011-04-10T10:57:56Z</time>
      </trkpt>
      <trkpt lat="43.139666" lon="-3.394605">
        <ele>1203.7</ele>
        <time>2011-04-10T10:58:05Z</time>
      </trkpt>
      <trkpt lat="43.139684" lon="-3.394572">
        <ele>1202.3</ele>
        <time>2011-04-10T10:58:07Z</time>
      </trkpt>
      <trkpt lat="43.139693" lon="-3.394556">
        <ele>1198.9</ele>
        <time>2011-04-10T10:58:08Z</time>
      </trkpt>
      <trkpt lat="43.139703" lon="-3.394540">
        <ele>1195.5</ele>
        <time>2011-04-10T10:58:09Z</time>
      </trkpt>
      <trkpt lat="43.139715" lon="-3.394525">
        <ele>1209.5</ele>
        <time>2011-04-10T10:58:10Z</time>
      </trkpt>
      <trkpt lat="43.139726" lon="-3.394510">
        <ele>1203.2</ele>
        <time>2011-04-10T10:58:11Z</time>
      </trkpt>
      <trkpt lat="43.139747" lon="-3.394479">
        <ele>1202.3</ele>
        <time>2011-04-10T10:58:13Z</time>
      </trkpt>
      <trkpt lat="43.139835" lon="-3.394371">
        <ele>1205.1</ele>
        <time>2011-04-10T10:58:21Z</time>
      </trkpt>
      <trkpt lat="43.139861" lon="-3.394342">
        <ele>1201.8</ele>
        <time>2011-04-10T10:58:23Z</time>
      </trkpt>
      <trkpt lat="43.139878" lon="-3.394266">
        <ele>1199.7</ele>
        <time>2011-04-10T10:58:28Z</time>
      </trkpt>
      <trkpt lat="43.139872" lon="-3.394158">
        <ele>1199.8</ele>
        <time>2011-04-10T10:58:29Z</time>
      </trkpt>
      <trkpt lat="43.139878" lon="-3.394058">
        <ele>1199.8</ele>
        <time>2011-04-10T10:58:39Z</time>
      </trkpt>
      <trkpt lat="43.139873" lon="-3.393973">
        <ele>1199.8</ele>
        <time>2011-04-10T10:58:57Z</time>
      </trkpt>
      <trkpt lat="43.139862" lon="-3.393873">
        <ele>1199.4</ele>
        <time>2011-04-10T10:59:04Z</time>
      </trkpt>
      <trkpt lat="43.139840" lon="-3.393797">
        <ele>1199.0</ele>
        <time>2011-04-10T10:59:05Z</time>
      </trkpt>
      <trkpt lat="43.139840" lon="-3.393712">
        <ele>1198.5</ele>
        <time>2011-04-10T10:59:10Z</time>
      </trkpt>
      <trkpt lat="43.139829" lon="-3.393604">
        <ele>1197.7</ele>
        <time>2011-04-10T10:59:20Z</time>
      </trkpt>
      <trkpt lat="43.139813" lon="-3.393466">
        <ele>1196.3</ele>
        <time>2011-04-10T10:59:34Z</time>
      </trkpt>
      <trkpt lat="43.139785" lon="-3.393350">
        <ele>1195.1</ele>
        <time>2011-04-10T10:59:38Z</time>
      </trkpt>
      <trkpt lat="43.139769" lon="-3.393258">
        <ele>1193.9</ele>
        <time>2011-04-10T10:59:43Z</time>
      </trkpt>
      <trkpt lat="43.139758" lon="-3.393135">
        <ele>1192.1</ele>
        <time>2011-04-10T10:59:51Z</time>
      </trkpt>
      <trkpt lat="43.139736" lon="-3.393027">
        <ele>1190.5</ele>
        <time>2011-04-10T10:59:58Z</time>
      </trkpt>
      <trkpt lat="43.139702" lon="-3.392881">
        <ele>1187.8</ele>
        <time>2011-04-10T11:00:02Z</time>
      </trkpt>
      <trkpt lat="43.139675" lon="-3.392727">
        <ele>1185.1</ele>
        <time>2011-04-10T11:00:08Z</time>
      </trkpt>
      <trkpt lat="43.139653" lon="-3.392612">
        <ele>1182.9</ele>
        <time>2011-04-10T11:00:15Z</time>
      </trkpt>
      <trkpt lat="43.139625" lon="-3.392458">
        <ele>1179.8</ele>
        <time>2011-04-10T11:00:20Z</time>
      </trkpt>
      <trkpt lat="43.139575" lon="-3.392327">
        <ele>1177.1</ele>
        <time>2011-04-10T11:00:31Z</time>
      </trkpt>
      <trkpt lat="43.139530" lon="-3.392173">
        <ele>1173.9</ele>
        <time>2011-04-10T11:00:37Z</time>
      </trkpt>
      <trkpt lat="43.139508" lon="-3.392057">
        <ele>1171.6</ele>
        <time>2011-04-10T11:00:42Z</time>
      </trkpt>
      <trkpt lat="43.139492" lon="-3.391904">
        <ele>1168.9</ele>
        <time>2011-04-10T11:00:48Z</time>
      </trkpt>
      <trkpt lat="43.139498" lon="-3.391765">
        <ele>1166.4</ele>
        <time>2011-04-10T11:00:54Z</time>
      </trkpt>
      <trkpt lat="43.139470" lon="-3.391612">
        <ele>1163.8</ele>
        <time>2011-04-10T11:00:57Z</time>
      </trkpt>
      <trkpt lat="43.139443" lon="-3.391458">
        <ele>1161.3</ele>
        <time>2011-04-10T11:01:08Z</time>
      </trkpt>
      <trkpt lat="43.139404" lon="-3.391296">
        <ele>1158.9</ele>
        <time>2011-04-10T11:01:12Z</time>
      </trkpt>
      <trkpt lat="43.139365" lon="-3.391134">
        <ele>1156.1</ele>
        <time>2011-04-10T11:01:16Z</time>
      </trkpt>
      <trkpt lat="43.139326" lon="-3.390988">
        <ele>1153.2</ele>
        <time>2011-04-10T11:01:21Z</time>
      </trkpt>
      <trkpt lat="43.139304" lon="-3.390873">
        <ele>1151.0</ele>
        <time>2011-04-10T11:01:25Z</time>
      </trkpt>
      <trkpt lat="43.139288" lon="-3.390742">
        <ele>1148.7</ele>
        <time>2011-04-10T11:01:28Z</time>
      </trkpt>
      <trkpt lat="43.139277" lon="-3.390627">
        <ele>1146.7</ele>
        <time>2011-04-10T11:01:32Z</time>
      </trkpt>
      <trkpt lat="43.139255" lon="-3.390503">
        <ele>1144.5</ele>
        <time>2011-04-10T11:01:37Z</time>
      </trkpt>
      <trkpt lat="43.139261" lon="-3.390419">
        <ele>1142.8</ele>
        <time>2011-04-10T11:01:38Z</time>
      </trkpt>
      <trkpt lat="43.139283" lon="-3.390327">
        <ele>1140.9</ele>
        <time>2011-04-10T11:01:47Z</time>
      </trkpt>
      <trkpt lat="43.139323" lon="-3.390266">
        <ele>1139.5</ele>
        <time>2011-04-10T11:01:51Z</time>
      </trkpt>
      <trkpt lat="43.139357" lon="-3.390181">
        <ele>1138.0</ele>
        <time>2011-04-10T11:01:57Z</time>
      </trkpt>
      <trkpt lat="43.139402" lon="-3.390120">
        <ele>1136.8</ele>
        <time>2011-04-10T11:02:02Z</time>
      </trkpt>
      <trkpt lat="43.139459" lon="-3.390067">
        <ele>1135.5</ele>
        <time>2011-04-10T11:02:04Z</time>
      </trkpt>
      <trkpt lat="43.139482" lon="-3.389990">
        <ele>1134.0</ele>
        <time>2011-04-10T11:02:10Z</time>
      </trkpt>
      <trkpt lat="43.139532" lon="-3.389944">
        <ele>1132.8</ele>
        <time>2011-04-10T11:02:11Z</time>
      </trkpt>
      <trkpt lat="43.139583" lon="-3.389860">
        <ele>1131.0</ele>
        <time>2011-04-10T11:02:19Z</time>
      </trkpt>
      <trkpt lat="43.139662" lon="-3.389784">
        <ele>1129.1</ele>
        <time>2011-04-10T11:02:28Z</time>
      </trkpt>
      <trkpt lat="43.139742" lon="-3.389684">
        <ele>1127.2</ele>
        <time>2011-04-10T11:02:40Z</time>
      </trkpt>
      <trkpt lat="43.139826" lon="-3.389531">
        <ele>1124.0</ele>
        <time>2011-04-10T11:02:42Z</time>
      </trkpt>
      <trkpt lat="43.139877" lon="-3.389439">
        <ele>1121.9</ele>
        <time>2011-04-10T11:02:51Z</time>
      </trkpt>
      <trkpt lat="43.139951" lon="-3.389317">
        <ele>1119.2</ele>
        <time>2011-04-10T11:02:58Z</time>
      </trkpt>
      <trkpt lat="43.140013" lon="-3.389148">
        <ele>1115.8</ele>
        <time>2011-04-10T11:03:00Z</time>
      </trkpt>
      <trkpt lat="43.140076" lon="-3.389033">
        <ele>1113.1</ele>
        <time>2011-04-10T11:03:07Z</time>
      </trkpt>
      <trkpt lat="43.140099" lon="-3.388810">
        <ele>1109.3</ele>
        <time>2011-04-10T11:03:13Z</time>
      </trkpt>
      <trkpt lat="43.140185" lon="-3.388620">
        <ele>1104.7</ele>
        <time>2011-04-10T11:03:22Z</time>
      </trkpt>
      <trkpt lat="43.140207" lon="-3.388566">
        <ele>1104.7</ele>
        <time>2011-04-10T11:03:24Z</time>
      </trkpt>
      <trkpt lat="43.140278" lon="-3.388333">
        <ele>1102.3</ele>
        <time>2011-04-10T11:03:33Z</time>
      </trkpt>
      <trkpt lat="43.140290" lon="-3.388305">
        <ele>1100.4</ele>
        <time>2011-04-10T11:03:34Z</time>
      </trkpt>
      <trkpt lat="43.140342" lon="-3.388168">
        <ele>1100.8</ele>
        <time>2011-04-10T11:03:39Z</time>
      </trkpt>
      <trkpt lat="43.140405" lon="-3.388087">
        <ele>1096.0</ele>
        <time>2011-04-10T11:03:43Z</time>
      </trkpt>
      <trkpt lat="43.140419" lon="-3.388062">
        <ele>1096.0</ele>
        <time>2011-04-10T11:03:44Z</time>
      </trkpt>
      <trkpt lat="43.140595" lon="-3.387808">
        <ele>1093.6</ele>
        <time>2011-04-10T11:03:55Z</time>
      </trkpt>
      <trkpt lat="43.140663" lon="-3.387751">
        <ele>1092.2</ele>
        <time>2011-04-10T11:03:58Z</time>
      </trkpt>
      <trkpt lat="43.140882" lon="-3.387556">
        <ele>1087.9</ele>
        <time>2011-04-10T11:04:08Z</time>
      </trkpt>
      <trkpt lat="43.140904" lon="-3.387533">
        <ele>1088.8</ele>
        <time>2011-04-10T11:04:09Z</time>
      </trkpt>
      <trkpt lat="43.140996" lon="-3.387400">
        <ele>1088.8</ele>
        <time>2011-04-10T11:04:14Z</time>
      </trkpt>
      <trkpt lat="43.141066" lon="-3.387345">
        <ele>1085.0</ele>
        <time>2011-04-10T11:04:17Z</time>
      </trkpt>
      <trkpt lat="43.141093" lon="-3.387328">
        <ele>1085.0</ele>
        <time>2011-04-10T11:04:18Z</time>
      </trkpt>
      <trkpt lat="43.141142" lon="-3.387274">
        <ele>1086.9</ele>
        <time>2011-04-10T11:04:21Z</time>
      </trkpt>
      <trkpt lat="43.141328" lon="-3.386988">
        <ele>1083.5</ele>
        <time>2011-04-10T11:04:33Z</time>
      </trkpt>
      <trkpt lat="43.141338" lon="-3.386957">
        <ele>1084.5</ele>
        <time>2011-04-10T11:04:34Z</time>
      </trkpt>
      <trkpt lat="43.141358" lon="-3.386904">
        <ele>1076.8</ele>
        <time>2011-04-10T11:04:36Z</time>
      </trkpt>
      <trkpt lat="43.141371" lon="-3.386879">
        <ele>1080.2</ele>
        <time>2011-04-10T11:04:37Z</time>
      </trkpt>
      <trkpt lat="43.141386" lon="-3.386854">
        <ele>1073.0</ele>
        <time>2011-04-10T11:04:38Z</time>
      </trkpt>
      <trkpt lat="43.141399" lon="-3.386828">
        <ele>1084.0</ele>
        <time>2011-04-10T11:04:39Z</time>
      </trkpt>
      <trkpt lat="43.141409" lon="-3.386797">
        <ele>1076.3</ele>
        <time>2011-04-10T11:04:40Z</time>
      </trkpt>
      <trkpt lat="43.141434" lon="-3.386744">
        <ele>1092.2</ele>
        <time>2011-04-10T11:04:42Z</time>
      </trkpt>
      <trkpt lat="43.141448" lon="-3.386718">
        <ele>1081.1</ele>
        <time>2011-04-10T11:04:43Z</time>
      </trkpt>
      <trkpt lat="43.141486" lon="-3.386604">
        <ele>1082.1</ele>
        <time>2011-04-10T11:04:47Z</time>
      </trkpt>
      <trkpt lat="43.141571" lon="-3.386580">
        <ele>1078.7</ele>
        <time>2011-04-10T11:04:51Z</time>
      </trkpt>
      <trkpt lat="43.141619" lon="-3.386571">
        <ele>1077.3</ele>
        <time>2011-04-10T11:04:53Z</time>
      </trkpt>
      <trkpt lat="43.141685" lon="-3.386457">
        <ele>1080.7</ele>
        <time>2011-04-10T11:04:58Z</time>
      </trkpt>
      <trkpt lat="43.141719" lon="-3.386353">
        <ele>1078.7</ele>
        <time>2011-04-10T11:05:03Z</time>
      </trkpt>
      <trkpt lat="43.141913" lon="-3.386026">
        <ele>1079.2</ele>
        <time>2011-04-10T11:05:23Z</time>
      </trkpt>
      <trkpt lat="43.141972" lon="-3.385924">
        <ele>1079.7</ele>
        <time>2011-04-10T11:05:29Z</time>
      </trkpt>
      <trkpt lat="43.142088" lon="-3.385663">
        <ele>1078.7</ele>
        <time>2011-04-10T11:05:44Z</time>
      </trkpt>
      <trkpt lat="43.142284" lon="-3.385340">
        <ele>1080.2</ele>
        <time>2011-04-10T11:06:03Z</time>
      </trkpt>
      <trkpt lat="43.142477" lon="-3.385031">
        <ele>1081.1</ele>
        <time>2011-04-10T11:06:22Z</time>
      </trkpt>
      <trkpt lat="43.142618" lon="-3.384815">
        <ele>1082.6</ele>
        <time>2011-04-10T11:06:35Z</time>
      </trkpt>
      <trkpt lat="43.142635" lon="-3.384757">
        <ele>1083.5</ele>
        <time>2011-04-10T11:06:39Z</time>
      </trkpt>
      <trkpt lat="43.142586" lon="-3.384695">
        <ele>1083.5</ele>
        <time>2011-04-10T11:06:44Z</time>
      </trkpt>
      <trkpt lat="43.142549" lon="-3.384537">
        <ele>1086.9</ele>
        <time>2011-04-10T11:06:52Z</time>
      </trkpt>
      <trkpt lat="43.142524" lon="-3.384450">
        <ele>1088.3</ele>
        <time>2011-04-10T11:06:57Z</time>
      </trkpt>
      <trkpt lat="43.142471" lon="-3.384243">
        <ele>1091.2</ele>
        <time>2011-04-10T11:07:09Z</time>
      </trkpt>
      <trkpt lat="43.142466" lon="-3.384225">
        <ele>1091.2</ele>
        <time>2011-04-10T11:07:10Z</time>
      </trkpt>
      <trkpt lat="43.142442" lon="-3.384121">
        <ele>1094.6</ele>
        <time>2011-04-10T11:07:16Z</time>
      </trkpt>
      <trkpt lat="43.142439" lon="-3.384086">
        <ele>1095.6</ele>
        <time>2011-04-10T11:07:18Z</time>
      </trkpt>
      <trkpt lat="43.142434" lon="-3.383846">
        <ele>1097.0</ele>
        <time>2011-04-10T11:07:30Z</time>
      </trkpt>
      <trkpt lat="43.142438" lon="-3.383715">
        <ele>1098.9</ele>
        <time>2011-04-10T11:07:37Z</time>
      </trkpt>
      <trkpt lat="43.142475" lon="-3.383621">
        <ele>1099.9</ele>
        <time>2011-04-10T11:07:42Z</time>
      </trkpt>
      <trkpt lat="43.142496" lon="-3.383522">
        <ele>1099.9</ele>
        <time>2011-04-10T11:07:47Z</time>
      </trkpt>
      <trkpt lat="43.142547" lon="-3.383333">
        <ele>1100.4</ele>
        <time>2011-04-10T11:07:57Z</time>
      </trkpt>
      <trkpt lat="43.142611" lon="-3.383180">
        <ele>1100.4</ele>
        <time>2011-04-10T11:08:06Z</time>
      </trkpt>
      <trkpt lat="43.142639" lon="-3.383052">
        <ele>1100.8</ele>
        <time>2011-04-10T11:08:12Z</time>
      </trkpt>
      <trkpt lat="43.142645" lon="-3.382980">
        <ele>1100.8</ele>
        <time>2011-04-10T11:08:15Z</time>
      </trkpt>
      <trkpt lat="43.142683" lon="-3.382881">
        <ele>1100.8</ele>
        <time>2011-04-10T11:08:20Z</time>
      </trkpt>
      <trkpt lat="43.142701" lon="-3.382654">
        <ele>1099.9</ele>
        <time>2011-04-10T11:08:31Z</time>
      </trkpt>
      <trkpt lat="43.142704" lon="-3.382629">
        <ele>1099.9</ele>
        <time>2011-04-10T11:08:32Z</time>
      </trkpt>
      <trkpt lat="43.142715" lon="-3.382409">
        <ele>1099.9</ele>
        <time>2011-04-10T11:08:41Z</time>
      </trkpt>
      <trkpt lat="43.142700" lon="-3.382173">
        <ele>1097.5</ele>
        <time>2011-04-10T11:08:52Z</time>
      </trkpt>
      <trkpt lat="43.142722" lon="-3.382045">
        <ele>1096.5</ele>
        <time>2011-04-10T11:08:58Z</time>
      </trkpt>
      <trkpt lat="43.142731" lon="-3.381796">
        <ele>1091.7</ele>
        <time>2011-04-10T11:09:09Z</time>
      </trkpt>
      <trkpt lat="43.142738" lon="-3.381776">
        <ele>1092.7</ele>
        <time>2011-04-10T11:09:10Z</time>
      </trkpt>
      <trkpt lat="43.142764" lon="-3.381738">
        <ele>1094.1</ele>
        <time>2011-04-10T11:09:12Z</time>
      </trkpt>
      <trkpt lat="43.142786" lon="-3.381699">
        <ele>1092.7</ele>
        <time>2011-04-10T11:09:14Z</time>
      </trkpt>
      <trkpt lat="43.142792" lon="-3.381677">
        <ele>1093.2</ele>
        <time>2011-04-10T11:09:15Z</time>
      </trkpt>
      <trkpt lat="43.142814" lon="-3.381626">
        <ele>1091.7</ele>
        <time>2011-04-10T11:09:19Z</time>
      </trkpt>
      <trkpt lat="43.142818" lon="-3.381614">
        <ele>1091.7</ele>
        <time>2011-04-10T11:09:20Z</time>
      </trkpt>
      <trkpt lat="43.142895" lon="-3.381441">
        <ele>1087.9</ele>
        <time>2011-04-10T11:09:29Z</time>
      </trkpt>
      <trkpt lat="43.142958" lon="-3.381242">
        <ele>1084.5</ele>
        <time>2011-04-10T11:09:38Z</time>
      </trkpt>
      <trkpt lat="43.143010" lon="-3.381022">
        <ele>1085.0</ele>
        <time>2011-04-10T11:09:47Z</time>
      </trkpt>
      <trkpt lat="43.143029" lon="-3.380936">
        <ele>1085.0</ele>
        <time>2011-04-10T11:09:50Z</time>
      </trkpt>
      <trkpt lat="43.143098" lon="-3.380857">
        <ele>1082.6</ele>
        <time>2011-04-10T11:09:55Z</time>
      </trkpt>
      <trkpt lat="43.143110" lon="-3.380848">
        <ele>1083.1</ele>
        <time>2011-04-10T11:09:56Z</time>
      </trkpt>
      <trkpt lat="43.143195" lon="-3.380805">
        <ele>1083.1</ele>
        <time>2011-04-10T11:10:01Z</time>
      </trkpt>
      <trkpt lat="43.143247" lon="-3.380777">
        <ele>1081.6</ele>
        <time>2011-04-10T11:10:04Z</time>
      </trkpt>
      <trkpt lat="43.143321" lon="-3.380735">
        <ele>1080.7</ele>
        <time>2011-04-10T11:10:08Z</time>
      </trkpt>
      <trkpt lat="43.143498" lon="-3.380637">
        <ele>1077.8</ele>
        <time>2011-04-10T11:10:20Z</time>
      </trkpt>
      <trkpt lat="43.143709" lon="-3.380600">
        <ele>1076.3</ele>
        <time>2011-04-10T11:10:30Z</time>
      </trkpt>
      <trkpt lat="43.143762" lon="-3.380588">
        <ele>1076.3</ele>
        <time>2011-04-10T11:10:33Z</time>
      </trkpt>
      <trkpt lat="43.143861" lon="-3.380563">
        <ele>1075.4</ele>
        <time>2011-04-10T11:10:38Z</time>
      </trkpt>
      <trkpt lat="43.143914" lon="-3.380554">
        <ele>1075.9</ele>
        <time>2011-04-10T11:10:41Z</time>
      </trkpt>
      <trkpt lat="43.144051" lon="-3.380571">
        <ele>1074.4</ele>
        <time>2011-04-10T11:10:49Z</time>
      </trkpt>
      <trkpt lat="43.144230" lon="-3.380555">
        <ele>1073.4</ele>
        <time>2011-04-10T11:10:58Z</time>
      </trkpt>
      <trkpt lat="43.144441" lon="-3.380537">
        <ele>1071.0</ele>
        <time>2011-04-10T11:11:09Z</time>
      </trkpt>
      <trkpt lat="43.144459" lon="-3.380540">
        <ele>1071.0</ele>
        <time>2011-04-10T11:11:10Z</time>
      </trkpt>
      <trkpt lat="43.144529" lon="-3.380521">
        <ele>1071.5</ele>
        <time>2011-04-10T11:11:13Z</time>
      </trkpt>
      <trkpt lat="43.144611" lon="-3.380406">
        <ele>1070.1</ele>
        <time>2011-04-10T11:11:18Z</time>
      </trkpt>
      <trkpt lat="43.144634" lon="-3.380353">
        <ele>1069.1</ele>
        <time>2011-04-10T11:11:20Z</time>
      </trkpt>
      <trkpt lat="43.144688" lon="-3.380063">
        <ele>1067.7</ele>
        <time>2011-04-10T11:11:28Z</time>
      </trkpt>
      <trkpt lat="43.144814" lon="-3.379634">
        <ele>1065.3</ele>
        <time>2011-04-10T11:11:40Z</time>
      </trkpt>
      <trkpt lat="43.144930" lon="-3.379276">
        <ele>1062.4</ele>
        <time>2011-04-10T11:11:50Z</time>
      </trkpt>
      <trkpt lat="43.145018" lon="-3.379192">
        <ele>1061.0</ele>
        <time>2011-04-10T11:11:54Z</time>
      </trkpt>
      <trkpt lat="43.145046" lon="-3.379142">
        <ele>1061.9</ele>
        <time>2011-04-10T11:11:56Z</time>
      </trkpt>
      <trkpt lat="43.145135" lon="-3.378955">
        <ele>1061.0</ele>
        <time>2011-04-10T11:12:03Z</time>
      </trkpt>
      <trkpt lat="43.145220" lon="-3.378766">
        <ele>1058.1</ele>
        <time>2011-04-10T11:12:09Z</time>
      </trkpt>
      <trkpt lat="43.145281" lon="-3.378742">
        <ele>1059.0</ele>
        <time>2011-04-10T11:12:13Z</time>
      </trkpt>
      <trkpt lat="43.145321" lon="-3.378679">
        <ele>1058.1</ele>
        <time>2011-04-10T11:12:16Z</time>
      </trkpt>
      <trkpt lat="43.145490" lon="-3.378476">
        <ele>1058.5</ele>
        <time>2011-04-10T11:12:26Z</time>
      </trkpt>
      <trkpt lat="43.145509" lon="-3.378457">
        <ele>1057.6</ele>
        <time>2011-04-10T11:12:27Z</time>
      </trkpt>
      <trkpt lat="43.145616" lon="-3.378133">
        <ele>1055.7</ele>
        <time>2011-04-10T11:12:38Z</time>
      </trkpt>
      <trkpt lat="43.145698" lon="-3.377954">
        <ele>1054.7</ele>
        <time>2011-04-10T11:12:44Z</time>
      </trkpt>
      <trkpt lat="43.145740" lon="-3.377860">
        <ele>1054.7</ele>
        <time>2011-04-10T11:12:48Z</time>
      </trkpt>
      <trkpt lat="43.145758" lon="-3.377783">
        <ele>1053.7</ele>
        <time>2011-04-10T11:12:51Z</time>
      </trkpt>
      <trkpt lat="43.145759" lon="-3.377728">
        <ele>1054.7</ele>
        <time>2011-04-10T11:12:55Z</time>
      </trkpt>
      <trkpt lat="43.145798" lon="-3.377681">
        <ele>1054.2</ele>
        <time>2011-04-10T11:12:59Z</time>
      </trkpt>
      <trkpt lat="43.145810" lon="-3.377637">
        <ele>1053.3</ele>
        <time>2011-04-10T11:13:02Z</time>
      </trkpt>
      <trkpt lat="43.145796" lon="-3.377525">
        <ele>1052.8</ele>
        <time>2011-04-10T11:13:07Z</time>
      </trkpt>
      <trkpt lat="43.145912" lon="-3.377326">
        <ele>1052.5</ele>
        <time>2011-04-10T11:13:12Z</time>
      </trkpt>
      <trkpt lat="43.146014" lon="-3.377127">
        <ele>1052.7</ele>
        <time>2011-04-10T11:13:24Z</time>
      </trkpt>
      <trkpt lat="43.146087" lon="-3.376989">
        <ele>1052.7</ele>
        <time>2011-04-10T11:13:34Z</time>
      </trkpt>
      <trkpt lat="43.146138" lon="-3.376920">
        <ele>1052.7</ele>
        <time>2011-04-10T11:13:39Z</time>
      </trkpt>
      <trkpt lat="43.146167" lon="-3.376815">
        <ele>1053.3</ele>
        <time>2011-04-10T11:13:44Z</time>
      </trkpt>
      <trkpt lat="43.146198" lon="-3.376711">
        <ele>1052.8</ele>
        <time>2011-04-10T11:13:50Z</time>
      </trkpt>
      <trkpt lat="43.146222" lon="-3.376654">
        <ele>1052.3</ele>
        <time>2011-04-10T11:13:53Z</time>
      </trkpt>
      <trkpt lat="43.146237" lon="-3.376602">
        <ele>1052.3</ele>
        <time>2011-04-10T11:13:56Z</time>
      </trkpt>
      <trkpt lat="43.146250" lon="-3.376541">
        <ele>1053.7</ele>
        <time>2011-04-10T11:13:59Z</time>
      </trkpt>
      <trkpt lat="43.146261" lon="-3.376511">
        <ele>1052.8</ele>
        <time>2011-04-10T11:14:01Z</time>
      </trkpt>
      <trkpt lat="43.146334" lon="-3.376352">
        <ele>1055.2</ele>
        <time>2011-04-10T11:14:10Z</time>
      </trkpt>
      <trkpt lat="43.146392" lon="-3.376253">
        <ele>1055.7</ele>
        <time>2011-04-10T11:14:15Z</time>
      </trkpt>
      <trkpt lat="43.146461" lon="-3.376176">
        <ele>1055.2</ele>
        <time>2011-04-10T11:14:20Z</time>
      </trkpt>
      <trkpt lat="43.146487" lon="-3.376097">
        <ele>1055.2</ele>
        <time>2011-04-10T11:14:24Z</time>
      </trkpt>
      <trkpt lat="43.146629" lon="-3.375910">
        <ele>1053.7</ele>
        <time>2011-04-10T11:14:37Z</time>
      </trkpt>
      <trkpt lat="43.146748" lon="-3.375748">
        <ele>1055.7</ele>
        <time>2011-04-10T11:14:48Z</time>
      </trkpt>
      <trkpt lat="43.146790" lon="-3.375722">
        <ele>1056.6</ele>
        <time>2011-04-10T11:14:51Z</time>
      </trkpt>
      <trkpt lat="43.146833" lon="-3.375659">
        <ele>1057.6</ele>
        <time>2011-04-10T11:14:55Z</time>
      </trkpt>
      <trkpt lat="43.146951" lon="-3.375505">
        <ele>1056.6</ele>
        <time>2011-04-10T11:15:07Z</time>
      </trkpt>
      <trkpt lat="43.146965" lon="-3.375488">
        <ele>1058.1</ele>
        <time>2011-04-10T11:15:10Z</time>
      </trkpt>
      <trkpt lat="43.146991" lon="-3.375479">
        <ele>1058.5</ele>
        <time>2011-04-10T11:15:12Z</time>
      </trkpt>
      <trkpt lat="43.147143" lon="-3.375298">
        <ele>1060.5</ele>
        <time>2011-04-10T11:15:25Z</time>
      </trkpt>
      <trkpt lat="43.147241" lon="-3.375179">
        <ele>1060.5</ele>
        <time>2011-04-10T11:15:33Z</time>
      </trkpt>
      <trkpt lat="43.147272" lon="-3.375107">
        <ele>1061.0</ele>
        <time>2011-04-10T11:15:37Z</time>
      </trkpt>
      <trkpt lat="43.147325" lon="-3.375048">
        <ele>1062.4</ele>
        <time>2011-04-10T11:15:42Z</time>
      </trkpt>
      <trkpt lat="43.147363" lon="-3.375005">
        <ele>1061.9</ele>
        <time>2011-04-10T11:15:45Z</time>
      </trkpt>
      <trkpt lat="43.147398" lon="-3.374971">
        <ele>1063.8</ele>
        <time>2011-04-10T11:15:48Z</time>
      </trkpt>
      <trkpt lat="43.147454" lon="-3.374908">
        <ele>1064.3</ele>
        <time>2011-04-10T11:15:53Z</time>
      </trkpt>
      <trkpt lat="43.147604" lon="-3.374750">
        <ele>1065.3</ele>
        <time>2011-04-10T11:16:05Z</time>
      </trkpt>
      <trkpt lat="43.147719" lon="-3.374601">
        <ele>1066.2</ele>
        <time>2011-04-10T11:16:16Z</time>
      </trkpt>
      <trkpt lat="43.147840" lon="-3.374471">
        <ele>1067.1</ele>
        <time>2011-04-10T11:16:28Z</time>
      </trkpt>
      <trkpt lat="43.147891" lon="-3.374417">
        <ele>1067.8</ele>
        <time>2011-04-10T11:16:31Z</time>
      </trkpt>
      <trkpt lat="43.147959" lon="-3.374333">
        <ele>1068.9</ele>
        <time>2011-04-10T11:16:36Z</time>
      </trkpt>
      <trkpt lat="43.148032" lon="-3.374272">
        <ele>1069.9</ele>
        <time>2011-04-10T11:16:50Z</time>
      </trkpt>
      <trkpt lat="43.148083" lon="-3.374203">
        <ele>1071.2</ele>
        <time>2011-04-10T11:16:58Z</time>
      </trkpt>
      <trkpt lat="43.148134" lon="-3.374134">
        <ele>1072.3</ele>
        <time>2011-04-10T11:17:09Z</time>
      </trkpt>
      <trkpt lat="43.148190" lon="-3.374066">
        <ele>1073.4</ele>
        <time>2011-04-10T11:17:13Z</time>
      </trkpt>
      <trkpt lat="43.148236" lon="-3.373981">
        <ele>1074.5</ele>
        <time>2011-04-10T11:17:17Z</time>
      </trkpt>
      <trkpt lat="43.148273" lon="-3.373882">
        <ele>1076.3</ele>
        <time>2011-04-10T11:17:28Z</time>
      </trkpt>
      <trkpt lat="43.148282" lon="-3.373867">
        <ele>1076.3</ele>
        <time>2011-04-10T11:17:29Z</time>
      </trkpt>
      <trkpt lat="43.148311" lon="-3.373808">
        <ele>1076.8</ele>
        <time>2011-04-10T11:17:33Z</time>
      </trkpt>
      <trkpt lat="43.148359" lon="-3.373700">
        <ele>1078.7</ele>
        <time>2011-04-10T11:17:40Z</time>
      </trkpt>
      <trkpt lat="43.148418" lon="-3.373574">
        <ele>1081.6</ele>
        <time>2011-04-10T11:17:48Z</time>
      </trkpt>
      <trkpt lat="43.148493" lon="-3.373396">
        <ele>1085.0</ele>
        <time>2011-04-10T11:17:59Z</time>
      </trkpt>
      <trkpt lat="43.148601" lon="-3.373153">
        <ele>1086.4</ele>
        <time>2011-04-10T11:18:14Z</time>
      </trkpt>
      <trkpt lat="43.148709" lon="-3.372897">
        <ele>1088.3</ele>
        <time>2011-04-10T11:18:30Z</time>
      </trkpt>
      <trkpt lat="43.148787" lon="-3.372718">
        <ele>1090.8</ele>
        <time>2011-04-10T11:18:41Z</time>
      </trkpt>
      <trkpt lat="43.148802" lon="-3.372653">
        <ele>1090.8</ele>
        <time>2011-04-10T11:18:45Z</time>
      </trkpt>
      <trkpt lat="43.148856" lon="-3.372525">
        <ele>1093.2</ele>
        <time>2011-04-10T11:18:53Z</time>
      </trkpt>
      <trkpt lat="43.148901" lon="-3.372424">
        <ele>1095.1</ele>
        <time>2011-04-10T11:18:59Z</time>
      </trkpt>
      <trkpt lat="43.148915" lon="-3.372397">
        <ele>1094.6</ele>
        <time>2011-04-10T11:19:01Z</time>
      </trkpt>
      <trkpt lat="43.148937" lon="-3.372330">
        <ele>1095.1</ele>
        <time>2011-04-10T11:19:05Z</time>
      </trkpt>
      <trkpt lat="43.149027" lon="-3.372084">
        <ele>1096.0</ele>
        <time>2011-04-10T11:19:20Z</time>
      </trkpt>
      <trkpt lat="43.149097" lon="-3.371910">
        <ele>1099.9</ele>
        <time>2011-04-10T11:19:30Z</time>
      </trkpt>
      <trkpt lat="43.149102" lon="-3.371890">
        <ele>1099.9</ele>
        <time>2011-04-10T11:19:31Z</time>
      </trkpt>
      <trkpt lat="43.149161" lon="-3.371745">
        <ele>1101.8</ele>
        <time>2011-04-10T11:19:39Z</time>
      </trkpt>
      <trkpt lat="43.149179" lon="-3.371678">
        <ele>1103.3</ele>
        <time>2011-04-10T11:19:43Z</time>
      </trkpt>
      <trkpt lat="43.149253" lon="-3.371378">
        <ele>1103.3</ele>
        <time>2011-04-10T11:19:58Z</time>
      </trkpt>
      <trkpt lat="43.149284" lon="-3.371226">
        <ele>1104.2</ele>
        <time>2011-04-10T11:20:05Z</time>
      </trkpt>
      <trkpt lat="43.149313" lon="-3.371148">
        <ele>1104.2</ele>
        <time>2011-04-10T11:20:09Z</time>
      </trkpt>
      <trkpt lat="43.149365" lon="-3.371077">
        <ele>1104.2</ele>
        <time>2011-04-10T11:20:14Z</time>
      </trkpt>
      <trkpt lat="43.149420" lon="-3.371006">
        <ele>1107.6</ele>
        <time>2011-04-10T11:20:19Z</time>
      </trkpt>
      <trkpt lat="43.149432" lon="-3.370990">
        <ele>1107.6</ele>
        <time>2011-04-10T11:20:20Z</time>
      </trkpt>
      <trkpt lat="43.149455" lon="-3.370959">
        <ele>1108.5</ele>
        <time>2011-04-10T11:20:22Z</time>
      </trkpt>
      <trkpt lat="43.149497" lon="-3.370911">
        <ele>1107.1</ele>
        <time>2011-04-10T11:20:26Z</time>
      </trkpt>
      <trkpt lat="43.149540" lon="-3.370875">
        <ele>1104.2</ele>
        <time>2011-04-10T11:20:29Z</time>
      </trkpt>
      <trkpt lat="43.149627" lon="-3.370813">
        <ele>1104.7</ele>
        <time>2011-04-10T11:20:35Z</time>
      </trkpt>
      <trkpt lat="43.149735" lon="-3.370754">
        <ele>1105.2</ele>
        <time>2011-04-10T11:20:42Z</time>
      </trkpt>
      <trkpt lat="43.149823" lon="-3.370761">
        <ele>1105.2</ele>
        <time>2011-04-10T11:20:47Z</time>
      </trkpt>
      <trkpt lat="43.149990" lon="-3.370642">
        <ele>1107.6</ele>
        <time>2011-04-10T11:20:59Z</time>
      </trkpt>
      <trkpt lat="43.150035" lon="-3.370622">
        <ele>1106.6</ele>
        <time>2011-04-10T11:21:02Z</time>
      </trkpt>
      <trkpt lat="43.150056" lon="-3.370597">
        <ele>1110.5</ele>
        <time>2011-04-10T11:21:04Z</time>
      </trkpt>
      <trkpt lat="43.150081" lon="-3.370581">
        <ele>1114.3</ele>
        <time>2011-04-10T11:21:06Z</time>
      </trkpt>
      <trkpt lat="43.150094" lon="-3.370573">
        <ele>1114.8</ele>
        <time>2011-04-10T11:21:07Z</time>
      </trkpt>
      <trkpt lat="43.150120" lon="-3.370556">
        <ele>1114.8</ele>
        <time>2011-04-10T11:21:09Z</time>
      </trkpt>
      <trkpt lat="43.150136" lon="-3.370551">
        <ele>1110.0</ele>
        <time>2011-04-10T11:21:10Z</time>
      </trkpt>
      <trkpt lat="43.150175" lon="-3.370555">
        <ele>1109.5</ele>
        <time>2011-04-10T11:21:12Z</time>
      </trkpt>
      <trkpt lat="43.150231" lon="-3.370551">
        <ele>1115.3</ele>
        <time>2011-04-10T11:21:16Z</time>
      </trkpt>
      <trkpt lat="43.150258" lon="-3.370561">
        <ele>1110.0</ele>
        <time>2011-04-10T11:21:18Z</time>
      </trkpt>
      <trkpt lat="43.150316" lon="-3.370559">
        <ele>1114.3</ele>
        <time>2011-04-10T11:21:22Z</time>
      </trkpt>
      <trkpt lat="43.150329" lon="-3.370556">
        <ele>1117.2</ele>
        <time>2011-04-10T11:21:23Z</time>
      </trkpt>
      <trkpt lat="43.150344" lon="-3.370551">
        <ele>1115.3</ele>
        <time>2011-04-10T11:21:24Z</time>
      </trkpt>
      <trkpt lat="43.150431" lon="-3.370524">
        <ele>1110.0</ele>
        <time>2011-04-10T11:21:30Z</time>
      </trkpt>
      <trkpt lat="43.150458" lon="-3.370511">
        <ele>1113.3</ele>
        <time>2011-04-10T11:21:32Z</time>
      </trkpt>
      <trkpt lat="43.150605" lon="-3.370503">
        <ele>1117.7</ele>
        <time>2011-04-10T11:21:41Z</time>
      </trkpt>
      <trkpt lat="43.150621" lon="-3.370504">
        <ele>1111.9</ele>
        <time>2011-04-10T11:21:42Z</time>
      </trkpt>
      <trkpt lat="43.150635" lon="-3.370501">
        <ele>1109.0</ele>
        <time>2011-04-10T11:21:43Z</time>
      </trkpt>
      <trkpt lat="43.150651" lon="-3.370498">
        <ele>1112.4</ele>
        <time>2011-04-10T11:21:44Z</time>
      </trkpt>
      <trkpt lat="43.150684" lon="-3.370492">
        <ele>1113.3</ele>
        <time>2011-04-10T11:21:46Z</time>
      </trkpt>
      <trkpt lat="43.150828" lon="-3.370459">
        <ele>1111.4</ele>
        <time>2011-04-10T11:21:56Z</time>
      </trkpt>
      <trkpt lat="43.150873" lon="-3.370439">
        <ele>1113.3</ele>
        <time>2011-04-10T11:21:59Z</time>
      </trkpt>
      <trkpt lat="43.150914" lon="-3.370430">
        <ele>1113.3</ele>
        <time>2011-04-10T11:22:01Z</time>
      </trkpt>
      <trkpt lat="43.150955" lon="-3.370417">
        <ele>1113.8</ele>
        <time>2011-04-10T11:22:05Z</time>
      </trkpt>
      <trkpt lat="43.151019" lon="-3.370414">
        <ele>1113.3</ele>
        <time>2011-04-10T11:22:10Z</time>
      </trkpt>
      <trkpt lat="43.151030" lon="-3.370411">
        <ele>1114.8</ele>
        <time>2011-04-10T11:22:11Z</time>
      </trkpt>
      <trkpt lat="43.151056" lon="-3.370405">
        <ele>1116.2</ele>
        <time>2011-04-10T11:22:13Z</time>
      </trkpt>
      <trkpt lat="43.151086" lon="-3.370390">
        <ele>1118.2</ele>
        <time>2011-04-10T11:22:16Z</time>
      </trkpt>
      <trkpt lat="43.151108" lon="-3.370363">
        <ele>1119.6</ele>
        <time>2011-04-10T11:22:21Z</time>
      </trkpt>
      <trkpt lat="43.151146" lon="-3.370326">
        <ele>1119.6</ele>
        <time>2011-04-10T11:22:25Z</time>
      </trkpt>
      <trkpt lat="43.151158" lon="-3.370279">
        <ele>1119.6</ele>
        <time>2011-04-10T11:22:29Z</time>
      </trkpt>
      <trkpt lat="43.151148" lon="-3.370176">
        <ele>1119.6</ele>
        <time>2011-04-10T11:22:39Z</time>
      </trkpt>
      <trkpt lat="43.151143" lon="-3.370163">
        <ele>1119.6</ele>
        <time>2011-04-10T11:22:40Z</time>
      </trkpt>
      <trkpt lat="43.151141" lon="-3.370120">
        <ele>1119.6</ele>
        <time>2011-04-10T11:22:42Z</time>
      </trkpt>
      <trkpt lat="43.151135" lon="-3.370021">
        <ele>1116.7</ele>
        <time>2011-04-10T11:22:46Z</time>
      </trkpt>
      <trkpt lat="43.151139" lon="-3.370006">
        <ele>1118.2</ele>
        <time>2011-04-10T11:22:47Z</time>
      </trkpt>
      <trkpt lat="43.151146" lon="-3.369966">
        <ele>1118.6</ele>
        <time>2011-04-10T11:22:49Z</time>
      </trkpt>
      <trkpt lat="43.151157" lon="-3.369870">
        <ele>1119.1</ele>
        <time>2011-04-10T11:22:53Z</time>
      </trkpt>
      <trkpt lat="43.151174" lon="-3.369754">
        <ele>1119.6</ele>
        <time>2011-04-10T11:22:58Z</time>
      </trkpt>
      <trkpt lat="43.151166" lon="-3.369703">
        <ele>1120.6</ele>
        <time>2011-04-10T11:23:00Z</time>
      </trkpt>
      <trkpt lat="43.151166" lon="-3.369675">
        <ele>1121.5</ele>
        <time>2011-04-10T11:23:01Z</time>
      </trkpt>
      <trkpt lat="43.151170" lon="-3.369632">
        <ele>1125.4</ele>
        <time>2011-04-10T11:23:03Z</time>
      </trkpt>
      <trkpt lat="43.151187" lon="-3.369536">
        <ele>1118.2</ele>
        <time>2011-04-10T11:23:08Z</time>
      </trkpt>
      <trkpt lat="43.151189" lon="-3.369514">
        <ele>1118.2</ele>
        <time>2011-04-10T11:23:09Z</time>
      </trkpt>
      <trkpt lat="43.151210" lon="-3.369346">
        <ele>1110.5</ele>
        <time>2011-04-10T11:23:15Z</time>
      </trkpt>
      <trkpt lat="43.151223" lon="-3.369214">
        <ele>1113.3</ele>
        <time>2011-04-10T11:23:20Z</time>
      </trkpt>
      <trkpt lat="43.151228" lon="-3.369160">
        <ele>1112.4</ele>
        <time>2011-04-10T11:23:22Z</time>
      </trkpt>
      <trkpt lat="43.151222" lon="-3.369102">
        <ele>1113.8</ele>
        <time>2011-04-10T11:23:24Z</time>
      </trkpt>
      <trkpt lat="43.151205" lon="-3.368887">
        <ele>1111.4</ele>
        <time>2011-04-10T11:23:31Z</time>
      </trkpt>
      <trkpt lat="43.151204" lon="-3.368503">
        <ele>1113.3</ele>
        <time>2011-04-10T11:23:42Z</time>
      </trkpt>
      <trkpt lat="43.151207" lon="-3.368469">
        <ele>1108.1</ele>
        <time>2011-04-10T11:23:43Z</time>
      </trkpt>
      <trkpt lat="43.151216" lon="-3.368394">
        <ele>1105.7</ele>
        <time>2011-04-10T11:23:45Z</time>
      </trkpt>
      <trkpt lat="43.151229" lon="-3.368332">
        <ele>1102.3</ele>
        <time>2011-04-10T11:23:47Z</time>
      </trkpt>
      <trkpt lat="43.151234" lon="-3.368304">
        <ele>1098.4</ele>
        <time>2011-04-10T11:23:48Z</time>
      </trkpt>
      <trkpt lat="43.151235" lon="-3.368276">
        <ele>1100.4</ele>
        <time>2011-04-10T11:23:49Z</time>
      </trkpt>
      <trkpt lat="43.151225" lon="-3.368155">
        <ele>1097.0</ele>
        <time>2011-04-10T11:23:53Z</time>
      </trkpt>
      <trkpt lat="43.151221" lon="-3.368128">
        <ele>1099.9</ele>
        <time>2011-04-10T11:23:54Z</time>
      </trkpt>
      <trkpt lat="43.151251" lon="-3.367910">
        <ele>1096.5</ele>
        <time>2011-04-10T11:24:01Z</time>
      </trkpt>
      <trkpt lat="43.151269" lon="-3.367857">
        <ele>1090.8</ele>
        <time>2011-04-10T11:24:03Z</time>
      </trkpt>
      <trkpt lat="43.151314" lon="-3.367719">
        <ele>1087.4</ele>
        <time>2011-04-10T11:24:08Z</time>
      </trkpt>
      <trkpt lat="43.151326" lon="-3.367695">
        <ele>1087.9</ele>
        <time>2011-04-10T11:24:09Z</time>
      </trkpt>
      <trkpt lat="43.151384" lon="-3.367589">
        <ele>1088.3</ele>
        <time>2011-04-10T11:24:13Z</time>
      </trkpt>
      <trkpt lat="43.151398" lon="-3.367537">
        <ele>1089.3</ele>
        <time>2011-04-10T11:24:15Z</time>
      </trkpt>
      <trkpt lat="43.151404" lon="-3.367506">
        <ele>1084.5</ele>
        <time>2011-04-10T11:24:16Z</time>
      </trkpt>
      <trkpt lat="43.151413" lon="-3.367457">
        <ele>1083.5</ele>
        <time>2011-04-10T11:24:18Z</time>
      </trkpt>
      <trkpt lat="43.151439" lon="-3.367332">
        <ele>1079.7</ele>
        <time>2011-04-10T11:24:22Z</time>
      </trkpt>
      <trkpt lat="43.151444" lon="-3.367295">
        <ele>1080.7</ele>
        <time>2011-04-10T11:24:23Z</time>
      </trkpt>
      <trkpt lat="43.151447" lon="-3.367262">
        <ele>1080.2</ele>
        <time>2011-04-10T11:24:24Z</time>
      </trkpt>
      <trkpt lat="43.151440" lon="-3.367203">
        <ele>1078.3</ele>
        <time>2011-04-10T11:24:26Z</time>
      </trkpt>
      <trkpt lat="43.151410" lon="-3.367066">
        <ele>1073.0</ele>
        <time>2011-04-10T11:24:31Z</time>
      </trkpt>
      <trkpt lat="43.151375" lon="-3.366986">
        <ele>1073.0</ele>
        <time>2011-04-10T11:24:34Z</time>
      </trkpt>
      <trkpt lat="43.151379" lon="-3.366938">
        <ele>1072.0</ele>
        <time>2011-04-10T11:24:36Z</time>
      </trkpt>
      <trkpt lat="43.151388" lon="-3.366908">
        <ele>1066.7</ele>
        <time>2011-04-10T11:24:38Z</time>
      </trkpt>
      <trkpt lat="43.151404" lon="-3.366877">
        <ele>1066.7</ele>
        <time>2011-04-10T11:24:41Z</time>
      </trkpt>
      <trkpt lat="43.151403" lon="-3.366861">
        <ele>1068.2</ele>
        <time>2011-04-10T11:24:42Z</time>
      </trkpt>
      <trkpt lat="43.151393" lon="-3.366802">
        <ele>1067.2</ele>
        <time>2011-04-10T11:24:46Z</time>
      </trkpt>
      <trkpt lat="43.151393" lon="-3.366767">
        <ele>1067.2</ele>
        <time>2011-04-10T11:24:51Z</time>
      </trkpt>
      <trkpt lat="43.151401" lon="-3.366724">
        <ele>1065.3</ele>
        <time>2011-04-10T11:24:53Z</time>
      </trkpt>
      <trkpt lat="43.151392" lon="-3.366679">
        <ele>1059.0</ele>
        <time>2011-04-10T11:24:56Z</time>
      </trkpt>
      <trkpt lat="43.151397" lon="-3.366662">
        <ele>1059.0</ele>
        <time>2011-04-10T11:24:57Z</time>
      </trkpt>
      <trkpt lat="43.151398" lon="-3.366643">
        <ele>1054.7</ele>
        <time>2011-04-10T11:24:58Z</time>
      </trkpt>
      <trkpt lat="43.151396" lon="-3.366603">
        <ele>1060.5</ele>
        <time>2011-04-10T11:25:00Z</time>
      </trkpt>
      <trkpt lat="43.151385" lon="-3.366498">
        <ele>1056.1</ele>
        <time>2011-04-10T11:25:05Z</time>
      </trkpt>
      <trkpt lat="43.151385" lon="-3.366476">
        <ele>1057.1</ele>
        <time>2011-04-10T11:25:06Z</time>
      </trkpt>
      <trkpt lat="43.151363" lon="-3.366313">
        <ele>1053.7</ele>
        <time>2011-04-10T11:25:14Z</time>
      </trkpt>
      <trkpt lat="43.151344" lon="-3.366248">
        <ele>1051.3</ele>
        <time>2011-04-10T11:25:17Z</time>
      </trkpt>
      <trkpt lat="43.151287" lon="-3.366173">
        <ele>1048.0</ele>
        <time>2011-04-10T11:25:21Z</time>
      </trkpt>
      <trkpt lat="43.151269" lon="-3.366161">
        <ele>1048.0</ele>
        <time>2011-04-10T11:25:22Z</time>
      </trkpt>
      <trkpt lat="43.151245" lon="-3.366135">
        <ele>1048.0</ele>
        <time>2011-04-10T11:25:25Z</time>
      </trkpt>
      <trkpt lat="43.151248" lon="-3.366101">
        <ele>1046.1</ele>
        <time>2011-04-10T11:25:27Z</time>
      </trkpt>
      <trkpt lat="43.151193" lon="-3.365994">
        <ele>1046.1</ele>
        <time>2011-04-10T11:25:36Z</time>
      </trkpt>
      <trkpt lat="43.151180" lon="-3.365963">
        <ele>1043.6</ele>
        <time>2011-04-10T11:25:42Z</time>
      </trkpt>
      <trkpt lat="43.151190" lon="-3.365940">
        <ele>1041.7</ele>
        <time>2011-04-10T11:25:44Z</time>
      </trkpt>
      <trkpt lat="43.151193" lon="-3.365922">
        <ele>1047.0</ele>
        <time>2011-04-10T11:25:45Z</time>
      </trkpt>
      <trkpt lat="43.151184" lon="-3.365831">
        <ele>1046.5</ele>
        <time>2011-04-10T11:25:49Z</time>
      </trkpt>
      <trkpt lat="43.151172" lon="-3.365660">
        <ele>1040.8</ele>
        <time>2011-04-10T11:25:56Z</time>
      </trkpt>
      <trkpt lat="43.151138" lon="-3.365498">
        <ele>1038.8</ele>
        <time>2011-04-10T11:26:03Z</time>
      </trkpt>
      <trkpt lat="43.151125" lon="-3.365440">
        <ele>1026.3</ele>
        <time>2011-04-10T11:26:05Z</time>
      </trkpt>
      <trkpt lat="43.151121" lon="-3.365410">
        <ele>1047.0</ele>
        <time>2011-04-10T11:26:06Z</time>
      </trkpt>
      <trkpt lat="43.151116" lon="-3.365380">
        <ele>1038.8</ele>
        <time>2011-04-10T11:26:07Z</time>
      </trkpt>
      <trkpt lat="43.151087" lon="-3.365261">
        <ele>1036.4</ele>
        <time>2011-04-10T11:26:11Z</time>
      </trkpt>
      <trkpt lat="43.151067" lon="-3.365135">
        <ele>1032.1</ele>
        <time>2011-04-10T11:26:15Z</time>
      </trkpt>
      <trkpt lat="43.151036" lon="-3.364975">
        <ele>1028.7</ele>
        <time>2011-04-10T11:26:20Z</time>
      </trkpt>
      <trkpt lat="43.150997" lon="-3.364786">
        <ele>1026.3</ele>
        <time>2011-04-10T11:26:26Z</time>
      </trkpt>
      <trkpt lat="43.150979" lon="-3.364534">
        <ele>1023.5</ele>
        <time>2011-04-10T11:26:34Z</time>
      </trkpt>
      <trkpt lat="43.151018" lon="-3.364300">
        <ele>1022.5</ele>
        <time>2011-04-10T11:26:42Z</time>
      </trkpt>
      <trkpt lat="43.151066" lon="-3.364189">
        <ele>1021.1</ele>
        <time>2011-04-10T11:26:49Z</time>
      </trkpt>
      <trkpt lat="43.151066" lon="-3.364122">
        <ele>1021.1</ele>
        <time>2011-04-10T11:26:53Z</time>
      </trkpt>
      <trkpt lat="43.151115" lon="-3.363767">
        <ele>1023.9</ele>
        <time>2011-04-10T11:27:12Z</time>
      </trkpt>
      <trkpt lat="43.151124" lon="-3.363664">
        <ele>1024.4</ele>
        <time>2011-04-10T11:27:19Z</time>
      </trkpt>
      <trkpt lat="43.151136" lon="-3.363589">
        <ele>1025.9</ele>
        <time>2011-04-10T11:27:23Z</time>
      </trkpt>
      <trkpt lat="43.151133" lon="-3.363491">
        <ele>1028.3</ele>
        <time>2011-04-10T11:27:28Z</time>
      </trkpt>
      <trkpt lat="43.151136" lon="-3.363297">
        <ele>1023.9</ele>
        <time>2011-04-10T11:27:38Z</time>
      </trkpt>
      <trkpt lat="43.151135" lon="-3.363278">
        <ele>1031.2</ele>
        <time>2011-04-10T11:27:39Z</time>
      </trkpt>
      <trkpt lat="43.151133" lon="-3.363259">
        <ele>1027.3</ele>
        <time>2011-04-10T11:27:40Z</time>
      </trkpt>
      <trkpt lat="43.151130" lon="-3.363240">
        <ele>1030.7</ele>
        <time>2011-04-10T11:27:41Z</time>
      </trkpt>
      <trkpt lat="43.151123" lon="-3.363204">
        <ele>1027.3</ele>
        <time>2011-04-10T11:27:43Z</time>
      </trkpt>
      <trkpt lat="43.151113" lon="-3.363004">
        <ele>1028.7</ele>
        <time>2011-04-10T11:27:57Z</time>
      </trkpt>
      <trkpt lat="43.151146" lon="-3.362906">
        <ele>1030.2</ele>
        <time>2011-04-10T11:28:03Z</time>
      </trkpt>
      <trkpt lat="43.151217" lon="-3.362614">
        <ele>1032.6</ele>
        <time>2011-04-10T11:28:19Z</time>
      </trkpt>
      <trkpt lat="43.151278" lon="-3.362356">
        <ele>1035.0</ele>
        <time>2011-04-10T11:28:33Z</time>
      </trkpt>
      <trkpt lat="43.151302" lon="-3.362246">
        <ele>1035.5</ele>
        <time>2011-04-10T11:28:39Z</time>
      </trkpt>
      <trkpt lat="43.151361" lon="-3.361925">
        <ele>1038.8</ele>
        <time>2011-04-10T11:28:56Z</time>
      </trkpt>
      <trkpt lat="43.151406" lon="-3.361712">
        <ele>1038.4</ele>
        <time>2011-04-10T11:29:07Z</time>
      </trkpt>
      <trkpt lat="43.151446" lon="-3.361512">
        <ele>1040.3</ele>
        <time>2011-04-10T11:29:17Z</time>
      </trkpt>
      <trkpt lat="43.151466" lon="-3.361437">
        <ele>1036.9</ele>
        <time>2011-04-10T11:29:21Z</time>
      </trkpt>
      <trkpt lat="43.151470" lon="-3.361416">
        <ele>1036.4</ele>
        <time>2011-04-10T11:29:22Z</time>
      </trkpt>
      <trkpt lat="43.151471" lon="-3.361393">
        <ele>1039.8</ele>
        <time>2011-04-10T11:29:23Z</time>
      </trkpt>
      <trkpt lat="43.151458" lon="-3.361231">
        <ele>1037.4</ele>
        <time>2011-04-10T11:29:30Z</time>
      </trkpt>
      <trkpt lat="43.151434" lon="-3.361141">
        <ele>1040.8</ele>
        <time>2011-04-10T11:29:34Z</time>
      </trkpt>
      <trkpt lat="43.151392" lon="-3.360983">
        <ele>1034.0</ele>
        <time>2011-04-10T11:29:42Z</time>
      </trkpt>
      <trkpt lat="43.151385" lon="-3.360962">
        <ele>1029.2</ele>
        <time>2011-04-10T11:29:43Z</time>
      </trkpt>
      <trkpt lat="43.151378" lon="-3.360941">
        <ele>1041.2</ele>
        <time>2011-04-10T11:29:44Z</time>
      </trkpt>
      <trkpt lat="43.151370" lon="-3.360918">
        <ele>1037.9</ele>
        <time>2011-04-10T11:29:45Z</time>
      </trkpt>
      <trkpt lat="43.151342" lon="-3.360822">
        <ele>1036.4</ele>
        <time>2011-04-10T11:29:49Z</time>
      </trkpt>
      <trkpt lat="43.151309" lon="-3.360740">
        <ele>1033.1</ele>
        <time>2011-04-10T11:29:53Z</time>
      </trkpt>
      <trkpt lat="43.151301" lon="-3.360717">
        <ele>1033.1</ele>
        <time>2011-04-10T11:29:54Z</time>
      </trkpt>
      <trkpt lat="43.151296" lon="-3.360642">
        <ele>1031.2</ele>
        <time>2011-04-10T11:29:57Z</time>
      </trkpt>
      <trkpt lat="43.151293" lon="-3.360514">
        <ele>1026.8</ele>
        <time>2011-04-10T11:30:02Z</time>
      </trkpt>
      <trkpt lat="43.151296" lon="-3.360291">
        <ele>1023.5</ele>
        <time>2011-04-10T11:30:11Z</time>
      </trkpt>
      <trkpt lat="43.151364" lon="-3.360226">
        <ele>1018.9</ele>
        <time>2011-04-10T11:30:16Z</time>
      </trkpt>
      <trkpt lat="43.151393" lon="-3.360134">
        <ele>1015.2</ele>
        <time>2011-04-10T11:30:23Z</time>
      </trkpt>
      <trkpt lat="43.151432" lon="-3.360049">
        <ele>1011.4</ele>
        <time>2011-04-10T11:30:27Z</time>
      </trkpt>
      <trkpt lat="43.151466" lon="-3.359965">
        <ele>1008.1</ele>
        <time>2011-04-10T11:30:33Z</time>
      </trkpt>
      <trkpt lat="43.151495" lon="-3.359865">
        <ele>1004.6</ele>
        <time>2011-04-10T11:30:41Z</time>
      </trkpt>
      <trkpt lat="43.151529" lon="-3.359773">
        <ele>1001.3</ele>
        <time>2011-04-10T11:30:43Z</time>
      </trkpt>
      <trkpt lat="43.151557" lon="-3.359704">
        <ele>998.8</ele>
        <time>2011-04-10T11:30:45Z</time>
      </trkpt>
      <trkpt lat="43.151580" lon="-3.359627">
        <ele>996.3</ele>
        <time>2011-04-10T11:30:51Z</time>
      </trkpt>
      <trkpt lat="43.151597" lon="-3.359551">
        <ele>994.0</ele>
        <time>2011-04-10T11:30:55Z</time>
      </trkpt>
      <trkpt lat="43.151625" lon="-3.359466">
        <ele>991.2</ele>
        <time>2011-04-10T11:31:11Z</time>
      </trkpt>
      <trkpt lat="43.151637" lon="-3.359390">
        <ele>989.2</ele>
        <time>2011-04-10T11:31:13Z</time>
      </trkpt>
      <trkpt lat="43.151600" lon="-3.359281">
        <ele>980.7</ele>
        <time>2011-04-10T11:31:25Z</time>
      </trkpt>
      <trkpt lat="43.151626" lon="-3.359238">
        <ele>978.3</ele>
        <time>2011-04-10T11:31:28Z</time>
      </trkpt>
      <trkpt lat="43.151651" lon="-3.359165">
        <ele>976.8</ele>
        <time>2011-04-10T11:31:32Z</time>
      </trkpt>
      <trkpt lat="43.151654" lon="-3.359131">
        <ele>975.9</ele>
        <time>2011-04-10T11:31:34Z</time>
      </trkpt>
      <trkpt lat="43.151658" lon="-3.359039">
        <ele>972.0</ele>
        <time>2011-04-10T11:31:39Z</time>
      </trkpt>
      <trkpt lat="43.151666" lon="-3.358922">
        <ele>959.5</ele>
        <time>2011-04-10T11:31:45Z</time>
      </trkpt>
      <trkpt lat="43.151671" lon="-3.358904">
        <ele>974.9</ele>
        <time>2011-04-10T11:31:46Z</time>
      </trkpt>
      <trkpt lat="43.151678" lon="-3.358886">
        <ele>971.5</ele>
        <time>2011-04-10T11:31:47Z</time>
      </trkpt>
      <trkpt lat="43.151686" lon="-3.358867">
        <ele>960.0</ele>
        <time>2011-04-10T11:31:48Z</time>
      </trkpt>
      <trkpt lat="43.151693" lon="-3.358847">
        <ele>976.8</ele>
        <time>2011-04-10T11:31:49Z</time>
      </trkpt>
      <trkpt lat="43.151700" lon="-3.358828">
        <ele>968.7</ele>
        <time>2011-04-10T11:31:50Z</time>
      </trkpt>
      <trkpt lat="43.151713" lon="-3.358761">
        <ele>967.2</ele>
        <time>2011-04-10T11:31:53Z</time>
      </trkpt>
      <trkpt lat="43.151736" lon="-3.358671">
        <ele>965.8</ele>
        <time>2011-04-10T11:31:57Z</time>
      </trkpt>
      <trkpt lat="43.151754" lon="-3.358542">
        <ele>963.4</ele>
        <time>2011-04-10T11:32:02Z</time>
      </trkpt>
      <trkpt lat="43.151767" lon="-3.358444">
        <ele>960.0</ele>
        <time>2011-04-10T11:32:06Z</time>
      </trkpt>
      <trkpt lat="43.151764" lon="-3.358394">
        <ele>959.5</ele>
        <time>2011-04-10T11:32:08Z</time>
      </trkpt>
      <trkpt lat="43.151858" lon="-3.358095">
        <ele>954.2</ele>
        <time>2011-04-10T11:32:20Z</time>
      </trkpt>
      <trkpt lat="43.151876" lon="-3.358022">
        <ele>951.8</ele>
        <time>2011-04-10T11:32:23Z</time>
      </trkpt>
      <trkpt lat="43.151891" lon="-3.357954">
        <ele>950.4</ele>
        <time>2011-04-10T11:32:26Z</time>
      </trkpt>
      <trkpt lat="43.151924" lon="-3.357833">
        <ele>947.5</ele>
        <time>2011-04-10T11:32:31Z</time>
      </trkpt>
      <trkpt lat="43.151973" lon="-3.357488">
        <ele>947.0</ele>
        <time>2011-04-10T11:32:44Z</time>
      </trkpt>
      <trkpt lat="43.151989" lon="-3.357436">
        <ele>945.1</ele>
        <time>2011-04-10T11:32:46Z</time>
      </trkpt>
      <trkpt lat="43.152102" lon="-3.357061">
        <ele>945.1</ele>
        <time>2011-04-10T11:33:03Z</time>
      </trkpt>
      <trkpt lat="43.152120" lon="-3.357020">
        <ele>941.7</ele>
        <time>2011-04-10T11:33:05Z</time>
      </trkpt>
      <trkpt lat="43.152153" lon="-3.356858">
        <ele>940.3</ele>
        <time>2011-04-10T11:33:13Z</time>
      </trkpt>
      <trkpt lat="43.152183" lon="-3.356533">
        <ele>940.3</ele>
        <time>2011-04-10T11:33:27Z</time>
      </trkpt>
      <trkpt lat="43.152239" lon="-3.356213">
        <ele>938.9</ele>
        <time>2011-04-10T11:33:40Z</time>
      </trkpt>
      <trkpt lat="43.152269" lon="-3.355893">
        <ele>937.9</ele>
        <time>2011-04-10T11:33:54Z</time>
      </trkpt>
      <trkpt lat="43.152382" lon="-3.355558">
        <ele>940.3</ele>
        <time>2011-04-10T11:34:10Z</time>
      </trkpt>
      <trkpt lat="43.152450" lon="-3.355326">
        <ele>940.8</ele>
        <time>2011-04-10T11:34:21Z</time>
      </trkpt>
      <trkpt lat="43.152554" lon="-3.354977">
        <ele>940.8</ele>
        <time>2011-04-10T11:34:38Z</time>
      </trkpt>
      <trkpt lat="43.152622" lon="-3.354764">
        <ele>944.2</ele>
        <time>2011-04-10T11:34:49Z</time>
      </trkpt>
      <trkpt lat="43.152629" lon="-3.354745">
        <ele>944.2</ele>
        <time>2011-04-10T11:34:50Z</time>
      </trkpt>
      <trkpt lat="43.152641" lon="-3.354708">
        <ele>941.7</ele>
        <time>2011-04-10T11:34:52Z</time>
      </trkpt>
      <trkpt lat="43.152676" lon="-3.354591">
        <ele>944.2</ele>
        <time>2011-04-10T11:34:58Z</time>
      </trkpt>
      <trkpt lat="43.152784" lon="-3.354279">
        <ele>945.6</ele>
        <time>2011-04-10T11:35:15Z</time>
      </trkpt>
      <trkpt lat="43.152853" lon="-3.354057">
        <ele>949.0</ele>
        <time>2011-04-10T11:35:27Z</time>
      </trkpt>
      <trkpt lat="43.152861" lon="-3.354041">
        <ele>948.5</ele>
        <time>2011-04-10T11:35:28Z</time>
      </trkpt>
      <trkpt lat="43.152968" lon="-3.353697">
        <ele>945.6</ele>
        <time>2011-04-10T11:35:46Z</time>
      </trkpt>
      <trkpt lat="43.153080" lon="-3.353480">
        <ele>946.6</ele>
        <time>2011-04-10T11:35:58Z</time>
      </trkpt>
      <trkpt lat="43.153129" lon="-3.353315">
        <ele>944.2</ele>
        <time>2011-04-10T11:36:06Z</time>
      </trkpt>
      <trkpt lat="43.153160" lon="-3.353155">
        <ele>941.7</ele>
        <time>2011-04-10T11:36:13Z</time>
      </trkpt>
      <trkpt lat="43.153182" lon="-3.353071">
        <ele>941.3</ele>
        <time>2011-04-10T11:36:18Z</time>
      </trkpt>
      <trkpt lat="43.153181" lon="-3.353059">
        <ele>941.3</ele>
        <time>2011-04-10T11:36:19Z</time>
      </trkpt>
      <trkpt lat="43.153178" lon="-3.352960">
        <ele>937.9</ele>
        <time>2011-04-10T11:36:27Z</time>
      </trkpt>
      <trkpt lat="43.153212" lon="-3.352890">
        <ele>934.1</ele>
        <time>2011-04-10T11:36:32Z</time>
      </trkpt>
      <trkpt lat="43.153231" lon="-3.352873">
        <ele>935.5</ele>
        <time>2011-04-10T11:36:33Z</time>
      </trkpt>
      <trkpt lat="43.153276" lon="-3.352790">
        <ele>934.1</ele>
        <time>2011-04-10T11:36:38Z</time>
      </trkpt>
      <trkpt lat="43.153288" lon="-3.352732">
        <ele>932.6</ele>
        <time>2011-04-10T11:36:41Z</time>
      </trkpt>
      <trkpt lat="43.153292" lon="-3.352674">
        <ele>931.7</ele>
        <time>2011-04-10T11:36:44Z</time>
      </trkpt>
      <trkpt lat="43.153301" lon="-3.352610">
        <ele>929.3</ele>
        <time>2011-04-10T11:36:47Z</time>
      </trkpt>
      <trkpt lat="43.153295" lon="-3.352570">
        <ele>927.3</ele>
        <time>2011-04-10T11:36:49Z</time>
      </trkpt>
      <trkpt lat="43.153308" lon="-3.352445">
        <ele>924.0</ele>
        <time>2011-04-10T11:36:55Z</time>
      </trkpt>
      <trkpt lat="43.153316" lon="-3.352401">
        <ele>923.0</ele>
        <time>2011-04-10T11:36:57Z</time>
      </trkpt>
      <trkpt lat="43.153322" lon="-3.352379">
        <ele>921.6</ele>
        <time>2011-04-10T11:36:58Z</time>
      </trkpt>
      <trkpt lat="43.153342" lon="-3.352348">
        <ele>921.1</ele>
        <time>2011-04-10T11:37:00Z</time>
      </trkpt>
      <trkpt lat="43.153376" lon="-3.352223">
        <ele>917.7</ele>
        <time>2011-04-10T11:37:05Z</time>
      </trkpt>
      <trkpt lat="43.153455" lon="-3.351993">
        <ele>913.4</ele>
        <time>2011-04-10T11:37:13Z</time>
      </trkpt>
      <trkpt lat="43.153454" lon="-3.351967">
        <ele>913.4</ele>
        <time>2011-04-10T11:37:14Z</time>
      </trkpt>
      <trkpt lat="43.153450" lon="-3.351914">
        <ele>911.5</ele>
        <time>2011-04-10T11:37:16Z</time>
      </trkpt>
      <trkpt lat="43.153472" lon="-3.351636">
        <ele>907.6</ele>
        <time>2011-04-10T11:37:25Z</time>
      </trkpt>
      <trkpt lat="43.153477" lon="-3.351600">
        <ele>908.1</ele>
        <time>2011-04-10T11:37:26Z</time>
      </trkpt>
      <trkpt lat="43.153500" lon="-3.351398">
        <ele>904.7</ele>
        <time>2011-04-10T11:37:32Z</time>
      </trkpt>
      <trkpt lat="43.153583" lon="-3.350983">
        <ele>901.4</ele>
        <time>2011-04-10T11:37:44Z</time>
      </trkpt>
      <trkpt lat="43.153693" lon="-3.350590">
        <ele>901.9</ele>
        <time>2011-04-10T11:38:02Z</time>
      </trkpt>
      <trkpt lat="43.153813" lon="-3.350329">
        <ele>899.0</ele>
        <time>2011-04-10T11:38:15Z</time>
      </trkpt>
      <trkpt lat="43.153861" lon="-3.350294">
        <ele>897.0</ele>
        <time>2011-04-10T11:38:17Z</time>
      </trkpt>
      <trkpt lat="43.153925" lon="-3.350258">
        <ele>896.6</ele>
        <time>2011-04-10T11:38:20Z</time>
      </trkpt>
      <trkpt lat="43.153951" lon="-3.350212">
        <ele>898.5</ele>
        <time>2011-04-10T11:38:23Z</time>
      </trkpt>
      <trkpt lat="43.153990" lon="-3.350122">
        <ele>902.8</ele>
        <time>2011-04-10T11:38:29Z</time>
      </trkpt>
      <trkpt lat="43.153991" lon="-3.350107">
        <ele>903.3</ele>
        <time>2011-04-10T11:38:30Z</time>
      </trkpt>
      <trkpt lat="43.153975" lon="-3.350037">
        <ele>901.9</ele>
        <time>2011-04-10T11:38:37Z</time>
      </trkpt>
      <trkpt lat="43.154067" lon="-3.349959">
        <ele>903.8</ele>
        <time>2011-04-10T11:38:47Z</time>
      </trkpt>
      <trkpt lat="43.154119" lon="-3.349909">
        <ele>906.2</ele>
        <time>2011-04-10T11:38:53Z</time>
      </trkpt>
      <trkpt lat="43.154211" lon="-3.349781">
        <ele>909.5</ele>
        <time>2011-04-10T11:39:05Z</time>
      </trkpt>
      <trkpt lat="43.154356" lon="-3.349537">
        <ele>910.5</ele>
        <time>2011-04-10T11:39:23Z</time>
      </trkpt>
      <trkpt lat="43.154448" lon="-3.349303">
        <ele>909.5</ele>
        <time>2011-04-10T11:39:36Z</time>
      </trkpt>
      <trkpt lat="43.154540" lon="-3.348925">
        <ele>909.1</ele>
        <time>2011-04-10T11:39:52Z</time>
      </trkpt>
      <trkpt lat="43.154635" lon="-3.348647">
        <ele>905.2</ele>
        <time>2011-04-10T11:40:05Z</time>
      </trkpt>
      <trkpt lat="43.154661" lon="-3.348562">
        <ele>908.1</ele>
        <time>2011-04-10T11:40:08Z</time>
      </trkpt>
      <trkpt lat="43.154679" lon="-3.348511">
        <ele>904.3</ele>
        <time>2011-04-10T11:40:10Z</time>
      </trkpt>
      <trkpt lat="43.154756" lon="-3.348392">
        <ele>900.9</ele>
        <time>2011-04-10T11:40:16Z</time>
      </trkpt>
      <trkpt lat="43.154774" lon="-3.348382">
        <ele>900.9</ele>
        <time>2011-04-10T11:40:17Z</time>
      </trkpt>
      <trkpt lat="43.154828" lon="-3.348339">
        <ele>896.6</ele>
        <time>2011-04-10T11:40:20Z</time>
      </trkpt>
      <trkpt lat="43.154844" lon="-3.348322">
        <ele>897.0</ele>
        <time>2011-04-10T11:40:21Z</time>
      </trkpt>
      <trkpt lat="43.154860" lon="-3.348308">
        <ele>894.6</ele>
        <time>2011-04-10T11:40:22Z</time>
      </trkpt>
      <trkpt lat="43.154961" lon="-3.348350">
        <ele>889.4</ele>
        <time>2011-04-10T11:40:27Z</time>
      </trkpt>
      <trkpt lat="43.155015" lon="-3.348357">
        <ele>888.4</ele>
        <time>2011-04-10T11:40:29Z</time>
      </trkpt>
      <trkpt lat="43.155040" lon="-3.348355">
        <ele>888.4</ele>
        <time>2011-04-10T11:40:30Z</time>
      </trkpt>
      <trkpt lat="43.155447" lon="-3.348230">
        <ele>887.9</ele>
        <time>2011-04-10T11:40:46Z</time>
      </trkpt>
      <trkpt lat="43.155467" lon="-3.348227">
        <ele>882.6</ele>
        <time>2011-04-10T11:40:47Z</time>
      </trkpt>
      <trkpt lat="43.155486" lon="-3.348230">
        <ele>884.6</ele>
        <time>2011-04-10T11:40:48Z</time>
      </trkpt>
      <trkpt lat="43.155523" lon="-3.348243">
        <ele>886.5</ele>
        <time>2011-04-10T11:40:50Z</time>
      </trkpt>
      <trkpt lat="43.155542" lon="-3.348246">
        <ele>883.6</ele>
        <time>2011-04-10T11:40:51Z</time>
      </trkpt>
      <trkpt lat="43.155563" lon="-3.348248">
        <ele>878.3</ele>
        <time>2011-04-10T11:40:52Z</time>
      </trkpt>
      <trkpt lat="43.155586" lon="-3.348250">
        <ele>878.3</ele>
        <time>2011-04-10T11:40:53Z</time>
      </trkpt>
      <trkpt lat="43.155682" lon="-3.348226">
        <ele>882.6</ele>
        <time>2011-04-10T11:40:57Z</time>
      </trkpt>
      <trkpt lat="43.155704" lon="-3.348209">
        <ele>881.2</ele>
        <time>2011-04-10T11:40:58Z</time>
      </trkpt>
      <trkpt lat="43.155773" lon="-3.348164">
        <ele>878.3</ele>
        <time>2011-04-10T11:41:01Z</time>
      </trkpt>
      <trkpt lat="43.155984" lon="-3.347918">
        <ele>879.3</ele>
        <time>2011-04-10T11:41:15Z</time>
      </trkpt>
      <trkpt lat="43.156284" lon="-3.347746">
        <ele>874.9</ele>
        <time>2011-04-10T11:41:35Z</time>
      </trkpt>
      <trkpt lat="43.156312" lon="-3.347745">
        <ele>879.7</ele>
        <time>2011-04-10T11:41:37Z</time>
      </trkpt>
      <trkpt lat="43.156327" lon="-3.347745">
        <ele>874.9</ele>
        <time>2011-04-10T11:41:38Z</time>
      </trkpt>
      <trkpt lat="43.156355" lon="-3.347724">
        <ele>880.2</ele>
        <time>2011-04-10T11:41:40Z</time>
      </trkpt>
      <trkpt lat="43.156367" lon="-3.347707">
        <ele>885.0</ele>
        <time>2011-04-10T11:41:41Z</time>
      </trkpt>
      <trkpt lat="43.156377" lon="-3.347689">
        <ele>885.0</ele>
        <time>2011-04-10T11:41:42Z</time>
      </trkpt>
      <trkpt lat="43.156401" lon="-3.347656">
        <ele>882.1</ele>
        <time>2011-04-10T11:41:44Z</time>
      </trkpt>
      <trkpt lat="43.156415" lon="-3.347642">
        <ele>882.1</ele>
        <time>2011-04-10T11:41:45Z</time>
      </trkpt>
      <trkpt lat="43.156453" lon="-3.347592">
        <ele>883.6</ele>
        <time>2011-04-10T11:41:48Z</time>
      </trkpt>
      <trkpt lat="43.156506" lon="-3.347537">
        <ele>881.7</ele>
        <time>2011-04-10T11:41:52Z</time>
      </trkpt>
      <trkpt lat="43.156520" lon="-3.347526">
        <ele>878.3</ele>
        <time>2011-04-10T11:41:53Z</time>
      </trkpt>
      <trkpt lat="43.156534" lon="-3.347516">
        <ele>879.7</ele>
        <time>2011-04-10T11:41:54Z</time>
      </trkpt>
      <trkpt lat="43.156572" lon="-3.347477">
        <ele>881.2</ele>
        <time>2011-04-10T11:41:57Z</time>
      </trkpt>
      <trkpt lat="43.156704" lon="-3.347351">
        <ele>879.7</ele>
        <time>2011-04-10T11:42:08Z</time>
      </trkpt>
      <trkpt lat="43.156868" lon="-3.347263">
        <ele>883.1</ele>
        <time>2011-04-10T11:42:21Z</time>
      </trkpt>
      <trkpt lat="43.156891" lon="-3.347246">
        <ele>883.6</ele>
        <time>2011-04-10T11:42:23Z</time>
      </trkpt>
      <trkpt lat="43.156990" lon="-3.347197">
        <ele>886.5</ele>
        <time>2011-04-10T11:42:31Z</time>
      </trkpt>
      <trkpt lat="43.157123" lon="-3.347138">
        <ele>890.3</ele>
        <time>2011-04-10T11:42:43Z</time>
      </trkpt>
      <trkpt lat="43.157153" lon="-3.347122">
        <ele>887.0</ele>
        <time>2011-04-10T11:42:46Z</time>
      </trkpt>
      <trkpt lat="43.157164" lon="-3.347119">
        <ele>888.4</ele>
        <time>2011-04-10T11:42:47Z</time>
      </trkpt>
      <trkpt lat="43.157183" lon="-3.347111">
        <ele>889.8</ele>
        <time>2011-04-10T11:42:49Z</time>
      </trkpt>
      <trkpt lat="43.157341" lon="-3.347058">
        <ele>891.3</ele>
        <time>2011-04-10T11:43:05Z</time>
      </trkpt>
      <trkpt lat="43.157392" lon="-3.347042">
        <ele>888.4</ele>
        <time>2011-04-10T11:43:10Z</time>
      </trkpt>
      <trkpt lat="43.157402" lon="-3.347039">
        <ele>891.8</ele>
        <time>2011-04-10T11:43:11Z</time>
      </trkpt>
      <trkpt lat="43.157439" lon="-3.347024">
        <ele>895.1</ele>
        <time>2011-04-10T11:43:15Z</time>
      </trkpt>
      <trkpt lat="43.157456" lon="-3.347017">
        <ele>889.4</ele>
        <time>2011-04-10T11:43:17Z</time>
      </trkpt>
      <trkpt lat="43.157465" lon="-3.347013">
        <ele>890.3</ele>
        <time>2011-04-10T11:43:18Z</time>
      </trkpt>
      <trkpt lat="43.157560" lon="-3.346986">
        <ele>893.2</ele>
        <time>2011-04-10T11:43:28Z</time>
      </trkpt>
      <trkpt lat="43.157569" lon="-3.346984">
        <ele>893.2</ele>
        <time>2011-04-10T11:43:29Z</time>
      </trkpt>
      <trkpt lat="43.157596" lon="-3.346987">
        <ele>894.6</ele>
        <time>2011-04-10T11:43:32Z</time>
      </trkpt>
      <trkpt lat="43.157694" lon="-3.346971">
        <ele>898.0</ele>
        <time>2011-04-10T11:43:42Z</time>
      </trkpt>
      <trkpt lat="43.157734" lon="-3.346965">
        <ele>902.3</ele>
        <time>2011-04-10T11:43:46Z</time>
      </trkpt>
      <trkpt lat="43.157744" lon="-3.346961">
        <ele>902.3</ele>
        <time>2011-04-10T11:43:47Z</time>
      </trkpt>
      <trkpt lat="43.157901" lon="-3.346899">
        <ele>903.3</ele>
        <time>2011-04-10T11:44:03Z</time>
      </trkpt>
      <trkpt lat="43.158040" lon="-3.346902">
        <ele>904.7</ele>
        <time>2011-04-10T11:44:16Z</time>
      </trkpt>
      <trkpt lat="43.158111" lon="-3.346884">
        <ele>908.6</ele>
        <time>2011-04-10T11:44:23Z</time>
      </trkpt>
      <trkpt lat="43.158121" lon="-3.346878">
        <ele>908.6</ele>
        <time>2011-04-10T11:44:24Z</time>
      </trkpt>
      <trkpt lat="43.158189" lon="-3.346884">
        <ele>912.4</ele>
        <time>2011-04-10T11:44:32Z</time>
      </trkpt>
      <trkpt lat="43.158251" lon="-3.346914">
        <ele>910.0</ele>
        <time>2011-04-10T11:44:40Z</time>
      </trkpt>
      <trkpt lat="43.158389" lon="-3.346929">
        <ele>914.4</ele>
        <time>2011-04-10T11:44:53Z</time>
      </trkpt>
      <trkpt lat="43.158449" lon="-3.346942">
        <ele>916.3</ele>
        <time>2011-04-10T11:44:59Z</time>
      </trkpt>
      <trkpt lat="43.158545" lon="-3.347014">
        <ele>919.2</ele>
        <time>2011-04-10T11:45:10Z</time>
      </trkpt>
      <trkpt lat="43.158589" lon="-3.347028">
        <ele>923.0</ele>
        <time>2011-04-10T11:45:15Z</time>
      </trkpt>
      <trkpt lat="43.158597" lon="-3.347026">
        <ele>921.1</ele>
        <time>2011-04-10T11:45:16Z</time>
      </trkpt>
      <trkpt lat="43.158634" lon="-3.347005">
        <ele>924.4</ele>
        <time>2011-04-10T11:45:20Z</time>
      </trkpt>
      <trkpt lat="43.158643" lon="-3.347002">
        <ele>921.6</ele>
        <time>2011-04-10T11:45:21Z</time>
      </trkpt>
      <trkpt lat="43.158660" lon="-3.346995">
        <ele>924.4</ele>
        <time>2011-04-10T11:45:23Z</time>
      </trkpt>
      <trkpt lat="43.158668" lon="-3.346993">
        <ele>924.0</ele>
        <time>2011-04-10T11:45:24Z</time>
      </trkpt>
      <trkpt lat="43.158750" lon="-3.346989">
        <ele>928.3</ele>
        <time>2011-04-10T11:45:33Z</time>
      </trkpt>
      <trkpt lat="43.158838" lon="-3.346965">
        <ele>930.2</ele>
        <time>2011-04-10T11:45:43Z</time>
      </trkpt>
      <trkpt lat="43.158861" lon="-3.346962">
        <ele>932.1</ele>
        <time>2011-04-10T11:45:45Z</time>
      </trkpt>
      <trkpt lat="43.158883" lon="-3.346954">
        <ele>930.2</ele>
        <time>2011-04-10T11:45:47Z</time>
      </trkpt>
      <trkpt lat="43.158949" lon="-3.346949">
        <ele>931.7</ele>
        <time>2011-04-10T11:45:53Z</time>
      </trkpt>
      <trkpt lat="43.159089" lon="-3.346926">
        <ele>935.0</ele>
        <time>2011-04-10T11:46:05Z</time>
      </trkpt>
      <trkpt lat="43.159101" lon="-3.346923">
        <ele>935.0</ele>
        <time>2011-04-10T11:46:06Z</time>
      </trkpt>
      <trkpt lat="43.159322" lon="-3.346867">
        <ele>935.5</ele>
        <time>2011-04-10T11:46:22Z</time>
      </trkpt>
      <trkpt lat="43.159583" lon="-3.346746">
        <ele>935.5</ele>
        <time>2011-04-10T11:46:40Z</time>
      </trkpt>
      <trkpt lat="43.159680" lon="-3.346692">
        <ele>934.1</ele>
        <time>2011-04-10T11:46:45Z</time>
      </trkpt>
      <trkpt lat="43.159921" lon="-3.346493">
        <ele>931.2</ele>
        <time>2011-04-10T11:46:58Z</time>
      </trkpt>
      <trkpt lat="43.160200" lon="-3.346262">
        <ele>929.3</ele>
        <time>2011-04-10T11:47:11Z</time>
      </trkpt>
      <trkpt lat="43.160221" lon="-3.346243">
        <ele>928.8</ele>
        <time>2011-04-10T11:47:12Z</time>
      </trkpt>
      <trkpt lat="43.160350" lon="-3.346088">
        <ele>924.4</ele>
        <time>2011-04-10T11:47:19Z</time>
      </trkpt>
      <trkpt lat="43.160368" lon="-3.346067">
        <ele>925.4</ele>
        <time>2011-04-10T11:47:20Z</time>
      </trkpt>
      <trkpt lat="43.160566" lon="-3.345971">
        <ele>927.3</ele>
        <time>2011-04-10T11:47:30Z</time>
      </trkpt>
      <trkpt lat="43.160588" lon="-3.345976">
        <ele>924.4</ele>
        <time>2011-04-10T11:47:31Z</time>
      </trkpt>
      <trkpt lat="43.160663" lon="-3.345936">
        <ele>928.3</ele>
        <time>2011-04-10T11:47:34Z</time>
      </trkpt>
      <trkpt lat="43.160766" lon="-3.345899">
        <ele>932.6</ele>
        <time>2011-04-10T11:47:39Z</time>
      </trkpt>
      <trkpt lat="43.160838" lon="-3.345884">
        <ele>935.5</ele>
        <time>2011-04-10T11:47:44Z</time>
      </trkpt>
      <trkpt lat="43.160890" lon="-3.345875">
        <ele>930.2</ele>
        <time>2011-04-10T11:47:48Z</time>
      </trkpt>
      <trkpt lat="43.160914" lon="-3.345883">
        <ele>927.8</ele>
        <time>2011-04-10T11:47:50Z</time>
      </trkpt>
      <trkpt lat="43.160939" lon="-3.345883">
        <ele>929.7</ele>
        <time>2011-04-10T11:47:52Z</time>
      </trkpt>
      <trkpt lat="43.160966" lon="-3.345886">
        <ele>925.9</ele>
        <time>2011-04-10T11:47:54Z</time>
      </trkpt>
      <trkpt lat="43.160979" lon="-3.345890">
        <ele>925.9</ele>
        <time>2011-04-10T11:47:55Z</time>
      </trkpt>
      <trkpt lat="43.161055" lon="-3.345919">
        <ele>930.7</ele>
        <time>2011-04-10T11:48:02Z</time>
      </trkpt>
      <trkpt lat="43.161169" lon="-3.345916">
        <ele>932.1</ele>
        <time>2011-04-10T11:48:17Z</time>
      </trkpt>
      <trkpt lat="43.161177" lon="-3.345910">
        <ele>932.6</ele>
        <time>2011-04-10T11:48:18Z</time>
      </trkpt>
      <trkpt lat="43.161262" lon="-3.345849">
        <ele>935.5</ele>
        <time>2011-04-10T11:48:27Z</time>
      </trkpt>
      <trkpt lat="43.161417" lon="-3.345683">
        <ele>936.0</ele>
        <time>2011-04-10T11:48:43Z</time>
      </trkpt>
      <trkpt lat="43.161446" lon="-3.345647">
        <ele>938.4</ele>
        <time>2011-04-10T11:48:46Z</time>
      </trkpt>
      <trkpt lat="43.161570" lon="-3.345580">
        <ele>939.3</ele>
        <time>2011-04-10T11:49:00Z</time>
      </trkpt>
      <trkpt lat="43.161608" lon="-3.345551">
        <ele>941.7</ele>
        <time>2011-04-10T11:49:04Z</time>
      </trkpt>
      <trkpt lat="43.161640" lon="-3.345519">
        <ele>944.2</ele>
        <time>2011-04-10T11:49:07Z</time>
      </trkpt>
      <trkpt lat="43.161657" lon="-3.345486">
        <ele>945.6</ele>
        <time>2011-04-10T11:49:09Z</time>
      </trkpt>
      <trkpt lat="43.161673" lon="-3.345453">
        <ele>941.7</ele>
        <time>2011-04-10T11:49:11Z</time>
      </trkpt>
      <trkpt lat="43.161682" lon="-3.345437">
        <ele>943.2</ele>
        <time>2011-04-10T11:49:12Z</time>
      </trkpt>
      <trkpt lat="43.161819" lon="-3.345254">
        <ele>941.3</ele>
        <time>2011-04-10T11:49:26Z</time>
      </trkpt>
      <trkpt lat="43.161852" lon="-3.345201">
        <ele>944.2</ele>
        <time>2011-04-10T11:49:30Z</time>
      </trkpt>
      <trkpt lat="43.162036" lon="-3.345024">
        <ele>946.1</ele>
        <time>2011-04-10T11:49:47Z</time>
      </trkpt>
      <trkpt lat="43.162192" lon="-3.344830">
        <ele>946.6</ele>
        <time>2011-04-10T11:50:03Z</time>
      </trkpt>
      <trkpt lat="43.162203" lon="-3.344819">
        <ele>946.6</ele>
        <time>2011-04-10T11:50:04Z</time>
      </trkpt>
      <trkpt lat="43.162398" lon="-3.344661">
        <ele>948.0</ele>
        <time>2011-04-10T11:50:22Z</time>
      </trkpt>
      <trkpt lat="43.162472" lon="-3.344607">
        <ele>951.4</ele>
        <time>2011-04-10T11:50:28Z</time>
      </trkpt>
      <trkpt lat="43.162554" lon="-3.344540">
        <ele>952.8</ele>
        <time>2011-04-10T11:50:34Z</time>
      </trkpt>
      <trkpt lat="43.162599" lon="-3.344510">
        <ele>949.4</ele>
        <time>2011-04-10T11:50:37Z</time>
      </trkpt>
      <trkpt lat="43.162616" lon="-3.344507">
        <ele>949.4</ele>
        <time>2011-04-10T11:50:38Z</time>
      </trkpt>
      <trkpt lat="43.162647" lon="-3.344496">
        <ele>948.0</ele>
        <time>2011-04-10T11:50:40Z</time>
      </trkpt>
      <trkpt lat="43.162685" lon="-3.344465">
        <ele>949.4</ele>
        <time>2011-04-10T11:50:43Z</time>
      </trkpt>
      <trkpt lat="43.162762" lon="-3.344411">
        <ele>950.4</ele>
        <time>2011-04-10T11:50:49Z</time>
      </trkpt>
      <trkpt lat="43.162852" lon="-3.344342">
        <ele>947.5</ele>
        <time>2011-04-10T11:50:57Z</time>
      </trkpt>
      <trkpt lat="43.162874" lon="-3.344325">
        <ele>954.2</ele>
        <time>2011-04-10T11:50:59Z</time>
      </trkpt>
      <trkpt lat="43.162885" lon="-3.344315">
        <ele>952.8</ele>
        <time>2011-04-10T11:51:00Z</time>
      </trkpt>
      <trkpt lat="43.162968" lon="-3.344224">
        <ele>950.4</ele>
        <time>2011-04-10T11:51:08Z</time>
      </trkpt>
      <trkpt lat="43.163024" lon="-3.344180">
        <ele>946.1</ele>
        <time>2011-04-10T11:51:14Z</time>
      </trkpt>
      <trkpt lat="43.163028" lon="-3.344189">
        <ele>948.0</ele>
        <time>2011-04-10T11:51:15Z</time>
      </trkpt>
      <trkpt lat="43.163031" lon="-3.344202">
        <ele>951.8</ele>
        <time>2011-04-10T11:51:16Z</time>
      </trkpt>
      <trkpt lat="43.163035" lon="-3.344214">
        <ele>948.0</ele>
        <time>2011-04-10T11:51:17Z</time>
      </trkpt>
      <trkpt lat="43.163047" lon="-3.344230">
        <ele>945.1</ele>
        <time>2011-04-10T11:51:19Z</time>
      </trkpt>
      <trkpt lat="43.163102" lon="-3.344251">
        <ele>949.0</ele>
        <time>2011-04-10T11:51:23Z</time>
      </trkpt>
      <trkpt lat="43.163138" lon="-3.344257">
        <ele>944.6</ele>
        <time>2011-04-10T11:51:25Z</time>
      </trkpt>
      <trkpt lat="43.163154" lon="-3.344259">
        <ele>940.3</ele>
        <time>2011-04-10T11:51:26Z</time>
      </trkpt>
      <trkpt lat="43.163171" lon="-3.344258">
        <ele>942.7</ele>
        <time>2011-04-10T11:51:27Z</time>
      </trkpt>
      <trkpt lat="43.163206" lon="-3.344237">
        <ele>945.6</ele>
        <time>2011-04-10T11:51:29Z</time>
      </trkpt>
      <trkpt lat="43.163416" lon="-3.344034">
        <ele>941.7</ele>
        <time>2011-04-10T11:51:39Z</time>
      </trkpt>
      <trkpt lat="43.163474" lon="-3.343966">
        <ele>942.7</ele>
        <time>2011-04-10T11:51:42Z</time>
      </trkpt>
      <trkpt lat="43.163623" lon="-3.343729">
        <ele>938.9</ele>
        <time>2011-04-10T11:51:51Z</time>
      </trkpt>
      <trkpt lat="43.163640" lon="-3.343705">
        <ele>938.9</ele>
        <time>2011-04-10T11:51:52Z</time>
      </trkpt>
      <trkpt lat="43.163805" lon="-3.343490">
        <ele>936.0</ele>
        <time>2011-04-10T11:52:01Z</time>
      </trkpt>
      <trkpt lat="43.163868" lon="-3.343393">
        <ele>939.3</ele>
        <time>2011-04-10T11:52:05Z</time>
      </trkpt>
      <trkpt lat="43.163940" lon="-3.343296">
        <ele>936.9</ele>
        <time>2011-04-10T11:52:09Z</time>
      </trkpt>
      <trkpt lat="43.164090" lon="-3.343144">
        <ele>933.6</ele>
        <time>2011-04-10T11:52:20Z</time>
      </trkpt>
      <trkpt lat="43.164105" lon="-3.343136">
        <ele>934.1</ele>
        <time>2011-04-10T11:52:21Z</time>
      </trkpt>
      <trkpt lat="43.164161" lon="-3.343101">
        <ele>937.4</ele>
        <time>2011-04-10T11:52:25Z</time>
      </trkpt>
      <trkpt lat="43.164240" lon="-3.343043">
        <ele>944.6</ele>
        <time>2011-04-10T11:52:32Z</time>
      </trkpt>
      <trkpt lat="43.164255" lon="-3.343020">
        <ele>945.1</ele>
        <time>2011-04-10T11:52:34Z</time>
      </trkpt>
      <trkpt lat="43.164300" lon="-3.342954">
        <ele>944.2</ele>
        <time>2011-04-10T11:52:41Z</time>
      </trkpt>
      <trkpt lat="43.164302" lon="-3.342954">
        <ele>939.8</ele>
        <time>2011-04-10T11:52:42Z</time>
      </trkpt>
      <trkpt lat="43.164308" lon="-3.342951">
        <ele>939.8</ele>
        <time>2011-04-10T11:52:43Z</time>
      </trkpt>
      <trkpt lat="43.164318" lon="-3.342944">
        <ele>945.6</ele>
        <time>2011-04-10T11:52:44Z</time>
      </trkpt>
      <trkpt lat="43.164483" lon="-3.342821">
        <ele>949.0</ele>
        <time>2011-04-10T11:52:58Z</time>
      </trkpt>
      <trkpt lat="43.164536" lon="-3.342790">
        <ele>944.6</ele>
        <time>2011-04-10T11:53:02Z</time>
      </trkpt>
      <trkpt lat="43.164550" lon="-3.342786">
        <ele>948.0</ele>
        <time>2011-04-10T11:53:03Z</time>
      </trkpt>
      <trkpt lat="43.164598" lon="-3.342753">
        <ele>944.6</ele>
        <time>2011-04-10T11:53:08Z</time>
      </trkpt>
      <trkpt lat="43.164609" lon="-3.342747">
        <ele>944.6</ele>
        <time>2011-04-10T11:53:09Z</time>
      </trkpt>
      <trkpt lat="43.164691" lon="-3.342712">
        <ele>948.5</ele>
        <time>2011-04-10T11:53:17Z</time>
      </trkpt>
      <trkpt lat="43.164721" lon="-3.342700">
        <ele>947.5</ele>
        <time>2011-04-10T11:53:20Z</time>
      </trkpt>
      <trkpt lat="43.164741" lon="-3.342689">
        <ele>952.8</ele>
        <time>2011-04-10T11:53:22Z</time>
      </trkpt>
      <trkpt lat="43.164751" lon="-3.342684">
        <ele>949.9</ele>
        <time>2011-04-10T11:53:23Z</time>
      </trkpt>
      <trkpt lat="43.164794" lon="-3.342672">
        <ele>950.4</ele>
        <time>2011-04-10T11:53:27Z</time>
      </trkpt>
      <trkpt lat="43.164814" lon="-3.342661">
        <ele>953.8</ele>
        <time>2011-04-10T11:53:29Z</time>
      </trkpt>
      <trkpt lat="43.164957" lon="-3.342591">
        <ele>955.7</ele>
        <time>2011-04-10T11:53:44Z</time>
      </trkpt>
      <trkpt lat="43.164972" lon="-3.342579">
        <ele>957.1</ele>
        <time>2011-04-10T11:53:46Z</time>
      </trkpt>
      <trkpt lat="43.164979" lon="-3.342574">
        <ele>958.1</ele>
        <time>2011-04-10T11:53:47Z</time>
      </trkpt>
      <trkpt lat="43.164995" lon="-3.342558">
        <ele>962.9</ele>
        <time>2011-04-10T11:53:49Z</time>
      </trkpt>
      <trkpt lat="43.165003" lon="-3.342551">
        <ele>958.1</ele>
        <time>2011-04-10T11:53:50Z</time>
      </trkpt>
      <trkpt lat="43.165036" lon="-3.342531">
        <ele>958.1</ele>
        <time>2011-04-10T11:53:54Z</time>
      </trkpt>
      <trkpt lat="43.165051" lon="-3.342519">
        <ele>961.0</ele>
        <time>2011-04-10T11:53:56Z</time>
      </trkpt>
      <trkpt lat="43.165117" lon="-3.342448">
        <ele>960.5</ele>
        <time>2011-04-10T11:54:05Z</time>
      </trkpt>
      <trkpt lat="43.165123" lon="-3.342439">
        <ele>964.3</ele>
        <time>2011-04-10T11:54:06Z</time>
      </trkpt>
      <trkpt lat="43.165134" lon="-3.342426">
        <ele>961.0</ele>
        <time>2011-04-10T11:54:08Z</time>
      </trkpt>
      <trkpt lat="43.165161" lon="-3.342395">
        <ele>965.3</ele>
        <time>2011-04-10T11:54:12Z</time>
      </trkpt>
      <trkpt lat="43.165168" lon="-3.342388">
        <ele>964.8</ele>
        <time>2011-04-10T11:54:13Z</time>
      </trkpt>
      <trkpt lat="43.165186" lon="-3.342381">
        <ele>961.5</ele>
        <time>2011-04-10T11:54:15Z</time>
      </trkpt>
      <trkpt lat="43.165209" lon="-3.342366">
        <ele>964.3</ele>
        <time>2011-04-10T11:54:18Z</time>
      </trkpt>
      <trkpt lat="43.165237" lon="-3.342335">
        <ele>967.7</ele>
        <time>2011-04-10T11:54:22Z</time>
      </trkpt>
      <trkpt lat="43.165271" lon="-3.342262">
        <ele>967.2</ele>
        <time>2011-04-10T11:54:29Z</time>
      </trkpt>
      <trkpt lat="43.165294" lon="-3.342213">
        <ele>971.1</ele>
        <time>2011-04-10T11:54:34Z</time>
      </trkpt>
      <trkpt lat="43.165319" lon="-3.342174">
        <ele>967.2</ele>
        <time>2011-04-10T11:54:38Z</time>
      </trkpt>
      <trkpt lat="43.165423" lon="-3.342079">
        <ele>967.2</ele>
        <time>2011-04-10T11:54:53Z</time>
      </trkpt>
      <trkpt lat="43.165481" lon="-3.342026">
        <ele>970.6</ele>
        <time>2011-04-10T11:55:01Z</time>
      </trkpt>
      <trkpt lat="43.165492" lon="-3.342009">
        <ele>974.0</ele>
        <time>2011-04-10T11:55:03Z</time>
      </trkpt>
      <trkpt lat="43.165512" lon="-3.341985">
        <ele>970.6</ele>
        <time>2011-04-10T11:55:06Z</time>
      </trkpt>
      <trkpt lat="43.165519" lon="-3.341978">
        <ele>971.1</ele>
        <time>2011-04-10T11:55:07Z</time>
      </trkpt>
      <trkpt lat="43.165568" lon="-3.341931">
        <ele>973.5</ele>
        <time>2011-04-10T11:55:14Z</time>
      </trkpt>
      <trkpt lat="43.165618" lon="-3.341904">
        <ele>970.6</ele>
        <time>2011-04-10T11:55:21Z</time>
      </trkpt>
      <trkpt lat="43.165682" lon="-3.341893">
        <ele>974.0</ele>
        <time>2011-04-10T11:55:29Z</time>
      </trkpt>
      <trkpt lat="43.165768" lon="-3.341848">
        <ele>975.9</ele>
        <time>2011-04-10T11:55:41Z</time>
      </trkpt>
      <trkpt lat="43.165809" lon="-3.341820">
        <ele>978.8</ele>
        <time>2011-04-10T11:55:47Z</time>
      </trkpt>
      <trkpt lat="43.165837" lon="-3.341798">
        <ele>978.3</ele>
        <time>2011-04-10T11:55:51Z</time>
      </trkpt>
      <trkpt lat="43.165952" lon="-3.341742">
        <ele>981.6</ele>
        <time>2011-04-10T11:56:06Z</time>
      </trkpt>
      <trkpt lat="43.166056" lon="-3.341699">
        <ele>986.0</ele>
        <time>2011-04-10T11:56:20Z</time>
      </trkpt>
      <trkpt lat="43.166133" lon="-3.341685">
        <ele>986.9</ele>
        <time>2011-04-10T11:56:30Z</time>
      </trkpt>
      <trkpt lat="43.166168" lon="-3.341682">
        <ele>990.8</ele>
        <time>2011-04-10T11:56:35Z</time>
      </trkpt>
      <trkpt lat="43.166187" lon="-3.341676">
        <ele>987.9</ele>
        <time>2011-04-10T11:56:38Z</time>
      </trkpt>
      <trkpt lat="43.166259" lon="-3.341689">
        <ele>991.7</ele>
        <time>2011-04-10T11:56:48Z</time>
      </trkpt>
      <trkpt lat="43.166266" lon="-3.341688">
        <ele>989.3</ele>
        <time>2011-04-10T11:56:49Z</time>
      </trkpt>
      <trkpt lat="43.166287" lon="-3.341678">
        <ele>991.7</ele>
        <time>2011-04-10T11:56:52Z</time>
      </trkpt>
      <trkpt lat="43.166375" lon="-3.341651">
        <ele>999.4</ele>
        <time>2011-04-10T11:57:04Z</time>
      </trkpt>
      <trkpt lat="43.166381" lon="-3.341649">
        <ele>994.6</ele>
        <time>2011-04-10T11:57:05Z</time>
      </trkpt>
      <trkpt lat="43.166395" lon="-3.341650">
        <ele>990.8</ele>
        <time>2011-04-10T11:57:07Z</time>
      </trkpt>
      <trkpt lat="43.166403" lon="-3.341649">
        <ele>994.6</ele>
        <time>2011-04-10T11:57:08Z</time>
      </trkpt>
      <trkpt lat="43.166441" lon="-3.341640">
        <ele>998.9</ele>
        <time>2011-04-10T11:57:13Z</time>
      </trkpt>
      <trkpt lat="43.166460" lon="-3.341626">
        <ele>1001.4</ele>
        <time>2011-04-10T11:57:16Z</time>
      </trkpt>
      <trkpt lat="43.166482" lon="-3.341618">
        <ele>995.1</ele>
        <time>2011-04-10T11:57:19Z</time>
      </trkpt>
      <trkpt lat="43.166489" lon="-3.341616">
        <ele>997.0</ele>
        <time>2011-04-10T11:57:20Z</time>
      </trkpt>
      <trkpt lat="43.166496" lon="-3.341615">
        <ele>993.7</ele>
        <time>2011-04-10T11:57:21Z</time>
      </trkpt>
      <trkpt lat="43.166510" lon="-3.341609">
        <ele>998.0</ele>
        <time>2011-04-10T11:57:23Z</time>
      </trkpt>
      <trkpt lat="43.166517" lon="-3.341604">
        <ele>997.5</ele>
        <time>2011-04-10T11:57:24Z</time>
      </trkpt>
      <trkpt lat="43.166562" lon="-3.341581">
        <ele>1001.4</ele>
        <time>2011-04-10T11:57:30Z</time>
      </trkpt>
      <trkpt lat="43.166570" lon="-3.341576">
        <ele>1000.9</ele>
        <time>2011-04-10T11:57:31Z</time>
      </trkpt>
      <trkpt lat="43.166587" lon="-3.341570">
        <ele>996.5</ele>
        <time>2011-04-10T11:57:33Z</time>
      </trkpt>
      <trkpt lat="43.166596" lon="-3.341566">
        <ele>1001.8</ele>
        <time>2011-04-10T11:57:34Z</time>
      </trkpt>
      <trkpt lat="43.166648" lon="-3.341550">
        <ele>998.0</ele>
        <time>2011-04-10T11:57:39Z</time>
      </trkpt>
      <trkpt lat="43.166659" lon="-3.341546">
        <ele>998.0</ele>
        <time>2011-04-10T11:57:40Z</time>
      </trkpt>
      <trkpt lat="43.166669" lon="-3.341542">
        <ele>1001.4</ele>
        <time>2011-04-10T11:57:41Z</time>
      </trkpt>
      <trkpt lat="43.166678" lon="-3.341540">
        <ele>1000.9</ele>
        <time>2011-04-10T11:57:42Z</time>
      </trkpt>
      <trkpt lat="43.166753" lon="-3.341503">
        <ele>1004.7</ele>
        <time>2011-04-10T11:57:50Z</time>
      </trkpt>
      <trkpt lat="43.166782" lon="-3.341485">
        <ele>1001.4</ele>
        <time>2011-04-10T11:57:53Z</time>
      </trkpt>
      <trkpt lat="43.166802" lon="-3.341474">
        <ele>1004.7</ele>
        <time>2011-04-10T11:57:55Z</time>
      </trkpt>
      <trkpt lat="43.166863" lon="-3.341420">
        <ele>1006.6</ele>
        <time>2011-04-10T11:58:01Z</time>
      </trkpt>
      <trkpt lat="43.166882" lon="-3.341375">
        <ele>1011.0</ele>
        <time>2011-04-10T11:58:04Z</time>
      </trkpt>
      <trkpt lat="43.166889" lon="-3.341360">
        <ele>1011.0</ele>
        <time>2011-04-10T11:58:05Z</time>
      </trkpt>
      <trkpt lat="43.166934" lon="-3.341253">
        <ele>1007.6</ele>
        <time>2011-04-10T11:58:11Z</time>
      </trkpt>
      <trkpt lat="43.166991" lon="-3.340932">
        <ele>1006.2</ele>
        <time>2011-04-10T11:58:25Z</time>
      </trkpt>
      <trkpt lat="43.167081" lon="-3.340486">
        <ele>1004.7</ele>
        <time>2011-04-10T11:58:42Z</time>
      </trkpt>
      <trkpt lat="43.167117" lon="-3.340246">
        <ele>1007.6</ele>
        <time>2011-04-10T11:58:49Z</time>
      </trkpt>
      <trkpt lat="43.167125" lon="-3.340214">
        <ele>1006.2</ele>
        <time>2011-04-10T11:58:50Z</time>
      </trkpt>
      <trkpt lat="43.167177" lon="-3.339851">
        <ele>1005.7</ele>
        <time>2011-04-10T11:59:05Z</time>
      </trkpt>
      <trkpt lat="43.167181" lon="-3.339768">
        <ele>1007.6</ele>
        <time>2011-04-10T11:59:09Z</time>
      </trkpt>
      <trkpt lat="43.167186" lon="-3.339726">
        <ele>1005.7</ele>
        <time>2011-04-10T11:59:11Z</time>
      </trkpt>
      <trkpt lat="43.167182" lon="-3.339272">
        <ele>1006.2</ele>
        <time>2011-04-10T11:59:33Z</time>
      </trkpt>
      <trkpt lat="43.167209" lon="-3.338804">
        <ele>1006.2</ele>
        <time>2011-04-10T11:59:57Z</time>
      </trkpt>
      <trkpt lat="43.167200" lon="-3.338678">
        <ele>1010.0</ele>
        <time>2011-04-10T12:00:04Z</time>
      </trkpt>
      <trkpt lat="43.167199" lon="-3.338660">
        <ele>1009.5</ele>
        <time>2011-04-10T12:00:05Z</time>
      </trkpt>
      <trkpt lat="43.167197" lon="-3.338621">
        <ele>1008.6</ele>
        <time>2011-04-10T12:00:07Z</time>
      </trkpt>
      <trkpt lat="43.167168" lon="-3.338425">
        <ele>1009.5</ele>
        <time>2011-04-10T12:00:21Z</time>
      </trkpt>
      <trkpt lat="43.167153" lon="-3.338318">
        <ele>1010.0</ele>
        <time>2011-04-10T12:00:27Z</time>
      </trkpt>
      <trkpt lat="43.167107" lon="-3.338037">
        <ele>1007.1</ele>
        <time>2011-04-10T12:00:42Z</time>
      </trkpt>
      <trkpt lat="43.167106" lon="-3.337900">
        <ele>1007.6</ele>
        <time>2011-04-10T12:00:58Z</time>
      </trkpt>
      <trkpt lat="43.167093" lon="-3.337892">
        <ele>1008.6</ele>
        <time>2011-04-10T12:01:16Z</time>
      </trkpt>
      <trkpt lat="43.167092" lon="-3.337888">
        <ele>1007.6</ele>
        <time>2011-04-10T12:01:18Z</time>
      </trkpt>
      <trkpt lat="43.167090" lon="-3.337882">
        <ele>1007.6</ele>
        <time>2011-04-10T12:01:41Z</time>
      </trkpt>
      <trkpt lat="43.167066" lon="-3.337917">
        <ele>1007.1</ele>
        <time>2011-04-10T12:02:01Z</time>
      </trkpt>
      <trkpt lat="43.167064" lon="-3.337911">
        <ele>1007.1</ele>
        <time>2011-04-10T12:02:18Z</time>
      </trkpt>
      <trkpt lat="43.167067" lon="-3.337929">
        <ele>1008.1</ele>
        <time>2011-04-10T12:02:37Z</time>
      </trkpt>
      <trkpt lat="43.167054" lon="-3.337940">
        <ele>1007.6</ele>
        <time>2011-04-10T12:02:49Z</time>
      </trkpt>
      <trkpt lat="43.167055" lon="-3.337934">
        <ele>1006.6</ele>
        <time>2011-04-10T12:03:03Z</time>
      </trkpt>
      <trkpt lat="43.167051" lon="-3.337934">
        <ele>1005.7</ele>
        <time>2011-04-10T12:03:18Z</time>
      </trkpt>
      <trkpt lat="43.167056" lon="-3.337931">
        <ele>1007.1</ele>
        <time>2011-04-10T12:03:32Z</time>
      </trkpt>
      <trkpt lat="43.167056" lon="-3.337934">
        <ele>1008.1</ele>
        <time>2011-04-10T12:04:03Z</time>
      </trkpt>
      <trkpt lat="43.167050" lon="-3.337925">
        <ele>1007.6</ele>
        <time>2011-04-10T12:04:20Z</time>
      </trkpt>
      <trkpt lat="43.167043" lon="-3.337938">
        <ele>1007.6</ele>
        <time>2011-04-10T12:04:52Z</time>
      </trkpt>
      <trkpt lat="43.167042" lon="-3.337924">
        <ele>1006.6</ele>
        <time>2011-04-10T12:05:13Z</time>
      </trkpt>
      <trkpt lat="43.167040" lon="-3.337919">
        <ele>1006.6</ele>
        <time>2011-04-10T12:05:37Z</time>
      </trkpt>
      <trkpt lat="43.167040" lon="-3.337919">
        <ele>1006.6</ele>
        <time>2011-04-10T12:05:38Z</time>
      </trkpt>
      <trkpt lat="43.167041" lon="-3.337923">
        <ele>1011.4</ele>
        <time>2011-04-10T12:05:47Z</time>
      </trkpt>
      <trkpt lat="43.167041" lon="-3.337923">
        <ele>1008.6</ele>
        <time>2011-04-10T12:05:48Z</time>
      </trkpt>
      <trkpt lat="43.167046" lon="-3.337926">
        <ele>1008.6</ele>
        <time>2011-04-10T12:06:11Z</time>
      </trkpt>
      <trkpt lat="43.167047" lon="-3.337931">
        <ele>1008.6</ele>
        <time>2011-04-10T12:06:26Z</time>
      </trkpt>
      <trkpt lat="43.167048" lon="-3.337934">
        <ele>1009.0</ele>
        <time>2011-04-10T12:06:50Z</time>
      </trkpt>
      <trkpt lat="43.167046" lon="-3.337924">
        <ele>1010.0</ele>
        <time>2011-04-10T12:07:01Z</time>
      </trkpt>
      <trkpt lat="43.167059" lon="-3.337894">
        <ele>1009.5</ele>
        <time>2011-04-10T12:07:20Z</time>
      </trkpt>
      <trkpt lat="43.167097" lon="-3.337908">
        <ele>1010.0</ele>
        <time>2011-04-10T12:07:32Z</time>
      </trkpt>
      <trkpt lat="43.167055" lon="-3.337868">
        <ele>1009.5</ele>
        <time>2011-04-10T12:07:37Z</time>
      </trkpt>
      <trkpt lat="43.166941" lon="-3.337722">
        <ele>1012.4</ele>
        <time>2011-04-10T12:07:49Z</time>
      </trkpt>
      <trkpt lat="43.166865" lon="-3.337652">
        <ele>1013.8</ele>
        <time>2011-04-10T12:07:57Z</time>
      </trkpt>
      <trkpt lat="43.166733" lon="-3.337435">
        <ele>1016.7</ele>
        <time>2011-04-10T12:08:15Z</time>
      </trkpt>
      <trkpt lat="43.166689" lon="-3.337351">
        <ele>1020.1</ele>
        <time>2011-04-10T12:08:22Z</time>
      </trkpt>
      <trkpt lat="43.166684" lon="-3.337341">
        <ele>1020.1</ele>
        <time>2011-04-10T12:08:23Z</time>
      </trkpt>
      <trkpt lat="43.166633" lon="-3.337210">
        <ele>1023.5</ele>
        <time>2011-04-10T12:08:34Z</time>
      </trkpt>
      <trkpt lat="43.166565" lon="-3.337024">
        <ele>1024.9</ele>
        <time>2011-04-10T12:08:51Z</time>
      </trkpt>
      <trkpt lat="43.166534" lon="-3.336952">
        <ele>1028.7</ele>
        <time>2011-04-10T12:08:58Z</time>
      </trkpt>
      <trkpt lat="43.166480" lon="-3.336817">
        <ele>1031.6</ele>
        <time>2011-04-10T12:09:11Z</time>
      </trkpt>
      <trkpt lat="43.166445" lon="-3.336742">
        <ele>1035.0</ele>
        <time>2011-04-10T12:09:20Z</time>
      </trkpt>
      <trkpt lat="43.166441" lon="-3.336734">
        <ele>1034.0</ele>
        <time>2011-04-10T12:09:21Z</time>
      </trkpt>
      <trkpt lat="43.166414" lon="-3.336665">
        <ele>1037.9</ele>
        <time>2011-04-10T12:09:29Z</time>
      </trkpt>
      <trkpt lat="43.166409" lon="-3.336656">
        <ele>1037.9</ele>
        <time>2011-04-10T12:09:30Z</time>
      </trkpt>
      <trkpt lat="43.166376" lon="-3.336573">
        <ele>1041.2</ele>
        <time>2011-04-10T12:09:41Z</time>
      </trkpt>
      <trkpt lat="43.166314" lon="-3.336423">
        <ele>1044.6</ele>
        <time>2011-04-10T12:09:56Z</time>
      </trkpt>
      <trkpt lat="43.166298" lon="-3.336392">
        <ele>1045.6</ele>
        <time>2011-04-10T12:10:00Z</time>
      </trkpt>
      <trkpt lat="43.166231" lon="-3.336222">
        <ele>1047.0</ele>
        <time>2011-04-10T12:10:17Z</time>
      </trkpt>
      <trkpt lat="43.166211" lon="-3.336156">
        <ele>1048.0</ele>
        <time>2011-04-10T12:10:24Z</time>
      </trkpt>
      <trkpt lat="43.166198" lon="-3.336121">
        <ele>1053.3</ele>
        <time>2011-04-10T12:10:28Z</time>
      </trkpt>
      <trkpt lat="43.166194" lon="-3.336112">
        <ele>1052.3</ele>
        <time>2011-04-10T12:10:29Z</time>
      </trkpt>
      <trkpt lat="43.166190" lon="-3.336082">
        <ele>1048.9</ele>
        <time>2011-04-10T12:10:32Z</time>
      </trkpt>
      <trkpt lat="43.166189" lon="-3.336072">
        <ele>1052.8</ele>
        <time>2011-04-10T12:10:33Z</time>
      </trkpt>
      <trkpt lat="43.166152" lon="-3.335958">
        <ele>1054.7</ele>
        <time>2011-04-10T12:10:45Z</time>
      </trkpt>
      <trkpt lat="43.166128" lon="-3.335900">
        <ele>1058.5</ele>
        <time>2011-04-10T12:10:52Z</time>
      </trkpt>
      <trkpt lat="43.166122" lon="-3.335893">
        <ele>1056.6</ele>
        <time>2011-04-10T12:10:53Z</time>
      </trkpt>
      <trkpt lat="43.166097" lon="-3.335825">
        <ele>1061.0</ele>
        <time>2011-04-10T12:11:01Z</time>
      </trkpt>
      <trkpt lat="43.166093" lon="-3.335818">
        <ele>1061.4</ele>
        <time>2011-04-10T12:11:02Z</time>
      </trkpt>
      <trkpt lat="43.166026" lon="-3.335659">
        <ele>1062.9</ele>
        <time>2011-04-10T12:11:20Z</time>
      </trkpt>
      <trkpt lat="43.165995" lon="-3.335549">
        <ele>1066.2</ele>
        <time>2011-04-10T12:11:31Z</time>
      </trkpt>
      <trkpt lat="43.165936" lon="-3.335484">
        <ele>1070.1</ele>
        <time>2011-04-10T12:11:42Z</time>
      </trkpt>
      <trkpt lat="43.165930" lon="-3.335477">
        <ele>1068.6</ele>
        <time>2011-04-10T12:11:43Z</time>
      </trkpt>
      <trkpt lat="43.165885" lon="-3.335372">
        <ele>1072.5</ele>
        <time>2011-04-10T12:11:55Z</time>
      </trkpt>
      <trkpt lat="43.165845" lon="-3.335294">
        <ele>1073.9</ele>
        <time>2011-04-10T12:12:04Z</time>
      </trkpt>
      <trkpt lat="43.165828" lon="-3.335266">
        <ele>1076.8</ele>
        <time>2011-04-10T12:12:07Z</time>
      </trkpt>
      <trkpt lat="43.165760" lon="-3.335120">
        <ele>1080.2</ele>
        <time>2011-04-10T12:12:21Z</time>
      </trkpt>
      <trkpt lat="43.165729" lon="-3.335047">
        <ele>1080.2</ele>
        <time>2011-04-10T12:12:28Z</time>
      </trkpt>
      <trkpt lat="43.165696" lon="-3.334956">
        <ele>1083.5</ele>
        <time>2011-04-10T12:12:36Z</time>
      </trkpt>
      <trkpt lat="43.165653" lon="-3.334829">
        <ele>1086.4</ele>
        <time>2011-04-10T12:12:48Z</time>
      </trkpt>
      <trkpt lat="43.165644" lon="-3.334808">
        <ele>1087.4</ele>
        <time>2011-04-10T12:12:50Z</time>
      </trkpt>
      <trkpt lat="43.165611" lon="-3.334679">
        <ele>1090.8</ele>
        <time>2011-04-10T12:13:02Z</time>
      </trkpt>
      <trkpt lat="43.165591" lon="-3.334569">
        <ele>1094.1</ele>
        <time>2011-04-10T12:13:12Z</time>
      </trkpt>
      <trkpt lat="43.165577" lon="-3.334492">
        <ele>1097.5</ele>
        <time>2011-04-10T12:13:18Z</time>
      </trkpt>
      <trkpt lat="43.165574" lon="-3.334481">
        <ele>1097.5</ele>
        <time>2011-04-10T12:13:19Z</time>
      </trkpt>
      <trkpt lat="43.165562" lon="-3.334411">
        <ele>1098.9</ele>
        <time>2011-04-10T12:13:25Z</time>
      </trkpt>
      <trkpt lat="43.165524" lon="-3.334215">
        <ele>1102.8</ele>
        <time>2011-04-10T12:13:41Z</time>
      </trkpt>
      <trkpt lat="43.165515" lon="-3.334177">
        <ele>1101.3</ele>
        <time>2011-04-10T12:13:44Z</time>
      </trkpt>
      <trkpt lat="43.165499" lon="-3.334068">
        <ele>1105.7</ele>
        <time>2011-04-10T12:13:52Z</time>
      </trkpt>
      <trkpt lat="43.165497" lon="-3.334056">
        <ele>1102.3</ele>
        <time>2011-04-10T12:13:53Z</time>
      </trkpt>
      <trkpt lat="43.165488" lon="-3.334017">
        <ele>1106.6</ele>
        <time>2011-04-10T12:13:56Z</time>
      </trkpt>
      <trkpt lat="43.165484" lon="-3.334004">
        <ele>1105.7</ele>
        <time>2011-04-10T12:13:57Z</time>
      </trkpt>
      <trkpt lat="43.165477" lon="-3.333978">
        <ele>1104.7</ele>
        <time>2011-04-10T12:13:59Z</time>
      </trkpt>
      <trkpt lat="43.165468" lon="-3.333937">
        <ele>1102.3</ele>
        <time>2011-04-10T12:14:02Z</time>
      </trkpt>
      <trkpt lat="43.165465" lon="-3.333854">
        <ele>1105.7</ele>
        <time>2011-04-10T12:14:09Z</time>
      </trkpt>
      <trkpt lat="43.165485" lon="-3.333818">
        <ele>1105.7</ele>
        <time>2011-04-10T12:14:13Z</time>
      </trkpt>
      <trkpt lat="43.165492" lon="-3.333783">
        <ele>1106.6</ele>
        <time>2011-04-10T12:14:16Z</time>
      </trkpt>
      <trkpt lat="43.165509" lon="-3.333581">
        <ele>1110.5</ele>
        <time>2011-04-10T12:14:29Z</time>
      </trkpt>
      <trkpt lat="43.165513" lon="-3.333351">
        <ele>1107.1</ele>
        <time>2011-04-10T12:14:41Z</time>
      </trkpt>
      <trkpt lat="43.165517" lon="-3.333238">
        <ele>1103.7</ele>
        <time>2011-04-10T12:14:47Z</time>
      </trkpt>
      <trkpt lat="43.165532" lon="-3.333142">
        <ele>1102.8</ele>
        <time>2011-04-10T12:14:52Z</time>
      </trkpt>
      <trkpt lat="43.165553" lon="-3.333059">
        <ele>1102.8</ele>
        <time>2011-04-10T12:14:56Z</time>
      </trkpt>
      <trkpt lat="43.165649" lon="-3.332739">
        <ele>1103.3</ele>
        <time>2011-04-10T12:15:12Z</time>
      </trkpt>
      <trkpt lat="43.165688" lon="-3.332596">
        <ele>1098.0</ele>
        <time>2011-04-10T12:15:19Z</time>
      </trkpt>
      <trkpt lat="43.165696" lon="-3.332575">
        <ele>1098.4</ele>
        <time>2011-04-10T12:15:20Z</time>
      </trkpt>
      <trkpt lat="43.165754" lon="-3.332425">
        <ele>1097.0</ele>
        <time>2011-04-10T12:15:26Z</time>
      </trkpt>
      <trkpt lat="43.165787" lon="-3.332342">
        <ele>1095.1</ele>
        <time>2011-04-10T12:15:29Z</time>
      </trkpt>
      <trkpt lat="43.165818" lon="-3.332261">
        <ele>1093.6</ele>
        <time>2011-04-10T12:15:32Z</time>
      </trkpt>
      <trkpt lat="43.165948" lon="-3.331989">
        <ele>1090.3</ele>
        <time>2011-04-10T12:15:43Z</time>
      </trkpt>
      <trkpt lat="43.165959" lon="-3.331965">
        <ele>1090.8</ele>
        <time>2011-04-10T12:15:44Z</time>
      </trkpt>
      <trkpt lat="43.166052" lon="-3.331642">
        <ele>1089.3</ele>
        <time>2011-04-10T12:15:59Z</time>
      </trkpt>
      <trkpt lat="43.166189" lon="-3.331293">
        <ele>1088.8</ele>
        <time>2011-04-10T12:16:17Z</time>
      </trkpt>
      <trkpt lat="43.166302" lon="-3.330982">
        <ele>1086.9</ele>
        <time>2011-04-10T12:16:32Z</time>
      </trkpt>
      <trkpt lat="43.166407" lon="-3.330769">
        <ele>1084.0</ele>
        <time>2011-04-10T12:16:43Z</time>
      </trkpt>
      <trkpt lat="43.166432" lon="-3.330747">
        <ele>1083.5</ele>
        <time>2011-04-10T12:16:45Z</time>
      </trkpt>
      <trkpt lat="43.166464" lon="-3.330688">
        <ele>1082.6</ele>
        <time>2011-04-10T12:16:49Z</time>
      </trkpt>
      <trkpt lat="43.166470" lon="-3.330669">
        <ele>1084.0</ele>
        <time>2011-04-10T12:16:50Z</time>
      </trkpt>
      <trkpt lat="43.166545" lon="-3.330523">
        <ele>1081.6</ele>
        <time>2011-04-10T12:16:58Z</time>
      </trkpt>
      <trkpt lat="43.166608" lon="-3.330488">
        <ele>1082.1</ele>
        <time>2011-04-10T12:17:02Z</time>
      </trkpt>
      <trkpt lat="43.166769" lon="-3.330156">
        <ele>1080.2</ele>
        <time>2011-04-10T12:17:19Z</time>
      </trkpt>
      <trkpt lat="43.166868" lon="-3.329868">
        <ele>1076.3</ele>
        <time>2011-04-10T12:17:33Z</time>
      </trkpt>
      <trkpt lat="43.166872" lon="-3.329843">
        <ele>1076.3</ele>
        <time>2011-04-10T12:17:34Z</time>
      </trkpt>
      <trkpt lat="43.166932" lon="-3.329628">
        <ele>1073.0</ele>
        <time>2011-04-10T12:17:43Z</time>
      </trkpt>
      <trkpt lat="43.166981" lon="-3.329426">
        <ele>1069.6</ele>
        <time>2011-04-10T12:17:51Z</time>
      </trkpt>
      <trkpt lat="43.167075" lon="-3.329112">
        <ele>1068.2</ele>
        <time>2011-04-10T12:18:04Z</time>
      </trkpt>
      <trkpt lat="43.167235" lon="-3.328784">
        <ele>1068.2</ele>
        <time>2011-04-10T12:18:20Z</time>
      </trkpt>
      <trkpt lat="43.167307" lon="-3.328642">
        <ele>1066.7</ele>
        <time>2011-04-10T12:18:27Z</time>
      </trkpt>
      <trkpt lat="43.167380" lon="-3.328384">
        <ele>1069.1</ele>
        <time>2011-04-10T12:18:37Z</time>
      </trkpt>
      <trkpt lat="43.167546" lon="-3.328036">
        <ele>1067.2</ele>
        <time>2011-04-10T12:18:54Z</time>
      </trkpt>
      <trkpt lat="43.167552" lon="-3.328014">
        <ele>1067.2</ele>
        <time>2011-04-10T12:18:55Z</time>
      </trkpt>
      <trkpt lat="43.167638" lon="-3.327650">
        <ele>1067.2</ele>
        <time>2011-04-10T12:19:09Z</time>
      </trkpt>
      <trkpt lat="43.167669" lon="-3.327547">
        <ele>1069.1</ele>
        <time>2011-04-10T12:19:13Z</time>
      </trkpt>
      <trkpt lat="43.167678" lon="-3.327524">
        <ele>1076.3</ele>
        <time>2011-04-10T12:19:14Z</time>
      </trkpt>
      <trkpt lat="43.167685" lon="-3.327499">
        <ele>1075.9</ele>
        <time>2011-04-10T12:19:15Z</time>
      </trkpt>
      <trkpt lat="43.167694" lon="-3.327469">
        <ele>1070.1</ele>
        <time>2011-04-10T12:19:16Z</time>
      </trkpt>
      <trkpt lat="43.167701" lon="-3.327435">
        <ele>1065.8</ele>
        <time>2011-04-10T12:19:17Z</time>
      </trkpt>
      <trkpt lat="43.167708" lon="-3.327401">
        <ele>1061.9</ele>
        <time>2011-04-10T12:19:18Z</time>
      </trkpt>
      <trkpt lat="43.167737" lon="-3.327287">
        <ele>1058.5</ele>
        <time>2011-04-10T12:19:22Z</time>
      </trkpt>
      <trkpt lat="43.167746" lon="-3.327204">
        <ele>1056.6</ele>
        <time>2011-04-10T12:19:25Z</time>
      </trkpt>
      <trkpt lat="43.167767" lon="-3.327099">
        <ele>1053.3</ele>
        <time>2011-04-10T12:19:29Z</time>
      </trkpt>
      <trkpt lat="43.167774" lon="-3.327076">
        <ele>1053.7</ele>
        <time>2011-04-10T12:19:30Z</time>
      </trkpt>
      <trkpt lat="43.167790" lon="-3.327008">
        <ele>1048.9</ele>
        <time>2011-04-10T12:19:33Z</time>
      </trkpt>
      <trkpt lat="43.167831" lon="-3.326819">
        <ele>1045.6</ele>
        <time>2011-04-10T12:19:42Z</time>
      </trkpt>
      <trkpt lat="43.167850" lon="-3.326696">
        <ele>1043.2</ele>
        <time>2011-04-10T12:19:47Z</time>
      </trkpt>
      <trkpt lat="43.167874" lon="-3.326580">
        <ele>1041.2</ele>
        <time>2011-04-10T12:19:52Z</time>
      </trkpt>
      <trkpt lat="43.167942" lon="-3.326366">
        <ele>1038.4</ele>
        <time>2011-04-10T12:20:02Z</time>
      </trkpt>
      <trkpt lat="43.168024" lon="-3.326033">
        <ele>1036.4</ele>
        <time>2011-04-10T12:20:19Z</time>
      </trkpt>
      <trkpt lat="43.168060" lon="-3.325881">
        <ele>1033.1</ele>
        <time>2011-04-10T12:20:26Z</time>
      </trkpt>
      <trkpt lat="43.168068" lon="-3.325842">
        <ele>1032.6</ele>
        <time>2011-04-10T12:20:28Z</time>
      </trkpt>
      <trkpt lat="43.168090" lon="-3.325740">
        <ele>1030.7</ele>
        <time>2011-04-10T12:20:34Z</time>
      </trkpt>
      <trkpt lat="43.168086" lon="-3.325683">
        <ele>1029.2</ele>
        <time>2011-04-10T12:20:38Z</time>
      </trkpt>
      <trkpt lat="43.168087" lon="-3.325643">
        <ele>1027.8</ele>
        <time>2011-04-10T12:20:40Z</time>
      </trkpt>
      <trkpt lat="43.168118" lon="-3.325546">
        <ele>1027.3</ele>
        <time>2011-04-10T12:20:45Z</time>
      </trkpt>
      <trkpt lat="43.168175" lon="-3.325407">
        <ele>1023.9</ele>
        <time>2011-04-10T12:20:51Z</time>
      </trkpt>
      <trkpt lat="43.168198" lon="-3.325358">
        <ele>1023.0</ele>
        <time>2011-04-10T12:20:53Z</time>
      </trkpt>
      <trkpt lat="43.168289" lon="-3.325057">
        <ele>1020.1</ele>
        <time>2011-04-10T12:21:06Z</time>
      </trkpt>
      <trkpt lat="43.168435" lon="-3.324720">
        <ele>1018.2</ele>
        <time>2011-04-10T12:21:25Z</time>
      </trkpt>
      <trkpt lat="43.168442" lon="-3.324703">
        <ele>1017.7</ele>
        <time>2011-04-10T12:21:26Z</time>
      </trkpt>
      <trkpt lat="43.168447" lon="-3.324610">
        <ele>1017.2</ele>
        <time>2011-04-10T12:21:31Z</time>
      </trkpt>
      <trkpt lat="43.168440" lon="-3.324553">
        <ele>1015.3</ele>
        <time>2011-04-10T12:21:35Z</time>
      </trkpt>
      <trkpt lat="43.168445" lon="-3.324473">
        <ele>1013.4</ele>
        <time>2011-04-10T12:21:39Z</time>
      </trkpt>
      <trkpt lat="43.168461" lon="-3.324381">
        <ele>1011.4</ele>
        <time>2011-04-10T12:21:44Z</time>
      </trkpt>
      <trkpt lat="43.168465" lon="-3.324290">
        <ele>1009.0</ele>
        <time>2011-04-10T12:21:50Z</time>
      </trkpt>
      <trkpt lat="43.168470" lon="-3.324211">
        <ele>1005.7</ele>
        <time>2011-04-10T12:21:55Z</time>
      </trkpt>
      <trkpt lat="43.168471" lon="-3.324198">
        <ele>1009.0</ele>
        <time>2011-04-10T12:21:56Z</time>
      </trkpt>
      <trkpt lat="43.168475" lon="-3.324154">
        <ele>1006.6</ele>
        <time>2011-04-10T12:21:59Z</time>
      </trkpt>
      <trkpt lat="43.168524" lon="-3.323918">
        <ele>1003.8</ele>
        <time>2011-04-10T12:22:12Z</time>
      </trkpt>
      <trkpt lat="43.168537" lon="-3.323860">
        <ele>1002.3</ele>
        <time>2011-04-10T12:22:15Z</time>
      </trkpt>
      <trkpt lat="43.168539" lon="-3.323826">
        <ele>1000.9</ele>
        <time>2011-04-10T12:22:17Z</time>
      </trkpt>
      <trkpt lat="43.168557" lon="-3.323742">
        <ele>998.5</ele>
        <time>2011-04-10T12:22:22Z</time>
      </trkpt>
      <trkpt lat="43.168577" lon="-3.323658">
        <ele>997.0</ele>
        <time>2011-04-10T12:22:27Z</time>
      </trkpt>
      <trkpt lat="43.168653" lon="-3.323353">
        <ele>993.2</ele>
        <time>2011-04-10T12:22:43Z</time>
      </trkpt>
      <trkpt lat="43.168701" lon="-3.323145">
        <ele>990.3</ele>
        <time>2011-04-10T12:22:54Z</time>
      </trkpt>
      <trkpt lat="43.168706" lon="-3.323127">
        <ele>990.3</ele>
        <time>2011-04-10T12:22:55Z</time>
      </trkpt>
      <trkpt lat="43.168758" lon="-3.322972">
        <ele>986.4</ele>
        <time>2011-04-10T12:23:04Z</time>
      </trkpt>
      <trkpt lat="43.168877" lon="-3.322680">
        <ele>985.0</ele>
        <time>2011-04-10T12:23:21Z</time>
      </trkpt>
      <trkpt lat="43.168973" lon="-3.322346">
        <ele>984.0</ele>
        <time>2011-04-10T12:23:37Z</time>
      </trkpt>
      <trkpt lat="43.169063" lon="-3.321965">
        <ele>984.5</ele>
        <time>2011-04-10T12:23:55Z</time>
      </trkpt>
      <trkpt lat="43.169086" lon="-3.321858">
        <ele>985.0</ele>
        <time>2011-04-10T12:24:01Z</time>
      </trkpt>
      <trkpt lat="43.168979" lon="-3.321633">
        <ele>984.5</ele>
        <time>2011-04-10T12:24:16Z</time>
      </trkpt>
      <trkpt lat="43.168884" lon="-3.321410">
        <ele>986.0</ele>
        <time>2011-04-10T12:24:32Z</time>
      </trkpt>
      <trkpt lat="43.168869" lon="-3.321331">
        <ele>990.3</ele>
        <time>2011-04-10T12:24:43Z</time>
      </trkpt>
      <trkpt lat="43.168871" lon="-3.321296">
        <ele>989.8</ele>
        <time>2011-04-10T12:24:47Z</time>
      </trkpt>
      <trkpt lat="43.168917" lon="-3.321323">
        <ele>992.7</ele>
        <time>2011-04-10T12:24:54Z</time>
      </trkpt>
      <trkpt lat="43.168922" lon="-3.321327">
        <ele>993.2</ele>
        <time>2011-04-10T12:24:55Z</time>
      </trkpt>
      <trkpt lat="43.168959" lon="-3.321348">
        <ele>996.1</ele>
        <time>2011-04-10T12:25:01Z</time>
      </trkpt>
      <trkpt lat="43.168967" lon="-3.321349">
        <ele>996.1</ele>
        <time>2011-04-10T12:25:02Z</time>
      </trkpt>
      <trkpt lat="43.168980" lon="-3.321350">
        <ele>999.9</ele>
        <time>2011-04-10T12:25:04Z</time>
      </trkpt>
      <trkpt lat="43.168986" lon="-3.321353">
        <ele>998.0</ele>
        <time>2011-04-10T12:25:05Z</time>
      </trkpt>
      <trkpt lat="43.169003" lon="-3.321364">
        <ele>1000.9</ele>
        <time>2011-04-10T12:25:08Z</time>
      </trkpt>
      <trkpt lat="43.169013" lon="-3.321360">
        <ele>1002.3</ele>
        <time>2011-04-10T12:25:10Z</time>
      </trkpt>
      <trkpt lat="43.169064" lon="-3.321294">
        <ele>1004.2</ele>
        <time>2011-04-10T12:25:24Z</time>
      </trkpt>
      <trkpt lat="43.169078" lon="-3.321265">
        <ele>1004.2</ele>
        <time>2011-04-10T12:25:27Z</time>
      </trkpt>
      <trkpt lat="43.169092" lon="-3.321219">
        <ele>1004.7</ele>
        <time>2011-04-10T12:25:31Z</time>
      </trkpt>
      <trkpt lat="43.169152" lon="-3.321071">
        <ele>1008.1</ele>
        <time>2011-04-10T12:25:48Z</time>
      </trkpt>
      <trkpt lat="43.169163" lon="-3.321054">
        <ele>1009.0</ele>
        <time>2011-04-10T12:25:50Z</time>
      </trkpt>
      <trkpt lat="43.169241" lon="-3.320996">
        <ele>1012.4</ele>
        <time>2011-04-10T12:26:02Z</time>
      </trkpt>
      <trkpt lat="43.169257" lon="-3.320960">
        <ele>1013.4</ele>
        <time>2011-04-10T12:26:05Z</time>
      </trkpt>
      <trkpt lat="43.169257" lon="-3.320915">
        <ele>1014.8</ele>
        <time>2011-04-10T12:26:09Z</time>
      </trkpt>
      <trkpt lat="43.169285" lon="-3.320762">
        <ele>1015.3</ele>
        <time>2011-04-10T12:26:21Z</time>
      </trkpt>
      <trkpt lat="43.169316" lon="-3.320711">
        <ele>1019.1</ele>
        <time>2011-04-10T12:26:26Z</time>
      </trkpt>
      <trkpt lat="43.169414" lon="-3.320579">
        <ele>1022.0</ele>
        <time>2011-04-10T12:26:38Z</time>
      </trkpt>
      <trkpt lat="43.169629" lon="-3.320366">
        <ele>1020.1</ele>
        <time>2011-04-10T12:26:57Z</time>
      </trkpt>
      <trkpt lat="43.169707" lon="-3.320229">
        <ele>1021.5</ele>
        <time>2011-04-10T12:27:06Z</time>
      </trkpt>
      <trkpt lat="43.169814" lon="-3.320163">
        <ele>1023.0</ele>
        <time>2011-04-10T12:27:16Z</time>
      </trkpt>
      <trkpt lat="43.169886" lon="-3.320095">
        <ele>1023.0</ele>
        <time>2011-04-10T12:27:23Z</time>
      </trkpt>
      <trkpt lat="43.170038" lon="-3.320001">
        <ele>1028.7</ele>
        <time>2011-04-10T12:27:38Z</time>
      </trkpt>
      <trkpt lat="43.170047" lon="-3.319993">
        <ele>1025.4</ele>
        <time>2011-04-10T12:27:39Z</time>
      </trkpt>
      <trkpt lat="43.170112" lon="-3.319959">
        <ele>1028.7</ele>
        <time>2011-04-10T12:27:45Z</time>
      </trkpt>
      <trkpt lat="43.170194" lon="-3.319927">
        <ele>1030.2</ele>
        <time>2011-04-10T12:27:53Z</time>
      </trkpt>
      <trkpt lat="43.170281" lon="-3.319834">
        <ele>1031.6</ele>
        <time>2011-04-10T12:28:03Z</time>
      </trkpt>
      <trkpt lat="43.170427" lon="-3.319764">
        <ele>1035.0</ele>
        <time>2011-04-10T12:28:17Z</time>
      </trkpt>
      <trkpt lat="43.170567" lon="-3.319775">
        <ele>1035.0</ele>
        <time>2011-04-10T12:28:30Z</time>
      </trkpt>
      <trkpt lat="43.170659" lon="-3.319788">
        <ele>1036.9</ele>
        <time>2011-04-10T12:28:38Z</time>
      </trkpt>
      <trkpt lat="43.170743" lon="-3.319813">
        <ele>1040.8</ele>
        <time>2011-04-10T12:28:46Z</time>
      </trkpt>
      <trkpt lat="43.170920" lon="-3.319758">
        <ele>1042.2</ele>
        <time>2011-04-10T12:29:02Z</time>
      </trkpt>
      <trkpt lat="43.170969" lon="-3.319625">
        <ele>1041.2</ele>
        <time>2011-04-10T12:29:10Z</time>
      </trkpt>
      <trkpt lat="43.171026" lon="-3.319421">
        <ele>1037.4</ele>
        <time>2011-04-10T12:29:22Z</time>
      </trkpt>
      <trkpt lat="43.171032" lon="-3.319266">
        <ele>1034.0</ele>
        <time>2011-04-10T12:29:31Z</time>
      </trkpt>
      <trkpt lat="43.171041" lon="-3.319230">
        <ele>1033.6</ele>
        <time>2011-04-10T12:29:33Z</time>
      </trkpt>
      <trkpt lat="43.171097" lon="-3.319033">
        <ele>1029.2</ele>
        <time>2011-04-10T12:29:44Z</time>
      </trkpt>
      <trkpt lat="43.171103" lon="-3.318999">
        <ele>1028.3</ele>
        <time>2011-04-10T12:29:46Z</time>
      </trkpt>
      <trkpt lat="43.171107" lon="-3.318904">
        <ele>1025.9</ele>
        <time>2011-04-10T12:29:51Z</time>
      </trkpt>
      <trkpt lat="43.171125" lon="-3.318834">
        <ele>1024.9</ele>
        <time>2011-04-10T12:29:55Z</time>
      </trkpt>
      <trkpt lat="43.171138" lon="-3.318779">
        <ele>1023.9</ele>
        <time>2011-04-10T12:29:58Z</time>
      </trkpt>
      <trkpt lat="43.171155" lon="-3.318715">
        <ele>1022.5</ele>
        <time>2011-04-10T12:30:01Z</time>
      </trkpt>
      <trkpt lat="43.171159" lon="-3.318630">
        <ele>1020.1</ele>
        <time>2011-04-10T12:30:05Z</time>
      </trkpt>
      <trkpt lat="43.171152" lon="-3.318523">
        <ele>1017.7</ele>
        <time>2011-04-10T12:30:12Z</time>
      </trkpt>
      <trkpt lat="43.171152" lon="-3.318488">
        <ele>1016.3</ele>
        <time>2011-04-10T12:30:14Z</time>
      </trkpt>
      <trkpt lat="43.171163" lon="-3.318454">
        <ele>1015.8</ele>
        <time>2011-04-10T12:30:16Z</time>
      </trkpt>
      <trkpt lat="43.171195" lon="-3.318374">
        <ele>1014.8</ele>
        <time>2011-04-10T12:30:21Z</time>
      </trkpt>
      <trkpt lat="43.171188" lon="-3.318337">
        <ele>1014.8</ele>
        <time>2011-04-10T12:30:24Z</time>
      </trkpt>
      <trkpt lat="43.171188" lon="-3.318295">
        <ele>1012.4</ele>
        <time>2011-04-10T12:30:27Z</time>
      </trkpt>
      <trkpt lat="43.171206" lon="-3.318168">
        <ele>1011.4</ele>
        <time>2011-04-10T12:30:35Z</time>
      </trkpt>
      <trkpt lat="43.171201" lon="-3.318078">
        <ele>1010.0</ele>
        <time>2011-04-10T12:30:41Z</time>
      </trkpt>
      <trkpt lat="43.171212" lon="-3.317954">
        <ele>1007.6</ele>
        <time>2011-04-10T12:30:49Z</time>
      </trkpt>
      <trkpt lat="43.171210" lon="-3.317808">
        <ele>1000.9</ele>
        <time>2011-04-10T12:30:57Z</time>
      </trkpt>
      <trkpt lat="43.171212" lon="-3.317784">
        <ele>1001.8</ele>
        <time>2011-04-10T12:30:58Z</time>
      </trkpt>
      <trkpt lat="43.171232" lon="-3.317692">
        <ele>999.9</ele>
        <time>2011-04-10T12:31:02Z</time>
      </trkpt>
      <trkpt lat="43.171245" lon="-3.317505">
        <ele>996.5</ele>
        <time>2011-04-10T12:31:12Z</time>
      </trkpt>
      <trkpt lat="43.171243" lon="-3.317485">
        <ele>997.0</ele>
        <time>2011-04-10T12:31:13Z</time>
      </trkpt>
      <trkpt lat="43.171234" lon="-3.317449">
        <ele>996.1</ele>
        <time>2011-04-10T12:31:15Z</time>
      </trkpt>
      <trkpt lat="43.171232" lon="-3.317396">
        <ele>993.2</ele>
        <time>2011-04-10T12:31:18Z</time>
      </trkpt>
      <trkpt lat="43.171229" lon="-3.317381">
        <ele>990.8</ele>
        <time>2011-04-10T12:31:19Z</time>
      </trkpt>
      <trkpt lat="43.171250" lon="-3.317268">
        <ele>987.4</ele>
        <time>2011-04-10T12:31:25Z</time>
      </trkpt>
      <trkpt lat="43.171258" lon="-3.317253">
        <ele>987.4</ele>
        <time>2011-04-10T12:31:26Z</time>
      </trkpt>
      <trkpt lat="43.171274" lon="-3.317211">
        <ele>986.4</ele>
        <time>2011-04-10T12:31:29Z</time>
      </trkpt>
      <trkpt lat="43.171275" lon="-3.317180">
        <ele>986.0</ele>
        <time>2011-04-10T12:31:31Z</time>
      </trkpt>
      <trkpt lat="43.171265" lon="-3.317110">
        <ele>985.0</ele>
        <time>2011-04-10T12:31:36Z</time>
      </trkpt>
      <trkpt lat="43.171253" lon="-3.317053">
        <ele>984.0</ele>
        <time>2011-04-10T12:31:40Z</time>
      </trkpt>
      <trkpt lat="43.171257" lon="-3.316935">
        <ele>979.7</ele>
        <time>2011-04-10T12:31:47Z</time>
      </trkpt>
      <trkpt lat="43.171270" lon="-3.316856">
        <ele>977.8</ele>
        <time>2011-04-10T12:31:51Z</time>
      </trkpt>
      <trkpt lat="43.171272" lon="-3.316786">
        <ele>976.8</ele>
        <time>2011-04-10T12:31:55Z</time>
      </trkpt>
      <trkpt lat="43.171287" lon="-3.316757">
        <ele>975.9</ele>
        <time>2011-04-10T12:31:57Z</time>
      </trkpt>
      <trkpt lat="43.171270" lon="-3.316571">
        <ele>973.0</ele>
        <time>2011-04-10T12:32:08Z</time>
      </trkpt>
      <trkpt lat="43.171270" lon="-3.316527">
        <ele>972.0</ele>
        <time>2011-04-10T12:32:10Z</time>
      </trkpt>
      <trkpt lat="43.171272" lon="-3.316410">
        <ele>967.7</ele>
        <time>2011-04-10T12:32:16Z</time>
      </trkpt>
      <trkpt lat="43.171275" lon="-3.316388">
        <ele>969.1</ele>
        <time>2011-04-10T12:32:17Z</time>
      </trkpt>
      <trkpt lat="43.171285" lon="-3.316256">
        <ele>965.8</ele>
        <time>2011-04-10T12:32:25Z</time>
      </trkpt>
      <trkpt lat="43.171284" lon="-3.316242">
        <ele>966.3</ele>
        <time>2011-04-10T12:32:26Z</time>
      </trkpt>
      <trkpt lat="43.171265" lon="-3.316206">
        <ele>964.8</ele>
        <time>2011-04-10T12:32:29Z</time>
      </trkpt>
      <trkpt lat="43.171269" lon="-3.316123">
        <ele>962.9</ele>
        <time>2011-04-10T12:32:34Z</time>
      </trkpt>
      <trkpt lat="43.171267" lon="-3.315934">
        <ele>959.1</ele>
        <time>2011-04-10T12:32:46Z</time>
      </trkpt>
      <trkpt lat="43.171263" lon="-3.315920">
        <ele>958.1</ele>
        <time>2011-04-10T12:32:47Z</time>
      </trkpt>
      <trkpt lat="43.171264" lon="-3.315892">
        <ele>957.1</ele>
        <time>2011-04-10T12:32:49Z</time>
      </trkpt>
      <trkpt lat="43.171261" lon="-3.315789">
        <ele>954.7</ele>
        <time>2011-04-10T12:32:55Z</time>
      </trkpt>
      <trkpt lat="43.171264" lon="-3.315758">
        <ele>954.2</ele>
        <time>2011-04-10T12:32:57Z</time>
      </trkpt>
      <trkpt lat="43.171266" lon="-3.315700">
        <ele>952.8</ele>
        <time>2011-04-10T12:33:01Z</time>
      </trkpt>
      <trkpt lat="43.171257" lon="-3.315618">
        <ele>949.0</ele>
        <time>2011-04-10T12:33:07Z</time>
      </trkpt>
      <trkpt lat="43.171258" lon="-3.315588">
        <ele>948.5</ele>
        <time>2011-04-10T12:33:09Z</time>
      </trkpt>
      <trkpt lat="43.171256" lon="-3.315477">
        <ele>945.1</ele>
        <time>2011-04-10T12:33:16Z</time>
      </trkpt>
      <trkpt lat="43.171295" lon="-3.315316">
        <ele>943.2</ele>
        <time>2011-04-10T12:33:26Z</time>
      </trkpt>
      <trkpt lat="43.171322" lon="-3.315118">
        <ele>941.7</ele>
        <time>2011-04-10T12:33:36Z</time>
      </trkpt>
      <trkpt lat="43.171314" lon="-3.315031">
        <ele>940.3</ele>
        <time>2011-04-10T12:33:41Z</time>
      </trkpt>
      <trkpt lat="43.171329" lon="-3.314904">
        <ele>936.0</ele>
        <time>2011-04-10T12:33:47Z</time>
      </trkpt>
      <trkpt lat="43.171333" lon="-3.314823">
        <ele>935.0</ele>
        <time>2011-04-10T12:33:51Z</time>
      </trkpt>
      <trkpt lat="43.171392" lon="-3.314552">
        <ele>933.1</ele>
        <time>2011-04-10T12:34:05Z</time>
      </trkpt>
      <trkpt lat="43.171396" lon="-3.314509">
        <ele>931.7</ele>
        <time>2011-04-10T12:34:08Z</time>
      </trkpt>
      <trkpt lat="43.171397" lon="-3.314398">
        <ele>930.2</ele>
        <time>2011-04-10T12:34:15Z</time>
      </trkpt>
      <trkpt lat="43.171406" lon="-3.314326">
        <ele>930.7</ele>
        <time>2011-04-10T12:34:19Z</time>
      </trkpt>
      <trkpt lat="43.171406" lon="-3.314269">
        <ele>928.8</ele>
        <time>2011-04-10T12:34:22Z</time>
      </trkpt>
      <trkpt lat="43.171408" lon="-3.314210">
        <ele>928.3</ele>
        <time>2011-04-10T12:34:25Z</time>
      </trkpt>
      <trkpt lat="43.171443" lon="-3.313923">
        <ele>927.3</ele>
        <time>2011-04-10T12:34:38Z</time>
      </trkpt>
      <trkpt lat="43.171444" lon="-3.313672">
        <ele>925.4</ele>
        <time>2011-04-10T12:34:50Z</time>
      </trkpt>
      <trkpt lat="43.171440" lon="-3.313550">
        <ele>924.4</ele>
        <time>2011-04-10T12:34:56Z</time>
      </trkpt>
      <trkpt lat="43.171428" lon="-3.313468">
        <ele>923.0</ele>
        <time>2011-04-10T12:35:00Z</time>
      </trkpt>
      <trkpt lat="43.171408" lon="-3.313374">
        <ele>920.6</ele>
        <time>2011-04-10T12:35:08Z</time>
      </trkpt>
      <trkpt lat="43.171456" lon="-3.313166">
        <ele>918.7</ele>
        <time>2011-04-10T12:35:23Z</time>
      </trkpt>
      <trkpt lat="43.171474" lon="-3.313120">
        <ele>918.2</ele>
        <time>2011-04-10T12:35:26Z</time>
      </trkpt>
      <trkpt lat="43.171480" lon="-3.312935">
        <ele>915.8</ele>
        <time>2011-04-10T12:35:37Z</time>
      </trkpt>
      <trkpt lat="43.171548" lon="-3.312719">
        <ele>914.4</ele>
        <time>2011-04-10T12:35:50Z</time>
      </trkpt>
      <trkpt lat="43.171600" lon="-3.312630">
        <ele>915.3</ele>
        <time>2011-04-10T12:35:56Z</time>
      </trkpt>
      <trkpt lat="43.171647" lon="-3.312461">
        <ele>916.3</ele>
        <time>2011-04-10T12:36:06Z</time>
      </trkpt>
      <trkpt lat="43.171686" lon="-3.312406">
        <ele>916.3</ele>
        <time>2011-04-10T12:36:10Z</time>
      </trkpt>
      <trkpt lat="43.171683" lon="-3.312294">
        <ele>916.3</ele>
        <time>2011-04-10T12:36:15Z</time>
      </trkpt>
      <trkpt lat="43.171689" lon="-3.312021">
        <ele>918.2</ele>
        <time>2011-04-10T12:36:29Z</time>
      </trkpt>
      <trkpt lat="43.171696" lon="-3.311764">
        <ele>911.5</ele>
        <time>2011-04-10T12:36:42Z</time>
      </trkpt>
      <trkpt lat="43.171696" lon="-3.311747">
        <ele>925.4</ele>
        <time>2011-04-10T12:36:43Z</time>
      </trkpt>
      <trkpt lat="43.171696" lon="-3.311728">
        <ele>920.1</ele>
        <time>2011-04-10T12:36:44Z</time>
      </trkpt>
      <trkpt lat="43.171702" lon="-3.311669">
        <ele>921.1</ele>
        <time>2011-04-10T12:36:47Z</time>
      </trkpt>
      <trkpt lat="43.171754" lon="-3.311288">
        <ele>922.0</ele>
        <time>2011-04-10T12:37:04Z</time>
      </trkpt>
      <trkpt lat="43.171826" lon="-3.310843">
        <ele>919.6</ele>
        <time>2011-04-10T12:37:21Z</time>
      </trkpt>
      <trkpt lat="43.171899" lon="-3.310490">
        <ele>917.7</ele>
        <time>2011-04-10T12:37:36Z</time>
      </trkpt>
      <trkpt lat="43.171958" lon="-3.310223">
        <ele>919.6</ele>
        <time>2011-04-10T12:37:47Z</time>
      </trkpt>
      <trkpt lat="43.171971" lon="-3.310124">
        <ele>916.3</ele>
        <time>2011-04-10T12:37:51Z</time>
      </trkpt>
      <trkpt lat="43.172004" lon="-3.309949">
        <ele>918.7</ele>
        <time>2011-04-10T12:37:58Z</time>
      </trkpt>
      <trkpt lat="43.172057" lon="-3.309805">
        <ele>918.7</ele>
        <time>2011-04-10T12:38:05Z</time>
      </trkpt>
      <trkpt lat="43.172104" lon="-3.309683">
        <ele>917.2</ele>
        <time>2011-04-10T12:38:11Z</time>
      </trkpt>
      <trkpt lat="43.172240" lon="-3.309400">
        <ele>920.1</ele>
        <time>2011-04-10T12:38:26Z</time>
      </trkpt>
      <trkpt lat="43.172420" lon="-3.309030">
        <ele>922.0</ele>
        <time>2011-04-10T12:38:48Z</time>
      </trkpt>
      <trkpt lat="43.172618" lon="-3.308715">
        <ele>924.4</ele>
        <time>2011-04-10T12:39:09Z</time>
      </trkpt>
      <trkpt lat="43.172808" lon="-3.308443">
        <ele>927.3</ele>
        <time>2011-04-10T12:39:29Z</time>
      </trkpt>
      <trkpt lat="43.172831" lon="-3.308418">
        <ele>928.3</ele>
        <time>2011-04-10T12:39:31Z</time>
      </trkpt>
      <trkpt lat="43.173029" lon="-3.308255">
        <ele>931.2</ele>
        <time>2011-04-10T12:39:49Z</time>
      </trkpt>
      <trkpt lat="43.173121" lon="-3.308155">
        <ele>934.5</ele>
        <time>2011-04-10T12:39:59Z</time>
      </trkpt>
      <trkpt lat="43.173183" lon="-3.308084">
        <ele>935.5</ele>
        <time>2011-04-10T12:40:06Z</time>
      </trkpt>
      <trkpt lat="43.173223" lon="-3.308043">
        <ele>936.0</ele>
        <time>2011-04-10T12:40:10Z</time>
      </trkpt>
      <trkpt lat="43.173383" lon="-3.307839">
        <ele>938.9</ele>
        <time>2011-04-10T12:40:27Z</time>
      </trkpt>
      <trkpt lat="43.173408" lon="-3.307813">
        <ele>940.8</ele>
        <time>2011-04-10T12:40:29Z</time>
      </trkpt>
      <trkpt lat="43.173492" lon="-3.307703">
        <ele>942.7</ele>
        <time>2011-04-10T12:40:37Z</time>
      </trkpt>
      <trkpt lat="43.173566" lon="-3.307630">
        <ele>944.6</ele>
        <time>2011-04-10T12:40:44Z</time>
      </trkpt>
      <trkpt lat="43.173644" lon="-3.307524">
        <ele>946.6</ele>
        <time>2011-04-10T12:40:53Z</time>
      </trkpt>
      <trkpt lat="43.173841" lon="-3.307289">
        <ele>949.0</ele>
        <time>2011-04-10T12:41:13Z</time>
      </trkpt>
      <trkpt lat="43.173971" lon="-3.307201">
        <ele>952.3</ele>
        <time>2011-04-10T12:41:23Z</time>
      </trkpt>
      <trkpt lat="43.174027" lon="-3.307170">
        <ele>953.3</ele>
        <time>2011-04-10T12:41:27Z</time>
      </trkpt>
      <trkpt lat="43.174080" lon="-3.307141">
        <ele>954.2</ele>
        <time>2011-04-10T12:41:31Z</time>
      </trkpt>
      <trkpt lat="43.174241" lon="-3.307049">
        <ele>957.6</ele>
        <time>2011-04-10T12:41:44Z</time>
      </trkpt>
      <trkpt lat="43.174263" lon="-3.307034">
        <ele>958.6</ele>
        <time>2011-04-10T12:41:46Z</time>
      </trkpt>
      <trkpt lat="43.174417" lon="-3.306957">
        <ele>960.5</ele>
        <time>2011-04-10T12:42:00Z</time>
      </trkpt>
      <trkpt lat="43.174493" lon="-3.306929">
        <ele>963.4</ele>
        <time>2011-04-10T12:42:07Z</time>
      </trkpt>
      <trkpt lat="43.174521" lon="-3.306906">
        <ele>966.7</ele>
        <time>2011-04-10T12:42:10Z</time>
      </trkpt>
      <trkpt lat="43.174530" lon="-3.306900">
        <ele>966.3</ele>
        <time>2011-04-10T12:42:11Z</time>
      </trkpt>
      <trkpt lat="43.174684" lon="-3.306823">
        <ele>970.1</ele>
        <time>2011-04-10T12:42:27Z</time>
      </trkpt>
      <trkpt lat="43.174695" lon="-3.306817">
        <ele>969.6</ele>
        <time>2011-04-10T12:42:28Z</time>
      </trkpt>
      <trkpt lat="43.174739" lon="-3.306778">
        <ele>974.0</ele>
        <time>2011-04-10T12:42:33Z</time>
      </trkpt>
      <trkpt lat="43.174865" lon="-3.306739">
        <ele>974.4</ele>
        <time>2011-04-10T12:42:44Z</time>
      </trkpt>
      <trkpt lat="43.174972" lon="-3.306707">
        <ele>971.5</ele>
        <time>2011-04-10T12:42:52Z</time>
      </trkpt>
      <trkpt lat="43.175165" lon="-3.306669">
        <ele>974.4</ele>
        <time>2011-04-10T12:43:06Z</time>
      </trkpt>
      <trkpt lat="43.175245" lon="-3.306652">
        <ele>975.4</ele>
        <time>2011-04-10T12:43:12Z</time>
      </trkpt>
      <trkpt lat="43.175387" lon="-3.306586">
        <ele>977.8</ele>
        <time>2011-04-10T12:43:24Z</time>
      </trkpt>
      <trkpt lat="43.175431" lon="-3.306556">
        <ele>979.2</ele>
        <time>2011-04-10T12:43:28Z</time>
      </trkpt>
      <trkpt lat="43.175441" lon="-3.306547">
        <ele>982.6</ele>
        <time>2011-04-10T12:43:29Z</time>
      </trkpt>
      <trkpt lat="43.175487" lon="-3.306520">
        <ele>982.1</ele>
        <time>2011-04-10T12:43:33Z</time>
      </trkpt>
      <trkpt lat="43.175523" lon="-3.306502">
        <ele>984.5</ele>
        <time>2011-04-10T12:43:36Z</time>
      </trkpt>
      <trkpt lat="43.175639" lon="-3.306393">
        <ele>987.9</ele>
        <time>2011-04-10T12:43:48Z</time>
      </trkpt>
      <trkpt lat="43.175794" lon="-3.306291">
        <ele>990.3</ele>
        <time>2011-04-10T12:44:05Z</time>
      </trkpt>
      <trkpt lat="43.175818" lon="-3.306280">
        <ele>988.9</ele>
        <time>2011-04-10T12:44:08Z</time>
      </trkpt>
      <trkpt lat="43.175896" lon="-3.306224">
        <ele>990.8</ele>
        <time>2011-04-10T12:44:20Z</time>
      </trkpt>
      <trkpt lat="43.176015" lon="-3.306149">
        <ele>993.7</ele>
        <time>2011-04-10T12:44:37Z</time>
      </trkpt>
      <trkpt lat="43.176093" lon="-3.306114">
        <ele>997.0</ele>
        <time>2011-04-10T12:44:47Z</time>
      </trkpt>
      <trkpt lat="43.176175" lon="-3.306085">
        <ele>1000.9</ele>
        <time>2011-04-10T12:44:58Z</time>
      </trkpt>
      <trkpt lat="43.176272" lon="-3.306023">
        <ele>1003.8</ele>
        <time>2011-04-10T12:45:13Z</time>
      </trkpt>
      <trkpt lat="43.176376" lon="-3.305959">
        <ele>1005.7</ele>
        <time>2011-04-10T12:45:29Z</time>
      </trkpt>
      <trkpt lat="43.176489" lon="-3.305899">
        <ele>1006.6</ele>
        <time>2011-04-10T12:45:45Z</time>
      </trkpt>
      <trkpt lat="43.176533" lon="-3.305869">
        <ele>1010.0</ele>
        <time>2011-04-10T12:45:52Z</time>
      </trkpt>
      <trkpt lat="43.176563" lon="-3.305853">
        <ele>1011.0</ele>
        <time>2011-04-10T12:45:57Z</time>
      </trkpt>
      <trkpt lat="43.176659" lon="-3.305797">
        <ele>1014.8</ele>
        <time>2011-04-10T12:46:10Z</time>
      </trkpt>
      <trkpt lat="43.176722" lon="-3.305767">
        <ele>1016.7</ele>
        <time>2011-04-10T12:46:20Z</time>
      </trkpt>
      <trkpt lat="43.176756" lon="-3.305734">
        <ele>1017.7</ele>
        <time>2011-04-10T12:46:26Z</time>
      </trkpt>
      <trkpt lat="43.176813" lon="-3.305694">
        <ele>1018.7</ele>
        <time>2011-04-10T12:46:33Z</time>
      </trkpt>
      <trkpt lat="43.176855" lon="-3.305626">
        <ele>1019.1</ele>
        <time>2011-04-10T12:46:39Z</time>
      </trkpt>
      <trkpt lat="43.176968" lon="-3.305503">
        <ele>1022.5</ele>
        <time>2011-04-10T12:46:55Z</time>
      </trkpt>
      <trkpt lat="43.176977" lon="-3.305501">
        <ele>1020.1</ele>
        <time>2011-04-10T12:46:59Z</time>
      </trkpt>
      <trkpt lat="43.177013" lon="-3.305488">
        <ele>1019.1</ele>
        <time>2011-04-10T12:47:04Z</time>
      </trkpt>
      <trkpt lat="43.177049" lon="-3.305538">
        <ele>1019.1</ele>
        <time>2011-04-10T12:47:08Z</time>
      </trkpt>
      <trkpt lat="43.177087" lon="-3.305569">
        <ele>1017.7</ele>
        <time>2011-04-10T12:47:12Z</time>
      </trkpt>
      <trkpt lat="43.177107" lon="-3.305584">
        <ele>1016.7</ele>
        <time>2011-04-10T12:47:14Z</time>
      </trkpt>
      <trkpt lat="43.177134" lon="-3.305602">
        <ele>1017.2</ele>
        <time>2011-04-10T12:47:17Z</time>
      </trkpt>
      <trkpt lat="43.177154" lon="-3.305635">
        <ele>1014.3</ele>
        <time>2011-04-10T12:47:20Z</time>
      </trkpt>
      <trkpt lat="43.177166" lon="-3.305637">
        <ele>1014.8</ele>
        <time>2011-04-10T12:47:21Z</time>
      </trkpt>
      <trkpt lat="43.177201" lon="-3.305636">
        <ele>1012.9</ele>
        <time>2011-04-10T12:47:24Z</time>
      </trkpt>
      <trkpt lat="43.177228" lon="-3.305646">
        <ele>1013.8</ele>
        <time>2011-04-10T12:47:26Z</time>
      </trkpt>
      <trkpt lat="43.177254" lon="-3.305638">
        <ele>1013.8</ele>
        <time>2011-04-10T12:47:28Z</time>
      </trkpt>
      <trkpt lat="43.177297" lon="-3.305678">
        <ele>1012.4</ele>
        <time>2011-04-10T12:47:32Z</time>
      </trkpt>
      <trkpt lat="43.177332" lon="-3.305749">
        <ele>1012.9</ele>
        <time>2011-04-10T12:47:36Z</time>
      </trkpt>
      <trkpt lat="43.177358" lon="-3.305762">
        <ele>1013.4</ele>
        <time>2011-04-10T12:47:38Z</time>
      </trkpt>
      <trkpt lat="43.177405" lon="-3.305773">
        <ele>1007.6</ele>
        <time>2011-04-10T12:47:42Z</time>
      </trkpt>
      <trkpt lat="43.177418" lon="-3.305771">
        <ele>1013.8</ele>
        <time>2011-04-10T12:47:43Z</time>
      </trkpt>
      <trkpt lat="43.177430" lon="-3.305772">
        <ele>1013.8</ele>
        <time>2011-04-10T12:47:44Z</time>
      </trkpt>
      <trkpt lat="43.177440" lon="-3.305774">
        <ele>1009.0</ele>
        <time>2011-04-10T12:47:45Z</time>
      </trkpt>
      <trkpt lat="43.177449" lon="-3.305775">
        <ele>1009.0</ele>
        <time>2011-04-10T12:47:46Z</time>
      </trkpt>
      <trkpt lat="43.177529" lon="-3.305778">
        <ele>1003.8</ele>
        <time>2011-04-10T12:47:52Z</time>
      </trkpt>
      <trkpt lat="43.177541" lon="-3.305783">
        <ele>1005.7</ele>
        <time>2011-04-10T12:47:53Z</time>
      </trkpt>
      <trkpt lat="43.177590" lon="-3.305775">
        <ele>1013.8</ele>
        <time>2011-04-10T12:47:58Z</time>
      </trkpt>
      <trkpt lat="43.177605" lon="-3.305692">
        <ele>1010.0</ele>
        <time>2011-04-10T12:48:03Z</time>
      </trkpt>
      <trkpt lat="43.177604" lon="-3.305674">
        <ele>1010.0</ele>
        <time>2011-04-10T12:48:04Z</time>
      </trkpt>
      <trkpt lat="43.177612" lon="-3.305643">
        <ele>1006.6</ele>
        <time>2011-04-10T12:48:07Z</time>
      </trkpt>
      <trkpt lat="43.177654" lon="-3.305680">
        <ele>1003.3</ele>
        <time>2011-04-10T12:48:12Z</time>
      </trkpt>
      <trkpt lat="43.177662" lon="-3.305681">
        <ele>1002.8</ele>
        <time>2011-04-10T12:48:13Z</time>
      </trkpt>
      <trkpt lat="43.177681" lon="-3.305693">
        <ele>1001.8</ele>
        <time>2011-04-10T12:48:15Z</time>
      </trkpt>
      <trkpt lat="43.177730" lon="-3.305723">
        <ele>999.9</ele>
        <time>2011-04-10T12:48:20Z</time>
      </trkpt>
      <trkpt lat="43.177787" lon="-3.305724">
        <ele>995.6</ele>
        <time>2011-04-10T12:48:26Z</time>
      </trkpt>
      <trkpt lat="43.177820" lon="-3.305744">
        <ele>992.7</ele>
        <time>2011-04-10T12:48:30Z</time>
      </trkpt>
      <trkpt lat="43.177840" lon="-3.305724">
        <ele>994.6</ele>
        <time>2011-04-10T12:48:33Z</time>
      </trkpt>
      <trkpt lat="43.177857" lon="-3.305694">
        <ele>992.7</ele>
        <time>2011-04-10T12:48:37Z</time>
      </trkpt>
      <trkpt lat="43.177888" lon="-3.305749">
        <ele>987.4</ele>
        <time>2011-04-10T12:48:44Z</time>
      </trkpt>
      <trkpt lat="43.177894" lon="-3.305758">
        <ele>989.8</ele>
        <time>2011-04-10T12:48:45Z</time>
      </trkpt>
      <trkpt lat="43.177901" lon="-3.305768">
        <ele>991.3</ele>
        <time>2011-04-10T12:48:46Z</time>
      </trkpt>
      <trkpt lat="43.177925" lon="-3.305822">
        <ele>986.9</ele>
        <time>2011-04-10T12:48:51Z</time>
      </trkpt>
      <trkpt lat="43.177929" lon="-3.305831">
        <ele>987.9</ele>
        <time>2011-04-10T12:48:52Z</time>
      </trkpt>
      <trkpt lat="43.177941" lon="-3.305844">
        <ele>984.5</ele>
        <time>2011-04-10T12:48:54Z</time>
      </trkpt>
      <trkpt lat="43.177972" lon="-3.305792">
        <ele>982.6</ele>
        <time>2011-04-10T12:49:01Z</time>
      </trkpt>
      <trkpt lat="43.177976" lon="-3.305796">
        <ele>983.6</ele>
        <time>2011-04-10T12:49:02Z</time>
      </trkpt>
      <trkpt lat="43.177992" lon="-3.305821">
        <ele>982.1</ele>
        <time>2011-04-10T12:49:05Z</time>
      </trkpt>
      <trkpt lat="43.178002" lon="-3.305866">
        <ele>981.2</ele>
        <time>2011-04-10T12:49:09Z</time>
      </trkpt>
      <trkpt lat="43.178029" lon="-3.305960">
        <ele>978.8</ele>
        <time>2011-04-10T12:49:16Z</time>
      </trkpt>
      <trkpt lat="43.178047" lon="-3.306008">
        <ele>975.9</ele>
        <time>2011-04-10T12:49:20Z</time>
      </trkpt>
      <trkpt lat="43.178106" lon="-3.306076">
        <ele>972.5</ele>
        <time>2011-04-10T12:49:27Z</time>
      </trkpt>
      <trkpt lat="43.178122" lon="-3.306071">
        <ele>972.5</ele>
        <time>2011-04-10T12:49:29Z</time>
      </trkpt>
      <trkpt lat="43.178171" lon="-3.306078">
        <ele>971.1</ele>
        <time>2011-04-10T12:49:33Z</time>
      </trkpt>
      <trkpt lat="43.178201" lon="-3.306137">
        <ele>969.6</ele>
        <time>2011-04-10T12:49:37Z</time>
      </trkpt>
      <trkpt lat="43.178209" lon="-3.306175">
        <ele>969.6</ele>
        <time>2011-04-10T12:49:39Z</time>
      </trkpt>
      <trkpt lat="43.178253" lon="-3.306253">
        <ele>966.7</ele>
        <time>2011-04-10T12:49:44Z</time>
      </trkpt>
      <trkpt lat="43.178348" lon="-3.306289">
        <ele>964.3</ele>
        <time>2011-04-10T12:49:52Z</time>
      </trkpt>
      <trkpt lat="43.178356" lon="-3.306295">
        <ele>965.8</ele>
        <time>2011-04-10T12:49:53Z</time>
      </trkpt>
      <trkpt lat="43.178385" lon="-3.306319">
        <ele>963.9</ele>
        <time>2011-04-10T12:49:56Z</time>
      </trkpt>
      <trkpt lat="43.178405" lon="-3.306324">
        <ele>963.9</ele>
        <time>2011-04-10T12:49:58Z</time>
      </trkpt>
      <trkpt lat="43.178455" lon="-3.306378">
        <ele>962.4</ele>
        <time>2011-04-10T12:50:03Z</time>
      </trkpt>
      <trkpt lat="43.178495" lon="-3.306388">
        <ele>958.1</ele>
        <time>2011-04-10T12:50:07Z</time>
      </trkpt>
      <trkpt lat="43.178517" lon="-3.306409">
        <ele>958.6</ele>
        <time>2011-04-10T12:50:10Z</time>
      </trkpt>
      <trkpt lat="43.178583" lon="-3.306497">
        <ele>955.2</ele>
        <time>2011-04-10T12:50:18Z</time>
      </trkpt>
      <trkpt lat="43.178773" lon="-3.306611">
        <ele>954.7</ele>
        <time>2011-04-10T12:50:33Z</time>
      </trkpt>
      <trkpt lat="43.178795" lon="-3.306607">
        <ele>953.3</ele>
        <time>2011-04-10T12:50:46Z</time>
      </trkpt>
      <trkpt lat="43.178786" lon="-3.306579">
        <ele>954.2</ele>
        <time>2011-04-10T12:50:53Z</time>
      </trkpt>
      <trkpt lat="43.178769" lon="-3.306507">
        <ele>953.3</ele>
        <time>2011-04-10T12:50:58Z</time>
      </trkpt>
      <trkpt lat="43.178768" lon="-3.306478">
        <ele>952.3</ele>
        <time>2011-04-10T12:51:00Z</time>
      </trkpt>
      <trkpt lat="43.178760" lon="-3.306404">
        <ele>937.5</ele>
        <time>2011-04-10T12:51:10Z</time>
      </trkpt>
      <trkpt lat="43.178777" lon="-3.306354">
        <ele>937.2</ele>
        <time>2011-04-10T12:51:41Z</time>
      </trkpt>
      <trkpt lat="43.178811" lon="-3.306322">
        <ele>935.7</ele>
        <time>2011-04-10T12:51:51Z</time>
      </trkpt>
      <trkpt lat="43.178834" lon="-3.306280">
        <ele>934.8</ele>
        <time>2011-04-10T12:51:52Z</time>
      </trkpt>
      <trkpt lat="43.178841" lon="-3.306234">
        <ele>934.9</ele>
        <time>2011-04-10T12:51:55Z</time>
      </trkpt>
      <trkpt lat="43.178851" lon="-3.306188">
        <ele>934.1</ele>
        <time>2011-04-10T12:52:03Z</time>
      </trkpt>
      <trkpt lat="43.178855" lon="-3.306137">
        <ele>933.4</ele>
        <time>2011-04-10T12:52:07Z</time>
      </trkpt>
      <trkpt lat="43.178858" lon="-3.306091">
        <ele>932.8</ele>
        <time>2011-04-10T12:52:30Z</time>
      </trkpt>
      <trkpt lat="43.178862" lon="-3.306045">
        <ele>932.1</ele>
        <time>2011-04-10T12:52:38Z</time>
      </trkpt>
      <trkpt lat="43.178859" lon="-3.305994">
        <ele>931.8</ele>
        <time>2011-04-10T12:52:42Z</time>
      </trkpt>
      <trkpt lat="43.178869" lon="-3.305948">
        <ele>930.8</ele>
        <time>2011-04-10T12:52:54Z</time>
      </trkpt>
      <trkpt lat="43.178859" lon="-3.305888">
        <ele>930.5</ele>
        <time>2011-04-10T12:52:57Z</time>
      </trkpt>
      <trkpt lat="43.178866" lon="-3.305833">
        <ele>929.0</ele>
        <time>2011-04-10T12:53:01Z</time>
      </trkpt>
      <trkpt lat="43.178869" lon="-3.305787">
        <ele>927.9</ele>
        <time>2011-04-10T12:53:06Z</time>
      </trkpt>
      <trkpt lat="43.178863" lon="-3.305736">
        <ele>927.2</ele>
        <time>2011-04-10T12:53:14Z</time>
      </trkpt>
      <trkpt lat="43.178856" lon="-3.305690">
        <ele>926.7</ele>
        <time>2011-04-10T12:53:22Z</time>
      </trkpt>
      <trkpt lat="43.178853" lon="-3.305634">
        <ele>925.8</ele>
        <time>2011-04-10T12:53:31Z</time>
      </trkpt>
      <trkpt lat="43.178843" lon="-3.305583">
        <ele>925.3</ele>
        <time>2011-04-10T12:53:33Z</time>
      </trkpt>
      <trkpt lat="43.178836" lon="-3.305537">
        <ele>924.7</ele>
        <time>2011-04-10T12:53:43Z</time>
      </trkpt>
      <trkpt lat="43.178830" lon="-3.305473">
        <ele>923.6</ele>
        <time>2011-04-10T12:53:58Z</time>
      </trkpt>
      <trkpt lat="43.178820" lon="-3.305371">
        <ele>921.8</ele>
        <time>2011-04-10T12:54:21Z</time>
      </trkpt>
      <trkpt lat="43.178827" lon="-3.305279">
        <ele>919.4</ele>
        <time>2011-04-10T12:54:31Z</time>
      </trkpt>
      <trkpt lat="43.178861" lon="-3.305196">
        <ele>915.8</ele>
        <time>2011-04-10T12:54:40Z</time>
      </trkpt>
      <trkpt lat="43.178875" lon="-3.305104">
        <ele>913.3</ele>
        <time>2011-04-10T12:55:09Z</time>
      </trkpt>
      <trkpt lat="43.178881" lon="-3.305002">
        <ele>911.0</ele>
        <time>2011-04-10T12:55:23Z</time>
      </trkpt>
      <trkpt lat="43.178875" lon="-3.304873">
        <ele>909.3</ele>
        <time>2011-04-10T12:55:51Z</time>
      </trkpt>
      <trkpt lat="43.178848" lon="-3.304781">
        <ele>909.3</ele>
        <time>2011-04-10T12:55:58Z</time>
      </trkpt>
      <trkpt lat="43.178828" lon="-3.304688">
        <ele>909.0</ele>
        <time>2011-04-10T12:56:05Z</time>
      </trkpt>
      <trkpt lat="43.178802" lon="-3.304596">
        <ele>909.7</ele>
        <time>2011-04-10T12:56:08Z</time>
      </trkpt>
      <trkpt lat="43.178802" lon="-3.304503">
        <ele>908.8</ele>
        <time>2011-04-10T12:56:25Z</time>
      </trkpt>
      <trkpt lat="43.178768" lon="-3.304411">
        <ele>909.8</ele>
        <time>2011-04-10T12:56:40Z</time>
      </trkpt>
      <trkpt lat="43.178742" lon="-3.304291">
        <ele>909.1</ele>
        <time>2011-04-10T12:57:03Z</time>
      </trkpt>
      <trkpt lat="43.178728" lon="-3.304199">
        <ele>908.0</ele>
        <time>2011-04-10T12:57:23Z</time>
      </trkpt>
      <trkpt lat="43.178675" lon="-3.304078">
        <ele>908.3</ele>
        <time>2011-04-10T12:57:34Z</time>
      </trkpt>
      <trkpt lat="43.178634" lon="-3.303995">
        <ele>908.8</ele>
        <time>2011-04-10T12:57:49Z</time>
      </trkpt>
      <trkpt lat="43.178594" lon="-3.303903">
        <ele>909.2</ele>
        <time>2011-04-10T12:57:55Z</time>
      </trkpt>
      <trkpt lat="43.178581" lon="-3.303810">
        <ele>908.1</ele>
        <time>2011-04-10T12:58:05Z</time>
      </trkpt>
      <trkpt lat="43.178561" lon="-3.303709">
        <ele>907.2</ele>
        <time>2011-04-10T12:58:18Z</time>
      </trkpt>
      <trkpt lat="43.178527" lon="-3.303598">
        <ele>906.8</ele>
        <time>2011-04-10T12:58:27Z</time>
      </trkpt>
      <trkpt lat="43.178494" lon="-3.303459">
        <ele>905.9</ele>
        <time>2011-04-10T12:58:38Z</time>
      </trkpt>
      <trkpt lat="43.178447" lon="-3.303339">
        <ele>905.6</ele>
        <time>2011-04-10T12:58:53Z</time>
      </trkpt>
      <trkpt lat="43.178414" lon="-3.303219">
        <ele>904.2</ele>
        <time>2011-04-10T12:58:55Z</time>
      </trkpt>
      <trkpt lat="43.178414" lon="-3.303126">
        <ele>902.1</ele>
        <time>2011-04-10T12:59:06Z</time>
      </trkpt>
      <trkpt lat="43.178421" lon="-3.302887">
        <ele>898.7</ele>
        <time>2011-04-10T12:59:16Z</time>
      </trkpt>
      <trkpt lat="43.178401" lon="-3.302767">
        <ele>897.7</ele>
        <time>2011-04-10T12:59:26Z</time>
      </trkpt>
      <trkpt lat="43.178420" lon="-3.302585">
        <ele>899.0</ele>
        <time>2011-04-10T12:59:36Z</time>
      </trkpt>
      <trkpt lat="43.178431" lon="-3.302512">
        <ele>898.0</ele>
        <time>2011-04-10T12:59:40Z</time>
      </trkpt>
      <trkpt lat="43.178449" lon="-3.302425">
        <ele>897.0</ele>
        <time>2011-04-10T12:59:45Z</time>
      </trkpt>
      <trkpt lat="43.178445" lon="-3.302298">
        <ele>896.1</ele>
        <time>2011-04-10T12:59:51Z</time>
      </trkpt>
      <trkpt lat="43.178428" lon="-3.302120">
        <ele>893.2</ele>
        <time>2011-04-10T13:00:01Z</time>
      </trkpt>
      <trkpt lat="43.178489" lon="-3.302003">
        <ele>891.3</ele>
        <time>2011-04-10T13:00:08Z</time>
      </trkpt>
      <trkpt lat="43.178508" lon="-3.301946">
        <ele>893.7</ele>
        <time>2011-04-10T13:00:13Z</time>
      </trkpt>
      <trkpt lat="43.178510" lon="-3.301946">
        <ele>894.2</ele>
        <time>2011-04-10T13:00:14Z</time>
      </trkpt>
      <trkpt lat="43.178519" lon="-3.301881">
        <ele>890.3</ele>
        <time>2011-04-10T13:00:18Z</time>
      </trkpt>
      <trkpt lat="43.178514" lon="-3.301833">
        <ele>891.3</ele>
        <time>2011-04-10T13:00:20Z</time>
      </trkpt>
      <trkpt lat="43.178535" lon="-3.301804">
        <ele>889.8</ele>
        <time>2011-04-10T13:00:22Z</time>
      </trkpt>
      <trkpt lat="43.178546" lon="-3.301599">
        <ele>889.4</ele>
        <time>2011-04-10T13:00:31Z</time>
      </trkpt>
      <trkpt lat="43.178539" lon="-3.301537">
        <ele>887.9</ele>
        <time>2011-04-10T13:00:34Z</time>
      </trkpt>
      <trkpt lat="43.178549" lon="-3.301447">
        <ele>887.0</ele>
        <time>2011-04-10T13:00:37Z</time>
      </trkpt>
      <trkpt lat="43.178573" lon="-3.301390">
        <ele>887.0</ele>
        <time>2011-04-10T13:00:40Z</time>
      </trkpt>
      <trkpt lat="43.178586" lon="-3.301330">
        <ele>887.0</ele>
        <time>2011-04-10T13:00:43Z</time>
      </trkpt>
      <trkpt lat="43.178683" lon="-3.301278">
        <ele>890.3</ele>
        <time>2011-04-10T13:00:49Z</time>
      </trkpt>
      <trkpt lat="43.178708" lon="-3.301264">
        <ele>888.4</ele>
        <time>2011-04-10T13:00:51Z</time>
      </trkpt>
      <trkpt lat="43.178728" lon="-3.301205">
        <ele>886.5</ele>
        <time>2011-04-10T13:00:54Z</time>
      </trkpt>
      <trkpt lat="43.178738" lon="-3.301160">
        <ele>886.5</ele>
        <time>2011-04-10T13:00:56Z</time>
      </trkpt>
      <trkpt lat="43.178737" lon="-3.301087">
        <ele>886.5</ele>
        <time>2011-04-10T13:01:00Z</time>
      </trkpt>
      <trkpt lat="43.178744" lon="-3.301012">
        <ele>886.0</ele>
        <time>2011-04-10T13:01:04Z</time>
      </trkpt>
      <trkpt lat="43.178765" lon="-3.300790">
        <ele>885.0</ele>
        <time>2011-04-10T13:01:14Z</time>
      </trkpt>
      <trkpt lat="43.178810" lon="-3.300687">
        <ele>885.0</ele>
        <time>2011-04-10T13:01:19Z</time>
      </trkpt>
      <trkpt lat="43.178885" lon="-3.300614">
        <ele>883.1</ele>
        <time>2011-04-10T13:01:24Z</time>
      </trkpt>
      <trkpt lat="43.178931" lon="-3.300571">
        <ele>883.1</ele>
        <time>2011-04-10T13:01:27Z</time>
      </trkpt>
      <trkpt lat="43.178985" lon="-3.300505">
        <ele>884.1</ele>
        <time>2011-04-10T13:01:31Z</time>
      </trkpt>
      <trkpt lat="43.179089" lon="-3.300440">
        <ele>879.7</ele>
        <time>2011-04-10T13:01:37Z</time>
      </trkpt>
      <trkpt lat="43.179110" lon="-3.300419">
        <ele>881.2</ele>
        <time>2011-04-10T13:01:38Z</time>
      </trkpt>
      <trkpt lat="43.179139" lon="-3.300380">
        <ele>882.1</ele>
        <time>2011-04-10T13:01:40Z</time>
      </trkpt>
      <trkpt lat="43.179149" lon="-3.300364">
        <ele>881.7</ele>
        <time>2011-04-10T13:01:41Z</time>
      </trkpt>
      <trkpt lat="43.179290" lon="-3.300244">
        <ele>882.6</ele>
        <time>2011-04-10T13:01:52Z</time>
      </trkpt>
      <trkpt lat="43.179342" lon="-3.300091">
        <ele>881.7</ele>
        <time>2011-04-10T13:02:01Z</time>
      </trkpt>
      <trkpt lat="43.179350" lon="-3.300067">
        <ele>883.1</ele>
        <time>2011-04-10T13:02:03Z</time>
      </trkpt>
      <trkpt lat="43.179415" lon="-3.299921">
        <ele>883.6</ele>
        <time>2011-04-10T13:02:14Z</time>
      </trkpt>
      <trkpt lat="43.179460" lon="-3.299867">
        <ele>881.7</ele>
        <time>2011-04-10T13:02:19Z</time>
      </trkpt>
      <trkpt lat="43.179658" lon="-3.299542">
        <ele>883.6</ele>
        <time>2011-04-10T13:02:40Z</time>
      </trkpt>
      <trkpt lat="43.179727" lon="-3.299397">
        <ele>881.7</ele>
        <time>2011-04-10T13:02:50Z</time>
      </trkpt>
      <trkpt lat="43.179733" lon="-3.299400">
        <ele>881.2</ele>
        <time>2011-04-10T13:02:51Z</time>
      </trkpt>
      <trkpt lat="43.179781" lon="-3.299375">
        <ele>882.6</ele>
        <time>2011-04-10T13:02:55Z</time>
      </trkpt>
      <trkpt lat="43.179807" lon="-3.299362">
        <ele>879.7</ele>
        <time>2011-04-10T13:02:57Z</time>
      </trkpt>
      <trkpt lat="43.179822" lon="-3.299356">
        <ele>878.3</ele>
        <time>2011-04-10T13:02:58Z</time>
      </trkpt>
      <trkpt lat="43.179837" lon="-3.299309">
        <ele>884.1</ele>
        <time>2011-04-10T13:03:01Z</time>
      </trkpt>
      <trkpt lat="43.179908" lon="-3.299188">
        <ele>882.6</ele>
        <time>2011-04-10T13:03:08Z</time>
      </trkpt>
      <trkpt lat="43.180001" lon="-3.298966">
        <ele>879.3</ele>
        <time>2011-04-10T13:03:20Z</time>
      </trkpt>
      <trkpt lat="43.180012" lon="-3.298951">
        <ele>879.3</ele>
        <time>2011-04-10T13:03:21Z</time>
      </trkpt>
      <trkpt lat="43.180214" lon="-3.298756">
        <ele>875.4</ele>
        <time>2011-04-10T13:03:36Z</time>
      </trkpt>
      <trkpt lat="43.180230" lon="-3.298747">
        <ele>875.9</ele>
        <time>2011-04-10T13:03:37Z</time>
      </trkpt>
      <trkpt lat="43.180328" lon="-3.298662">
        <ele>874.9</ele>
        <time>2011-04-10T13:03:44Z</time>
      </trkpt>
      <trkpt lat="43.180352" lon="-3.298630">
        <ele>872.5</ele>
        <time>2011-04-10T13:03:46Z</time>
      </trkpt>
      <trkpt lat="43.180365" lon="-3.298614">
        <ele>872.5</ele>
        <time>2011-04-10T13:03:47Z</time>
      </trkpt>
      <trkpt lat="43.180441" lon="-3.298496">
        <ele>872.1</ele>
        <time>2011-04-10T13:03:55Z</time>
      </trkpt>
      <trkpt lat="43.180540" lon="-3.298539">
        <ele>870.1</ele>
        <time>2011-04-10T13:04:02Z</time>
      </trkpt>
      <trkpt lat="43.180634" lon="-3.298544">
        <ele>874.5</ele>
        <time>2011-04-10T13:04:09Z</time>
      </trkpt>
      <trkpt lat="43.180672" lon="-3.298520">
        <ele>876.4</ele>
        <time>2011-04-10T13:04:12Z</time>
      </trkpt>
      <trkpt lat="43.180716" lon="-3.298473">
        <ele>878.8</ele>
        <time>2011-04-10T13:04:16Z</time>
      </trkpt>
      <trkpt lat="43.180883" lon="-3.298276">
        <ele>878.8</ele>
        <time>2011-04-10T13:04:33Z</time>
      </trkpt>
      <trkpt lat="43.181114" lon="-3.297987">
        <ele>880.2</ele>
        <time>2011-04-10T13:04:53Z</time>
      </trkpt>
      <trkpt lat="43.181313" lon="-3.297697">
        <ele>880.7</ele>
        <time>2011-04-10T13:05:11Z</time>
      </trkpt>
      <trkpt lat="43.181442" lon="-3.297475">
        <ele>879.7</ele>
        <time>2011-04-10T13:05:26Z</time>
      </trkpt>
      <trkpt lat="43.181448" lon="-3.297457">
        <ele>879.7</ele>
        <time>2011-04-10T13:05:27Z</time>
      </trkpt>
      <trkpt lat="43.181476" lon="-3.297386">
        <ele>883.6</ele>
        <time>2011-04-10T13:05:31Z</time>
      </trkpt>
      <trkpt lat="43.181483" lon="-3.297367">
        <ele>881.7</ele>
        <time>2011-04-10T13:05:32Z</time>
      </trkpt>
      <trkpt lat="43.181552" lon="-3.297219">
        <ele>876.4</ele>
        <time>2011-04-10T13:05:42Z</time>
      </trkpt>
      <trkpt lat="43.181561" lon="-3.297205">
        <ele>876.9</ele>
        <time>2011-04-10T13:05:43Z</time>
      </trkpt>
      <trkpt lat="43.181576" lon="-3.297179">
        <ele>877.8</ele>
        <time>2011-04-10T13:05:45Z</time>
      </trkpt>
      <trkpt lat="43.181600" lon="-3.297134">
        <ele>881.7</ele>
        <time>2011-04-10T13:05:48Z</time>
      </trkpt>
      <trkpt lat="43.181606" lon="-3.297117">
        <ele>875.4</ele>
        <time>2011-04-10T13:05:49Z</time>
      </trkpt>
      <trkpt lat="43.181612" lon="-3.297099">
        <ele>876.4</ele>
        <time>2011-04-10T13:05:50Z</time>
      </trkpt>
      <trkpt lat="43.181621" lon="-3.297059">
        <ele>878.8</ele>
        <time>2011-04-10T13:05:52Z</time>
      </trkpt>
      <trkpt lat="43.181647" lon="-3.297008">
        <ele>876.9</ele>
        <time>2011-04-10T13:05:55Z</time>
      </trkpt>
      <trkpt lat="43.181660" lon="-3.296970">
        <ele>877.8</ele>
        <time>2011-04-10T13:05:57Z</time>
      </trkpt>
      <trkpt lat="43.181672" lon="-3.296931">
        <ele>879.3</ele>
        <time>2011-04-10T13:05:59Z</time>
      </trkpt>
      <trkpt lat="43.181728" lon="-3.296802">
        <ele>877.8</ele>
        <time>2011-04-10T13:06:07Z</time>
      </trkpt>
      <trkpt lat="43.181788" lon="-3.296688">
        <ele>876.4</ele>
        <time>2011-04-10T13:06:14Z</time>
      </trkpt>
      <trkpt lat="43.181849" lon="-3.296556">
        <ele>877.3</ele>
        <time>2011-04-10T13:06:22Z</time>
      </trkpt>
      <trkpt lat="43.181943" lon="-3.296412">
        <ele>878.8</ele>
        <time>2011-04-10T13:06:33Z</time>
      </trkpt>
      <trkpt lat="43.181961" lon="-3.296385">
        <ele>881.7</ele>
        <time>2011-04-10T13:06:35Z</time>
      </trkpt>
      <trkpt lat="43.181977" lon="-3.296357">
        <ele>878.3</ele>
        <time>2011-04-10T13:06:37Z</time>
      </trkpt>
      <trkpt lat="43.182049" lon="-3.296213">
        <ele>880.2</ele>
        <time>2011-04-10T13:06:49Z</time>
      </trkpt>
      <trkpt lat="43.182085" lon="-3.296144">
        <ele>879.7</ele>
        <time>2011-04-10T13:06:54Z</time>
      </trkpt>
      <trkpt lat="43.182119" lon="-3.296019">
        <ele>879.3</ele>
        <time>2011-04-10T13:07:02Z</time>
      </trkpt>
      <trkpt lat="43.182156" lon="-3.295887">
        <ele>880.2</ele>
        <time>2011-04-10T13:07:10Z</time>
      </trkpt>
      <trkpt lat="43.182178" lon="-3.295834">
        <ele>867.7</ele>
        <time>2011-04-10T13:07:13Z</time>
      </trkpt>
      <trkpt lat="43.182185" lon="-3.295814">
        <ele>890.8</ele>
        <time>2011-04-10T13:07:14Z</time>
      </trkpt>
      <trkpt lat="43.182190" lon="-3.295794">
        <ele>880.2</ele>
        <time>2011-04-10T13:07:15Z</time>
      </trkpt>
      <trkpt lat="43.182275" lon="-3.295586">
        <ele>880.2</ele>
        <time>2011-04-10T13:07:27Z</time>
      </trkpt>
      <trkpt lat="43.182337" lon="-3.295472">
        <ele>880.2</ele>
        <time>2011-04-10T13:07:34Z</time>
      </trkpt>
      <trkpt lat="43.182500" lon="-3.295188">
        <ele>881.7</ele>
        <time>2011-04-10T13:07:51Z</time>
      </trkpt>
      <trkpt lat="43.182601" lon="-3.294994">
        <ele>883.6</ele>
        <time>2011-04-10T13:08:03Z</time>
      </trkpt>
      <trkpt lat="43.182618" lon="-3.294935">
        <ele>884.6</ele>
        <time>2011-04-10T13:08:09Z</time>
      </trkpt>
      <trkpt lat="43.182653" lon="-3.294801">
        <ele>884.1</ele>
        <time>2011-04-10T13:08:17Z</time>
      </trkpt>
      <trkpt lat="43.182675" lon="-3.294751">
        <ele>883.1</ele>
        <time>2011-04-10T13:08:20Z</time>
      </trkpt>
      <trkpt lat="43.182685" lon="-3.294692">
        <ele>884.6</ele>
        <time>2011-04-10T13:08:23Z</time>
      </trkpt>
      <trkpt lat="43.182708" lon="-3.294589">
        <ele>882.1</ele>
        <time>2011-04-10T13:08:28Z</time>
      </trkpt>
      <trkpt lat="43.182723" lon="-3.294527">
        <ele>880.7</ele>
        <time>2011-04-10T13:08:31Z</time>
      </trkpt>
      <trkpt lat="43.182741" lon="-3.294473">
        <ele>882.1</ele>
        <time>2011-04-10T13:08:34Z</time>
      </trkpt>
      <trkpt lat="43.182859" lon="-3.294139">
        <ele>882.1</ele>
        <time>2011-04-10T13:08:52Z</time>
      </trkpt>
      <trkpt lat="43.182990" lon="-3.293940">
        <ele>882.6</ele>
        <time>2011-04-10T13:09:06Z</time>
      </trkpt>
      <trkpt lat="43.183016" lon="-3.293903">
        <ele>884.6</ele>
        <time>2011-04-10T13:09:09Z</time>
      </trkpt>
      <trkpt lat="43.183033" lon="-3.293875">
        <ele>884.6</ele>
        <time>2011-04-10T13:09:11Z</time>
      </trkpt>
      <trkpt lat="43.183180" lon="-3.293615">
        <ele>885.0</ele>
        <time>2011-04-10T13:09:29Z</time>
      </trkpt>
      <trkpt lat="43.183260" lon="-3.293483">
        <ele>885.0</ele>
        <time>2011-04-10T13:09:38Z</time>
      </trkpt>
      <trkpt lat="43.183313" lon="-3.293371">
        <ele>884.6</ele>
        <time>2011-04-10T13:09:45Z</time>
      </trkpt>
      <trkpt lat="43.183378" lon="-3.293298">
        <ele>885.5</ele>
        <time>2011-04-10T13:09:51Z</time>
      </trkpt>
      <trkpt lat="43.183492" lon="-3.293112">
        <ele>886.5</ele>
        <time>2011-04-10T13:10:03Z</time>
      </trkpt>
      <trkpt lat="43.183579" lon="-3.292896">
        <ele>887.0</ele>
        <time>2011-04-10T13:10:15Z</time>
      </trkpt>
      <trkpt lat="43.183737" lon="-3.292631">
        <ele>887.4</ele>
        <time>2011-04-10T13:10:33Z</time>
      </trkpt>
      <trkpt lat="43.183874" lon="-3.292370">
        <ele>888.9</ele>
        <time>2011-04-10T13:10:50Z</time>
      </trkpt>
      <trkpt lat="43.183951" lon="-3.292139">
        <ele>890.3</ele>
        <time>2011-04-10T13:11:03Z</time>
      </trkpt>
      <trkpt lat="43.184038" lon="-3.292016">
        <ele>892.2</ele>
        <time>2011-04-10T13:11:13Z</time>
      </trkpt>
      <trkpt lat="43.184129" lon="-3.291830">
        <ele>892.7</ele>
        <time>2011-04-10T13:11:24Z</time>
      </trkpt>
      <trkpt lat="43.184174" lon="-3.291734">
        <ele>892.2</ele>
        <time>2011-04-10T13:11:30Z</time>
      </trkpt>
      <trkpt lat="43.184335" lon="-3.291581">
        <ele>896.6</ele>
        <time>2011-04-10T13:11:46Z</time>
      </trkpt>
      <trkpt lat="43.184356" lon="-3.291560">
        <ele>897.0</ele>
        <time>2011-04-10T13:11:48Z</time>
      </trkpt>
      <trkpt lat="43.184377" lon="-3.291503">
        <ele>896.1</ele>
        <time>2011-04-10T13:11:52Z</time>
      </trkpt>
      <trkpt lat="43.184511" lon="-3.291180">
        <ele>898.0</ele>
        <time>2011-04-10T13:12:12Z</time>
      </trkpt>
      <trkpt lat="43.184653" lon="-3.290941">
        <ele>900.9</ele>
        <time>2011-04-10T13:12:27Z</time>
      </trkpt>
      <trkpt lat="43.184794" lon="-3.290549">
        <ele>900.9</ele>
        <time>2011-04-10T13:12:48Z</time>
      </trkpt>
      <trkpt lat="43.184868" lon="-3.290167">
        <ele>902.3</ele>
        <time>2011-04-10T13:13:07Z</time>
      </trkpt>
      <trkpt lat="43.184983" lon="-3.289857">
        <ele>903.3</ele>
        <time>2011-04-10T13:13:25Z</time>
      </trkpt>
      <trkpt lat="43.185078" lon="-3.289576">
        <ele>906.2</ele>
        <time>2011-04-10T13:13:40Z</time>
      </trkpt>
      <trkpt lat="43.185107" lon="-3.289502">
        <ele>903.3</ele>
        <time>2011-04-10T13:13:44Z</time>
      </trkpt>
      <trkpt lat="43.185208" lon="-3.289218">
        <ele>903.3</ele>
        <time>2011-04-10T13:14:00Z</time>
      </trkpt>
      <trkpt lat="43.185292" lon="-3.288971">
        <ele>901.9</ele>
        <time>2011-04-10T13:14:13Z</time>
      </trkpt>
      <trkpt lat="43.185326" lon="-3.288811">
        <ele>901.9</ele>
        <time>2011-04-10T13:14:21Z</time>
      </trkpt>
      <trkpt lat="43.185362" lon="-3.288718">
        <ele>900.4</ele>
        <time>2011-04-10T13:14:26Z</time>
      </trkpt>
      <trkpt lat="43.185379" lon="-3.288641">
        <ele>899.9</ele>
        <time>2011-04-10T13:14:30Z</time>
      </trkpt>
      <trkpt lat="43.185459" lon="-3.288294">
        <ele>899.0</ele>
        <time>2011-04-10T13:14:48Z</time>
      </trkpt>
      <trkpt lat="43.185562" lon="-3.288039">
        <ele>897.5</ele>
        <time>2011-04-10T13:15:02Z</time>
      </trkpt>
      <trkpt lat="43.185647" lon="-3.287798">
        <ele>896.1</ele>
        <time>2011-04-10T13:15:15Z</time>
      </trkpt>
      <trkpt lat="43.185692" lon="-3.287653">
        <ele>896.6</ele>
        <time>2011-04-10T13:15:23Z</time>
      </trkpt>
      <trkpt lat="43.185728" lon="-3.287598">
        <ele>895.6</ele>
        <time>2011-04-10T13:15:27Z</time>
      </trkpt>
      <trkpt lat="43.185825" lon="-3.287509">
        <ele>895.6</ele>
        <time>2011-04-10T13:15:35Z</time>
      </trkpt>
      <trkpt lat="43.185850" lon="-3.287489">
        <ele>896.6</ele>
        <time>2011-04-10T13:15:37Z</time>
      </trkpt>
      <trkpt lat="43.185907" lon="-3.287460">
        <ele>895.6</ele>
        <time>2011-04-10T13:15:41Z</time>
      </trkpt>
      <trkpt lat="43.185971" lon="-3.287308">
        <ele>895.6</ele>
        <time>2011-04-10T13:15:50Z</time>
      </trkpt>
      <trkpt lat="43.186068" lon="-3.287048">
        <ele>896.1</ele>
        <time>2011-04-10T13:16:05Z</time>
      </trkpt>
      <trkpt lat="43.186214" lon="-3.286887">
        <ele>899.5</ele>
        <time>2011-04-10T13:16:18Z</time>
      </trkpt>
      <trkpt lat="43.186371" lon="-3.286635">
        <ele>900.4</ele>
        <time>2011-04-10T13:16:35Z</time>
      </trkpt>
      <trkpt lat="43.186489" lon="-3.286398">
        <ele>903.8</ele>
        <time>2011-04-10T13:16:50Z</time>
      </trkpt>
      <trkpt lat="43.186636" lon="-3.286117">
        <ele>905.7</ele>
        <time>2011-04-10T13:17:08Z</time>
      </trkpt>
      <trkpt lat="43.186674" lon="-3.286010">
        <ele>906.7</ele>
        <time>2011-04-10T13:17:15Z</time>
      </trkpt>
      <trkpt lat="43.186718" lon="-3.285844">
        <ele>909.5</ele>
        <time>2011-04-10T13:17:25Z</time>
      </trkpt>
      <trkpt lat="43.186738" lon="-3.285799">
        <ele>907.6</ele>
        <time>2011-04-10T13:17:28Z</time>
      </trkpt>
      <trkpt lat="43.186810" lon="-3.285651">
        <ele>910.5</ele>
        <time>2011-04-10T13:17:39Z</time>
      </trkpt>
      <trkpt lat="43.186883" lon="-3.285557">
        <ele>913.9</ele>
        <time>2011-04-10T13:17:48Z</time>
      </trkpt>
      <trkpt lat="43.186887" lon="-3.285545">
        <ele>912.9</ele>
        <time>2011-04-10T13:17:49Z</time>
      </trkpt>
      <trkpt lat="43.186983" lon="-3.285382">
        <ele>914.8</ele>
        <time>2011-04-10T13:18:05Z</time>
      </trkpt>
      <trkpt lat="43.187040" lon="-3.285357">
        <ele>918.2</ele>
        <time>2011-04-10T13:18:12Z</time>
      </trkpt>
      <trkpt lat="43.187162" lon="-3.285211">
        <ele>921.1</ele>
        <time>2011-04-10T13:18:29Z</time>
      </trkpt>
      <trkpt lat="43.187186" lon="-3.285197">
        <ele>921.1</ele>
        <time>2011-04-10T13:18:39Z</time>
      </trkpt>
      <trkpt lat="43.187224" lon="-3.285152">
        <ele>922.5</ele>
        <time>2011-04-10T13:18:43Z</time>
      </trkpt>
      <trkpt lat="43.187383" lon="-3.284943">
        <ele>925.9</ele>
        <time>2011-04-10T13:19:01Z</time>
      </trkpt>
      <trkpt lat="43.187408" lon="-3.284908">
        <ele>925.9</ele>
        <time>2011-04-10T13:19:04Z</time>
      </trkpt>
      <trkpt lat="43.187471" lon="-3.284838">
        <ele>929.7</ele>
        <time>2011-04-10T13:19:11Z</time>
      </trkpt>
      <trkpt lat="43.187478" lon="-3.284826">
        <ele>929.7</ele>
        <time>2011-04-10T13:19:12Z</time>
      </trkpt>
      <trkpt lat="43.187610" lon="-3.284627">
        <ele>931.2</ele>
        <time>2011-04-10T13:19:29Z</time>
      </trkpt>
      <trkpt lat="43.187715" lon="-3.284453">
        <ele>934.5</ele>
        <time>2011-04-10T13:19:44Z</time>
      </trkpt>
      <trkpt lat="43.187791" lon="-3.284368">
        <ele>938.4</ele>
        <time>2011-04-10T13:19:54Z</time>
      </trkpt>
      <trkpt lat="43.187799" lon="-3.284362">
        <ele>937.4</ele>
        <time>2011-04-10T13:19:55Z</time>
      </trkpt>
      <trkpt lat="43.187875" lon="-3.284281">
        <ele>940.8</ele>
        <time>2011-04-10T13:20:05Z</time>
      </trkpt>
      <trkpt lat="43.187970" lon="-3.284089">
        <ele>944.2</ele>
        <time>2011-04-10T13:20:22Z</time>
      </trkpt>
      <trkpt lat="43.187996" lon="-3.284042">
        <ele>944.2</ele>
        <time>2011-04-10T13:20:26Z</time>
      </trkpt>
      <trkpt lat="43.188068" lon="-3.283857">
        <ele>946.6</ele>
        <time>2011-04-10T13:20:39Z</time>
      </trkpt>
      <trkpt lat="43.188186" lon="-3.283597">
        <ele>948.0</ele>
        <time>2011-04-10T13:20:56Z</time>
      </trkpt>
      <trkpt lat="43.188264" lon="-3.283469">
        <ele>951.8</ele>
        <time>2011-04-10T13:21:05Z</time>
      </trkpt>
      <trkpt lat="43.188392" lon="-3.283162">
        <ele>954.2</ele>
        <time>2011-04-10T13:21:26Z</time>
      </trkpt>
      <trkpt lat="43.188398" lon="-3.283102">
        <ele>950.9</ele>
        <time>2011-04-10T13:21:30Z</time>
      </trkpt>
      <trkpt lat="43.188418" lon="-3.283027">
        <ele>953.8</ele>
        <time>2011-04-10T13:21:35Z</time>
      </trkpt>
      <trkpt lat="43.188478" lon="-3.282829">
        <ele>955.2</ele>
        <time>2011-04-10T13:21:50Z</time>
      </trkpt>
      <trkpt lat="43.188501" lon="-3.282664">
        <ele>958.6</ele>
        <time>2011-04-10T13:22:02Z</time>
      </trkpt>
      <trkpt lat="43.188526" lon="-3.282500">
        <ele>960.0</ele>
        <time>2011-04-10T13:22:16Z</time>
      </trkpt>
      <trkpt lat="43.188521" lon="-3.282470">
        <ele>963.4</ele>
        <time>2011-04-10T13:22:19Z</time>
      </trkpt>
      <trkpt lat="43.188519" lon="-3.282460">
        <ele>961.9</ele>
        <time>2011-04-10T13:22:20Z</time>
      </trkpt>
      <trkpt lat="43.188506" lon="-3.282427">
        <ele>963.9</ele>
        <time>2011-04-10T13:22:24Z</time>
      </trkpt>
      <trkpt lat="43.188486" lon="-3.282402">
        <ele>967.2</ele>
        <time>2011-04-10T13:22:28Z</time>
      </trkpt>
      <trkpt lat="43.188406" lon="-3.282339">
        <ele>969.1</ele>
        <time>2011-04-10T13:22:43Z</time>
      </trkpt>
      <trkpt lat="43.188397" lon="-3.282334">
        <ele>972.0</ele>
        <time>2011-04-10T13:22:46Z</time>
      </trkpt>
      <trkpt lat="43.188399" lon="-3.282265">
        <ele>976.4</ele>
        <time>2011-04-10T13:22:55Z</time>
      </trkpt>
      <trkpt lat="43.188396" lon="-3.282257">
        <ele>976.4</ele>
        <time>2011-04-10T13:22:56Z</time>
      </trkpt>
      <trkpt lat="43.188382" lon="-3.282234">
        <ele>978.3</ele>
        <time>2011-04-10T13:22:59Z</time>
      </trkpt>
      <trkpt lat="43.188365" lon="-3.282231">
        <ele>974.9</ele>
        <time>2011-04-10T13:23:01Z</time>
      </trkpt>
      <trkpt lat="43.188357" lon="-3.282229">
        <ele>975.4</ele>
        <time>2011-04-10T13:23:02Z</time>
      </trkpt>
      <trkpt lat="43.188346" lon="-3.282225">
        <ele>976.8</ele>
        <time>2011-04-10T13:23:04Z</time>
      </trkpt>
      <trkpt lat="43.188352" lon="-3.282216">
        <ele>973.5</ele>
        <time>2011-04-10T13:23:07Z</time>
      </trkpt>
      <trkpt lat="43.188365" lon="-3.282210">
        <ele>972.5</ele>
        <time>2011-04-10T13:23:09Z</time>
      </trkpt>
      <trkpt lat="43.188378" lon="-3.282205">
        <ele>973.5</ele>
        <time>2011-04-10T13:23:11Z</time>
      </trkpt>
      <trkpt lat="43.188398" lon="-3.282189">
        <ele>979.7</ele>
        <time>2011-04-10T13:23:15Z</time>
      </trkpt>
      <trkpt lat="43.188397" lon="-3.282182">
        <ele>982.6</ele>
        <time>2011-04-10T13:23:16Z</time>
      </trkpt>
      <trkpt lat="43.188395" lon="-3.282144">
        <ele>986.0</ele>
        <time>2011-04-10T13:23:20Z</time>
      </trkpt>
      <trkpt lat="43.188421" lon="-3.282097">
        <ele>985.5</ele>
        <time>2011-04-10T13:23:27Z</time>
      </trkpt>
      <trkpt lat="43.188431" lon="-3.282011">
        <ele>992.2</ele>
        <time>2011-04-10T13:23:37Z</time>
      </trkpt>
      <trkpt lat="43.188411" lon="-3.281965">
        <ele>990.3</ele>
        <time>2011-04-10T13:23:44Z</time>
      </trkpt>
      <trkpt lat="43.188385" lon="-3.281880">
        <ele>987.4</ele>
        <time>2011-04-10T13:23:52Z</time>
      </trkpt>
      <trkpt lat="43.188384" lon="-3.281870">
        <ele>990.8</ele>
        <time>2011-04-10T13:23:53Z</time>
      </trkpt>
      <trkpt lat="43.188391" lon="-3.281833">
        <ele>986.9</ele>
        <time>2011-04-10T13:23:57Z</time>
      </trkpt>
      <trkpt lat="43.188394" lon="-3.281821">
        <ele>992.2</ele>
        <time>2011-04-10T13:23:58Z</time>
      </trkpt>
      <trkpt lat="43.188398" lon="-3.281811">
        <ele>990.8</ele>
        <time>2011-04-10T13:23:59Z</time>
      </trkpt>
      <trkpt lat="43.188402" lon="-3.281801">
        <ele>990.8</ele>
        <time>2011-04-10T13:24:00Z</time>
      </trkpt>
      <trkpt lat="43.188416" lon="-3.281764">
        <ele>988.9</ele>
        <time>2011-04-10T13:24:03Z</time>
      </trkpt>
      <trkpt lat="43.188411" lon="-3.281693">
        <ele>993.2</ele>
        <time>2011-04-10T13:24:08Z</time>
      </trkpt>
      <trkpt lat="43.188390" lon="-3.281606">
        <ele>995.6</ele>
        <time>2011-04-10T13:24:17Z</time>
      </trkpt>
      <trkpt lat="43.188388" lon="-3.281587">
        <ele>992.2</ele>
        <time>2011-04-10T13:24:19Z</time>
      </trkpt>
      <trkpt lat="43.188388" lon="-3.281577">
        <ele>992.7</ele>
        <time>2011-04-10T13:24:20Z</time>
      </trkpt>
      <trkpt lat="43.188390" lon="-3.281512">
        <ele>998.0</ele>
        <time>2011-04-10T13:24:28Z</time>
      </trkpt>
      <trkpt lat="43.188382" lon="-3.281440">
        <ele>993.7</ele>
        <time>2011-04-10T13:24:36Z</time>
      </trkpt>
      <trkpt lat="43.188382" lon="-3.281394">
        <ele>997.0</ele>
        <time>2011-04-10T13:24:42Z</time>
      </trkpt>
      <trkpt lat="43.188378" lon="-3.281388">
        <ele>1001.8</ele>
        <time>2011-04-10T13:24:44Z</time>
      </trkpt>
      <trkpt lat="43.188375" lon="-3.281388">
        <ele>1006.6</ele>
        <time>2011-04-10T13:24:46Z</time>
      </trkpt>
      <trkpt lat="43.188373" lon="-3.281387">
        <ele>1003.8</ele>
        <time>2011-04-10T13:24:47Z</time>
      </trkpt>
      <trkpt lat="43.188367" lon="-3.281392">
        <ele>1007.6</ele>
        <time>2011-04-10T13:24:49Z</time>
      </trkpt>
      <trkpt lat="43.188363" lon="-3.281395">
        <ele>1007.1</ele>
        <time>2011-04-10T13:24:50Z</time>
      </trkpt>
      <trkpt lat="43.188356" lon="-3.281275">
        <ele>1006.6</ele>
        <time>2011-04-10T13:25:05Z</time>
      </trkpt>
      <trkpt lat="43.188368" lon="-3.281170">
        <ele>1010.5</ele>
        <time>2011-04-10T13:25:16Z</time>
      </trkpt>
      <trkpt lat="43.188368" lon="-3.281161">
        <ele>1009.5</ele>
        <time>2011-04-10T13:25:17Z</time>
      </trkpt>
      <trkpt lat="43.188365" lon="-3.281145">
        <ele>1008.1</ele>
        <time>2011-04-10T13:25:19Z</time>
      </trkpt>
      <trkpt lat="43.188350" lon="-3.281054">
        <ele>1011.4</ele>
        <time>2011-04-10T13:25:31Z</time>
      </trkpt>
      <trkpt lat="43.188368" lon="-3.280966">
        <ele>1008.6</ele>
        <time>2011-04-10T13:25:37Z</time>
      </trkpt>
      <trkpt lat="43.188387" lon="-3.280816">
        <ele>1013.8</ele>
        <time>2011-04-10T13:25:50Z</time>
      </trkpt>
      <trkpt lat="43.188376" lon="-3.280779">
        <ele>1011.4</ele>
        <time>2011-04-10T13:25:55Z</time>
      </trkpt>
      <trkpt lat="43.188384" lon="-3.280710">
        <ele>1009.0</ele>
        <time>2011-04-10T13:26:01Z</time>
      </trkpt>
      <trkpt lat="43.188412" lon="-3.280396">
        <ele>1006.2</ele>
        <time>2011-04-10T13:26:17Z</time>
      </trkpt>
      <trkpt lat="43.188466" lon="-3.280080">
        <ele>1005.7</ele>
        <time>2011-04-10T13:26:35Z</time>
      </trkpt>
      <trkpt lat="43.188501" lon="-3.279943">
        <ele>1005.2</ele>
        <time>2011-04-10T13:26:43Z</time>
      </trkpt>
      <trkpt lat="43.188537" lon="-3.279828">
        <ele>1008.6</ele>
        <time>2011-04-10T13:26:50Z</time>
      </trkpt>
      <trkpt lat="43.188551" lon="-3.279757">
        <ele>1009.5</ele>
        <time>2011-04-10T13:26:55Z</time>
      </trkpt>
      <trkpt lat="43.188546" lon="-3.279711">
        <ele>1012.9</ele>
        <time>2011-04-10T13:26:59Z</time>
      </trkpt>
      <trkpt lat="43.188549" lon="-3.279671">
        <ele>1009.5</ele>
        <time>2011-04-10T13:27:03Z</time>
      </trkpt>
      <trkpt lat="43.188549" lon="-3.279663">
        <ele>1010.0</ele>
        <time>2011-04-10T13:27:04Z</time>
      </trkpt>
      <trkpt lat="43.188559" lon="-3.279599">
        <ele>1006.2</ele>
        <time>2011-04-10T13:27:15Z</time>
      </trkpt>
      <trkpt lat="43.188565" lon="-3.279588">
        <ele>1009.5</ele>
        <time>2011-04-10T13:27:16Z</time>
      </trkpt>
      <trkpt lat="43.188609" lon="-3.279493">
        <ele>1010.0</ele>
        <time>2011-04-10T13:27:26Z</time>
      </trkpt>
      <trkpt lat="43.188628" lon="-3.279467">
        <ele>1011.4</ele>
        <time>2011-04-10T13:27:31Z</time>
      </trkpt>
      <trkpt lat="43.188649" lon="-3.279443">
        <ele>1013.4</ele>
        <time>2011-04-10T13:27:35Z</time>
      </trkpt>
      <trkpt lat="43.188666" lon="-3.279415">
        <ele>1015.3</ele>
        <time>2011-04-10T13:27:39Z</time>
      </trkpt>
      <trkpt lat="43.188680" lon="-3.279382">
        <ele>1017.7</ele>
        <time>2011-04-10T13:27:43Z</time>
      </trkpt>
      <trkpt lat="43.188687" lon="-3.279365">
        <ele>1018.7</ele>
        <time>2011-04-10T13:27:45Z</time>
      </trkpt>
      <trkpt lat="43.188786" lon="-3.279197">
        <ele>1022.0</ele>
        <time>2011-04-10T13:28:04Z</time>
      </trkpt>
      <trkpt lat="43.188801" lon="-3.279160">
        <ele>1025.9</ele>
        <time>2011-04-10T13:28:07Z</time>
      </trkpt>
      <trkpt lat="43.188806" lon="-3.279146">
        <ele>1025.4</ele>
        <time>2011-04-10T13:28:08Z</time>
      </trkpt>
      <trkpt lat="43.188867" lon="-3.278984">
        <ele>1029.7</ele>
        <time>2011-04-10T13:28:20Z</time>
      </trkpt>
      <trkpt lat="43.188870" lon="-3.278962">
        <ele>1030.2</ele>
        <time>2011-04-10T13:28:22Z</time>
      </trkpt>
      <trkpt lat="43.188882" lon="-3.278941">
        <ele>1023.5</ele>
        <time>2011-04-10T13:28:24Z</time>
      </trkpt>
      <trkpt lat="43.188889" lon="-3.278931">
        <ele>1023.9</ele>
        <time>2011-04-10T13:28:25Z</time>
      </trkpt>
      <trkpt lat="43.188903" lon="-3.278911">
        <ele>1019.6</ele>
        <time>2011-04-10T13:28:27Z</time>
      </trkpt>
      <trkpt lat="43.188908" lon="-3.278902">
        <ele>1020.1</ele>
        <time>2011-04-10T13:28:28Z</time>
      </trkpt>
      <trkpt lat="43.188921" lon="-3.278877">
        <ele>1021.5</ele>
        <time>2011-04-10T13:28:31Z</time>
      </trkpt>
      <trkpt lat="43.188931" lon="-3.278851">
        <ele>1023.0</ele>
        <time>2011-04-10T13:28:34Z</time>
      </trkpt>
      <trkpt lat="43.189002" lon="-3.278710">
        <ele>1023.9</ele>
        <time>2011-04-10T13:28:51Z</time>
      </trkpt>
      <trkpt lat="43.189062" lon="-3.278637">
        <ele>1027.8</ele>
        <time>2011-04-10T13:29:01Z</time>
      </trkpt>
      <trkpt lat="43.189068" lon="-3.278634">
        <ele>1028.3</ele>
        <time>2011-04-10T13:29:02Z</time>
      </trkpt>
      <trkpt lat="43.189111" lon="-3.278608">
        <ele>1029.2</ele>
        <time>2011-04-10T13:29:07Z</time>
      </trkpt>
      <trkpt lat="43.189126" lon="-3.278561">
        <ele>1027.3</ele>
        <time>2011-04-10T13:29:11Z</time>
      </trkpt>
      <trkpt lat="43.189130" lon="-3.278551">
        <ele>1027.3</ele>
        <time>2011-04-10T13:29:12Z</time>
      </trkpt>
      <trkpt lat="43.189138" lon="-3.278534">
        <ele>1030.7</ele>
        <time>2011-04-10T13:29:14Z</time>
      </trkpt>
      <trkpt lat="43.189145" lon="-3.278511">
        <ele>1028.7</ele>
        <time>2011-04-10T13:29:16Z</time>
      </trkpt>
      <trkpt lat="43.189171" lon="-3.278454">
        <ele>1029.7</ele>
        <time>2011-04-10T13:29:22Z</time>
      </trkpt>
      <trkpt lat="43.189282" lon="-3.278312">
        <ele>1033.1</ele>
        <time>2011-04-10T13:29:40Z</time>
      </trkpt>
      <trkpt lat="43.189320" lon="-3.278235">
        <ele>1036.4</ele>
        <time>2011-04-10T13:29:47Z</time>
      </trkpt>
      <trkpt lat="43.189454" lon="-3.278015">
        <ele>1035.5</ele>
        <time>2011-04-10T13:30:06Z</time>
      </trkpt>
      <trkpt lat="43.189640" lon="-3.277717">
        <ele>1036.4</ele>
        <time>2011-04-10T13:30:27Z</time>
      </trkpt>
      <trkpt lat="43.189859" lon="-3.277630">
        <ele>1036.4</ele>
        <time>2011-04-10T13:30:44Z</time>
      </trkpt>
      <trkpt lat="43.190044" lon="-3.277518">
        <ele>1038.8</ele>
        <time>2011-04-10T13:31:02Z</time>
      </trkpt>
      <trkpt lat="43.190222" lon="-3.277380">
        <ele>1042.2</ele>
        <time>2011-04-10T13:31:20Z</time>
      </trkpt>
      <trkpt lat="43.190339" lon="-3.277298">
        <ele>1043.6</ele>
        <time>2011-04-10T13:31:33Z</time>
      </trkpt>
      <trkpt lat="43.190379" lon="-3.277253">
        <ele>1044.1</ele>
        <time>2011-04-10T13:31:41Z</time>
      </trkpt>
      <trkpt lat="43.190593" lon="-3.277269">
        <ele>1041.2</ele>
        <time>2011-04-10T13:31:58Z</time>
      </trkpt>
      <trkpt lat="43.190602" lon="-3.277273">
        <ele>1042.2</ele>
        <time>2011-04-10T13:31:59Z</time>
      </trkpt>
      <trkpt lat="43.190639" lon="-3.277299">
        <ele>1040.8</ele>
        <time>2011-04-10T13:32:03Z</time>
      </trkpt>
      <trkpt lat="43.190719" lon="-3.277312">
        <ele>1040.8</ele>
        <time>2011-04-10T13:32:17Z</time>
      </trkpt>
      <trkpt lat="43.190721" lon="-3.277317">
        <ele>1037.4</ele>
        <time>2011-04-10T13:32:18Z</time>
      </trkpt>
      <trkpt lat="43.190760" lon="-3.277350">
        <ele>1039.8</ele>
        <time>2011-04-10T13:32:27Z</time>
      </trkpt>
      <trkpt lat="43.190785" lon="-3.277336">
        <ele>1036.4</ele>
        <time>2011-04-10T13:32:30Z</time>
      </trkpt>
      <trkpt lat="43.190794" lon="-3.277331">
        <ele>1038.4</ele>
        <time>2011-04-10T13:32:31Z</time>
      </trkpt>
      <trkpt lat="43.190812" lon="-3.277324">
        <ele>1033.6</ele>
        <time>2011-04-10T13:32:33Z</time>
      </trkpt>
      <trkpt lat="43.190822" lon="-3.277321">
        <ele>1033.6</ele>
        <time>2011-04-10T13:32:34Z</time>
      </trkpt>
      <trkpt lat="43.190929" lon="-3.277328">
        <ele>1033.6</ele>
        <time>2011-04-10T13:32:43Z</time>
      </trkpt>
      <trkpt lat="43.190978" lon="-3.277342">
        <ele>1035.0</ele>
        <time>2011-04-10T13:32:47Z</time>
      </trkpt>
      <trkpt lat="43.191000" lon="-3.277335">
        <ele>1036.0</ele>
        <time>2011-04-10T13:32:49Z</time>
      </trkpt>
      <trkpt lat="43.191028" lon="-3.277331">
        <ele>1034.0</ele>
        <time>2011-04-10T13:32:52Z</time>
      </trkpt>
      <trkpt lat="43.191063" lon="-3.277336">
        <ele>1030.2</ele>
        <time>2011-04-10T13:32:55Z</time>
      </trkpt>
      <trkpt lat="43.191076" lon="-3.277339">
        <ele>1030.7</ele>
        <time>2011-04-10T13:32:56Z</time>
      </trkpt>
      <trkpt lat="43.191118" lon="-3.277341">
        <ele>1034.0</ele>
        <time>2011-04-10T13:33:00Z</time>
      </trkpt>
      <trkpt lat="43.191125" lon="-3.277337">
        <ele>1033.1</ele>
        <time>2011-04-10T13:33:01Z</time>
      </trkpt>
      <trkpt lat="43.191133" lon="-3.277337">
        <ele>1031.6</ele>
        <time>2011-04-10T13:33:02Z</time>
      </trkpt>
      <trkpt lat="43.191152" lon="-3.277352">
        <ele>1032.6</ele>
        <time>2011-04-10T13:33:04Z</time>
      </trkpt>
      <trkpt lat="43.191175" lon="-3.277364">
        <ele>1029.7</ele>
        <time>2011-04-10T13:33:06Z</time>
      </trkpt>
      <trkpt lat="43.191196" lon="-3.277383">
        <ele>1033.1</ele>
        <time>2011-04-10T13:33:10Z</time>
      </trkpt>
      <trkpt lat="43.191197" lon="-3.277390">
        <ele>1032.1</ele>
        <time>2011-04-10T13:33:11Z</time>
      </trkpt>
      <trkpt lat="43.191197" lon="-3.277396">
        <ele>1028.3</ele>
        <time>2011-04-10T13:33:12Z</time>
      </trkpt>
      <trkpt lat="43.191198" lon="-3.277400">
        <ele>1032.6</ele>
        <time>2011-04-10T13:33:13Z</time>
      </trkpt>
      <trkpt lat="43.191196" lon="-3.277432">
        <ele>1029.7</ele>
        <time>2011-04-10T13:33:19Z</time>
      </trkpt>
      <trkpt lat="43.191189" lon="-3.277436">
        <ele>1030.2</ele>
        <time>2011-04-10T13:33:23Z</time>
      </trkpt>
      <trkpt lat="43.191137" lon="-3.277478">
        <ele>1029.2</ele>
        <time>2011-04-10T13:33:33Z</time>
      </trkpt>
      <trkpt lat="43.191125" lon="-3.277499">
        <ele>1024.9</ele>
        <time>2011-04-10T13:33:37Z</time>
      </trkpt>
      <trkpt lat="43.191124" lon="-3.277507">
        <ele>1020.6</ele>
        <time>2011-04-10T13:33:38Z</time>
      </trkpt>
      <trkpt lat="43.191126" lon="-3.277534">
        <ele>1024.4</ele>
        <time>2011-04-10T13:33:44Z</time>
      </trkpt>
      <trkpt lat="43.191124" lon="-3.277553">
        <ele>1017.2</ele>
        <time>2011-04-10T13:33:47Z</time>
      </trkpt>
      <trkpt lat="43.191132" lon="-3.277557">
        <ele>1020.1</ele>
        <time>2011-04-10T13:33:49Z</time>
      </trkpt>
      <trkpt lat="43.191134" lon="-3.277558">
        <ele>1020.6</ele>
        <time>2011-04-10T13:33:50Z</time>
      </trkpt>
      <trkpt lat="43.191135" lon="-3.277558">
        <ele>1022.0</ele>
        <time>2011-04-10T13:33:52Z</time>
      </trkpt>
      <trkpt lat="43.191151" lon="-3.277557">
        <ele>1018.7</ele>
        <time>2011-04-10T13:33:56Z</time>
      </trkpt>
      <trkpt lat="43.191155" lon="-3.277557">
        <ele>1018.2</ele>
        <time>2011-04-10T13:33:57Z</time>
      </trkpt>
      <trkpt lat="43.191198" lon="-3.277574">
        <ele>1019.1</ele>
        <time>2011-04-10T13:34:06Z</time>
      </trkpt>
      <trkpt lat="43.191213" lon="-3.277574">
        <ele>1017.2</ele>
        <time>2011-04-10T13:34:09Z</time>
      </trkpt>
      <trkpt lat="43.191315" lon="-3.277594">
        <ele>1013.4</ele>
        <time>2011-04-10T13:34:20Z</time>
      </trkpt>
      <trkpt lat="43.191324" lon="-3.277597">
        <ele>1012.9</ele>
        <time>2011-04-10T13:34:21Z</time>
      </trkpt>
      <trkpt lat="43.191346" lon="-3.277604">
        <ele>1016.7</ele>
        <time>2011-04-10T13:34:23Z</time>
      </trkpt>
      <trkpt lat="43.191358" lon="-3.277603">
        <ele>1016.7</ele>
        <time>2011-04-10T13:34:24Z</time>
      </trkpt>
      <trkpt lat="43.191397" lon="-3.277594">
        <ele>1012.9</ele>
        <time>2011-04-10T13:34:28Z</time>
      </trkpt>
      <trkpt lat="43.191410" lon="-3.277609">
        <ele>1007.6</ele>
        <time>2011-04-10T13:34:30Z</time>
      </trkpt>
      <trkpt lat="43.191437" lon="-3.277637">
        <ele>1011.0</ele>
        <time>2011-04-10T13:34:34Z</time>
      </trkpt>
      <trkpt lat="43.191455" lon="-3.277636">
        <ele>1012.4</ele>
        <time>2011-04-10T13:34:36Z</time>
      </trkpt>
      <trkpt lat="43.191498" lon="-3.277642">
        <ele>1010.5</ele>
        <time>2011-04-10T13:34:41Z</time>
      </trkpt>
      <trkpt lat="43.191508" lon="-3.277646">
        <ele>1011.0</ele>
        <time>2011-04-10T13:34:43Z</time>
      </trkpt>
      <trkpt lat="43.191551" lon="-3.277650">
        <ele>1008.6</ele>
        <time>2011-04-10T13:34:47Z</time>
      </trkpt>
      <trkpt lat="43.191587" lon="-3.277678">
        <ele>1001.8</ele>
        <time>2011-04-10T13:34:51Z</time>
      </trkpt>
      <trkpt lat="43.191612" lon="-3.277693">
        <ele>1004.7</ele>
        <time>2011-04-10T13:34:53Z</time>
      </trkpt>
      <trkpt lat="43.191725" lon="-3.277739">
        <ele>998.0</ele>
        <time>2011-04-10T13:35:01Z</time>
      </trkpt>
      <trkpt lat="43.191826" lon="-3.277855">
        <ele>996.1</ele>
        <time>2011-04-10T13:35:10Z</time>
      </trkpt>
      <trkpt lat="43.191862" lon="-3.277889">
        <ele>999.4</ele>
        <time>2011-04-10T13:35:13Z</time>
      </trkpt>
      <trkpt lat="43.191876" lon="-3.277896">
        <ele>1002.8</ele>
        <time>2011-04-10T13:35:14Z</time>
      </trkpt>
      <trkpt lat="43.191891" lon="-3.277900">
        <ele>1002.3</ele>
        <time>2011-04-10T13:35:15Z</time>
      </trkpt>
      <trkpt lat="43.191951" lon="-3.277907">
        <ele>1006.6</ele>
        <time>2011-04-10T13:35:19Z</time>
      </trkpt>
      <trkpt lat="43.191965" lon="-3.277906">
        <ele>1006.6</ele>
        <time>2011-04-10T13:35:20Z</time>
      </trkpt>
      <trkpt lat="43.192008" lon="-3.277923">
        <ele>999.9</ele>
        <time>2011-04-10T13:35:23Z</time>
      </trkpt>
      <trkpt lat="43.192023" lon="-3.277931">
        <ele>1003.3</ele>
        <time>2011-04-10T13:35:24Z</time>
      </trkpt>
      <trkpt lat="43.192054" lon="-3.277938">
        <ele>1006.6</ele>
        <time>2011-04-10T13:35:26Z</time>
      </trkpt>
      <trkpt lat="43.192175" lon="-3.277975">
        <ele>1003.3</ele>
        <time>2011-04-10T13:35:35Z</time>
      </trkpt>
      <trkpt lat="43.192229" lon="-3.277997">
        <ele>1007.6</ele>
        <time>2011-04-10T13:35:39Z</time>
      </trkpt>
      <trkpt lat="43.192241" lon="-3.277999">
        <ele>1007.6</ele>
        <time>2011-04-10T13:35:40Z</time>
      </trkpt>
      <trkpt lat="43.192253" lon="-3.278002">
        <ele>1003.3</ele>
        <time>2011-04-10T13:35:41Z</time>
      </trkpt>
      <trkpt lat="43.192291" lon="-3.278018">
        <ele>1000.9</ele>
        <time>2011-04-10T13:35:44Z</time>
      </trkpt>
      <trkpt lat="43.192315" lon="-3.278021">
        <ele>1004.7</ele>
        <time>2011-04-10T13:35:46Z</time>
      </trkpt>
      <trkpt lat="43.192327" lon="-3.278024">
        <ele>1003.3</ele>
        <time>2011-04-10T13:35:47Z</time>
      </trkpt>
      <trkpt lat="43.192338" lon="-3.278029">
        <ele>998.9</ele>
        <time>2011-04-10T13:35:48Z</time>
      </trkpt>
      <trkpt lat="43.192351" lon="-3.278033">
        <ele>1001.4</ele>
        <time>2011-04-10T13:35:49Z</time>
      </trkpt>
      <trkpt lat="43.192364" lon="-3.278032">
        <ele>1005.2</ele>
        <time>2011-04-10T13:35:50Z</time>
      </trkpt>
      <trkpt lat="43.192388" lon="-3.278029">
        <ele>1006.2</ele>
        <time>2011-04-10T13:35:52Z</time>
      </trkpt>
      <trkpt lat="43.192442" lon="-3.278036">
        <ele>1008.1</ele>
        <time>2011-04-10T13:35:56Z</time>
      </trkpt>
      <trkpt lat="43.192470" lon="-3.278036">
        <ele>1007.1</ele>
        <time>2011-04-10T13:35:58Z</time>
      </trkpt>
      <trkpt lat="43.192510" lon="-3.278029">
        <ele>1009.5</ele>
        <time>2011-04-10T13:36:01Z</time>
      </trkpt>
      <trkpt lat="43.192536" lon="-3.278017">
        <ele>1013.4</ele>
        <time>2011-04-10T13:36:03Z</time>
      </trkpt>
      <trkpt lat="43.192568" lon="-3.277995">
        <ele>1014.8</ele>
        <time>2011-04-10T13:36:06Z</time>
      </trkpt>
      <trkpt lat="43.192589" lon="-3.277986">
        <ele>1012.4</ele>
        <time>2011-04-10T13:36:08Z</time>
      </trkpt>
      <trkpt lat="43.192610" lon="-3.277971">
        <ele>1011.0</ele>
        <time>2011-04-10T13:36:10Z</time>
      </trkpt>
      <trkpt lat="43.192652" lon="-3.277945">
        <ele>1007.1</ele>
        <time>2011-04-10T13:36:14Z</time>
      </trkpt>
      <trkpt lat="43.192671" lon="-3.277943">
        <ele>1006.6</ele>
        <time>2011-04-10T13:36:16Z</time>
      </trkpt>
      <trkpt lat="43.192742" lon="-3.277924">
        <ele>1006.6</ele>
        <time>2011-04-10T13:36:22Z</time>
      </trkpt>
      <trkpt lat="43.192764" lon="-3.277927">
        <ele>1005.2</ele>
        <time>2011-04-10T13:36:24Z</time>
      </trkpt>
      <trkpt lat="43.192841" lon="-3.277939">
        <ele>997.0</ele>
        <time>2011-04-10T13:36:30Z</time>
      </trkpt>
      <trkpt lat="43.192850" lon="-3.277945">
        <ele>997.0</ele>
        <time>2011-04-10T13:36:31Z</time>
      </trkpt>
      <trkpt lat="43.192859" lon="-3.277949">
        <ele>1006.6</ele>
        <time>2011-04-10T13:36:32Z</time>
      </trkpt>
      <trkpt lat="43.192864" lon="-3.277946">
        <ele>1006.6</ele>
        <time>2011-04-10T13:36:33Z</time>
      </trkpt>
      <trkpt lat="43.192866" lon="-3.277945">
        <ele>1009.5</ele>
        <time>2011-04-10T13:36:34Z</time>
      </trkpt>
      <trkpt lat="43.192868" lon="-3.277953">
        <ele>997.5</ele>
        <time>2011-04-10T13:36:36Z</time>
      </trkpt>
      <trkpt lat="43.192905" lon="-3.277975">
        <ele>1002.8</ele>
        <time>2011-04-10T13:36:40Z</time>
      </trkpt>
      <trkpt lat="43.192918" lon="-3.277978">
        <ele>999.9</ele>
        <time>2011-04-10T13:36:41Z</time>
      </trkpt>
      <trkpt lat="43.192932" lon="-3.277982">
        <ele>997.0</ele>
        <time>2011-04-10T13:36:42Z</time>
      </trkpt>
      <trkpt lat="43.193115" lon="-3.277952">
        <ele>995.6</ele>
        <time>2011-04-10T13:36:58Z</time>
      </trkpt>
      <trkpt lat="43.193167" lon="-3.277945">
        <ele>992.2</ele>
        <time>2011-04-10T13:37:04Z</time>
      </trkpt>
      <trkpt lat="43.193175" lon="-3.277945">
        <ele>996.1</ele>
        <time>2011-04-10T13:37:05Z</time>
      </trkpt>
      <trkpt lat="43.193194" lon="-3.277939">
        <ele>1000.9</ele>
        <time>2011-04-10T13:37:07Z</time>
      </trkpt>
      <trkpt lat="43.193203" lon="-3.277934">
        <ele>1000.9</ele>
        <time>2011-04-10T13:37:08Z</time>
      </trkpt>
      <trkpt lat="43.193220" lon="-3.277918">
        <ele>998.9</ele>
        <time>2011-04-10T13:37:10Z</time>
      </trkpt>
      <trkpt lat="43.193235" lon="-3.277913">
        <ele>994.1</ele>
        <time>2011-04-10T13:37:12Z</time>
      </trkpt>
      <trkpt lat="43.193244" lon="-3.277915">
        <ele>987.9</ele>
        <time>2011-04-10T13:37:13Z</time>
      </trkpt>
      <trkpt lat="43.193251" lon="-3.277918">
        <ele>988.9</ele>
        <time>2011-04-10T13:37:14Z</time>
      </trkpt>
      <trkpt lat="43.193271" lon="-3.277917">
        <ele>993.2</ele>
        <time>2011-04-10T13:37:16Z</time>
      </trkpt>
      <trkpt lat="43.193293" lon="-3.277914">
        <ele>990.8</ele>
        <time>2011-04-10T13:37:18Z</time>
      </trkpt>
      <trkpt lat="43.193309" lon="-3.277930">
        <ele>982.6</ele>
        <time>2011-04-10T13:37:20Z</time>
      </trkpt>
      <trkpt lat="43.193318" lon="-3.277955">
        <ele>982.6</ele>
        <time>2011-04-10T13:37:22Z</time>
      </trkpt>
      <trkpt lat="43.193339" lon="-3.277963">
        <ele>992.7</ele>
        <time>2011-04-10T13:37:24Z</time>
      </trkpt>
      <trkpt lat="43.193360" lon="-3.277964">
        <ele>993.7</ele>
        <time>2011-04-10T13:37:26Z</time>
      </trkpt>
      <trkpt lat="43.193428" lon="-3.277953">
        <ele>988.4</ele>
        <time>2011-04-10T13:37:33Z</time>
      </trkpt>
      <trkpt lat="43.193436" lon="-3.277957">
        <ele>984.5</ele>
        <time>2011-04-10T13:37:34Z</time>
      </trkpt>
      <trkpt lat="43.193456" lon="-3.277963">
        <ele>988.4</ele>
        <time>2011-04-10T13:37:36Z</time>
      </trkpt>
      <trkpt lat="43.193467" lon="-3.277963">
        <ele>992.7</ele>
        <time>2011-04-10T13:37:37Z</time>
      </trkpt>
      <trkpt lat="43.193478" lon="-3.277960">
        <ele>992.2</ele>
        <time>2011-04-10T13:37:38Z</time>
      </trkpt>
      <trkpt lat="43.193487" lon="-3.277960">
        <ele>987.9</ele>
        <time>2011-04-10T13:37:39Z</time>
      </trkpt>
      <trkpt lat="43.193505" lon="-3.277970">
        <ele>984.0</ele>
        <time>2011-04-10T13:37:41Z</time>
      </trkpt>
      <trkpt lat="43.193514" lon="-3.277973">
        <ele>988.4</ele>
        <time>2011-04-10T13:37:42Z</time>
      </trkpt>
      <trkpt lat="43.193536" lon="-3.277972">
        <ele>984.0</ele>
        <time>2011-04-10T13:37:44Z</time>
      </trkpt>
      <trkpt lat="43.193565" lon="-3.277970">
        <ele>980.7</ele>
        <time>2011-04-10T13:37:46Z</time>
      </trkpt>
      <trkpt lat="43.193581" lon="-3.277972">
        <ele>980.7</ele>
        <time>2011-04-10T13:37:47Z</time>
      </trkpt>
      <trkpt lat="43.193610" lon="-3.277982">
        <ele>975.4</ele>
        <time>2011-04-10T13:37:49Z</time>
      </trkpt>
      <trkpt lat="43.193623" lon="-3.277988">
        <ele>977.3</ele>
        <time>2011-04-10T13:37:50Z</time>
      </trkpt>
      <trkpt lat="43.193637" lon="-3.277994">
        <ele>981.2</ele>
        <time>2011-04-10T13:37:51Z</time>
      </trkpt>
      <trkpt lat="43.193651" lon="-3.278000">
        <ele>974.9</ele>
        <time>2011-04-10T13:37:52Z</time>
      </trkpt>
      <trkpt lat="43.193676" lon="-3.277996">
        <ele>986.4</ele>
        <time>2011-04-10T13:37:54Z</time>
      </trkpt>
      <trkpt lat="43.193696" lon="-3.277999">
        <ele>979.7</ele>
        <time>2011-04-10T13:37:56Z</time>
      </trkpt>
      <trkpt lat="43.193771" lon="-3.278004">
        <ele>983.1</ele>
        <time>2011-04-10T13:38:03Z</time>
      </trkpt>
      <trkpt lat="43.193784" lon="-3.278007">
        <ele>975.4</ele>
        <time>2011-04-10T13:38:04Z</time>
      </trkpt>
      <trkpt lat="43.193806" lon="-3.278016">
        <ele>971.5</ele>
        <time>2011-04-10T13:38:06Z</time>
      </trkpt>
      <trkpt lat="43.193830" lon="-3.278019">
        <ele>976.4</ele>
        <time>2011-04-10T13:38:08Z</time>
      </trkpt>
      <trkpt lat="43.193868" lon="-3.278005">
        <ele>976.4</ele>
        <time>2011-04-10T13:38:11Z</time>
      </trkpt>
      <trkpt lat="43.193879" lon="-3.278006">
        <ele>971.1</ele>
        <time>2011-04-10T13:38:12Z</time>
      </trkpt>
      <trkpt lat="43.193891" lon="-3.278010">
        <ele>967.7</ele>
        <time>2011-04-10T13:38:13Z</time>
      </trkpt>
      <trkpt lat="43.193903" lon="-3.278017">
        <ele>963.4</ele>
        <time>2011-04-10T13:38:14Z</time>
      </trkpt>
      <trkpt lat="43.193913" lon="-3.278025">
        <ele>963.4</ele>
        <time>2011-04-10T13:38:15Z</time>
      </trkpt>
      <trkpt lat="43.193989" lon="-3.278049">
        <ele>961.9</ele>
        <time>2011-04-10T13:38:22Z</time>
      </trkpt>
      <trkpt lat="43.194036" lon="-3.278072">
        <ele>961.0</ele>
        <time>2011-04-10T13:38:26Z</time>
      </trkpt>
      <trkpt lat="43.194101" lon="-3.278078">
        <ele>961.0</ele>
        <time>2011-04-10T13:38:31Z</time>
      </trkpt>
      <trkpt lat="43.194126" lon="-3.278071">
        <ele>963.9</ele>
        <time>2011-04-10T13:38:33Z</time>
      </trkpt>
      <trkpt lat="43.194165" lon="-3.278072">
        <ele>957.1</ele>
        <time>2011-04-10T13:38:36Z</time>
      </trkpt>
      <trkpt lat="43.194178" lon="-3.278074">
        <ele>960.0</ele>
        <time>2011-04-10T13:38:37Z</time>
      </trkpt>
      <trkpt lat="43.194207" lon="-3.278078">
        <ele>956.6</ele>
        <time>2011-04-10T13:38:39Z</time>
      </trkpt>
      <trkpt lat="43.194234" lon="-3.278089">
        <ele>955.7</ele>
        <time>2011-04-10T13:38:41Z</time>
      </trkpt>
      <trkpt lat="43.194287" lon="-3.278110">
        <ele>956.6</ele>
        <time>2011-04-10T13:38:45Z</time>
      </trkpt>
      <trkpt lat="43.194314" lon="-3.278101">
        <ele>959.1</ele>
        <time>2011-04-10T13:38:47Z</time>
      </trkpt>
      <trkpt lat="43.194385" lon="-3.277968">
        <ele>959.1</ele>
        <time>2011-04-10T13:38:55Z</time>
      </trkpt>
      <trkpt lat="43.194390" lon="-3.277888">
        <ele>958.1</ele>
        <time>2011-04-10T13:38:59Z</time>
      </trkpt>
      <trkpt lat="43.194397" lon="-3.277845">
        <ele>957.1</ele>
        <time>2011-04-10T13:39:01Z</time>
      </trkpt>
      <trkpt lat="43.194425" lon="-3.277692">
        <ele>954.2</ele>
        <time>2011-04-10T13:39:08Z</time>
      </trkpt>
      <trkpt lat="43.194449" lon="-3.277510">
        <ele>951.4</ele>
        <time>2011-04-10T13:39:17Z</time>
      </trkpt>
      <trkpt lat="43.194461" lon="-3.277455">
        <ele>950.4</ele>
        <time>2011-04-10T13:39:20Z</time>
      </trkpt>
      <trkpt lat="43.194455" lon="-3.277348">
        <ele>953.8</ele>
        <time>2011-04-10T13:39:26Z</time>
      </trkpt>
      <trkpt lat="43.194458" lon="-3.277331">
        <ele>951.4</ele>
        <time>2011-04-10T13:39:27Z</time>
      </trkpt>
      <trkpt lat="43.194467" lon="-3.277279">
        <ele>947.5</ele>
        <time>2011-04-10T13:39:30Z</time>
      </trkpt>
      <trkpt lat="43.194472" lon="-3.277245">
        <ele>946.6</ele>
        <time>2011-04-10T13:39:32Z</time>
      </trkpt>
      <trkpt lat="43.194477" lon="-3.277208">
        <ele>947.0</ele>
        <time>2011-04-10T13:39:34Z</time>
      </trkpt>
      <trkpt lat="43.194466" lon="-3.277158">
        <ele>945.6</ele>
        <time>2011-04-10T13:39:37Z</time>
      </trkpt>
      <trkpt lat="43.194460" lon="-3.277132">
        <ele>946.1</ele>
        <time>2011-04-10T13:39:39Z</time>
      </trkpt>
      <trkpt lat="43.194469" lon="-3.277102">
        <ele>945.6</ele>
        <time>2011-04-10T13:39:41Z</time>
      </trkpt>
      <trkpt lat="43.194456" lon="-3.277020">
        <ele>944.6</ele>
        <time>2011-04-10T13:39:46Z</time>
      </trkpt>
      <trkpt lat="43.194454" lon="-3.276906">
        <ele>941.3</ele>
        <time>2011-04-10T13:39:53Z</time>
      </trkpt>
      <trkpt lat="43.194454" lon="-3.276889">
        <ele>942.2</ele>
        <time>2011-04-10T13:39:54Z</time>
      </trkpt>
      <trkpt lat="43.194441" lon="-3.276839">
        <ele>939.8</ele>
        <time>2011-04-10T13:39:57Z</time>
      </trkpt>
      <trkpt lat="43.194434" lon="-3.276684">
        <ele>936.0</ele>
        <time>2011-04-10T13:40:06Z</time>
      </trkpt>
      <trkpt lat="43.194433" lon="-3.276665">
        <ele>936.0</ele>
        <time>2011-04-10T13:40:07Z</time>
      </trkpt>
      <trkpt lat="43.194432" lon="-3.276584">
        <ele>934.1</ele>
        <time>2011-04-10T13:40:12Z</time>
      </trkpt>
      <trkpt lat="43.194423" lon="-3.276395">
        <ele>931.7</ele>
        <time>2011-04-10T13:40:23Z</time>
      </trkpt>
      <trkpt lat="43.194414" lon="-3.276190">
        <ele>927.8</ele>
        <time>2011-04-10T13:40:36Z</time>
      </trkpt>
      <trkpt lat="43.194419" lon="-3.276072">
        <ele>926.4</ele>
        <time>2011-04-10T13:40:43Z</time>
      </trkpt>
      <trkpt lat="43.194416" lon="-3.276018">
        <ele>925.9</ele>
        <time>2011-04-10T13:40:55Z</time>
      </trkpt>
      <trkpt lat="43.194409" lon="-3.275790">
        <ele>922.5</ele>
        <time>2011-04-10T13:41:10Z</time>
      </trkpt>
      <trkpt lat="43.194417" lon="-3.275761">
        <ele>921.6</ele>
        <time>2011-04-10T13:41:12Z</time>
      </trkpt>
      <trkpt lat="43.194391" lon="-3.275655">
        <ele>918.2</ele>
        <time>2011-04-10T13:41:19Z</time>
      </trkpt>
      <trkpt lat="43.194398" lon="-3.275627">
        <ele>917.7</ele>
        <time>2011-04-10T13:41:21Z</time>
      </trkpt>
      <trkpt lat="43.194359" lon="-3.275433">
        <ele>914.4</ele>
        <time>2011-04-10T13:41:33Z</time>
      </trkpt>
      <trkpt lat="43.194351" lon="-3.275419">
        <ele>913.9</ele>
        <time>2011-04-10T13:41:34Z</time>
      </trkpt>
      <trkpt lat="43.194331" lon="-3.275332">
        <ele>911.5</ele>
        <time>2011-04-10T13:41:40Z</time>
      </trkpt>
      <trkpt lat="43.194322" lon="-3.275261">
        <ele>909.5</ele>
        <time>2011-04-10T13:41:45Z</time>
      </trkpt>
      <trkpt lat="43.194313" lon="-3.275039">
        <ele>906.7</ele>
        <time>2011-04-10T13:41:59Z</time>
      </trkpt>
      <trkpt lat="43.194301" lon="-3.274921">
        <ele>905.7</ele>
        <time>2011-04-10T13:42:06Z</time>
      </trkpt>
      <trkpt lat="43.194294" lon="-3.274812">
        <ele>902.8</ele>
        <time>2011-04-10T13:42:12Z</time>
      </trkpt>
      <trkpt lat="43.194294" lon="-3.274614">
        <ele>900.9</ele>
        <time>2011-04-10T13:42:23Z</time>
      </trkpt>
      <trkpt lat="43.194297" lon="-3.274515">
        <ele>897.5</ele>
        <time>2011-04-10T13:42:28Z</time>
      </trkpt>
      <trkpt lat="43.194298" lon="-3.274495">
        <ele>897.5</ele>
        <time>2011-04-10T13:42:29Z</time>
      </trkpt>
      <trkpt lat="43.194296" lon="-3.274285">
        <ele>895.6</ele>
        <time>2011-04-10T13:42:39Z</time>
      </trkpt>
      <trkpt lat="43.194287" lon="-3.274100">
        <ele>891.8</ele>
        <time>2011-04-10T13:42:48Z</time>
      </trkpt>
      <trkpt lat="43.194274" lon="-3.274007">
        <ele>888.4</ele>
        <time>2011-04-10T13:42:53Z</time>
      </trkpt>
      <trkpt lat="43.194270" lon="-3.273988">
        <ele>888.4</ele>
        <time>2011-04-10T13:42:54Z</time>
      </trkpt>
      <trkpt lat="43.194226" lon="-3.273749">
        <ele>884.6</ele>
        <time>2011-04-10T13:43:07Z</time>
      </trkpt>
      <trkpt lat="43.194191" lon="-3.273592">
        <ele>882.1</ele>
        <time>2011-04-10T13:43:15Z</time>
      </trkpt>
      <trkpt lat="43.194177" lon="-3.273535">
        <ele>879.7</ele>
        <time>2011-04-10T13:43:19Z</time>
      </trkpt>
      <trkpt lat="43.194150" lon="-3.273421">
        <ele>876.4</ele>
        <time>2011-04-10T13:43:26Z</time>
      </trkpt>
      <trkpt lat="43.194132" lon="-3.273388">
        <ele>876.4</ele>
        <time>2011-04-10T13:43:29Z</time>
      </trkpt>
      <trkpt lat="43.194108" lon="-3.273290">
        <ele>873.0</ele>
        <time>2011-04-10T13:43:36Z</time>
      </trkpt>
      <trkpt lat="43.194098" lon="-3.273248">
        <ele>873.0</ele>
        <time>2011-04-10T13:43:39Z</time>
      </trkpt>
      <trkpt lat="43.194102" lon="-3.273219">
        <ele>872.1</ele>
        <time>2011-04-10T13:43:41Z</time>
      </trkpt>
      <trkpt lat="43.194104" lon="-3.273209">
        <ele>871.6</ele>
        <time>2011-04-10T13:43:42Z</time>
      </trkpt>
      <trkpt lat="43.194096" lon="-3.273168">
        <ele>866.8</ele>
        <time>2011-04-10T13:43:45Z</time>
      </trkpt>
      <trkpt lat="43.194093" lon="-3.273152">
        <ele>872.5</ele>
        <time>2011-04-10T13:43:46Z</time>
      </trkpt>
      <trkpt lat="43.194086" lon="-3.273120">
        <ele>870.6</ele>
        <time>2011-04-10T13:43:48Z</time>
      </trkpt>
      <trkpt lat="43.194062" lon="-3.273002">
        <ele>867.7</ele>
        <time>2011-04-10T13:43:55Z</time>
      </trkpt>
      <trkpt lat="43.194057" lon="-3.272970">
        <ele>866.8</ele>
        <time>2011-04-10T13:43:57Z</time>
      </trkpt>
      <trkpt lat="43.194017" lon="-3.272730">
        <ele>863.9</ele>
        <time>2011-04-10T13:44:11Z</time>
      </trkpt>
      <trkpt lat="43.194008" lon="-3.272676">
        <ele>862.4</ele>
        <time>2011-04-10T13:44:14Z</time>
      </trkpt>
      <trkpt lat="43.193979" lon="-3.272493">
        <ele>859.1</ele>
        <time>2011-04-10T13:44:24Z</time>
      </trkpt>
      <trkpt lat="43.193977" lon="-3.272475">
        <ele>858.6</ele>
        <time>2011-04-10T13:44:25Z</time>
      </trkpt>
      <trkpt lat="43.193973" lon="-3.272438">
        <ele>857.6</ele>
        <time>2011-04-10T13:44:27Z</time>
      </trkpt>
      <trkpt lat="43.193955" lon="-3.272251">
        <ele>854.3</ele>
        <time>2011-04-10T13:44:37Z</time>
      </trkpt>
      <trkpt lat="43.193953" lon="-3.272232">
        <ele>854.3</ele>
        <time>2011-04-10T13:44:38Z</time>
      </trkpt>
      <trkpt lat="43.193932" lon="-3.271964">
        <ele>850.4</ele>
        <time>2011-04-10T13:44:52Z</time>
      </trkpt>
      <trkpt lat="43.193932" lon="-3.271944">
        <ele>850.4</ele>
        <time>2011-04-10T13:44:53Z</time>
      </trkpt>
      <trkpt lat="43.193924" lon="-3.271833">
        <ele>848.5</ele>
        <time>2011-04-10T13:44:59Z</time>
      </trkpt>
      <trkpt lat="43.193918" lon="-3.271777">
        <ele>846.6</ele>
        <time>2011-04-10T13:45:02Z</time>
      </trkpt>
      <trkpt lat="43.193922" lon="-3.271429">
        <ele>843.7</ele>
        <time>2011-04-10T13:45:19Z</time>
      </trkpt>
      <trkpt lat="43.193921" lon="-3.271391">
        <ele>842.7</ele>
        <time>2011-04-10T13:45:21Z</time>
      </trkpt>
      <trkpt lat="43.193912" lon="-3.271202">
        <ele>839.8</ele>
        <time>2011-04-10T13:45:31Z</time>
      </trkpt>
      <trkpt lat="43.193911" lon="-3.271183">
        <ele>839.8</ele>
        <time>2011-04-10T13:45:32Z</time>
      </trkpt>
      <trkpt lat="43.193914" lon="-3.270997">
        <ele>837.9</ele>
        <time>2011-04-10T13:45:41Z</time>
      </trkpt>
      <trkpt lat="43.193915" lon="-3.270844">
        <ele>834.1</ele>
        <time>2011-04-10T13:45:48Z</time>
      </trkpt>
      <trkpt lat="43.193924" lon="-3.270532">
        <ele>831.7</ele>
        <time>2011-04-10T13:46:03Z</time>
      </trkpt>
      <trkpt lat="43.193914" lon="-3.270389">
        <ele>828.3</ele>
        <time>2011-04-10T13:46:10Z</time>
      </trkpt>
      <trkpt lat="43.193917" lon="-3.270370">
        <ele>828.8</ele>
        <time>2011-04-10T13:46:11Z</time>
      </trkpt>
      <trkpt lat="43.193933" lon="-3.270083">
        <ele>825.9</ele>
        <time>2011-04-10T13:46:25Z</time>
      </trkpt>
      <trkpt lat="43.193945" lon="-3.269681">
        <ele>821.1</ele>
        <time>2011-04-10T13:46:43Z</time>
      </trkpt>
      <trkpt lat="43.193947" lon="-3.269657">
        <ele>821.1</ele>
        <time>2011-04-10T13:46:44Z</time>
      </trkpt>
      <trkpt lat="43.193959" lon="-3.269520">
        <ele>818.7</ele>
        <time>2011-04-10T13:46:50Z</time>
      </trkpt>
      <trkpt lat="43.193973" lon="-3.269429">
        <ele>820.1</ele>
        <time>2011-04-10T13:46:54Z</time>
      </trkpt>
      <trkpt lat="43.194007" lon="-3.269219">
        <ele>820.1</ele>
        <time>2011-04-10T13:47:03Z</time>
      </trkpt>
      <trkpt lat="43.194012" lon="-3.269149">
        <ele>818.2</ele>
        <time>2011-04-10T13:47:06Z</time>
      </trkpt>
      <trkpt lat="43.194014" lon="-3.268995">
        <ele>814.9</ele>
        <time>2011-04-10T13:47:13Z</time>
      </trkpt>
      <trkpt lat="43.194015" lon="-3.268973">
        <ele>814.9</ele>
        <time>2011-04-10T13:47:14Z</time>
      </trkpt>
      <trkpt lat="43.194039" lon="-3.268757">
        <ele>814.4</ele>
        <time>2011-04-10T13:47:24Z</time>
      </trkpt>
      <trkpt lat="43.194026" lon="-3.268662">
        <ele>812.9</ele>
        <time>2011-04-10T13:47:28Z</time>
      </trkpt>
      <trkpt lat="43.194046" lon="-3.268173">
        <ele>810.5</ele>
        <time>2011-04-10T13:47:48Z</time>
      </trkpt>
      <trkpt lat="43.194047" lon="-3.267735">
        <ele>810.5</ele>
        <time>2011-04-10T13:48:08Z</time>
      </trkpt>
      <trkpt lat="43.194111" lon="-3.267258">
        <ele>809.1</ele>
        <time>2011-04-10T13:48:31Z</time>
      </trkpt>
      <trkpt lat="43.194182" lon="-3.266893">
        <ele>809.1</ele>
        <time>2011-04-10T13:48:50Z</time>
      </trkpt>
      <trkpt lat="43.194251" lon="-3.266430">
        <ele>805.7</ele>
        <time>2011-04-10T13:49:11Z</time>
      </trkpt>
      <trkpt lat="43.194252" lon="-3.266406">
        <ele>806.7</ele>
        <time>2011-04-10T13:49:12Z</time>
      </trkpt>
      <trkpt lat="43.194276" lon="-3.266045">
        <ele>804.8</ele>
        <time>2011-04-10T13:49:28Z</time>
      </trkpt>
      <trkpt lat="43.194287" lon="-3.265938">
        <ele>805.7</ele>
        <time>2011-04-10T13:49:33Z</time>
      </trkpt>
      <trkpt lat="43.194305" lon="-3.265652">
        <ele>802.8</ele>
        <time>2011-04-10T13:49:46Z</time>
      </trkpt>
      <trkpt lat="43.194303" lon="-3.265608">
        <ele>801.9</ele>
        <time>2011-04-10T13:49:48Z</time>
      </trkpt>
      <trkpt lat="43.194317" lon="-3.265423">
        <ele>799.0</ele>
        <time>2011-04-10T13:49:57Z</time>
      </trkpt>
      <trkpt lat="43.194343" lon="-3.265189">
        <ele>796.1</ele>
        <time>2011-04-10T13:50:08Z</time>
      </trkpt>
      <trkpt lat="43.194346" lon="-3.265167">
        <ele>796.6</ele>
        <time>2011-04-10T13:50:09Z</time>
      </trkpt>
      <trkpt lat="43.194360" lon="-3.265101">
        <ele>803.8</ele>
        <time>2011-04-10T13:50:12Z</time>
      </trkpt>
      <trkpt lat="43.194366" lon="-3.265079">
        <ele>797.6</ele>
        <time>2011-04-10T13:50:13Z</time>
      </trkpt>
      <trkpt lat="43.194378" lon="-3.265033">
        <ele>797.1</ele>
        <time>2011-04-10T13:50:15Z</time>
      </trkpt>
      <trkpt lat="43.194438" lon="-3.264663">
        <ele>795.1</ele>
        <time>2011-04-10T13:50:31Z</time>
      </trkpt>
      <trkpt lat="43.194458" lon="-3.264528">
        <ele>796.6</ele>
        <time>2011-04-10T13:50:37Z</time>
      </trkpt>
      <trkpt lat="43.194614" lon="-3.264081">
        <ele>796.1</ele>
        <time>2011-04-10T13:50:59Z</time>
      </trkpt>
      <trkpt lat="43.194764" lon="-3.263640">
        <ele>797.6</ele>
        <time>2011-04-10T13:51:22Z</time>
      </trkpt>
      <trkpt lat="43.194812" lon="-3.263485">
        <ele>799.5</ele>
        <time>2011-04-10T13:51:30Z</time>
      </trkpt>
      <trkpt lat="43.194879" lon="-3.263234">
        <ele>800.4</ele>
        <time>2011-04-10T13:51:43Z</time>
      </trkpt>
      <trkpt lat="43.194969" lon="-3.262788">
        <ele>800.4</ele>
        <time>2011-04-10T13:52:04Z</time>
      </trkpt>
      <trkpt lat="43.195080" lon="-3.262410">
        <ele>801.9</ele>
        <time>2011-04-10T13:52:22Z</time>
      </trkpt>
      <trkpt lat="43.195186" lon="-3.262102">
        <ele>804.3</ele>
        <time>2011-04-10T13:52:38Z</time>
      </trkpt>
      <trkpt lat="43.195205" lon="-3.262002">
        <ele>802.8</ele>
        <time>2011-04-10T13:52:43Z</time>
      </trkpt>
      <trkpt lat="43.195277" lon="-3.261708">
        <ele>799.0</ele>
        <time>2011-04-10T13:52:58Z</time>
      </trkpt>
      <trkpt lat="43.195273" lon="-3.261667">
        <ele>797.6</ele>
        <time>2011-04-10T13:53:00Z</time>
      </trkpt>
      <trkpt lat="43.195273" lon="-3.261611">
        <ele>803.3</ele>
        <time>2011-04-10T13:53:03Z</time>
      </trkpt>
      <trkpt lat="43.195275" lon="-3.261590">
        <ele>802.4</ele>
        <time>2011-04-10T13:53:04Z</time>
      </trkpt>
      <trkpt lat="43.195276" lon="-3.261548">
        <ele>800.9</ele>
        <time>2011-04-10T13:53:06Z</time>
      </trkpt>
      <trkpt lat="43.195346" lon="-3.261214">
        <ele>803.8</ele>
        <time>2011-04-10T13:53:24Z</time>
      </trkpt>
      <trkpt lat="43.195472" lon="-3.260932">
        <ele>806.7</ele>
        <time>2011-04-10T13:53:42Z</time>
      </trkpt>
      <trkpt lat="43.195485" lon="-3.260830">
        <ele>806.2</ele>
        <time>2011-04-10T13:53:48Z</time>
      </trkpt>
      <trkpt lat="43.195446" lon="-3.260554">
        <ele>811.0</ele>
        <time>2011-04-10T13:54:05Z</time>
      </trkpt>
      <trkpt lat="43.195444" lon="-3.260538">
        <ele>810.0</ele>
        <time>2011-04-10T13:54:06Z</time>
      </trkpt>
      <trkpt lat="43.195430" lon="-3.260473">
        <ele>813.9</ele>
        <time>2011-04-10T13:54:10Z</time>
      </trkpt>
      <trkpt lat="43.195428" lon="-3.260457">
        <ele>813.9</ele>
        <time>2011-04-10T13:54:11Z</time>
      </trkpt>
      <trkpt lat="43.195409" lon="-3.260380">
        <ele>812.0</ele>
        <time>2011-04-10T13:54:16Z</time>
      </trkpt>
      <trkpt lat="43.195344" lon="-3.260195">
        <ele>815.8</ele>
        <time>2011-04-10T13:54:30Z</time>
      </trkpt>
      <trkpt lat="43.195337" lon="-3.260168">
        <ele>816.8</ele>
        <time>2011-04-10T13:54:32Z</time>
      </trkpt>
      <trkpt lat="43.195271" lon="-3.259949">
        <ele>818.7</ele>
        <time>2011-04-10T13:54:48Z</time>
      </trkpt>
      <trkpt lat="43.195166" lon="-3.259669">
        <ele>820.1</ele>
        <time>2011-04-10T13:55:05Z</time>
      </trkpt>
      <trkpt lat="43.195036" lon="-3.259321">
        <ele>820.1</ele>
        <time>2011-04-10T13:55:24Z</time>
      </trkpt>
      <trkpt lat="43.194855" lon="-3.259086">
        <ele>821.1</ele>
        <time>2011-04-10T13:55:43Z</time>
      </trkpt>
      <trkpt lat="43.194749" lon="-3.258799">
        <ele>823.5</ele>
        <time>2011-04-10T13:56:01Z</time>
      </trkpt>
      <trkpt lat="43.194638" lon="-3.258457">
        <ele>824.9</ele>
        <time>2011-04-10T13:56:20Z</time>
      </trkpt>
      <trkpt lat="43.194646" lon="-3.258214">
        <ele>827.8</ele>
        <time>2011-04-10T13:56:37Z</time>
      </trkpt>
      <trkpt lat="43.194725" lon="-3.258150">
        <ele>829.8</ele>
        <time>2011-04-10T13:56:49Z</time>
      </trkpt>
      <trkpt lat="43.194745" lon="-3.258154">
        <ele>830.2</ele>
        <time>2011-04-10T13:56:51Z</time>
      </trkpt>
      <trkpt lat="43.194812" lon="-3.258124">
        <ele>833.1</ele>
        <time>2011-04-10T13:57:00Z</time>
      </trkpt>
      <trkpt lat="43.194851" lon="-3.258007">
        <ele>834.1</ele>
        <time>2011-04-10T13:57:14Z</time>
      </trkpt>
      <trkpt lat="43.194850" lon="-3.257848">
        <ele>837.4</ele>
        <time>2011-04-10T13:57:30Z</time>
      </trkpt>
      <trkpt lat="43.194848" lon="-3.257810">
        <ele>839.4</ele>
        <time>2011-04-10T13:57:34Z</time>
      </trkpt>
      <trkpt lat="43.194844" lon="-3.257691">
        <ele>840.3</ele>
        <time>2011-04-10T13:57:48Z</time>
      </trkpt>
      <trkpt lat="43.194841" lon="-3.257637">
        <ele>842.3</ele>
        <time>2011-04-10T13:57:55Z</time>
      </trkpt>
      <trkpt lat="43.194830" lon="-3.257539">
        <ele>845.1</ele>
        <time>2011-04-10T13:58:09Z</time>
      </trkpt>
      <trkpt lat="43.194830" lon="-3.257446">
        <ele>847.1</ele>
        <time>2011-04-10T13:58:21Z</time>
      </trkpt>
      <trkpt lat="43.194830" lon="-3.257414">
        <ele>848.5</ele>
        <time>2011-04-10T13:58:25Z</time>
      </trkpt>
      <trkpt lat="43.194837" lon="-3.257377">
        <ele>849.0</ele>
        <time>2011-04-10T13:58:30Z</time>
      </trkpt>
      <trkpt lat="43.194851" lon="-3.257295">
        <ele>852.3</ele>
        <time>2011-04-10T13:58:42Z</time>
      </trkpt>
      <trkpt lat="43.194852" lon="-3.257291">
        <ele>852.3</ele>
        <time>2011-04-10T13:58:43Z</time>
      </trkpt>
      <trkpt lat="43.194862" lon="-3.257214">
        <ele>855.2</ele>
        <time>2011-04-10T13:58:57Z</time>
      </trkpt>
      <trkpt lat="43.194862" lon="-3.257137">
        <ele>856.7</ele>
        <time>2011-04-10T13:59:10Z</time>
      </trkpt>
      <trkpt lat="43.194851" lon="-3.257103">
        <ele>860.0</ele>
        <time>2011-04-10T13:59:16Z</time>
      </trkpt>
      <trkpt lat="43.194847" lon="-3.257098">
        <ele>860.0</ele>
        <time>2011-04-10T13:59:17Z</time>
      </trkpt>
      <trkpt lat="43.194847" lon="-3.257064">
        <ele>861.0</ele>
        <time>2011-04-10T13:59:22Z</time>
      </trkpt>
      <trkpt lat="43.194859" lon="-3.256961">
        <ele>863.4</ele>
        <time>2011-04-10T13:59:37Z</time>
      </trkpt>
      <trkpt lat="43.194852" lon="-3.256872">
        <ele>864.4</ele>
        <time>2011-04-10T13:59:52Z</time>
      </trkpt>
      <trkpt lat="43.194849" lon="-3.256835">
        <ele>865.8</ele>
        <time>2011-04-10T13:59:57Z</time>
      </trkpt>
      <trkpt lat="43.194854" lon="-3.256761">
        <ele>869.2</ele>
        <time>2011-04-10T14:00:06Z</time>
      </trkpt>
      <trkpt lat="43.194860" lon="-3.256632">
        <ele>871.1</ele>
        <time>2011-04-10T14:00:22Z</time>
      </trkpt>
      <trkpt lat="43.194863" lon="-3.256614">
        <ele>872.1</ele>
        <time>2011-04-10T14:00:24Z</time>
      </trkpt>
      <trkpt lat="43.194853" lon="-3.256543">
        <ele>871.6</ele>
        <time>2011-04-10T14:00:30Z</time>
      </trkpt>
      <trkpt lat="43.194825" lon="-3.256353">
        <ele>875.4</ele>
        <time>2011-04-10T14:00:47Z</time>
      </trkpt>
      <trkpt lat="43.194822" lon="-3.256334">
        <ele>876.4</ele>
        <time>2011-04-10T14:00:49Z</time>
      </trkpt>
      <trkpt lat="43.194831" lon="-3.256234">
        <ele>880.2</ele>
        <time>2011-04-10T14:01:00Z</time>
      </trkpt>
      <trkpt lat="43.194832" lon="-3.256225">
        <ele>879.3</ele>
        <time>2011-04-10T14:01:01Z</time>
      </trkpt>
      <trkpt lat="43.194851" lon="-3.256170">
        <ele>880.2</ele>
        <time>2011-04-10T14:01:08Z</time>
      </trkpt>
      <trkpt lat="43.194897" lon="-3.256031">
        <ele>884.1</ele>
        <time>2011-04-10T14:01:24Z</time>
      </trkpt>
      <trkpt lat="43.194948" lon="-3.255883">
        <ele>885.5</ele>
        <time>2011-04-10T14:01:40Z</time>
      </trkpt>
      <trkpt lat="43.194947" lon="-3.255835">
        <ele>886.5</ele>
        <time>2011-04-10T14:01:44Z</time>
      </trkpt>
      <trkpt lat="43.194941" lon="-3.255817">
        <ele>886.5</ele>
        <time>2011-04-10T14:01:46Z</time>
      </trkpt>
      <trkpt lat="43.194879" lon="-3.255650">
        <ele>888.9</ele>
        <time>2011-04-10T14:02:03Z</time>
      </trkpt>
      <trkpt lat="43.194868" lon="-3.255528">
        <ele>889.8</ele>
        <time>2011-04-10T14:02:17Z</time>
      </trkpt>
      <trkpt lat="43.194875" lon="-3.255414">
        <ele>891.8</ele>
        <time>2011-04-10T14:02:32Z</time>
      </trkpt>
      <trkpt lat="43.194891" lon="-3.255386">
        <ele>893.2</ele>
        <time>2011-04-10T14:02:35Z</time>
      </trkpt>
      <trkpt lat="43.194882" lon="-3.255312">
        <ele>894.6</ele>
        <time>2011-04-10T14:02:44Z</time>
      </trkpt>
      <trkpt lat="43.194834" lon="-3.255288">
        <ele>898.0</ele>
        <time>2011-04-10T14:02:52Z</time>
      </trkpt>
      <trkpt lat="43.194804" lon="-3.255246">
        <ele>901.9</ele>
        <time>2011-04-10T14:03:00Z</time>
      </trkpt>
      <trkpt lat="43.194801" lon="-3.255239">
        <ele>900.4</ele>
        <time>2011-04-10T14:03:01Z</time>
      </trkpt>
      <trkpt lat="43.194797" lon="-3.255228">
        <ele>899.9</ele>
        <time>2011-04-10T14:03:03Z</time>
      </trkpt>
      <trkpt lat="43.194793" lon="-3.255178">
        <ele>900.9</ele>
        <time>2011-04-10T14:03:16Z</time>
      </trkpt>
      <trkpt lat="43.194804" lon="-3.255156">
        <ele>901.4</ele>
        <time>2011-04-10T14:03:21Z</time>
      </trkpt>
      <trkpt lat="43.194809" lon="-3.255145">
        <ele>903.8</ele>
        <time>2011-04-10T14:03:30Z</time>
      </trkpt>
      <trkpt lat="43.194779" lon="-3.255083">
        <ele>903.8</ele>
        <time>2011-04-10T14:03:42Z</time>
      </trkpt>
      <trkpt lat="43.194779" lon="-3.255045">
        <ele>905.2</ele>
        <time>2011-04-10T14:03:50Z</time>
      </trkpt>
      <trkpt lat="43.194769" lon="-3.254984">
        <ele>906.2</ele>
        <time>2011-04-10T14:04:03Z</time>
      </trkpt>
      <trkpt lat="43.194815" lon="-3.254900">
        <ele>910.5</ele>
        <time>2011-04-10T14:04:13Z</time>
      </trkpt>
      <trkpt lat="43.194875" lon="-3.254810">
        <ele>910.0</ele>
        <time>2011-04-10T14:04:28Z</time>
      </trkpt>
      <trkpt lat="43.194886" lon="-3.254791">
        <ele>912.9</ele>
        <time>2011-04-10T14:04:30Z</time>
      </trkpt>
      <trkpt lat="43.194893" lon="-3.254765">
        <ele>917.2</ele>
        <time>2011-04-10T14:04:32Z</time>
      </trkpt>
      <trkpt lat="43.194901" lon="-3.254736">
        <ele>912.4</ele>
        <time>2011-04-10T14:04:34Z</time>
      </trkpt>
      <trkpt lat="43.194904" lon="-3.254722">
        <ele>917.2</ele>
        <time>2011-04-10T14:04:35Z</time>
      </trkpt>
      <trkpt lat="43.194909" lon="-3.254695">
        <ele>913.4</ele>
        <time>2011-04-10T14:04:37Z</time>
      </trkpt>
      <trkpt lat="43.194922" lon="-3.254651">
        <ele>911.9</ele>
        <time>2011-04-10T14:04:40Z</time>
      </trkpt>
      <trkpt lat="43.194999" lon="-3.254633">
        <ele>909.5</ele>
        <time>2011-04-10T14:04:55Z</time>
      </trkpt>
      <trkpt lat="43.195007" lon="-3.254637">
        <ele>908.6</ele>
        <time>2011-04-10T14:04:56Z</time>
      </trkpt>
      <trkpt lat="43.195065" lon="-3.254623">
        <ele>906.2</ele>
        <time>2011-04-10T14:05:02Z</time>
      </trkpt>
      <trkpt lat="43.195112" lon="-3.254621">
        <ele>903.8</ele>
        <time>2011-04-10T14:05:06Z</time>
      </trkpt>
      <trkpt lat="43.195165" lon="-3.254642">
        <ele>902.8</ele>
        <time>2011-04-10T14:05:11Z</time>
      </trkpt>
      <trkpt lat="43.195194" lon="-3.254642">
        <ele>902.8</ele>
        <time>2011-04-10T14:05:13Z</time>
      </trkpt>
      <trkpt lat="43.195271" lon="-3.254607">
        <ele>901.4</ele>
        <time>2011-04-10T14:05:19Z</time>
      </trkpt>
      <trkpt lat="43.195307" lon="-3.254584">
        <ele>898.0</ele>
        <time>2011-04-10T14:05:22Z</time>
      </trkpt>
      <trkpt lat="43.195321" lon="-3.254574">
        <ele>899.9</ele>
        <time>2011-04-10T14:05:23Z</time>
      </trkpt>
      <trkpt lat="43.195344" lon="-3.254549">
        <ele>894.6</ele>
        <time>2011-04-10T14:05:25Z</time>
      </trkpt>
      <trkpt lat="43.195357" lon="-3.254541">
        <ele>905.2</ele>
        <time>2011-04-10T14:05:26Z</time>
      </trkpt>
      <trkpt lat="43.195372" lon="-3.254537">
        <ele>900.4</ele>
        <time>2011-04-10T14:05:27Z</time>
      </trkpt>
      <trkpt lat="43.195433" lon="-3.254542">
        <ele>899.5</ele>
        <time>2011-04-10T14:05:31Z</time>
      </trkpt>
      <trkpt lat="43.195485" lon="-3.254510">
        <ele>899.5</ele>
        <time>2011-04-10T14:05:35Z</time>
      </trkpt>
      <trkpt lat="43.195546" lon="-3.254451">
        <ele>898.5</ele>
        <time>2011-04-10T14:05:40Z</time>
      </trkpt>
      <trkpt lat="43.195736" lon="-3.254347">
        <ele>897.5</ele>
        <time>2011-04-10T14:05:54Z</time>
      </trkpt>
      <trkpt lat="43.195938" lon="-3.254286">
        <ele>896.1</ele>
        <time>2011-04-10T14:06:09Z</time>
      </trkpt>
      <trkpt lat="43.196059" lon="-3.254232">
        <ele>892.7</ele>
        <time>2011-04-10T14:06:20Z</time>
      </trkpt>
      <trkpt lat="43.196092" lon="-3.254224">
        <ele>891.3</ele>
        <time>2011-04-10T14:06:23Z</time>
      </trkpt>
      <trkpt lat="43.196155" lon="-3.254215">
        <ele>888.4</ele>
        <time>2011-04-10T14:06:30Z</time>
      </trkpt>
      <trkpt lat="43.196236" lon="-3.254169">
        <ele>885.0</ele>
        <time>2011-04-10T14:06:41Z</time>
      </trkpt>
      <trkpt lat="43.196246" lon="-3.254151">
        <ele>884.6</ele>
        <time>2011-04-10T14:06:43Z</time>
      </trkpt>
      <trkpt lat="43.196308" lon="-3.254065">
        <ele>881.2</ele>
        <time>2011-04-10T14:06:56Z</time>
      </trkpt>
      <trkpt lat="43.196316" lon="-3.254048">
        <ele>880.2</ele>
        <time>2011-04-10T14:06:58Z</time>
      </trkpt>
      <trkpt lat="43.196327" lon="-3.254030">
        <ele>879.3</ele>
        <time>2011-04-10T14:07:00Z</time>
      </trkpt>
      <trkpt lat="43.196344" lon="-3.254011">
        <ele>877.8</ele>
        <time>2011-04-10T14:07:02Z</time>
      </trkpt>
      <trkpt lat="43.196367" lon="-3.253983">
        <ele>879.7</ele>
        <time>2011-04-10T14:07:05Z</time>
      </trkpt>
      <trkpt lat="43.196372" lon="-3.253971">
        <ele>879.3</ele>
        <time>2011-04-10T14:07:06Z</time>
      </trkpt>
      <trkpt lat="43.196388" lon="-3.253934">
        <ele>875.9</ele>
        <time>2011-04-10T14:07:09Z</time>
      </trkpt>
      <trkpt lat="43.196471" lon="-3.253959">
        <ele>872.5</ele>
        <time>2011-04-10T14:07:21Z</time>
      </trkpt>
      <trkpt lat="43.196524" lon="-3.253921">
        <ele>869.6</ele>
        <time>2011-04-10T14:07:31Z</time>
      </trkpt>
      <trkpt lat="43.196573" lon="-3.253883">
        <ele>865.3</ele>
        <time>2011-04-10T14:07:40Z</time>
      </trkpt>
      <trkpt lat="43.196596" lon="-3.253906">
        <ele>864.4</ele>
        <time>2011-04-10T14:07:45Z</time>
      </trkpt>
      <trkpt lat="43.196647" lon="-3.253915">
        <ele>860.5</ele>
        <time>2011-04-10T14:07:53Z</time>
      </trkpt>
      <trkpt lat="43.196725" lon="-3.253801">
        <ele>858.6</ele>
        <time>2011-04-10T14:08:09Z</time>
      </trkpt>
      <trkpt lat="43.196752" lon="-3.253785">
        <ele>857.2</ele>
        <time>2011-04-10T14:08:13Z</time>
      </trkpt>
      <trkpt lat="43.196774" lon="-3.253761">
        <ele>853.8</ele>
        <time>2011-04-10T14:08:18Z</time>
      </trkpt>
      <trkpt lat="43.196842" lon="-3.253736">
        <ele>850.9</ele>
        <time>2011-04-10T14:08:31Z</time>
      </trkpt>
      <trkpt lat="43.196895" lon="-3.253756">
        <ele>848.5</ele>
        <time>2011-04-10T14:08:40Z</time>
      </trkpt>
      <trkpt lat="43.196917" lon="-3.253764">
        <ele>847.5</ele>
        <time>2011-04-10T14:08:42Z</time>
      </trkpt>
      <trkpt lat="43.196960" lon="-3.253755">
        <ele>846.6</ele>
        <time>2011-04-10T14:08:46Z</time>
      </trkpt>
      <trkpt lat="43.197000" lon="-3.253758">
        <ele>842.7</ele>
        <time>2011-04-10T14:08:50Z</time>
      </trkpt>
      <trkpt lat="43.197008" lon="-3.253755">
        <ele>843.2</ele>
        <time>2011-04-10T14:08:51Z</time>
      </trkpt>
      <trkpt lat="43.197062" lon="-3.253694">
        <ele>840.8</ele>
        <time>2011-04-10T14:09:01Z</time>
      </trkpt>
      <trkpt lat="43.197115" lon="-3.253669">
        <ele>838.4</ele>
        <time>2011-04-10T14:09:08Z</time>
      </trkpt>
      <trkpt lat="43.197214" lon="-3.253643">
        <ele>835.0</ele>
        <time>2011-04-10T14:09:20Z</time>
      </trkpt>
      <trkpt lat="43.197225" lon="-3.253645">
        <ele>834.6</ele>
        <time>2011-04-10T14:09:21Z</time>
      </trkpt>
      <trkpt lat="43.197261" lon="-3.253633">
        <ele>833.1</ele>
        <time>2011-04-10T14:09:24Z</time>
      </trkpt>
      <trkpt lat="43.197319" lon="-3.253547">
        <ele>832.2</ele>
        <time>2011-04-10T14:09:31Z</time>
      </trkpt>
      <trkpt lat="43.197350" lon="-3.253539">
        <ele>832.2</ele>
        <time>2011-04-10T14:09:33Z</time>
      </trkpt>
      <trkpt lat="43.197405" lon="-3.253548">
        <ele>831.2</ele>
        <time>2011-04-10T14:09:37Z</time>
      </trkpt>
      <trkpt lat="43.197717" lon="-3.253467">
        <ele>829.3</ele>
        <time>2011-04-10T14:09:59Z</time>
      </trkpt>
      <trkpt lat="43.197798" lon="-3.253461">
        <ele>827.8</ele>
        <time>2011-04-10T14:10:05Z</time>
      </trkpt>
      <trkpt lat="43.197833" lon="-3.253425">
        <ele>825.4</ele>
        <time>2011-04-10T14:10:09Z</time>
      </trkpt>
      <trkpt lat="43.197986" lon="-3.253345">
        <ele>821.1</ele>
        <time>2011-04-10T14:10:21Z</time>
      </trkpt>
      <trkpt lat="43.198002" lon="-3.253338">
        <ele>821.1</ele>
        <time>2011-04-10T14:10:22Z</time>
      </trkpt>
      <trkpt lat="43.198171" lon="-3.253219">
        <ele>817.7</ele>
        <time>2011-04-10T14:10:33Z</time>
      </trkpt>
      <trkpt lat="43.198391" lon="-3.252911">
        <ele>816.3</ele>
        <time>2011-04-10T14:10:53Z</time>
      </trkpt>
      <trkpt lat="43.198468" lon="-3.252740">
        <ele>817.3</ele>
        <time>2011-04-10T14:11:03Z</time>
      </trkpt>
      <trkpt lat="43.198500" lon="-3.252521">
        <ele>816.8</ele>
        <time>2011-04-10T14:11:15Z</time>
      </trkpt>
      <trkpt lat="43.198500" lon="-3.252408">
        <ele>813.4</ele>
        <time>2011-04-10T14:11:21Z</time>
      </trkpt>
      <trkpt lat="43.198498" lon="-3.252345">
        <ele>802.4</ele>
        <time>2011-04-10T14:11:24Z</time>
      </trkpt>
      <trkpt lat="43.198498" lon="-3.252323">
        <ele>825.4</ele>
        <time>2011-04-10T14:11:25Z</time>
      </trkpt>
      <trkpt lat="43.198499" lon="-3.252301">
        <ele>816.3</ele>
        <time>2011-04-10T14:11:26Z</time>
      </trkpt>
      <trkpt lat="43.198523" lon="-3.252170">
        <ele>815.3</ele>
        <time>2011-04-10T14:11:33Z</time>
      </trkpt>
      <trkpt lat="43.198536" lon="-3.252147">
        <ele>819.2</ele>
        <time>2011-04-10T14:11:35Z</time>
      </trkpt>
      <trkpt lat="43.198563" lon="-3.252132">
        <ele>818.2</ele>
        <time>2011-04-10T14:11:46Z</time>
      </trkpt>
      <trkpt lat="43.198569" lon="-3.252137">
        <ele>814.4</ele>
        <time>2011-04-10T14:11:54Z</time>
      </trkpt>
      <trkpt lat="43.198568" lon="-3.252135">
        <ele>814.4</ele>
        <time>2011-04-10T14:11:55Z</time>
      </trkpt>
      <trkpt lat="43.198570" lon="-3.252139">
        <ele>817.3</ele>
        <time>2011-04-10T14:12:00Z</time>
      </trkpt>
      <trkpt lat="43.198572" lon="-3.252140">
        <ele>815.8</ele>
        <time>2011-04-10T14:12:03Z</time>
      </trkpt>
      <trkpt lat="43.198567" lon="-3.252127">
        <ele>819.2</ele>
        <time>2011-04-10T14:12:20Z</time>
      </trkpt>
      <trkpt lat="43.198569" lon="-3.252128">
        <ele>819.2</ele>
        <time>2011-04-10T14:12:21Z</time>
      </trkpt>
      <trkpt lat="43.198576" lon="-3.252139">
        <ele>815.8</ele>
        <time>2011-04-10T14:12:25Z</time>
      </trkpt>
      <trkpt lat="43.198592" lon="-3.252168">
        <ele>816.8</ele>
        <time>2011-04-10T14:12:36Z</time>
      </trkpt>
      <trkpt lat="43.198608" lon="-3.252201">
        <ele>813.9</ele>
        <time>2011-04-10T14:12:50Z</time>
      </trkpt>
      <trkpt lat="43.198571" lon="-3.252133">
        <ele>816.3</ele>
        <time>2011-04-10T14:12:58Z</time>
      </trkpt>
      <trkpt lat="43.198581" lon="-3.252101">
        <ele>814.4</ele>
        <time>2011-04-10T14:13:14Z</time>
      </trkpt>
      <trkpt lat="43.198656" lon="-3.252129">
        <ele>815.3</ele>
        <time>2011-04-10T14:13:35Z</time>
      </trkpt>
      <trkpt lat="43.198656" lon="-3.252129">
        <ele>815.3</ele>
        <time>2011-04-10T14:14:16Z</time>
      </trkpt>
      <trkpt lat="43.198656" lon="-3.252129">
        <ele>818.7</ele>
        <time>2011-04-10T14:14:20Z</time>
      </trkpt>
      <trkpt lat="43.198656" lon="-3.252129">
        <ele>820.1</ele>
        <time>2011-04-10T14:14:22Z</time>
      </trkpt>
      <trkpt lat="43.198656" lon="-3.252129">
        <ele>818.7</ele>
        <time>2011-04-10T14:14:24Z</time>
      </trkpt>
      <trkpt lat="43.198656" lon="-3.252129">
        <ele>816.3</ele>
        <time>2011-04-10T14:14:26Z</time>
      </trkpt>
      <trkpt lat="43.198656" lon="-3.252129">
        <ele>817.7</ele>
        <time>2011-04-10T14:14:27Z</time>
      </trkpt>
      <trkpt lat="43.198656" lon="-3.252129">
        <ele>820.1</ele>
        <time>2011-04-10T14:14:30Z</time>
      </trkpt>
      <trkpt lat="43.198656" lon="-3.252129">
        <ele>817.7</ele>
        <time>2011-04-10T14:14:32Z</time>
      </trkpt>
      <trkpt lat="43.198656" lon="-3.252129">
        <ele>816.3</ele>
        <time>2011-04-10T14:14:33Z</time>
      </trkpt>
      <trkpt lat="43.198656" lon="-3.252129">
        <ele>815.8</ele>
        <time>2011-04-10T14:14:38Z</time>
      </trkpt>
      <trkpt lat="43.198656" lon="-3.252129">
        <ele>814.9</ele>
        <time>2011-04-10T14:14:39Z</time>
      </trkpt>
      <trkpt lat="43.198656" lon="-3.252129">
        <ele>815.8</ele>
        <time>2011-04-10T14:15:17Z</time>
      </trkpt>
      <trkpt lat="43.198656" lon="-3.252129">
        <ele>816.3</ele>
        <time>2011-04-10T14:15:31Z</time>
      </trkpt>
      <trkpt lat="43.198656" lon="-3.252129">
        <ele>817.3</ele>
        <time>2011-04-10T14:15:59Z</time>
      </trkpt>
      <trkpt lat="43.198656" lon="-3.252129">
        <ele>815.8</ele>
        <time>2011-04-10T14:16:01Z</time>
      </trkpt>
      <trkpt lat="43.198656" lon="-3.252129">
        <ele>814.4</ele>
        <time>2011-04-10T14:16:04Z</time>
      </trkpt>
      <trkpt lat="43.198656" lon="-3.252129">
        <ele>817.3</ele>
        <time>2011-04-10T14:16:08Z</time>
      </trkpt>
      <trkpt lat="43.198656" lon="-3.252129">
        <ele>815.8</ele>
        <time>2011-04-10T14:16:09Z</time>
      </trkpt>
      <trkpt lat="43.198656" lon="-3.252129">
        <ele>816.8</ele>
        <time>2011-04-10T14:16:58Z</time>
      </trkpt>
      <trkpt lat="43.198656" lon="-3.252129">
        <ele>815.8</ele>
        <time>2011-04-10T14:17:00Z</time>
      </trkpt>
      <trkpt lat="43.198656" lon="-3.252129">
        <ele>818.2</ele>
        <time>2011-04-10T14:17:01Z</time>
      </trkpt>
      <trkpt lat="43.198656" lon="-3.252129">
        <ele>816.8</ele>
        <time>2011-04-10T14:17:02Z</time>
      </trkpt>
      <trkpt lat="43.198656" lon="-3.252129">
        <ele>814.9</ele>
        <time>2011-04-10T14:17:03Z</time>
      </trkpt>
      <trkpt lat="43.198656" lon="-3.252129">
        <ele>816.3</ele>
        <time>2011-04-10T14:17:11Z</time>
      </trkpt>
      <trkpt lat="43.198656" lon="-3.252129">
        <ele>813.4</ele>
        <time>2011-04-10T14:17:14Z</time>
      </trkpt>
      <trkpt lat="43.198656" lon="-3.252129">
        <ele>813.4</ele>
        <time>2011-04-10T14:17:15Z</time>
      </trkpt>
      <trkpt lat="43.198656" lon="-3.252129">
        <ele>815.3</ele>
        <time>2011-04-10T14:17:16Z</time>
      </trkpt>
      <trkpt lat="43.198656" lon="-3.252129">
        <ele>818.2</ele>
        <time>2011-04-10T14:17:17Z</time>
      </trkpt>
      <trkpt lat="43.198656" lon="-3.252129">
        <ele>815.3</ele>
        <time>2011-04-10T14:17:18Z</time>
      </trkpt>
      <trkpt lat="43.198656" lon="-3.252129">
        <ele>816.8</ele>
        <time>2011-04-10T14:17:19Z</time>
      </trkpt>
      <trkpt lat="43.198656" lon="-3.252129">
        <ele>814.9</ele>
        <time>2011-04-10T14:17:20Z</time>
      </trkpt>
      <trkpt lat="43.198656" lon="-3.252129">
        <ele>813.9</ele>
        <time>2011-04-10T14:17:24Z</time>
      </trkpt>
      <trkpt lat="43.198656" lon="-3.252129">
        <ele>815.3</ele>
        <time>2011-04-10T14:17:25Z</time>
      </trkpt>
      <trkpt lat="43.198656" lon="-3.252129">
        <ele>816.3</ele>
        <time>2011-04-10T14:17:27Z</time>
      </trkpt>
      <trkpt lat="43.198656" lon="-3.252129">
        <ele>815.3</ele>
        <time>2011-04-10T14:17:29Z</time>
      </trkpt>
      <trkpt lat="43.198656" lon="-3.252129">
        <ele>817.7</ele>
        <time>2011-04-10T14:17:30Z</time>
      </trkpt>
      <trkpt lat="43.198656" lon="-3.252129">
        <ele>814.4</ele>
        <time>2011-04-10T14:17:35Z</time>
      </trkpt>
      <trkpt lat="43.198656" lon="-3.252129">
        <ele>816.8</ele>
        <time>2011-04-10T14:17:58Z</time>
      </trkpt>
      <trkpt lat="43.198656" lon="-3.252129">
        <ele>816.3</ele>
        <time>2011-04-10T14:18:36Z</time>
      </trkpt>
      <trkpt lat="43.198656" lon="-3.252129">
        <ele>815.3</ele>
        <time>2011-04-10T14:19:09Z</time>
      </trkpt>
      <trkpt lat="43.198656" lon="-3.252129">
        <ele>815.8</ele>
        <time>2011-04-10T14:19:25Z</time>
      </trkpt>
      <trkpt lat="43.198656" lon="-3.252129">
        <ele>816.8</ele>
        <time>2011-04-10T14:19:27Z</time>
      </trkpt>
      <trkpt lat="43.198656" lon="-3.252129">
        <ele>814.4</ele>
        <time>2011-04-10T14:19:43Z</time>
      </trkpt>
      <trkpt lat="43.198656" lon="-3.252129">
        <ele>813.9</ele>
        <time>2011-04-10T14:20:07Z</time>
      </trkpt>
      <trkpt lat="43.198656" lon="-3.252129">
        <ele>815.8</ele>
        <time>2011-04-10T14:20:24Z</time>
      </trkpt>
      <trkpt lat="43.198656" lon="-3.252129">
        <ele>817.3</ele>
        <time>2011-04-10T14:20:38Z</time>
      </trkpt>
      <trkpt lat="43.198656" lon="-3.252129">
        <ele>815.8</ele>
        <time>2011-04-10T14:20:39Z</time>
      </trkpt>
      <trkpt lat="43.198656" lon="-3.252129">
        <ele>815.8</ele>
        <time>2011-04-10T14:20:42Z</time>
      </trkpt>
      <trkpt lat="43.198656" lon="-3.252129">
        <ele>817.7</ele>
        <time>2011-04-10T14:20:45Z</time>
      </trkpt>
      <trkpt lat="43.198656" lon="-3.252129">
        <ele>814.9</ele>
        <time>2011-04-10T14:20:52Z</time>
      </trkpt>
      <trkpt lat="43.198656" lon="-3.252129">
        <ele>816.3</ele>
        <time>2011-04-10T14:20:55Z</time>
      </trkpt>
      <trkpt lat="43.198656" lon="-3.252129">
        <ele>818.2</ele>
        <time>2011-04-10T14:21:20Z</time>
      </trkpt>
      <trkpt lat="43.198656" lon="-3.252129">
        <ele>818.7</ele>
        <time>2011-04-10T14:22:06Z</time>
      </trkpt>
      <trkpt lat="43.198656" lon="-3.252129">
        <ele>820.1</ele>
        <time>2011-04-10T14:22:10Z</time>
      </trkpt>
      <trkpt lat="43.198656" lon="-3.252129">
        <ele>816.8</ele>
        <time>2011-04-10T14:22:40Z</time>
      </trkpt>
      <trkpt lat="43.198656" lon="-3.252129">
        <ele>816.8</ele>
        <time>2011-04-10T14:22:43Z</time>
      </trkpt>
      <trkpt lat="43.198619" lon="-3.252298">
        <ele>818.7</ele>
        <time>2011-04-10T14:22:47Z</time>
      </trkpt>
      <trkpt lat="43.198552" lon="-3.252170">
        <ele>817.7</ele>
        <time>2011-04-10T14:22:49Z</time>
      </trkpt>
      <trkpt lat="43.198591" lon="-3.252062">
        <ele>819.7</ele>
        <time>2011-04-10T14:22:55Z</time>
      </trkpt>
      <trkpt lat="43.198725" lon="-3.251989">
        <ele>823.0</ele>
        <time>2011-04-10T14:23:08Z</time>
      </trkpt>
      <trkpt lat="43.198782" lon="-3.251967">
        <ele>821.6</ele>
        <time>2011-04-10T14:23:14Z</time>
      </trkpt>
      <trkpt lat="43.198878" lon="-3.251920">
        <ele>826.9</ele>
        <time>2011-04-10T14:23:24Z</time>
      </trkpt>
      <trkpt lat="43.198994" lon="-3.251869">
        <ele>830.2</ele>
        <time>2011-04-10T14:23:38Z</time>
      </trkpt>
      <trkpt lat="43.199079" lon="-3.251805">
        <ele>833.6</ele>
        <time>2011-04-10T14:23:50Z</time>
      </trkpt>
      <trkpt lat="43.199153" lon="-3.251754">
        <ele>836.5</ele>
        <time>2011-04-10T14:24:01Z</time>
      </trkpt>
      <trkpt lat="43.199247" lon="-3.251728">
        <ele>838.4</ele>
        <time>2011-04-10T14:24:17Z</time>
      </trkpt>
      <trkpt lat="43.199258" lon="-3.251729">
        <ele>839.4</ele>
        <time>2011-04-10T14:24:19Z</time>
      </trkpt>
      <trkpt lat="43.199312" lon="-3.251696">
        <ele>842.7</ele>
        <time>2011-04-10T14:24:29Z</time>
      </trkpt>
      <trkpt lat="43.199338" lon="-3.251725">
        <ele>846.6</ele>
        <time>2011-04-10T14:24:34Z</time>
      </trkpt>
      <trkpt lat="43.199356" lon="-3.251710">
        <ele>844.2</ele>
        <time>2011-04-10T14:24:37Z</time>
      </trkpt>
      <trkpt lat="43.199387" lon="-3.251697">
        <ele>849.5</ele>
        <time>2011-04-10T14:24:42Z</time>
      </trkpt>
      <trkpt lat="43.199393" lon="-3.251696">
        <ele>849.0</ele>
        <time>2011-04-10T14:24:43Z</time>
      </trkpt>
      <trkpt lat="43.199405" lon="-3.251694">
        <ele>843.2</ele>
        <time>2011-04-10T14:24:45Z</time>
      </trkpt>
      <trkpt lat="43.199409" lon="-3.251696">
        <ele>843.7</ele>
        <time>2011-04-10T14:24:46Z</time>
      </trkpt>
      <trkpt lat="43.199429" lon="-3.251695">
        <ele>847.1</ele>
        <time>2011-04-10T14:24:49Z</time>
      </trkpt>
      <trkpt lat="43.199436" lon="-3.251696">
        <ele>846.6</ele>
        <time>2011-04-10T14:24:50Z</time>
      </trkpt>
      <trkpt lat="43.199487" lon="-3.251713">
        <ele>848.0</ele>
        <time>2011-04-10T14:24:58Z</time>
      </trkpt>
      <trkpt lat="43.199493" lon="-3.251710">
        <ele>844.7</ele>
        <time>2011-04-10T14:24:59Z</time>
      </trkpt>
      <trkpt lat="43.199498" lon="-3.251711">
        <ele>846.1</ele>
        <time>2011-04-10T14:25:00Z</time>
      </trkpt>
      <trkpt lat="43.199504" lon="-3.251714">
        <ele>850.9</ele>
        <time>2011-04-10T14:25:01Z</time>
      </trkpt>
      <trkpt lat="43.199585" lon="-3.251692">
        <ele>851.4</ele>
        <time>2011-04-10T14:25:12Z</time>
      </trkpt>
      <trkpt lat="43.199637" lon="-3.251657">
        <ele>853.3</ele>
        <time>2011-04-10T14:25:19Z</time>
      </trkpt>
      <trkpt lat="43.199669" lon="-3.251642">
        <ele>851.4</ele>
        <time>2011-04-10T14:25:24Z</time>
      </trkpt>
      <trkpt lat="43.199681" lon="-3.251634">
        <ele>849.5</ele>
        <time>2011-04-10T14:25:26Z</time>
      </trkpt>
      <trkpt lat="43.199727" lon="-3.251613">
        <ele>853.3</ele>
        <time>2011-04-10T14:25:33Z</time>
      </trkpt>
      <trkpt lat="43.199770" lon="-3.251614">
        <ele>853.8</ele>
        <time>2011-04-10T14:25:40Z</time>
      </trkpt>
      <trkpt lat="43.199783" lon="-3.251614">
        <ele>856.7</ele>
        <time>2011-04-10T14:25:42Z</time>
      </trkpt>
      <trkpt lat="43.199844" lon="-3.251601">
        <ele>858.1</ele>
        <time>2011-04-10T14:25:52Z</time>
      </trkpt>
      <trkpt lat="43.199941" lon="-3.251627">
        <ele>860.0</ele>
        <time>2011-04-10T14:26:07Z</time>
      </trkpt>
      <trkpt lat="43.199973" lon="-3.251603">
        <ele>862.0</ele>
        <time>2011-04-10T14:26:12Z</time>
      </trkpt>
      <trkpt lat="43.200015" lon="-3.251563">
        <ele>862.4</ele>
        <time>2011-04-10T14:26:19Z</time>
      </trkpt>
      <trkpt lat="43.200117" lon="-3.251552">
        <ele>865.8</ele>
        <time>2011-04-10T14:26:34Z</time>
      </trkpt>
      <trkpt lat="43.200129" lon="-3.251546">
        <ele>866.8</ele>
        <time>2011-04-10T14:26:36Z</time>
      </trkpt>
      <trkpt lat="43.200225" lon="-3.251496">
        <ele>870.1</ele>
        <time>2011-04-10T14:26:51Z</time>
      </trkpt>
      <trkpt lat="43.200333" lon="-3.251377">
        <ele>872.5</ele>
        <time>2011-04-10T14:27:08Z</time>
      </trkpt>
      <trkpt lat="43.200368" lon="-3.251317">
        <ele>874.5</ele>
        <time>2011-04-10T14:27:14Z</time>
      </trkpt>
      <trkpt lat="43.200398" lon="-3.251240">
        <ele>875.4</ele>
        <time>2011-04-10T14:27:20Z</time>
      </trkpt>
      <trkpt lat="43.200439" lon="-3.251168">
        <ele>874.9</ele>
        <time>2011-04-10T14:27:27Z</time>
      </trkpt>
      <trkpt lat="43.200481" lon="-3.251096">
        <ele>877.8</ele>
        <time>2011-04-10T14:27:34Z</time>
      </trkpt>
      <trkpt lat="43.200600" lon="-3.250881">
        <ele>882.1</ele>
        <time>2011-04-10T14:27:52Z</time>
      </trkpt>
      <trkpt lat="43.200648" lon="-3.250793">
        <ele>880.2</ele>
        <time>2011-04-10T14:27:59Z</time>
      </trkpt>
      <trkpt lat="43.200720" lon="-3.250787">
        <ele>882.6</ele>
        <time>2011-04-10T14:28:05Z</time>
      </trkpt>
      <trkpt lat="43.200764" lon="-3.250754">
        <ele>879.7</ele>
        <time>2011-04-10T14:28:10Z</time>
      </trkpt>
      <trkpt lat="43.200794" lon="-3.250718">
        <ele>876.9</ele>
        <time>2011-04-10T14:28:15Z</time>
      </trkpt>
      <trkpt lat="43.200819" lon="-3.250684">
        <ele>874.9</ele>
        <time>2011-04-10T14:28:18Z</time>
      </trkpt>
      <trkpt lat="43.200828" lon="-3.250670">
        <ele>875.9</ele>
        <time>2011-04-10T14:28:20Z</time>
      </trkpt>
      <trkpt lat="43.200834" lon="-3.250659">
        <ele>874.9</ele>
        <time>2011-04-10T14:28:22Z</time>
      </trkpt>
      <trkpt lat="43.200847" lon="-3.250651">
        <ele>874.5</ele>
        <time>2011-04-10T14:28:25Z</time>
      </trkpt>
      <trkpt lat="43.200891" lon="-3.250621">
        <ele>872.5</ele>
        <time>2011-04-10T14:28:29Z</time>
      </trkpt>
      <trkpt lat="43.201061" lon="-3.250407">
        <ele>869.6</ele>
        <time>2011-04-10T14:28:45Z</time>
      </trkpt>
      <trkpt lat="43.201101" lon="-3.250345">
        <ele>868.2</ele>
        <time>2011-04-10T14:28:51Z</time>
      </trkpt>
      <trkpt lat="43.201185" lon="-3.250284">
        <ele>863.4</ele>
        <time>2011-04-10T14:29:06Z</time>
      </trkpt>
      <trkpt lat="43.201241" lon="-3.250265">
        <ele>860.5</ele>
        <time>2011-04-10T14:29:17Z</time>
      </trkpt>
      <trkpt lat="43.201274" lon="-3.250225">
        <ele>860.0</ele>
        <time>2011-04-10T14:29:22Z</time>
      </trkpt>
      <trkpt lat="43.201296" lon="-3.250225">
        <ele>859.1</ele>
        <time>2011-04-10T14:29:24Z</time>
      </trkpt>
      <trkpt lat="43.201347" lon="-3.250233">
        <ele>854.7</ele>
        <time>2011-04-10T14:29:33Z</time>
      </trkpt>
      <trkpt lat="43.201352" lon="-3.250228">
        <ele>854.7</ele>
        <time>2011-04-10T14:29:34Z</time>
      </trkpt>
      <trkpt lat="43.201379" lon="-3.250224">
        <ele>853.3</ele>
        <time>2011-04-10T14:29:37Z</time>
      </trkpt>
      <trkpt lat="43.201386" lon="-3.250223">
        <ele>853.8</ele>
        <time>2011-04-10T14:29:38Z</time>
      </trkpt>
      <trkpt lat="43.201436" lon="-3.250204">
        <ele>850.9</ele>
        <time>2011-04-10T14:29:44Z</time>
      </trkpt>
      <trkpt lat="43.201450" lon="-3.250209">
        <ele>850.4</ele>
        <time>2011-04-10T14:29:46Z</time>
      </trkpt>
      <trkpt lat="43.201475" lon="-3.250173">
        <ele>848.0</ele>
        <time>2011-04-10T14:29:49Z</time>
      </trkpt>
      <trkpt lat="43.201494" lon="-3.250157">
        <ele>847.5</ele>
        <time>2011-04-10T14:29:51Z</time>
      </trkpt>
      <trkpt lat="43.201583" lon="-3.250106">
        <ele>844.2</ele>
        <time>2011-04-10T14:29:59Z</time>
      </trkpt>
      <trkpt lat="43.201593" lon="-3.250107">
        <ele>843.7</ele>
        <time>2011-04-10T14:30:00Z</time>
      </trkpt>
      <trkpt lat="43.201603" lon="-3.250107">
        <ele>843.7</ele>
        <time>2011-04-10T14:30:01Z</time>
      </trkpt>
      <trkpt lat="43.201642" lon="-3.250074">
        <ele>842.3</ele>
        <time>2011-04-10T14:30:05Z</time>
      </trkpt>
      <trkpt lat="43.201707" lon="-3.250052">
        <ele>840.3</ele>
        <time>2011-04-10T14:30:11Z</time>
      </trkpt>
      <trkpt lat="43.201722" lon="-3.250040">
        <ele>839.4</ele>
        <time>2011-04-10T14:30:13Z</time>
      </trkpt>
      <trkpt lat="43.201729" lon="-3.250029">
        <ele>838.9</ele>
        <time>2011-04-10T14:30:19Z</time>
      </trkpt>
      <trkpt lat="43.201785" lon="-3.249939">
        <ele>835.0</ele>
        <time>2011-04-10T14:30:26Z</time>
      </trkpt>
      <trkpt lat="43.201796" lon="-3.249925">
        <ele>835.0</ele>
        <time>2011-04-10T14:30:27Z</time>
      </trkpt>
      <trkpt lat="43.201817" lon="-3.249991">
        <ele>834.6</ele>
        <time>2011-04-10T14:30:33Z</time>
      </trkpt>
      <trkpt lat="43.201783" lon="-3.250163">
        <ele>831.2</ele>
        <time>2011-04-10T14:30:44Z</time>
      </trkpt>
      <trkpt lat="43.201845" lon="-3.250070">
        <ele>829.8</ele>
        <time>2011-04-10T14:30:51Z</time>
      </trkpt>
      <trkpt lat="43.201877" lon="-3.250008">
        <ele>828.3</ele>
        <time>2011-04-10T14:30:57Z</time>
      </trkpt>
      <trkpt lat="43.201867" lon="-3.250079">
        <ele>828.3</ele>
        <time>2011-04-10T14:31:01Z</time>
      </trkpt>
      <trkpt lat="43.201786" lon="-3.250308">
        <ele>824.9</ele>
        <time>2011-04-10T14:31:13Z</time>
      </trkpt>
      <trkpt lat="43.201710" lon="-3.250458">
        <ele>822.1</ele>
        <time>2011-04-10T14:31:23Z</time>
      </trkpt>
      <trkpt lat="43.201660" lon="-3.250593">
        <ele>821.6</ele>
        <time>2011-04-10T14:31:32Z</time>
      </trkpt>
      <trkpt lat="43.201602" lon="-3.250698">
        <ele>820.6</ele>
        <time>2011-04-10T14:31:38Z</time>
      </trkpt>
      <trkpt lat="43.201558" lon="-3.250855">
        <ele>816.8</ele>
        <time>2011-04-10T14:31:45Z</time>
      </trkpt>
      <trkpt lat="43.201549" lon="-3.250888">
        <ele>815.8</ele>
        <time>2011-04-10T14:31:47Z</time>
      </trkpt>
      <trkpt lat="43.201513" lon="-3.250939">
        <ele>812.9</ele>
        <time>2011-04-10T14:31:52Z</time>
      </trkpt>
      <trkpt lat="43.201528" lon="-3.250962">
        <ele>811.5</ele>
        <time>2011-04-10T14:31:55Z</time>
      </trkpt>
      <trkpt lat="43.201594" lon="-3.250942">
        <ele>811.0</ele>
        <time>2011-04-10T14:32:03Z</time>
      </trkpt>
      <trkpt lat="43.201630" lon="-3.250920">
        <ele>809.6</ele>
        <time>2011-04-10T14:32:08Z</time>
      </trkpt>
      <trkpt lat="43.201737" lon="-3.250848">
        <ele>806.7</ele>
        <time>2011-04-10T14:32:19Z</time>
      </trkpt>
      <trkpt lat="43.201759" lon="-3.250834">
        <ele>806.7</ele>
        <time>2011-04-10T14:32:21Z</time>
      </trkpt>
      <trkpt lat="43.201878" lon="-3.250735">
        <ele>802.8</ele>
        <time>2011-04-10T14:32:32Z</time>
      </trkpt>
      <trkpt lat="43.201887" lon="-3.250725">
        <ele>802.8</ele>
        <time>2011-04-10T14:32:33Z</time>
      </trkpt>
      <trkpt lat="43.201970" lon="-3.250672">
        <ele>799.5</ele>
        <time>2011-04-10T14:32:40Z</time>
      </trkpt>
      <trkpt lat="43.202038" lon="-3.250628">
        <ele>797.6</ele>
        <time>2011-04-10T14:32:47Z</time>
      </trkpt>
      <trkpt lat="43.202205" lon="-3.250496">
        <ele>794.2</ele>
        <time>2011-04-10T14:32:59Z</time>
      </trkpt>
      <trkpt lat="43.202367" lon="-3.250383">
        <ele>790.8</ele>
        <time>2011-04-10T14:33:10Z</time>
      </trkpt>
      <trkpt lat="43.202471" lon="-3.250308">
        <ele>789.9</ele>
        <time>2011-04-10T14:33:17Z</time>
      </trkpt>
      <trkpt lat="43.202540" lon="-3.250229">
        <ele>786.5</ele>
        <time>2011-04-10T14:33:22Z</time>
      </trkpt>
      <trkpt lat="43.202598" lon="-3.250168">
        <ele>786.5</ele>
        <time>2011-04-10T14:33:26Z</time>
      </trkpt>
      <trkpt lat="43.202800" lon="-3.250022">
        <ele>783.1</ele>
        <time>2011-04-10T14:33:39Z</time>
      </trkpt>
      <trkpt lat="43.202880" lon="-3.249912">
        <ele>781.2</ele>
        <time>2011-04-10T14:33:45Z</time>
      </trkpt>
      <trkpt lat="43.202934" lon="-3.249706">
        <ele>777.4</ele>
        <time>2011-04-10T14:33:55Z</time>
      </trkpt>
      <trkpt lat="43.202960" lon="-3.249532">
        <ele>775.4</ele>
        <time>2011-04-10T14:34:04Z</time>
      </trkpt>
      <trkpt lat="43.202958" lon="-3.249461">
        <ele>775.0</ele>
        <time>2011-04-10T14:34:08Z</time>
      </trkpt>
      <trkpt lat="43.202932" lon="-3.249299">
        <ele>771.6</ele>
        <time>2011-04-10T14:34:18Z</time>
      </trkpt>
      <trkpt lat="43.202876" lon="-3.249106">
        <ele>768.2</ele>
        <time>2011-04-10T14:34:28Z</time>
      </trkpt>
      <trkpt lat="43.202858" lon="-3.249067">
        <ele>767.3</ele>
        <time>2011-04-10T14:34:30Z</time>
      </trkpt>
      <trkpt lat="43.202810" lon="-3.248979">
        <ele>765.8</ele>
        <time>2011-04-10T14:34:35Z</time>
      </trkpt>
      <trkpt lat="43.202719" lon="-3.248729">
        <ele>762.0</ele>
        <time>2011-04-10T14:34:49Z</time>
      </trkpt>
      <trkpt lat="43.202662" lon="-3.248564">
        <ele>759.6</ele>
        <time>2011-04-10T14:34:59Z</time>
      </trkpt>
      <trkpt lat="43.202621" lon="-3.248471">
        <ele>757.2</ele>
        <time>2011-04-10T14:35:05Z</time>
      </trkpt>
      <trkpt lat="43.202576" lon="-3.248404">
        <ele>755.7</ele>
        <time>2011-04-10T14:35:11Z</time>
      </trkpt>
      <trkpt lat="43.202650" lon="-3.248339">
        <ele>752.4</ele>
        <time>2011-04-10T14:35:22Z</time>
      </trkpt>
      <trkpt lat="43.202795" lon="-3.248433">
        <ele>748.0</ele>
        <time>2011-04-10T14:35:35Z</time>
      </trkpt>
      <trkpt lat="43.202960" lon="-3.248505">
        <ele>745.2</ele>
        <time>2011-04-10T14:35:48Z</time>
      </trkpt>
      <trkpt lat="43.202993" lon="-3.248523">
        <ele>744.7</ele>
        <time>2011-04-10T14:35:51Z</time>
      </trkpt>
      <trkpt lat="43.203018" lon="-3.248468">
        <ele>742.3</ele>
        <time>2011-04-10T14:35:56Z</time>
      </trkpt>
      <trkpt lat="43.202992" lon="-3.248403">
        <ele>740.4</ele>
        <time>2011-04-10T14:36:01Z</time>
      </trkpt>
      <trkpt lat="43.202930" lon="-3.248255">
        <ele>737.5</ele>
        <time>2011-04-10T14:36:11Z</time>
      </trkpt>
      <trkpt lat="43.202827" lon="-3.248022">
        <ele>734.1</ele>
        <time>2011-04-10T14:36:25Z</time>
      </trkpt>
      <trkpt lat="43.202809" lon="-3.247983">
        <ele>733.1</ele>
        <time>2011-04-10T14:36:27Z</time>
      </trkpt>
      <trkpt lat="43.202786" lon="-3.247949">
        <ele>731.7</ele>
        <time>2011-04-10T14:36:29Z</time>
      </trkpt>
      <trkpt lat="43.202735" lon="-3.247849">
        <ele>729.3</ele>
        <time>2011-04-10T14:36:35Z</time>
      </trkpt>
      <trkpt lat="43.202797" lon="-3.247824">
        <ele>726.9</ele>
        <time>2011-04-10T14:36:41Z</time>
      </trkpt>
      <trkpt lat="43.203066" lon="-3.247927">
        <ele>724.5</ele>
        <time>2011-04-10T14:36:59Z</time>
      </trkpt>
      <trkpt lat="43.203165" lon="-3.247985">
        <ele>721.1</ele>
        <time>2011-04-10T14:37:07Z</time>
      </trkpt>
      <trkpt lat="43.203186" lon="-3.247995">
        <ele>720.2</ele>
        <time>2011-04-10T14:37:09Z</time>
      </trkpt>
      <trkpt lat="43.203295" lon="-3.248027">
        <ele>716.8</ele>
        <time>2011-04-10T14:37:18Z</time>
      </trkpt>
      <trkpt lat="43.203309" lon="-3.248014">
        <ele>715.8</ele>
        <time>2011-04-10T14:37:19Z</time>
      </trkpt>
      <trkpt lat="43.203317" lon="-3.247980">
        <ele>714.9</ele>
        <time>2011-04-10T14:37:21Z</time>
      </trkpt>
      <trkpt lat="43.203273" lon="-3.247888">
        <ele>713.4</ele>
        <time>2011-04-10T14:37:26Z</time>
      </trkpt>
      <trkpt lat="43.203186" lon="-3.247672">
        <ele>710.6</ele>
        <time>2011-04-10T14:37:39Z</time>
      </trkpt>
      <trkpt lat="43.203140" lon="-3.247543">
        <ele>707.7</ele>
        <time>2011-04-10T14:37:47Z</time>
      </trkpt>
      <trkpt lat="43.203078" lon="-3.247358">
        <ele>704.3</ele>
        <time>2011-04-10T14:37:57Z</time>
      </trkpt>
      <trkpt lat="43.203039" lon="-3.247307">
        <ele>703.8</ele>
        <time>2011-04-10T14:38:01Z</time>
      </trkpt>
      <trkpt lat="43.202949" lon="-3.247230">
        <ele>701.9</ele>
        <time>2011-04-10T14:38:09Z</time>
      </trkpt>
      <trkpt lat="43.202940" lon="-3.247203">
        <ele>700.9</ele>
        <time>2011-04-10T14:38:11Z</time>
      </trkpt>
      <trkpt lat="43.202954" lon="-3.247187">
        <ele>700.0</ele>
        <time>2011-04-10T14:38:13Z</time>
      </trkpt>
      <trkpt lat="43.202963" lon="-3.247185">
        <ele>700.0</ele>
        <time>2011-04-10T14:38:14Z</time>
      </trkpt>
      <trkpt lat="43.203035" lon="-3.247172">
        <ele>697.1</ele>
        <time>2011-04-10T14:38:21Z</time>
      </trkpt>
      <trkpt lat="43.203131" lon="-3.247148">
        <ele>695.2</ele>
        <time>2011-04-10T14:38:31Z</time>
      </trkpt>
      <trkpt lat="43.203176" lon="-3.247165">
        <ele>693.7</ele>
        <time>2011-04-10T14:38:35Z</time>
      </trkpt>
      <trkpt lat="43.203215" lon="-3.247173">
        <ele>691.8</ele>
        <time>2011-04-10T14:38:38Z</time>
      </trkpt>
      <trkpt lat="43.203377" lon="-3.247210">
        <ele>688.4</ele>
        <time>2011-04-10T14:38:52Z</time>
      </trkpt>
      <trkpt lat="43.203449" lon="-3.247249">
        <ele>686.5</ele>
        <time>2011-04-10T14:38:58Z</time>
      </trkpt>
      <trkpt lat="43.203606" lon="-3.247337">
        <ele>682.7</ele>
        <time>2011-04-10T14:39:10Z</time>
      </trkpt>
      <trkpt lat="43.203636" lon="-3.247292">
        <ele>681.2</ele>
        <time>2011-04-10T14:39:13Z</time>
      </trkpt>
      <trkpt lat="43.203623" lon="-3.247221">
        <ele>678.8</ele>
        <time>2011-04-10T14:39:17Z</time>
      </trkpt>
      <trkpt lat="43.203600" lon="-3.247124">
        <ele>677.4</ele>
        <time>2011-04-10T14:39:22Z</time>
      </trkpt>
      <trkpt lat="43.203565" lon="-3.246993">
        <ele>674.0</ele>
        <time>2011-04-10T14:39:31Z</time>
      </trkpt>
      <trkpt lat="43.203551" lon="-3.246878">
        <ele>672.1</ele>
        <time>2011-04-10T14:39:37Z</time>
      </trkpt>
      <trkpt lat="43.203490" lon="-3.246647">
        <ele>668.7</ele>
        <time>2011-04-10T14:39:48Z</time>
      </trkpt>
      <trkpt lat="43.203386" lon="-3.246463">
        <ele>665.4</ele>
        <time>2011-04-10T14:39:59Z</time>
      </trkpt>
      <trkpt lat="43.203382" lon="-3.246447">
        <ele>664.9</ele>
        <time>2011-04-10T14:40:00Z</time>
      </trkpt>
      <trkpt lat="43.203397" lon="-3.246364">
        <ele>661.0</ele>
        <time>2011-04-10T14:40:08Z</time>
      </trkpt>
      <trkpt lat="43.203402" lon="-3.246357">
        <ele>661.5</ele>
        <time>2011-04-10T14:40:09Z</time>
      </trkpt>
      <trkpt lat="43.203418" lon="-3.246313">
        <ele>659.1</ele>
        <time>2011-04-10T14:40:15Z</time>
      </trkpt>
      <trkpt lat="43.203446" lon="-3.246247">
        <ele>655.8</ele>
        <time>2011-04-10T14:40:23Z</time>
      </trkpt>
      <trkpt lat="43.203449" lon="-3.246237">
        <ele>656.2</ele>
        <time>2011-04-10T14:40:24Z</time>
      </trkpt>
      <trkpt lat="43.203464" lon="-3.246193">
        <ele>653.8</ele>
        <time>2011-04-10T14:40:28Z</time>
      </trkpt>
      <trkpt lat="43.203507" lon="-3.246055">
        <ele>649.5</ele>
        <time>2011-04-10T14:40:41Z</time>
      </trkpt>
      <trkpt lat="43.203511" lon="-3.246044">
        <ele>650.5</ele>
        <time>2011-04-10T14:40:42Z</time>
      </trkpt>
      <trkpt lat="43.203552" lon="-3.245932">
        <ele>646.6</ele>
        <time>2011-04-10T14:40:52Z</time>
      </trkpt>
      <trkpt lat="43.203577" lon="-3.245891">
        <ele>645.2</ele>
        <time>2011-04-10T14:40:55Z</time>
      </trkpt>
      <trkpt lat="43.203634" lon="-3.245845">
        <ele>641.8</ele>
        <time>2011-04-10T14:41:01Z</time>
      </trkpt>
      <trkpt lat="43.203658" lon="-3.245813">
        <ele>643.3</ele>
        <time>2011-04-10T14:41:15Z</time>
      </trkpt>
      <trkpt lat="43.203658" lon="-3.245824">
        <ele>643.3</ele>
        <time>2011-04-10T14:41:16Z</time>
      </trkpt>
      <trkpt lat="43.203712" lon="-3.245865">
        <ele>641.8</ele>
        <time>2011-04-10T14:41:21Z</time>
      </trkpt>
      <trkpt lat="43.203861" lon="-3.245913">
        <ele>638.5</ele>
        <time>2011-04-10T14:41:31Z</time>
      </trkpt>
      <trkpt lat="43.203925" lon="-3.245928">
        <ele>637.0</ele>
        <time>2011-04-10T14:41:39Z</time>
      </trkpt>
      <trkpt lat="43.203976" lon="-3.245964">
        <ele>633.2</ele>
        <time>2011-04-10T14:41:44Z</time>
      </trkpt>
      <trkpt lat="43.203993" lon="-3.245968">
        <ele>633.6</ele>
        <time>2011-04-10T14:41:45Z</time>
      </trkpt>
      <trkpt lat="43.204037" lon="-3.245970">
        <ele>634.6</ele>
        <time>2011-04-10T14:41:48Z</time>
      </trkpt>
      <trkpt lat="43.204060" lon="-3.245912">
        <ele>633.2</ele>
        <time>2011-04-10T14:41:52Z</time>
      </trkpt>
      <trkpt lat="43.204063" lon="-3.245868">
        <ele>631.7</ele>
        <time>2011-04-10T14:41:54Z</time>
      </trkpt>
      <trkpt lat="43.204048" lon="-3.245714">
        <ele>628.8</ele>
        <time>2011-04-10T14:42:01Z</time>
      </trkpt>
      <trkpt lat="43.204047" lon="-3.245688">
        <ele>628.8</ele>
        <time>2011-04-10T14:42:02Z</time>
      </trkpt>
      <trkpt lat="43.204032" lon="-3.245502">
        <ele>626.0</ele>
        <time>2011-04-10T14:42:10Z</time>
      </trkpt>
      <trkpt lat="43.204058" lon="-3.245297">
        <ele>622.6</ele>
        <time>2011-04-10T14:42:21Z</time>
      </trkpt>
      <trkpt lat="43.204150" lon="-3.245009">
        <ele>619.7</ele>
        <time>2011-04-10T14:42:34Z</time>
      </trkpt>
      <trkpt lat="43.204172" lon="-3.244850">
        <ele>615.9</ele>
        <time>2011-04-10T14:42:40Z</time>
      </trkpt>
      <trkpt lat="43.204179" lon="-3.244825">
        <ele>615.4</ele>
        <time>2011-04-10T14:42:41Z</time>
      </trkpt>
      <trkpt lat="43.204196" lon="-3.244779">
        <ele>613.9</ele>
        <time>2011-04-10T14:42:43Z</time>
      </trkpt>
      <trkpt lat="43.204260" lon="-3.244423">
        <ele>611.1</ele>
        <time>2011-04-10T14:43:00Z</time>
      </trkpt>
      <trkpt lat="43.204303" lon="-3.244340">
        <ele>609.1</ele>
        <time>2011-04-10T14:43:05Z</time>
      </trkpt>
      <trkpt lat="43.204348" lon="-3.244250">
        <ele>608.2</ele>
        <time>2011-04-10T14:43:10Z</time>
      </trkpt>
      <trkpt lat="43.204472" lon="-3.243924">
        <ele>604.8</ele>
        <time>2011-04-10T14:43:28Z</time>
      </trkpt>
      <trkpt lat="43.204502" lon="-3.243895">
        <ele>603.8</ele>
        <time>2011-04-10T14:43:31Z</time>
      </trkpt>
      <trkpt lat="43.204620" lon="-3.243738">
        <ele>600.5</ele>
        <time>2011-04-10T14:43:42Z</time>
      </trkpt>
      <trkpt lat="43.204654" lon="-3.243696">
        <ele>598.6</ele>
        <time>2011-04-10T14:43:45Z</time>
      </trkpt>
      <trkpt lat="43.204766" lon="-3.243544">
        <ele>596.6</ele>
        <time>2011-04-10T14:43:56Z</time>
      </trkpt>
      <trkpt lat="43.204805" lon="-3.243514">
        <ele>595.2</ele>
        <time>2011-04-10T14:43:59Z</time>
      </trkpt>
      <trkpt lat="43.204854" lon="-3.243453">
        <ele>594.7</ele>
        <time>2011-04-10T14:44:03Z</time>
      </trkpt>
      <trkpt lat="43.205090" lon="-3.243197">
        <ele>594.2</ele>
        <time>2011-04-10T14:44:21Z</time>
      </trkpt>
      <trkpt lat="43.205124" lon="-3.243154">
        <ele>595.7</ele>
        <time>2011-04-10T14:44:24Z</time>
      </trkpt>
      <trkpt lat="43.205242" lon="-3.242830">
        <ele>597.1</ele>
        <time>2011-04-10T14:44:43Z</time>
      </trkpt>
      <trkpt lat="43.205451" lon="-3.242417">
        <ele>595.7</ele>
        <time>2011-04-10T14:45:06Z</time>
      </trkpt>
      <trkpt lat="43.205664" lon="-3.241962">
        <ele>594.7</ele>
        <time>2011-04-10T14:45:31Z</time>
      </trkpt>
      <trkpt lat="43.205805" lon="-3.241779">
        <ele>590.9</ele>
        <time>2011-04-10T14:45:45Z</time>
      </trkpt>
      <trkpt lat="43.205837" lon="-3.241739">
        <ele>589.4</ele>
        <time>2011-04-10T14:45:48Z</time>
      </trkpt>
      <trkpt lat="43.205888" lon="-3.241692">
        <ele>588.0</ele>
        <time>2011-04-10T14:45:52Z</time>
      </trkpt>
      <trkpt lat="43.206003" lon="-3.241565">
        <ele>584.1</ele>
        <time>2011-04-10T14:46:03Z</time>
      </trkpt>
      <trkpt lat="43.206013" lon="-3.241555">
        <ele>584.1</ele>
        <time>2011-04-10T14:46:04Z</time>
      </trkpt>
      <trkpt lat="43.206061" lon="-3.241500">
        <ele>580.8</ele>
        <time>2011-04-10T14:46:09Z</time>
      </trkpt>
      <trkpt lat="43.206183" lon="-3.241383">
        <ele>576.9</ele>
        <time>2011-04-10T14:46:20Z</time>
      </trkpt>
      <trkpt lat="43.206195" lon="-3.241371">
        <ele>576.9</ele>
        <time>2011-04-10T14:46:21Z</time>
      </trkpt>
      <trkpt lat="43.206312" lon="-3.241290">
        <ele>574.0</ele>
        <time>2011-04-10T14:46:29Z</time>
      </trkpt>
      <trkpt lat="43.206434" lon="-3.241197">
        <ele>570.7</ele>
        <time>2011-04-10T14:46:37Z</time>
      </trkpt>
      <trkpt lat="43.206635" lon="-3.240965">
        <ele>567.3</ele>
        <time>2011-04-10T14:46:53Z</time>
      </trkpt>
      <trkpt lat="43.206873" lon="-3.240889">
        <ele>566.4</ele>
        <time>2011-04-10T14:47:09Z</time>
      </trkpt>
      <trkpt lat="43.206938" lon="-3.240864">
        <ele>567.8</ele>
        <time>2011-04-10T14:47:14Z</time>
      </trkpt>
      <trkpt lat="43.207016" lon="-3.240821">
        <ele>569.2</ele>
        <time>2011-04-10T14:47:20Z</time>
      </trkpt>
      <trkpt lat="43.207139" lon="-3.240711">
        <ele>571.6</ele>
        <time>2011-04-10T14:47:32Z</time>
      </trkpt>
      <trkpt lat="43.207257" lon="-3.240481">
        <ele>575.0</ele>
        <time>2011-04-10T14:47:49Z</time>
      </trkpt>
      <trkpt lat="43.207311" lon="-3.240374">
        <ele>578.4</ele>
        <time>2011-04-10T14:47:58Z</time>
      </trkpt>
      <trkpt lat="43.207467" lon="-3.240106">
        <ele>577.4</ele>
        <time>2011-04-10T14:48:18Z</time>
      </trkpt>
      <trkpt lat="43.207600" lon="-3.239822">
        <ele>575.0</ele>
        <time>2011-04-10T14:48:36Z</time>
      </trkpt>
      <trkpt lat="43.207724" lon="-3.239545">
        <ele>572.1</ele>
        <time>2011-04-10T14:48:52Z</time>
      </trkpt>
      <trkpt lat="43.207823" lon="-3.239107">
        <ele>569.7</ele>
        <time>2011-04-10T14:49:13Z</time>
      </trkpt>
      <trkpt lat="43.207860" lon="-3.238739">
        <ele>570.2</ele>
        <time>2011-04-10T14:49:31Z</time>
      </trkpt>
      <trkpt lat="43.207894" lon="-3.238390">
        <ele>570.2</ele>
        <time>2011-04-10T14:49:49Z</time>
      </trkpt>
      <trkpt lat="43.207917" lon="-3.238248">
        <ele>566.4</ele>
        <time>2011-04-10T14:49:56Z</time>
      </trkpt>
      <trkpt lat="43.207923" lon="-3.238207">
        <ele>563.5</ele>
        <time>2011-04-10T14:49:58Z</time>
      </trkpt>
      <trkpt lat="43.207967" lon="-3.237906">
        <ele>564.9</ele>
        <time>2011-04-10T14:50:13Z</time>
      </trkpt>
      <trkpt lat="43.207978" lon="-3.237703">
        <ele>568.3</ele>
        <time>2011-04-10T14:50:23Z</time>
      </trkpt>
      <trkpt lat="43.207975" lon="-3.237643">
        <ele>569.7</ele>
        <time>2011-04-10T14:50:26Z</time>
      </trkpt>
      <trkpt lat="43.208007" lon="-3.237207">
        <ele>570.2</ele>
        <time>2011-04-10T14:50:48Z</time>
      </trkpt>
      <trkpt lat="43.208065" lon="-3.236759">
        <ele>567.8</ele>
        <time>2011-04-10T14:51:09Z</time>
      </trkpt>
      <trkpt lat="43.208093" lon="-3.236570">
        <ele>564.4</ele>
        <time>2011-04-10T14:51:17Z</time>
      </trkpt>
      <trkpt lat="43.208227" lon="-3.236171">
        <ele>564.9</ele>
        <time>2011-04-10T14:51:38Z</time>
      </trkpt>
      <trkpt lat="43.208362" lon="-3.235853">
        <ele>568.8</ele>
        <time>2011-04-10T14:51:58Z</time>
      </trkpt>
      <trkpt lat="43.208367" lon="-3.235836">
        <ele>568.8</ele>
        <time>2011-04-10T14:51:59Z</time>
      </trkpt>
      <trkpt lat="43.208479" lon="-3.235569">
        <ele>571.6</ele>
        <time>2011-04-10T14:52:18Z</time>
      </trkpt>
      <trkpt lat="43.208507" lon="-3.235487">
        <ele>573.6</ele>
        <time>2011-04-10T14:52:24Z</time>
      </trkpt>
      <trkpt lat="43.208523" lon="-3.235451">
        <ele>575.0</ele>
        <time>2011-04-10T14:52:27Z</time>
      </trkpt>
      <trkpt lat="43.208618" lon="-3.235239">
        <ele>579.8</ele>
        <time>2011-04-10T14:52:45Z</time>
      </trkpt>
      <trkpt lat="43.208623" lon="-3.235225">
        <ele>579.3</ele>
        <time>2011-04-10T14:52:46Z</time>
      </trkpt>
      <trkpt lat="43.208704" lon="-3.235058">
        <ele>582.7</ele>
        <time>2011-04-10T14:53:01Z</time>
      </trkpt>
      <trkpt lat="43.208731" lon="-3.235000">
        <ele>582.7</ele>
        <time>2011-04-10T14:53:06Z</time>
      </trkpt>
      <trkpt lat="43.208771" lon="-3.234895">
        <ele>587.5</ele>
        <time>2011-04-10T14:53:14Z</time>
      </trkpt>
      <trkpt lat="43.208778" lon="-3.234883">
        <ele>587.0</ele>
        <time>2011-04-10T14:53:15Z</time>
      </trkpt>
      <trkpt lat="43.208838" lon="-3.234757">
        <ele>589.4</ele>
        <time>2011-04-10T14:53:26Z</time>
      </trkpt>
      <trkpt lat="43.208903" lon="-3.234613">
        <ele>592.8</ele>
        <time>2011-04-10T14:53:39Z</time>
      </trkpt>
      <trkpt lat="43.208931" lon="-3.234515">
        <ele>595.2</ele>
        <time>2011-04-10T14:53:47Z</time>
      </trkpt>
      <trkpt lat="43.208946" lon="-3.234465">
        <ele>593.8</ele>
        <time>2011-04-10T14:53:51Z</time>
      </trkpt>
      <trkpt lat="43.208965" lon="-3.234417">
        <ele>597.6</ele>
        <time>2011-04-10T14:53:55Z</time>
      </trkpt>
      <trkpt lat="43.209017" lon="-3.234175">
        <ele>599.0</ele>
        <time>2011-04-10T14:54:13Z</time>
      </trkpt>
      <trkpt lat="43.209026" lon="-3.234106">
        <ele>599.5</ele>
        <time>2011-04-10T14:54:18Z</time>
      </trkpt>
      <trkpt lat="43.209059" lon="-3.233758">
        <ele>600.5</ele>
        <time>2011-04-10T14:54:37Z</time>
      </trkpt>
      <trkpt lat="43.208977" lon="-3.233269">
        <ele>598.6</ele>
        <time>2011-04-10T14:55:00Z</time>
      </trkpt>
      <trkpt lat="43.208950" lon="-3.233163">
        <ele>597.1</ele>
        <time>2011-04-10T14:55:05Z</time>
      </trkpt>
      <trkpt lat="43.208912" lon="-3.233010">
        <ele>594.7</ele>
        <time>2011-04-10T14:55:12Z</time>
      </trkpt>
      <trkpt lat="43.208858" lon="-3.232831">
        <ele>592.8</ele>
        <time>2011-04-10T14:55:20Z</time>
      </trkpt>
      <trkpt lat="43.208839" lon="-3.232765">
        <ele>595.7</ele>
        <time>2011-04-10T14:55:23Z</time>
      </trkpt>
      <trkpt lat="43.208767" lon="-3.232473">
        <ele>592.8</ele>
        <time>2011-04-10T14:55:37Z</time>
      </trkpt>
      <trkpt lat="43.208733" lon="-3.232124">
        <ele>589.9</ele>
        <time>2011-04-10T14:55:53Z</time>
      </trkpt>
      <trkpt lat="43.208709" lon="-3.231574">
        <ele>588.0</ele>
        <time>2011-04-10T14:56:18Z</time>
      </trkpt>
      <trkpt lat="43.208682" lon="-3.231092">
        <ele>588.9</ele>
        <time>2011-04-10T14:56:42Z</time>
      </trkpt>
      <trkpt lat="43.208718" lon="-3.230577">
        <ele>589.9</ele>
        <time>2011-04-10T14:57:08Z</time>
      </trkpt>
      <trkpt lat="43.208841" lon="-3.230353">
        <ele>591.8</ele>
        <time>2011-04-10T14:57:23Z</time>
      </trkpt>
      <trkpt lat="43.208960" lon="-3.230124">
        <ele>591.8</ele>
        <time>2011-04-10T14:57:38Z</time>
      </trkpt>
      <trkpt lat="43.208986" lon="-3.230056">
        <ele>591.8</ele>
        <time>2011-04-10T14:57:42Z</time>
      </trkpt>
      <trkpt lat="43.209188" lon="-3.229754">
        <ele>593.8</ele>
        <time>2011-04-10T14:58:05Z</time>
      </trkpt>
      <trkpt lat="43.209285" lon="-3.229624">
        <ele>597.6</ele>
        <time>2011-04-10T14:58:18Z</time>
      </trkpt>
      <trkpt lat="43.209362" lon="-3.229507">
        <ele>601.0</ele>
        <time>2011-04-10T14:58:32Z</time>
      </trkpt>
      <trkpt lat="43.209516" lon="-3.229277">
        <ele>602.9</ele>
        <time>2011-04-10T14:58:52Z</time>
      </trkpt>
      <trkpt lat="43.209674" lon="-3.228995">
        <ele>604.8</ele>
        <time>2011-04-10T14:59:12Z</time>
      </trkpt>
      <trkpt lat="43.209710" lon="-3.228960">
        <ele>603.8</ele>
        <time>2011-04-10T14:59:15Z</time>
      </trkpt>
      <trkpt lat="43.209741" lon="-3.228907">
        <ele>601.9</ele>
        <time>2011-04-10T14:59:19Z</time>
      </trkpt>
      <trkpt lat="43.209810" lon="-3.228823">
        <ele>599.0</ele>
        <time>2011-04-10T14:59:26Z</time>
      </trkpt>
      <trkpt lat="43.209845" lon="-3.228735">
        <ele>597.1</ele>
        <time>2011-04-10T14:59:31Z</time>
      </trkpt>
      <trkpt lat="43.209873" lon="-3.228677">
        <ele>595.2</ele>
        <time>2011-04-10T14:59:34Z</time>
      </trkpt>
      <trkpt lat="43.210017" lon="-3.228345">
        <ele>595.2</ele>
        <time>2011-04-10T14:59:53Z</time>
      </trkpt>
      <trkpt lat="43.210133" lon="-3.228142">
        <ele>591.8</ele>
        <time>2011-04-10T15:00:06Z</time>
      </trkpt>
      <trkpt lat="43.210391" lon="-3.227849">
        <ele>588.9</ele>
        <time>2011-04-10T15:00:27Z</time>
      </trkpt>
      <trkpt lat="43.210650" lon="-3.227607">
        <ele>592.8</ele>
        <time>2011-04-10T15:00:52Z</time>
      </trkpt>
      <trkpt lat="43.210686" lon="-3.227590">
        <ele>594.2</ele>
        <time>2011-04-10T15:00:55Z</time>
      </trkpt>
      <trkpt lat="43.210751" lon="-3.227547">
        <ele>597.6</ele>
        <time>2011-04-10T15:01:02Z</time>
      </trkpt>
      <trkpt lat="43.210759" lon="-3.227542">
        <ele>597.1</ele>
        <time>2011-04-10T15:01:03Z</time>
      </trkpt>
      <trkpt lat="43.210894" lon="-3.227459">
        <ele>595.7</ele>
        <time>2011-04-10T15:01:20Z</time>
      </trkpt>
      <trkpt lat="43.210913" lon="-3.227460">
        <ele>595.2</ele>
        <time>2011-04-10T15:01:22Z</time>
      </trkpt>
      <trkpt lat="43.210995" lon="-3.227455">
        <ele>592.3</ele>
        <time>2011-04-10T15:01:30Z</time>
      </trkpt>
      <trkpt lat="43.211010" lon="-3.227450">
        <ele>591.3</ele>
        <time>2011-04-10T15:01:32Z</time>
      </trkpt>
      <trkpt lat="43.211096" lon="-3.227426">
        <ele>588.0</ele>
        <time>2011-04-10T15:01:44Z</time>
      </trkpt>
      <trkpt lat="43.211146" lon="-3.227406">
        <ele>585.1</ele>
        <time>2011-04-10T15:01:49Z</time>
      </trkpt>
      <trkpt lat="43.211157" lon="-3.227402">
        <ele>585.1</ele>
        <time>2011-04-10T15:01:50Z</time>
      </trkpt>
      <trkpt lat="43.211188" lon="-3.227388">
        <ele>587.5</ele>
        <time>2011-04-10T15:01:53Z</time>
      </trkpt>
      <trkpt lat="43.211226" lon="-3.227371">
        <ele>585.1</ele>
        <time>2011-04-10T15:01:57Z</time>
      </trkpt>
      <trkpt lat="43.211333" lon="-3.227328">
        <ele>580.3</ele>
        <time>2011-04-10T15:02:08Z</time>
      </trkpt>
      <trkpt lat="43.211405" lon="-3.227275">
        <ele>577.4</ele>
        <time>2011-04-10T15:02:19Z</time>
      </trkpt>
      <trkpt lat="43.211428" lon="-3.227270">
        <ele>576.0</ele>
        <time>2011-04-10T15:02:22Z</time>
      </trkpt>
      <trkpt lat="43.211462" lon="-3.227255">
        <ele>573.1</ele>
        <time>2011-04-10T15:02:26Z</time>
      </trkpt>
      <trkpt lat="43.211467" lon="-3.227252">
        <ele>573.1</ele>
        <time>2011-04-10T15:02:27Z</time>
      </trkpt>
      <trkpt lat="43.211542" lon="-3.227182">
        <ele>570.7</ele>
        <time>2011-04-10T15:02:41Z</time>
      </trkpt>
      <trkpt lat="43.211550" lon="-3.227177">
        <ele>570.7</ele>
        <time>2011-04-10T15:02:42Z</time>
      </trkpt>
      <trkpt lat="43.211609" lon="-3.227132">
        <ele>567.3</ele>
        <time>2011-04-10T15:02:50Z</time>
      </trkpt>
      <trkpt lat="43.211692" lon="-3.227072">
        <ele>564.4</ele>
        <time>2011-04-10T15:03:01Z</time>
      </trkpt>
      <trkpt lat="43.211725" lon="-3.227062">
        <ele>563.0</ele>
        <time>2011-04-10T15:03:04Z</time>
      </trkpt>
      <trkpt lat="43.211770" lon="-3.227049">
        <ele>561.5</ele>
        <time>2011-04-10T15:03:07Z</time>
      </trkpt>
      <trkpt lat="43.212055" lon="-3.226902">
        <ele>559.6</ele>
        <time>2011-04-10T15:03:29Z</time>
      </trkpt>
      <trkpt lat="43.212123" lon="-3.226900">
        <ele>556.3</ele>
        <time>2011-04-10T15:03:39Z</time>
      </trkpt>
      <trkpt lat="43.212196" lon="-3.226868">
        <ele>553.9</ele>
        <time>2011-04-10T15:03:48Z</time>
      </trkpt>
      <trkpt lat="43.212222" lon="-3.226834">
        <ele>553.4</ele>
        <time>2011-04-10T15:03:52Z</time>
      </trkpt>
      <trkpt lat="43.212297" lon="-3.226787">
        <ele>551.0</ele>
        <time>2011-04-10T15:03:59Z</time>
      </trkpt>
      <trkpt lat="43.212538" lon="-3.226716">
        <ele>548.1</ele>
        <time>2011-04-10T15:04:15Z</time>
      </trkpt>
      <trkpt lat="43.212622" lon="-3.226685">
        <ele>545.2</ele>
        <time>2011-04-10T15:04:21Z</time>
      </trkpt>
      <trkpt lat="43.212636" lon="-3.226678">
        <ele>544.7</ele>
        <time>2011-04-10T15:04:22Z</time>
      </trkpt>
      <trkpt lat="43.212657" lon="-3.226657">
        <ele>543.8</ele>
        <time>2011-04-10T15:04:24Z</time>
      </trkpt>
      <trkpt lat="43.212702" lon="-3.226640">
        <ele>542.8</ele>
        <time>2011-04-10T15:04:27Z</time>
      </trkpt>
      <trkpt lat="43.212865" lon="-3.226562">
        <ele>539.9</ele>
        <time>2011-04-10T15:04:37Z</time>
      </trkpt>
      <trkpt lat="43.212879" lon="-3.226554">
        <ele>540.4</ele>
        <time>2011-04-10T15:04:38Z</time>
      </trkpt>
      <trkpt lat="43.213014" lon="-3.226452">
        <ele>537.0</ele>
        <time>2011-04-10T15:04:48Z</time>
      </trkpt>
      <trkpt lat="43.213077" lon="-3.226390">
        <ele>537.0</ele>
        <time>2011-04-10T15:04:53Z</time>
      </trkpt>
      <trkpt lat="43.213290" lon="-3.226310">
        <ele>533.7</ele>
        <time>2011-04-10T15:05:08Z</time>
      </trkpt>
      <trkpt lat="43.213469" lon="-3.226222">
        <ele>531.7</ele>
        <time>2011-04-10T15:05:23Z</time>
      </trkpt>
      <trkpt lat="43.213482" lon="-3.226184">
        <ele>531.3</ele>
        <time>2011-04-10T15:05:39Z</time>
      </trkpt>
      <trkpt lat="43.213487" lon="-3.226177">
        <ele>531.3</ele>
        <time>2011-04-10T15:05:42Z</time>
      </trkpt>
      <trkpt lat="43.213532" lon="-3.226159">
        <ele>531.7</ele>
        <time>2011-04-10T15:05:47Z</time>
      </trkpt>
      <trkpt lat="43.213755" lon="-3.226047">
        <ele>533.2</ele>
        <time>2011-04-10T15:06:04Z</time>
      </trkpt>
      <trkpt lat="43.214029" lon="-3.225946">
        <ele>533.2</ele>
        <time>2011-04-10T15:06:23Z</time>
      </trkpt>
      <trkpt lat="43.214171" lon="-3.225858">
        <ele>532.7</ele>
        <time>2011-04-10T15:06:35Z</time>
      </trkpt>
      <trkpt lat="43.214214" lon="-3.225869">
        <ele>533.2</ele>
        <time>2011-04-10T15:06:39Z</time>
      </trkpt>
      <trkpt lat="43.214466" lon="-3.225720">
        <ele>534.6</ele>
        <time>2011-04-10T15:06:59Z</time>
      </trkpt>
      <trkpt lat="43.214604" lon="-3.225494">
        <ele>537.5</ele>
        <time>2011-04-10T15:07:19Z</time>
      </trkpt>
      <trkpt lat="43.214635" lon="-3.225435">
        <ele>539.4</ele>
        <time>2011-04-10T15:07:25Z</time>
      </trkpt>
      <trkpt lat="43.214707" lon="-3.225293">
        <ele>542.8</ele>
        <time>2011-04-10T15:07:40Z</time>
      </trkpt>
      <trkpt lat="43.214755" lon="-3.225222">
        <ele>545.7</ele>
        <time>2011-04-10T15:07:49Z</time>
      </trkpt>
      <trkpt lat="43.214841" lon="-3.225046">
        <ele>547.1</ele>
        <time>2011-04-10T15:08:06Z</time>
      </trkpt>
      <trkpt lat="43.214933" lon="-3.224910">
        <ele>550.0</ele>
        <time>2011-04-10T15:08:21Z</time>
      </trkpt>
      <trkpt lat="43.214940" lon="-3.224901">
        <ele>550.0</ele>
        <time>2011-04-10T15:08:22Z</time>
      </trkpt>
      <trkpt lat="43.214962" lon="-3.224874">
        <ele>551.0</ele>
        <time>2011-04-10T15:08:25Z</time>
      </trkpt>
      <trkpt lat="43.215051" lon="-3.224765">
        <ele>554.8</ele>
        <time>2011-04-10T15:08:38Z</time>
      </trkpt>
      <trkpt lat="43.215077" lon="-3.224730">
        <ele>553.9</ele>
        <time>2011-04-10T15:08:42Z</time>
      </trkpt>
      <trkpt lat="43.215163" lon="-3.224582">
        <ele>557.2</ele>
        <time>2011-04-10T15:08:55Z</time>
      </trkpt>
      <trkpt lat="43.215235" lon="-3.224441">
        <ele>560.6</ele>
        <time>2011-04-10T15:09:09Z</time>
      </trkpt>
      <trkpt lat="43.215302" lon="-3.224304">
        <ele>564.4</ele>
        <time>2011-04-10T15:09:23Z</time>
      </trkpt>
      <trkpt lat="43.215329" lon="-3.224275">
        <ele>564.4</ele>
        <time>2011-04-10T15:09:27Z</time>
      </trkpt>
      <trkpt lat="43.215390" lon="-3.224166">
        <ele>567.3</ele>
        <time>2011-04-10T15:09:37Z</time>
      </trkpt>
      <trkpt lat="43.215397" lon="-3.224160">
        <ele>567.3</ele>
        <time>2011-04-10T15:09:38Z</time>
      </trkpt>
      <trkpt lat="43.215421" lon="-3.224121">
        <ele>567.8</ele>
        <time>2011-04-10T15:09:43Z</time>
      </trkpt>
      <trkpt lat="43.215477" lon="-3.224039">
        <ele>563.5</ele>
        <time>2011-04-10T15:09:51Z</time>
      </trkpt>
      <trkpt lat="43.215485" lon="-3.224028">
        <ele>571.6</ele>
        <time>2011-04-10T15:09:52Z</time>
      </trkpt>
      <trkpt lat="43.215493" lon="-3.224017">
        <ele>568.3</ele>
        <time>2011-04-10T15:09:53Z</time>
      </trkpt>
      <trkpt lat="43.215557" lon="-3.223927">
        <ele>571.6</ele>
        <time>2011-04-10T15:10:03Z</time>
      </trkpt>
      <trkpt lat="43.215655" lon="-3.223817">
        <ele>574.5</ele>
        <time>2011-04-10T15:10:16Z</time>
      </trkpt>
      <trkpt lat="43.215766" lon="-3.223650">
        <ele>577.9</ele>
        <time>2011-04-10T15:10:34Z</time>
      </trkpt>
      <trkpt lat="43.215789" lon="-3.223597">
        <ele>579.8</ele>
        <time>2011-04-10T15:10:39Z</time>
      </trkpt>
      <trkpt lat="43.215840" lon="-3.223518">
        <ele>581.3</ele>
        <time>2011-04-10T15:10:48Z</time>
      </trkpt>
      <trkpt lat="43.215846" lon="-3.223507">
        <ele>581.3</ele>
        <time>2011-04-10T15:10:49Z</time>
      </trkpt>
      <trkpt lat="43.215969" lon="-3.223314">
        <ele>584.6</ele>
        <time>2011-04-10T15:11:07Z</time>
      </trkpt>
      <trkpt lat="43.216098" lon="-3.223141">
        <ele>586.5</ele>
        <time>2011-04-10T15:11:23Z</time>
      </trkpt>
      <trkpt lat="43.216240" lon="-3.222937">
        <ele>588.9</ele>
        <time>2011-04-10T15:11:42Z</time>
      </trkpt>
      <trkpt lat="43.216294" lon="-3.222809">
        <ele>590.9</ele>
        <time>2011-04-10T15:11:53Z</time>
      </trkpt>
      <trkpt lat="43.216299" lon="-3.222798">
        <ele>590.9</ele>
        <time>2011-04-10T15:11:54Z</time>
      </trkpt>
      <trkpt lat="43.216420" lon="-3.222444">
        <ele>593.3</ele>
        <time>2011-04-10T15:12:17Z</time>
      </trkpt>
      <trkpt lat="43.216532" lon="-3.222257">
        <ele>595.7</ele>
        <time>2011-04-10T15:12:33Z</time>
      </trkpt>
      <trkpt lat="43.216703" lon="-3.222131">
        <ele>599.0</ele>
        <time>2011-04-10T15:12:50Z</time>
      </trkpt>
      <trkpt lat="43.216844" lon="-3.221916">
        <ele>601.4</ele>
        <time>2011-04-10T15:13:09Z</time>
      </trkpt>
      <trkpt lat="43.216995" lon="-3.221678">
        <ele>604.3</ele>
        <time>2011-04-10T15:13:29Z</time>
      </trkpt>
      <trkpt lat="43.217048" lon="-3.221600">
        <ele>604.8</ele>
        <time>2011-04-10T15:13:36Z</time>
      </trkpt>
      <trkpt lat="43.217157" lon="-3.221336">
        <ele>606.2</ele>
        <time>2011-04-10T15:13:54Z</time>
      </trkpt>
      <trkpt lat="43.217190" lon="-3.220950">
        <ele>609.1</ele>
        <time>2011-04-10T15:14:16Z</time>
      </trkpt>
      <trkpt lat="43.217243" lon="-3.220510">
        <ele>611.5</ele>
        <time>2011-04-10T15:14:40Z</time>
      </trkpt>
      <trkpt lat="43.217306" lon="-3.220229">
        <ele>614.4</ele>
        <time>2011-04-10T15:14:56Z</time>
      </trkpt>
      <trkpt lat="43.217388" lon="-3.219829">
        <ele>615.4</ele>
        <time>2011-04-10T15:15:18Z</time>
      </trkpt>
      <trkpt lat="43.217479" lon="-3.219335">
        <ele>617.3</ele>
        <time>2011-04-10T15:15:44Z</time>
      </trkpt>
      <trkpt lat="43.217585" lon="-3.218822">
        <ele>620.2</ele>
        <time>2011-04-10T15:16:11Z</time>
      </trkpt>
      <trkpt lat="43.217656" lon="-3.218483">
        <ele>623.1</ele>
        <time>2011-04-10T15:16:30Z</time>
      </trkpt>
      <trkpt lat="43.217660" lon="-3.218465">
        <ele>623.1</ele>
        <time>2011-04-10T15:16:31Z</time>
      </trkpt>
      <trkpt lat="43.217743" lon="-3.218012">
        <ele>623.6</ele>
        <time>2011-04-10T15:16:56Z</time>
      </trkpt>
      <trkpt lat="43.217798" lon="-3.217722">
        <ele>626.9</ele>
        <time>2011-04-10T15:17:14Z</time>
      </trkpt>
      <trkpt lat="43.217848" lon="-3.217441">
        <ele>628.8</ele>
        <time>2011-04-10T15:17:32Z</time>
      </trkpt>
      <trkpt lat="43.217928" lon="-3.217049">
        <ele>631.2</ele>
        <time>2011-04-10T15:17:56Z</time>
      </trkpt>
      <trkpt lat="43.217991" lon="-3.216745">
        <ele>634.1</ele>
        <time>2011-04-10T15:18:14Z</time>
      </trkpt>
      <trkpt lat="43.218061" lon="-3.216313">
        <ele>636.0</ele>
        <time>2011-04-10T15:18:39Z</time>
      </trkpt>
      <trkpt lat="43.218142" lon="-3.215866">
        <ele>635.1</ele>
        <time>2011-04-10T15:19:01Z</time>
      </trkpt>
      <trkpt lat="43.218197" lon="-3.215479">
        <ele>634.1</ele>
        <time>2011-04-10T15:19:20Z</time>
      </trkpt>
      <trkpt lat="43.218254" lon="-3.215071">
        <ele>634.1</ele>
        <time>2011-04-10T15:19:42Z</time>
      </trkpt>
      <trkpt lat="43.218301" lon="-3.214765">
        <ele>637.5</ele>
        <time>2011-04-10T15:20:00Z</time>
      </trkpt>
      <trkpt lat="43.218359" lon="-3.214485">
        <ele>640.9</ele>
        <time>2011-04-10T15:20:19Z</time>
      </trkpt>
      <trkpt lat="43.218407" lon="-3.214152">
        <ele>641.3</ele>
        <time>2011-04-10T15:20:38Z</time>
      </trkpt>
      <trkpt lat="43.218433" lon="-3.213753">
        <ele>639.4</ele>
        <time>2011-04-10T15:20:59Z</time>
      </trkpt>
      <trkpt lat="43.218420" lon="-3.213548">
        <ele>642.8</ele>
        <time>2011-04-10T15:21:11Z</time>
      </trkpt>
      <trkpt lat="43.218353" lon="-3.213242">
        <ele>644.7</ele>
        <time>2011-04-10T15:21:29Z</time>
      </trkpt>
      <trkpt lat="43.218369" lon="-3.212944">
        <ele>646.1</ele>
        <time>2011-04-10T15:21:47Z</time>
      </trkpt>
      <trkpt lat="43.218389" lon="-3.212845">
        <ele>647.6</ele>
        <time>2011-04-10T15:21:53Z</time>
      </trkpt>
      <trkpt lat="43.218426" lon="-3.212523">
        <ele>650.5</ele>
        <time>2011-04-10T15:22:13Z</time>
      </trkpt>
      <trkpt lat="43.218458" lon="-3.212364">
        <ele>650.0</ele>
        <time>2011-04-10T15:22:22Z</time>
      </trkpt>
      <trkpt lat="43.218459" lon="-3.212276">
        <ele>650.5</ele>
        <time>2011-04-10T15:22:27Z</time>
      </trkpt>
      <trkpt lat="43.218449" lon="-3.211906">
        <ele>652.9</ele>
        <time>2011-04-10T15:22:50Z</time>
      </trkpt>
      <trkpt lat="43.218462" lon="-3.211778">
        <ele>655.3</ele>
        <time>2011-04-10T15:22:59Z</time>
      </trkpt>
      <trkpt lat="43.218476" lon="-3.211616">
        <ele>658.2</ele>
        <time>2011-04-10T15:23:09Z</time>
      </trkpt>
      <trkpt lat="43.218473" lon="-3.211247">
        <ele>660.6</ele>
        <time>2011-04-10T15:23:31Z</time>
      </trkpt>
      <trkpt lat="43.218483" lon="-3.211156">
        <ele>661.0</ele>
        <time>2011-04-10T15:23:37Z</time>
      </trkpt>
      <trkpt lat="43.218462" lon="-3.210810">
        <ele>663.4</ele>
        <time>2011-04-10T15:23:58Z</time>
      </trkpt>
      <trkpt lat="43.218470" lon="-3.210488">
        <ele>665.9</ele>
        <time>2011-04-10T15:24:17Z</time>
      </trkpt>
      <trkpt lat="43.218477" lon="-3.210113">
        <ele>668.7</ele>
        <time>2011-04-10T15:24:39Z</time>
      </trkpt>
      <trkpt lat="43.218437" lon="-3.209803">
        <ele>668.3</ele>
        <time>2011-04-10T15:24:56Z</time>
      </trkpt>
      <trkpt lat="43.218408" lon="-3.209426">
        <ele>667.8</ele>
        <time>2011-04-10T15:25:16Z</time>
      </trkpt>
      <trkpt lat="43.218361" lon="-3.209095">
        <ele>667.8</ele>
        <time>2011-04-10T15:25:35Z</time>
      </trkpt>
      <trkpt lat="43.218328" lon="-3.208817">
        <ele>669.2</ele>
        <time>2011-04-10T15:25:51Z</time>
      </trkpt>
      <trkpt lat="43.218333" lon="-3.208730">
        <ele>670.7</ele>
        <time>2011-04-10T15:25:56Z</time>
      </trkpt>
      <trkpt lat="43.218314" lon="-3.208401">
        <ele>671.1</ele>
        <time>2011-04-10T15:26:15Z</time>
      </trkpt>
      <trkpt lat="43.218226" lon="-3.208106">
        <ele>672.1</ele>
        <time>2011-04-10T15:26:35Z</time>
      </trkpt>
      <trkpt lat="43.218194" lon="-3.208045">
        <ele>672.6</ele>
        <time>2011-04-10T15:26:40Z</time>
      </trkpt>
      <trkpt lat="43.218153" lon="-3.207893">
        <ele>673.1</ele>
        <time>2011-04-10T15:26:50Z</time>
      </trkpt>
      <trkpt lat="43.218161" lon="-3.207830">
        <ele>674.5</ele>
        <time>2011-04-10T15:26:54Z</time>
      </trkpt>
      <trkpt lat="43.218241" lon="-3.207612">
        <ele>673.5</ele>
        <time>2011-04-10T15:27:07Z</time>
      </trkpt>
      <trkpt lat="43.218392" lon="-3.207393">
        <ele>672.6</ele>
        <time>2011-04-10T15:27:24Z</time>
      </trkpt>
      <trkpt lat="43.218459" lon="-3.207352">
        <ele>669.7</ele>
        <time>2011-04-10T15:27:31Z</time>
      </trkpt>
      <trkpt lat="43.218562" lon="-3.207139">
        <ele>666.8</ele>
        <time>2011-04-10T15:27:47Z</time>
      </trkpt>
      <trkpt lat="43.218643" lon="-3.206869">
        <ele>664.9</ele>
        <time>2011-04-10T15:28:02Z</time>
      </trkpt>
      <trkpt lat="43.218631" lon="-3.206628">
        <ele>666.3</ele>
        <time>2011-04-10T15:28:16Z</time>
      </trkpt>
      <trkpt lat="43.218661" lon="-3.206531">
        <ele>665.4</ele>
        <time>2011-04-10T15:28:23Z</time>
      </trkpt>
      <trkpt lat="43.218664" lon="-3.206201">
        <ele>667.8</ele>
        <time>2011-04-10T15:28:42Z</time>
      </trkpt>
      <trkpt lat="43.218696" lon="-3.205871">
        <ele>667.8</ele>
        <time>2011-04-10T15:29:01Z</time>
      </trkpt>
      <trkpt lat="43.218733" lon="-3.205625">
        <ele>668.3</ele>
        <time>2011-04-10T15:29:15Z</time>
      </trkpt>
      <trkpt lat="43.218742" lon="-3.205581">
        <ele>666.8</ele>
        <time>2011-04-10T15:29:18Z</time>
      </trkpt>
      <trkpt lat="43.218753" lon="-3.205517">
        <ele>667.8</ele>
        <time>2011-04-10T15:29:22Z</time>
      </trkpt>
      <trkpt lat="43.218841" lon="-3.205196">
        <ele>670.2</ele>
        <time>2011-04-10T15:29:42Z</time>
      </trkpt>
      <trkpt lat="43.218876" lon="-3.204918">
        <ele>672.1</ele>
        <time>2011-04-10T15:29:59Z</time>
      </trkpt>
      <trkpt lat="43.218916" lon="-3.204643">
        <ele>675.0</ele>
        <time>2011-04-10T15:30:17Z</time>
      </trkpt>
      <trkpt lat="43.218965" lon="-3.204346">
        <ele>676.9</ele>
        <time>2011-04-10T15:30:35Z</time>
      </trkpt>
      <trkpt lat="43.219040" lon="-3.204033">
        <ele>678.8</ele>
        <time>2011-04-10T15:30:54Z</time>
      </trkpt>
      <trkpt lat="43.219072" lon="-3.203858">
        <ele>677.9</ele>
        <time>2011-04-10T15:31:03Z</time>
      </trkpt>
      <trkpt lat="43.219134" lon="-3.203715">
        <ele>675.0</ele>
        <time>2011-04-10T15:31:12Z</time>
      </trkpt>
      <trkpt lat="43.219202" lon="-3.203462">
        <ele>671.1</ele>
        <time>2011-04-10T15:31:25Z</time>
      </trkpt>
      <trkpt lat="43.219203" lon="-3.203100">
        <ele>672.1</ele>
        <time>2011-04-10T15:31:43Z</time>
      </trkpt>
      <trkpt lat="43.219113" lon="-3.202752">
        <ele>671.6</ele>
        <time>2011-04-10T15:32:00Z</time>
      </trkpt>
      <trkpt lat="43.219051" lon="-3.202339">
        <ele>671.1</ele>
        <time>2011-04-10T15:32:19Z</time>
      </trkpt>
      <trkpt lat="43.219041" lon="-3.202080">
        <ele>674.5</ele>
        <time>2011-04-10T15:32:32Z</time>
      </trkpt>
      <trkpt lat="43.218989" lon="-3.201759">
        <ele>677.4</ele>
        <time>2011-04-10T15:32:50Z</time>
      </trkpt>
      <trkpt lat="43.218929" lon="-3.201386">
        <ele>679.3</ele>
        <time>2011-04-10T15:33:12Z</time>
      </trkpt>
      <trkpt lat="43.218904" lon="-3.201118">
        <ele>682.2</ele>
        <time>2011-04-10T15:33:27Z</time>
      </trkpt>
      <trkpt lat="43.218866" lon="-3.200784">
        <ele>685.6</ele>
        <time>2011-04-10T15:33:47Z</time>
      </trkpt>
      <trkpt lat="43.218858" lon="-3.200584">
        <ele>688.9</ele>
        <time>2011-04-10T15:34:01Z</time>
      </trkpt>
      <trkpt lat="43.218856" lon="-3.200505">
        <ele>689.9</ele>
        <time>2011-04-10T15:34:07Z</time>
      </trkpt>
      <trkpt lat="43.218834" lon="-3.200393">
        <ele>691.8</ele>
        <time>2011-04-10T15:34:16Z</time>
      </trkpt>
      <trkpt lat="43.218832" lon="-3.200286">
        <ele>695.2</ele>
        <time>2011-04-10T15:34:24Z</time>
      </trkpt>
      <trkpt lat="43.218836" lon="-3.200094">
        <ele>698.5</ele>
        <time>2011-04-10T15:34:41Z</time>
      </trkpt>
      <trkpt lat="43.218853" lon="-3.199957">
        <ele>701.9</ele>
        <time>2011-04-10T15:34:53Z</time>
      </trkpt>
      <trkpt lat="43.218866" lon="-3.199768">
        <ele>704.8</ele>
        <time>2011-04-10T15:35:09Z</time>
      </trkpt>
      <trkpt lat="43.218827" lon="-3.199447">
        <ele>706.7</ele>
        <time>2011-04-10T15:35:30Z</time>
      </trkpt>
      <trkpt lat="43.218725" lon="-3.199094">
        <ele>709.1</ele>
        <time>2011-04-10T15:35:51Z</time>
      </trkpt>
      <trkpt lat="43.218670" lon="-3.198897">
        <ele>712.0</ele>
        <time>2011-04-10T15:36:03Z</time>
      </trkpt>
      <trkpt lat="43.218556" lon="-3.198541">
        <ele>713.9</ele>
        <time>2011-04-10T15:36:25Z</time>
      </trkpt>
      <trkpt lat="43.218382" lon="-3.198295">
        <ele>713.9</ele>
        <time>2011-04-10T15:36:44Z</time>
      </trkpt>
      <trkpt lat="43.218237" lon="-3.198241">
        <ele>710.6</ele>
        <time>2011-04-10T15:36:54Z</time>
      </trkpt>
      <trkpt lat="43.218089" lon="-3.198158">
        <ele>707.2</ele>
        <time>2011-04-10T15:37:05Z</time>
      </trkpt>
      <trkpt lat="43.217895" lon="-3.198030">
        <ele>705.7</ele>
        <time>2011-04-10T15:37:19Z</time>
      </trkpt>
      <trkpt lat="43.217651" lon="-3.197853">
        <ele>704.3</ele>
        <time>2011-04-10T15:37:37Z</time>
      </trkpt>
      <trkpt lat="43.217399" lon="-3.197620">
        <ele>703.8</ele>
        <time>2011-04-10T15:37:57Z</time>
      </trkpt>
      <trkpt lat="43.217083" lon="-3.197259">
        <ele>700.0</ele>
        <time>2011-04-10T15:38:24Z</time>
      </trkpt>
      <trkpt lat="43.216793" lon="-3.196921">
        <ele>699.5</ele>
        <time>2011-04-10T15:38:48Z</time>
      </trkpt>
      <trkpt lat="43.216584" lon="-3.196620">
        <ele>700.0</ele>
        <time>2011-04-10T15:39:09Z</time>
      </trkpt>
      <trkpt lat="43.216413" lon="-3.196308">
        <ele>699.5</ele>
        <time>2011-04-10T15:39:29Z</time>
      </trkpt>
      <trkpt lat="43.216325" lon="-3.196088">
        <ele>696.6</ele>
        <time>2011-04-10T15:39:40Z</time>
      </trkpt>
      <trkpt lat="43.216047" lon="-3.195819">
        <ele>698.1</ele>
        <time>2011-04-10T15:40:02Z</time>
      </trkpt>
      <trkpt lat="43.215772" lon="-3.195597">
        <ele>700.5</ele>
        <time>2011-04-10T15:40:25Z</time>
      </trkpt>
      <trkpt lat="43.215659" lon="-3.195341">
        <ele>703.8</ele>
        <time>2011-04-10T15:40:42Z</time>
      </trkpt>
      <trkpt lat="43.215544" lon="-3.195122">
        <ele>706.7</ele>
        <time>2011-04-10T15:40:59Z</time>
      </trkpt>
      <trkpt lat="43.215505" lon="-3.194849">
        <ele>709.1</ele>
        <time>2011-04-10T15:41:17Z</time>
      </trkpt>
      <trkpt lat="43.215415" lon="-3.194540">
        <ele>711.5</ele>
        <time>2011-04-10T15:41:36Z</time>
      </trkpt>
      <trkpt lat="43.215454" lon="-3.194271">
        <ele>714.9</ele>
        <time>2011-04-10T15:41:53Z</time>
      </trkpt>
      <trkpt lat="43.215462" lon="-3.194245">
        <ele>715.8</ele>
        <time>2011-04-10T15:41:55Z</time>
      </trkpt>
      <trkpt lat="43.215485" lon="-3.194204">
        <ele>715.8</ele>
        <time>2011-04-10T15:41:59Z</time>
      </trkpt>
      <trkpt lat="43.215412" lon="-3.194146">
        <ele>715.4</ele>
        <time>2011-04-10T15:42:09Z</time>
      </trkpt>
      <trkpt lat="43.215386" lon="-3.194169">
        <ele>713.9</ele>
        <time>2011-04-10T15:42:12Z</time>
      </trkpt>
      <trkpt lat="43.215320" lon="-3.194214">
        <ele>710.6</ele>
        <time>2011-04-10T15:42:22Z</time>
      </trkpt>
      <trkpt lat="43.215247" lon="-3.194283">
        <ele>708.1</ele>
        <time>2011-04-10T15:42:34Z</time>
      </trkpt>
      <trkpt lat="43.215196" lon="-3.194433">
        <ele>705.3</ele>
        <time>2011-04-10T15:42:46Z</time>
      </trkpt>
      <trkpt lat="43.215168" lon="-3.194571">
        <ele>702.9</ele>
        <time>2011-04-10T15:42:59Z</time>
      </trkpt>
      <trkpt lat="43.215146" lon="-3.194654">
        <ele>701.9</ele>
        <time>2011-04-10T15:43:04Z</time>
      </trkpt>
      <trkpt lat="43.215171" lon="-3.194863">
        <ele>697.6</ele>
        <time>2011-04-10T15:43:22Z</time>
      </trkpt>
      <trkpt lat="43.215171" lon="-3.194861">
        <ele>705.7</ele>
        <time>2011-04-10T15:43:25Z</time>
      </trkpt>
      <trkpt lat="43.215169" lon="-3.194862">
        <ele>700.5</ele>
        <time>2011-04-10T15:43:26Z</time>
      </trkpt>
      <trkpt lat="43.215143" lon="-3.194862">
        <ele>699.5</ele>
        <time>2011-04-10T15:43:30Z</time>
      </trkpt>
      <trkpt lat="43.215054" lon="-3.194859">
        <ele>696.1</ele>
        <time>2011-04-10T15:43:38Z</time>
      </trkpt>
      <trkpt lat="43.215016" lon="-3.194832">
        <ele>694.2</ele>
        <time>2011-04-10T15:43:42Z</time>
      </trkpt>
      <trkpt lat="43.214981" lon="-3.194842">
        <ele>693.2</ele>
        <time>2011-04-10T15:43:46Z</time>
      </trkpt>
      <trkpt lat="43.214877" lon="-3.194870">
        <ele>690.4</ele>
        <time>2011-04-10T15:43:59Z</time>
      </trkpt>
      <trkpt lat="43.214864" lon="-3.194920">
        <ele>688.9</ele>
        <time>2011-04-10T15:44:03Z</time>
      </trkpt>
      <trkpt lat="43.214788" lon="-3.194982">
        <ele>686.5</ele>
        <time>2011-04-10T15:44:13Z</time>
      </trkpt>
      <trkpt lat="43.214739" lon="-3.195004">
        <ele>684.1</ele>
        <time>2011-04-10T15:44:19Z</time>
      </trkpt>
      <trkpt lat="43.214717" lon="-3.195007">
        <ele>682.7</ele>
        <time>2011-04-10T15:44:22Z</time>
      </trkpt>
      <trkpt lat="43.214604" lon="-3.194951">
        <ele>679.8</ele>
        <time>2011-04-10T15:44:35Z</time>
      </trkpt>
      <trkpt lat="43.214589" lon="-3.194962">
        <ele>678.8</ele>
        <time>2011-04-10T15:44:37Z</time>
      </trkpt>
      <trkpt lat="43.214575" lon="-3.194965">
        <ele>677.9</ele>
        <time>2011-04-10T15:44:39Z</time>
      </trkpt>
      <trkpt lat="43.214535" lon="-3.194973">
        <ele>676.9</ele>
        <time>2011-04-10T15:44:44Z</time>
      </trkpt>
      <trkpt lat="43.214508" lon="-3.195003">
        <ele>675.0</ele>
        <time>2011-04-10T15:44:48Z</time>
      </trkpt>
      <trkpt lat="43.214499" lon="-3.195030">
        <ele>674.0</ele>
        <time>2011-04-10T15:44:51Z</time>
      </trkpt>
      <trkpt lat="43.214491" lon="-3.195106">
        <ele>672.6</ele>
        <time>2011-04-10T15:44:57Z</time>
      </trkpt>
      <trkpt lat="43.214482" lon="-3.195255">
        <ele>671.6</ele>
        <time>2011-04-10T15:45:07Z</time>
      </trkpt>
      <trkpt lat="43.214461" lon="-3.195319">
        <ele>670.7</ele>
        <time>2011-04-10T15:45:12Z</time>
      </trkpt>
      <trkpt lat="43.214473" lon="-3.195426">
        <ele>670.7</ele>
        <time>2011-04-10T15:45:19Z</time>
      </trkpt>
      <trkpt lat="43.214467" lon="-3.195480">
        <ele>670.2</ele>
        <time>2011-04-10T15:45:23Z</time>
      </trkpt>
      <trkpt lat="43.214413" lon="-3.195545">
        <ele>667.8</ele>
        <time>2011-04-10T15:45:33Z</time>
      </trkpt>
      <trkpt lat="43.214394" lon="-3.195638">
        <ele>666.3</ele>
        <time>2011-04-10T15:45:40Z</time>
      </trkpt>
      <trkpt lat="43.214432" lon="-3.195858">
        <ele>665.4</ele>
        <time>2011-04-10T15:45:53Z</time>
      </trkpt>
      <trkpt lat="43.214480" lon="-3.196189">
        <ele>665.9</ele>
        <time>2011-04-10T15:46:12Z</time>
      </trkpt>
      <trkpt lat="43.214517" lon="-3.196517">
        <ele>664.4</ele>
        <time>2011-04-10T15:46:30Z</time>
      </trkpt>
      <trkpt lat="43.214497" lon="-3.196776">
        <ele>662.5</ele>
        <time>2011-04-10T15:46:45Z</time>
      </trkpt>
      <trkpt lat="43.214497" lon="-3.197081">
        <ele>662.0</ele>
        <time>2011-04-10T15:47:02Z</time>
      </trkpt>
      <trkpt lat="43.214512" lon="-3.197321">
        <ele>658.6</ele>
        <time>2011-04-10T15:47:15Z</time>
      </trkpt>
      <trkpt lat="43.214512" lon="-3.197455">
        <ele>655.8</ele>
        <time>2011-04-10T15:47:23Z</time>
      </trkpt>
      <trkpt lat="43.214522" lon="-3.197510">
        <ele>653.8</ele>
        <time>2011-04-10T15:47:27Z</time>
      </trkpt>
      <trkpt lat="43.214465" lon="-3.197650">
        <ele>650.9</ele>
        <time>2011-04-10T15:47:37Z</time>
      </trkpt>
      <trkpt lat="43.214437" lon="-3.197815">
        <ele>648.1</ele>
        <time>2011-04-10T15:47:48Z</time>
      </trkpt>
      <trkpt lat="43.214385" lon="-3.197962">
        <ele>644.7</ele>
        <time>2011-04-10T15:48:02Z</time>
      </trkpt>
      <trkpt lat="43.214374" lon="-3.197981">
        <ele>644.2</ele>
        <time>2011-04-10T15:48:04Z</time>
      </trkpt>
      <trkpt lat="43.214361" lon="-3.198012">
        <ele>644.2</ele>
        <time>2011-04-10T15:48:07Z</time>
      </trkpt>
      <trkpt lat="43.214288" lon="-3.198141">
        <ele>640.4</ele>
        <time>2011-04-10T15:48:19Z</time>
      </trkpt>
      <trkpt lat="43.214265" lon="-3.198188">
        <ele>638.5</ele>
        <time>2011-04-10T15:48:23Z</time>
      </trkpt>
      <trkpt lat="43.214223" lon="-3.198349">
        <ele>635.6</ele>
        <time>2011-04-10T15:48:33Z</time>
      </trkpt>
      <trkpt lat="43.214156" lon="-3.198540">
        <ele>632.7</ele>
        <time>2011-04-10T15:48:48Z</time>
      </trkpt>
      <trkpt lat="43.214117" lon="-3.198663">
        <ele>629.3</ele>
        <time>2011-04-10T15:49:02Z</time>
      </trkpt>
      <trkpt lat="43.214104" lon="-3.198706">
        <ele>628.4</ele>
        <time>2011-04-10T15:49:05Z</time>
      </trkpt>
      <trkpt lat="43.214260" lon="-3.199006">
        <ele>626.0</ele>
        <time>2011-04-10T15:49:24Z</time>
      </trkpt>
      <trkpt lat="43.214554" lon="-3.199137">
        <ele>624.0</ele>
        <time>2011-04-10T15:49:45Z</time>
      </trkpt>
      <trkpt lat="43.214698" lon="-3.199231">
        <ele>621.1</ele>
        <time>2011-04-10T15:49:56Z</time>
      </trkpt>
      <trkpt lat="43.214711" lon="-3.199241">
        <ele>620.7</ele>
        <time>2011-04-10T15:49:57Z</time>
      </trkpt>
      <trkpt lat="43.214977" lon="-3.199613">
        <ele>617.8</ele>
        <time>2011-04-10T15:50:21Z</time>
      </trkpt>
      <trkpt lat="43.215136" lon="-3.199987">
        <ele>614.4</ele>
        <time>2011-04-10T15:50:41Z</time>
      </trkpt>
      <trkpt lat="43.215212" lon="-3.200300">
        <ele>611.1</ele>
        <time>2011-04-10T15:50:57Z</time>
      </trkpt>
      <trkpt lat="43.215340" lon="-3.200671">
        <ele>609.1</ele>
        <time>2011-04-10T15:51:16Z</time>
      </trkpt>
      <trkpt lat="43.215376" lon="-3.201010">
        <ele>607.2</ele>
        <time>2011-04-10T15:51:34Z</time>
      </trkpt>
      <trkpt lat="43.215262" lon="-3.200952">
        <ele>605.3</ele>
        <time>2011-04-10T15:51:44Z</time>
      </trkpt>
      <trkpt lat="43.215207" lon="-3.200804">
        <ele>604.3</ele>
        <time>2011-04-10T15:51:51Z</time>
      </trkpt>
      <trkpt lat="43.215089" lon="-3.200641">
        <ele>601.0</ele>
        <time>2011-04-10T15:52:02Z</time>
      </trkpt>
      <trkpt lat="43.215055" lon="-3.200597">
        <ele>603.8</ele>
        <time>2011-04-10T15:52:05Z</time>
      </trkpt>
      <trkpt lat="43.214912" lon="-3.200482">
        <ele>600.5</ele>
        <time>2011-04-10T15:52:16Z</time>
      </trkpt>
      <trkpt lat="43.214818" lon="-3.200406">
        <ele>594.2</ele>
        <time>2011-04-10T15:52:23Z</time>
      </trkpt>
      <trkpt lat="43.214803" lon="-3.200396">
        <ele>604.8</ele>
        <time>2011-04-10T15:52:24Z</time>
      </trkpt>
      <trkpt lat="43.214788" lon="-3.200387">
        <ele>601.0</ele>
        <time>2011-04-10T15:52:25Z</time>
      </trkpt>
      <trkpt lat="43.214622" lon="-3.200247">
        <ele>597.6</ele>
        <time>2011-04-10T15:52:37Z</time>
      </trkpt>
      <trkpt lat="43.214366" lon="-3.200067">
        <ele>594.2</ele>
        <time>2011-04-10T15:52:55Z</time>
      </trkpt>
      <trkpt lat="43.214106" lon="-3.200029">
        <ele>592.8</ele>
        <time>2011-04-10T15:53:12Z</time>
      </trkpt>
      <trkpt lat="43.214030" lon="-3.200021">
        <ele>587.5</ele>
        <time>2011-04-10T15:53:17Z</time>
      </trkpt>
      <trkpt lat="43.214014" lon="-3.200018">
        <ele>593.8</ele>
        <time>2011-04-10T15:53:18Z</time>
      </trkpt>
      <trkpt lat="43.213785" lon="-3.199975">
        <ele>588.9</ele>
        <time>2011-04-10T15:53:32Z</time>
      </trkpt>
      <trkpt lat="43.213449" lon="-3.199792">
        <ele>586.5</ele>
        <time>2011-04-10T15:53:54Z</time>
      </trkpt>
      <trkpt lat="43.213204" lon="-3.199457">
        <ele>583.2</ele>
        <time>2011-04-10T15:54:15Z</time>
      </trkpt>
      <trkpt lat="43.212948" lon="-3.199189">
        <ele>580.3</ele>
        <time>2011-04-10T15:54:35Z</time>
      </trkpt>
      <trkpt lat="43.212713" lon="-3.198987">
        <ele>578.4</ele>
        <time>2011-04-10T15:54:53Z</time>
      </trkpt>
      <trkpt lat="43.212528" lon="-3.198745">
        <ele>575.0</ele>
        <time>2011-04-10T15:55:10Z</time>
      </trkpt>
      <trkpt lat="43.212521" lon="-3.198706">
        <ele>576.9</ele>
        <time>2011-04-10T15:55:12Z</time>
      </trkpt>
      <trkpt lat="43.212499" lon="-3.198558">
        <ele>573.1</ele>
        <time>2011-04-10T15:55:20Z</time>
      </trkpt>
      <trkpt lat="43.212503" lon="-3.198536">
        <ele>568.3</ele>
        <time>2011-04-10T15:55:21Z</time>
      </trkpt>
      <trkpt lat="43.212505" lon="-3.198512">
        <ele>581.7</ele>
        <time>2011-04-10T15:55:22Z</time>
      </trkpt>
      <trkpt lat="43.212506" lon="-3.198489">
        <ele>574.5</ele>
        <time>2011-04-10T15:55:23Z</time>
      </trkpt>
      <trkpt lat="43.212516" lon="-3.198443">
        <ele>573.6</ele>
        <time>2011-04-10T15:55:25Z</time>
      </trkpt>
      <trkpt lat="43.212555" lon="-3.198157">
        <ele>570.7</ele>
        <time>2011-04-10T15:55:37Z</time>
      </trkpt>
      <trkpt lat="43.212516" lon="-3.197759">
        <ele>567.3</ele>
        <time>2011-04-10T15:55:54Z</time>
      </trkpt>
      <trkpt lat="43.212321" lon="-3.197373">
        <ele>566.4</ele>
        <time>2011-04-10T15:56:14Z</time>
      </trkpt>
      <trkpt lat="43.212198" lon="-3.196895">
        <ele>563.0</ele>
        <time>2011-04-10T15:56:35Z</time>
      </trkpt>
      <trkpt lat="43.212108" lon="-3.196439">
        <ele>560.6</ele>
        <time>2011-04-10T15:56:56Z</time>
      </trkpt>
      <trkpt lat="43.212006" lon="-3.196114">
        <ele>557.7</ele>
        <time>2011-04-10T15:57:13Z</time>
      </trkpt>
      <trkpt lat="43.211847" lon="-3.195682">
        <ele>555.3</ele>
        <time>2011-04-10T15:57:37Z</time>
      </trkpt>
      <trkpt lat="43.211737" lon="-3.195423">
        <ele>551.9</ele>
        <time>2011-04-10T15:57:52Z</time>
      </trkpt>
      <trkpt lat="43.211544" lon="-3.195069">
        <ele>549.1</ele>
        <time>2011-04-10T15:58:13Z</time>
      </trkpt>
      <trkpt lat="43.211411" lon="-3.194793">
        <ele>546.2</ele>
        <time>2011-04-10T15:58:27Z</time>
      </trkpt>
      <trkpt lat="43.211167" lon="-3.194472">
        <ele>544.7</ele>
        <time>2011-04-10T15:58:48Z</time>
      </trkpt>
      <trkpt lat="43.211101" lon="-3.194418">
        <ele>543.3</ele>
        <time>2011-04-10T15:58:55Z</time>
      </trkpt>
      <trkpt lat="43.211106" lon="-3.194646">
        <ele>540.9</ele>
        <time>2011-04-10T15:59:06Z</time>
      </trkpt>
      <trkpt lat="43.211148" lon="-3.194824">
        <ele>539.9</ele>
        <time>2011-04-10T15:59:15Z</time>
      </trkpt>
      <trkpt lat="43.211061" lon="-3.194781">
        <ele>529.3</ele>
        <time>2011-04-10T15:59:23Z</time>
      </trkpt>
      <trkpt lat="43.211041" lon="-3.194751">
        <ele>537.5</ele>
        <time>2011-04-10T15:59:25Z</time>
      </trkpt>
      <trkpt lat="43.211024" lon="-3.194716">
        <ele>536.1</ele>
        <time>2011-04-10T15:59:27Z</time>
      </trkpt>
      <trkpt lat="43.210931" lon="-3.194478">
        <ele>532.7</ele>
        <time>2011-04-10T15:59:40Z</time>
      </trkpt>
      <trkpt lat="43.210830" lon="-3.194184">
        <ele>529.8</ele>
        <time>2011-04-10T15:59:56Z</time>
      </trkpt>
      <trkpt lat="43.210823" lon="-3.194167">
        <ele>529.3</ele>
        <time>2011-04-10T15:59:57Z</time>
      </trkpt>
      <trkpt lat="43.210762" lon="-3.194056">
        <ele>526.9</ele>
        <time>2011-04-10T16:00:07Z</time>
      </trkpt>
      <trkpt lat="43.210662" lon="-3.193937">
        <ele>525.0</ele>
        <time>2011-04-10T16:00:24Z</time>
      </trkpt>
      <trkpt lat="43.210600" lon="-3.193827">
        <ele>522.6</ele>
        <time>2011-04-10T16:01:10Z</time>
      </trkpt>
      <trkpt lat="43.210592" lon="-3.193814">
        <ele>522.1</ele>
        <time>2011-04-10T16:01:11Z</time>
      </trkpt>
      <trkpt lat="43.210531" lon="-3.193707">
        <ele>519.2</ele>
        <time>2011-04-10T16:01:19Z</time>
      </trkpt>
      <trkpt lat="43.210431" lon="-3.193570">
        <ele>515.9</ele>
        <time>2011-04-10T16:01:30Z</time>
      </trkpt>
      <trkpt lat="43.210421" lon="-3.193559">
        <ele>515.9</ele>
        <time>2011-04-10T16:01:31Z</time>
      </trkpt>
      <trkpt lat="43.210213" lon="-3.193388">
        <ele>512.5</ele>
        <time>2011-04-10T16:01:49Z</time>
      </trkpt>
      <trkpt lat="43.210203" lon="-3.193382">
        <ele>512.5</ele>
        <time>2011-04-10T16:01:50Z</time>
      </trkpt>
      <trkpt lat="43.210087" lon="-3.193342">
        <ele>510.6</ele>
        <time>2011-04-10T16:02:03Z</time>
      </trkpt>
      <trkpt lat="43.210076" lon="-3.193332">
        <ele>509.6</ele>
        <time>2011-04-10T16:02:04Z</time>
      </trkpt>
      <trkpt lat="43.209949" lon="-3.193289">
        <ele>506.3</ele>
        <time>2011-04-10T16:02:13Z</time>
      </trkpt>
      <trkpt lat="43.209930" lon="-3.193282">
        <ele>506.3</ele>
        <time>2011-04-10T16:02:14Z</time>
      </trkpt>
      <trkpt lat="43.209813" lon="-3.193221">
        <ele>503.4</ele>
        <time>2011-04-10T16:02:22Z</time>
      </trkpt>
      <trkpt lat="43.209698" lon="-3.193180">
        <ele>501.5</ele>
        <time>2011-04-10T16:02:29Z</time>
      </trkpt>
      <trkpt lat="43.209642" lon="-3.193147">
        <ele>500.0</ele>
        <time>2011-04-10T16:02:33Z</time>
      </trkpt>
      <trkpt lat="43.209628" lon="-3.193138">
        <ele>500.0</ele>
        <time>2011-04-10T16:02:34Z</time>
      </trkpt>
      <trkpt lat="43.209547" lon="-3.193059">
        <ele>498.6</ele>
        <time>2011-04-10T16:02:41Z</time>
      </trkpt>
      <trkpt lat="43.209322" lon="-3.192980">
        <ele>495.7</ele>
        <time>2011-04-10T16:02:54Z</time>
      </trkpt>
      <trkpt lat="43.209035" lon="-3.192929">
        <ele>491.9</ele>
        <time>2011-04-10T16:03:10Z</time>
      </trkpt>
      <trkpt lat="43.208847" lon="-3.192922">
        <ele>489.0</ele>
        <time>2011-04-10T16:03:21Z</time>
      </trkpt>
      <trkpt lat="43.208673" lon="-3.192899">
        <ele>487.0</ele>
        <time>2011-04-10T16:03:33Z</time>
      </trkpt>
      <trkpt lat="43.208636" lon="-3.192919">
        <ele>486.1</ele>
        <time>2011-04-10T16:03:36Z</time>
      </trkpt>
      <trkpt lat="43.208585" lon="-3.192934">
        <ele>484.2</ele>
        <time>2011-04-10T16:03:40Z</time>
      </trkpt>
      <trkpt lat="43.208443" lon="-3.192925">
        <ele>480.8</ele>
        <time>2011-04-10T16:03:51Z</time>
      </trkpt>
      <trkpt lat="43.208430" lon="-3.192923">
        <ele>480.3</ele>
        <time>2011-04-10T16:03:52Z</time>
      </trkpt>
      <trkpt lat="43.208374" lon="-3.192923">
        <ele>478.9</ele>
        <time>2011-04-10T16:03:56Z</time>
      </trkpt>
      <trkpt lat="43.208143" lon="-3.192937">
        <ele>475.0</ele>
        <time>2011-04-10T16:04:11Z</time>
      </trkpt>
      <trkpt lat="43.208031" lon="-3.192930">
        <ele>473.6</ele>
        <time>2011-04-10T16:04:18Z</time>
      </trkpt>
      <trkpt lat="43.207942" lon="-3.192911">
        <ele>472.1</ele>
        <time>2011-04-10T16:04:24Z</time>
      </trkpt>
      <trkpt lat="43.207833" lon="-3.193014">
        <ele>469.3</ele>
        <time>2011-04-10T16:04:32Z</time>
      </trkpt>
      <trkpt lat="43.207831" lon="-3.193159">
        <ele>466.4</ele>
        <time>2011-04-10T16:04:38Z</time>
      </trkpt>
      <trkpt lat="43.207798" lon="-3.193238">
        <ele>466.4</ele>
        <time>2011-04-10T16:04:42Z</time>
      </trkpt>
      <trkpt lat="43.207669" lon="-3.193166">
        <ele>463.5</ele>
        <time>2011-04-10T16:04:51Z</time>
      </trkpt>
      <trkpt lat="43.207455" lon="-3.192866">
        <ele>459.6</ele>
        <time>2011-04-10T16:05:11Z</time>
      </trkpt>
      <trkpt lat="43.207348" lon="-3.192721">
        <ele>456.8</ele>
        <time>2011-04-10T16:05:21Z</time>
      </trkpt>
      <trkpt lat="43.207232" lon="-3.192557">
        <ele>453.4</ele>
        <time>2011-04-10T16:05:33Z</time>
      </trkpt>
      <trkpt lat="43.207136" lon="-3.192398">
        <ele>450.0</ele>
        <time>2011-04-10T16:05:43Z</time>
      </trkpt>
      <trkpt lat="43.207067" lon="-3.192257">
        <ele>447.2</ele>
        <time>2011-04-10T16:05:51Z</time>
      </trkpt>
      <trkpt lat="43.206994" lon="-3.192041">
        <ele>443.8</ele>
        <time>2011-04-10T16:06:02Z</time>
      </trkpt>
      <trkpt lat="43.206964" lon="-3.191948">
        <ele>442.3</ele>
        <time>2011-04-10T16:06:07Z</time>
      </trkpt>
      <trkpt lat="43.206902" lon="-3.191728">
        <ele>439.0</ele>
        <time>2011-04-10T16:06:18Z</time>
      </trkpt>
      <trkpt lat="43.206899" lon="-3.191706">
        <ele>439.0</ele>
        <time>2011-04-10T16:06:19Z</time>
      </trkpt>
      <trkpt lat="43.206895" lon="-3.191641">
        <ele>437.1</ele>
        <time>2011-04-10T16:06:22Z</time>
      </trkpt>
      <trkpt lat="43.206919" lon="-3.191427">
        <ele>434.7</ele>
        <time>2011-04-10T16:06:33Z</time>
      </trkpt>
      <trkpt lat="43.206930" lon="-3.191370">
        <ele>434.2</ele>
        <time>2011-04-10T16:06:36Z</time>
      </trkpt>
      <trkpt lat="43.206939" lon="-3.191299">
        <ele>431.8</ele>
        <time>2011-04-10T16:06:40Z</time>
      </trkpt>
      <trkpt lat="43.206956" lon="-3.191076">
        <ele>423.6</ele>
        <time>2011-04-10T16:06:51Z</time>
      </trkpt>
      <trkpt lat="43.206962" lon="-3.191038">
        <ele>430.3</ele>
        <time>2011-04-10T16:06:53Z</time>
      </trkpt>
      <trkpt lat="43.207008" lon="-3.190862">
        <ele>427.9</ele>
        <time>2011-04-10T16:07:02Z</time>
      </trkpt>
      <trkpt lat="43.206993" lon="-3.190662">
        <ele>424.6</ele>
        <time>2011-04-10T16:07:13Z</time>
      </trkpt>
      <trkpt lat="43.206925" lon="-3.190377">
        <ele>421.2</ele>
        <time>2011-04-10T16:07:30Z</time>
      </trkpt>
      <trkpt lat="43.206891" lon="-3.190238">
        <ele>418.3</ele>
        <time>2011-04-10T16:07:39Z</time>
      </trkpt>
      <trkpt lat="43.206854" lon="-3.190082">
        <ele>414.9</ele>
        <time>2011-04-10T16:07:49Z</time>
      </trkpt>
      <trkpt lat="43.206848" lon="-3.190050">
        <ele>414.0</ele>
        <time>2011-04-10T16:07:51Z</time>
      </trkpt>
      <trkpt lat="43.206797" lon="-3.189869">
        <ele>411.1</ele>
        <time>2011-04-10T16:08:02Z</time>
      </trkpt>
      <trkpt lat="43.206792" lon="-3.189734">
        <ele>407.7</ele>
        <time>2011-04-10T16:08:11Z</time>
      </trkpt>
      <trkpt lat="43.206793" lon="-3.189718">
        <ele>407.7</ele>
        <time>2011-04-10T16:08:12Z</time>
      </trkpt>
      <trkpt lat="43.206814" lon="-3.189571">
        <ele>404.4</ele>
        <time>2011-04-10T16:08:21Z</time>
      </trkpt>
      <trkpt lat="43.206828" lon="-3.189551">
        <ele>403.9</ele>
        <time>2011-04-10T16:08:23Z</time>
      </trkpt>
      <trkpt lat="43.206906" lon="-3.189426">
        <ele>400.0</ele>
        <time>2011-04-10T16:08:34Z</time>
      </trkpt>
      <trkpt lat="43.206901" lon="-3.189320">
        <ele>398.6</ele>
        <time>2011-04-10T16:08:46Z</time>
      </trkpt>
      <trkpt lat="43.206953" lon="-3.189271">
        <ele>396.7</ele>
        <time>2011-04-10T16:08:51Z</time>
      </trkpt>
      <trkpt lat="43.206964" lon="-3.189077">
        <ele>392.8</ele>
        <time>2011-04-10T16:09:02Z</time>
      </trkpt>
      <trkpt lat="43.206971" lon="-3.189025">
        <ele>392.4</ele>
        <time>2011-04-10T16:09:05Z</time>
      </trkpt>
      <trkpt lat="43.206984" lon="-3.188981">
        <ele>390.4</ele>
        <time>2011-04-10T16:09:08Z</time>
      </trkpt>
      <trkpt lat="43.207009" lon="-3.188903">
        <ele>389.5</ele>
        <time>2011-04-10T16:09:13Z</time>
      </trkpt>
      <trkpt lat="43.207032" lon="-3.188740">
        <ele>386.6</ele>
        <time>2011-04-10T16:09:22Z</time>
      </trkpt>
      <trkpt lat="43.206982" lon="-3.188697">
        <ele>385.1</ele>
        <time>2011-04-10T16:09:28Z</time>
      </trkpt>
      <trkpt lat="43.206714" lon="-3.188832">
        <ele>384.7</ele>
        <time>2011-04-10T16:09:46Z</time>
      </trkpt>
      <trkpt lat="43.206502" lon="-3.188970">
        <ele>383.2</ele>
        <time>2011-04-10T16:10:00Z</time>
      </trkpt>
      <trkpt lat="43.206310" lon="-3.189072">
        <ele>382.3</ele>
        <time>2011-04-10T16:10:14Z</time>
      </trkpt>
      <trkpt lat="43.206180" lon="-3.189340">
        <ele>379.9</ele>
        <time>2011-04-10T16:10:30Z</time>
      </trkpt>
      <trkpt lat="43.206059" lon="-3.189701">
        <ele>377.0</ele>
        <time>2011-04-10T16:10:49Z</time>
      </trkpt>
      <trkpt lat="43.206006" lon="-3.190021">
        <ele>375.5</ele>
        <time>2011-04-10T16:11:04Z</time>
      </trkpt>
      <trkpt lat="43.205988" lon="-3.190108">
        <ele>375.5</ele>
        <time>2011-04-10T16:11:08Z</time>
      </trkpt>
      <trkpt lat="43.205823" lon="-3.190479">
        <ele>373.1</ele>
        <time>2011-04-10T16:11:28Z</time>
      </trkpt>
      <trkpt lat="43.205646" lon="-3.190693">
        <ele>371.7</ele>
        <time>2011-04-10T16:11:44Z</time>
      </trkpt>
      <trkpt lat="43.205556" lon="-3.190878">
        <ele>368.8</ele>
        <time>2011-04-10T16:11:55Z</time>
      </trkpt>
      <trkpt lat="43.205506" lon="-3.191035">
        <ele>366.4</ele>
        <time>2011-04-10T16:12:03Z</time>
      </trkpt>
      <trkpt lat="43.205399" lon="-3.191405">
        <ele>363.0</ele>
        <time>2011-04-10T16:12:21Z</time>
      </trkpt>
      <trkpt lat="43.205326" lon="-3.191584">
        <ele>359.7</ele>
        <time>2011-04-10T16:12:31Z</time>
      </trkpt>
      <trkpt lat="43.205272" lon="-3.191707">
        <ele>358.7</ele>
        <time>2011-04-10T16:12:38Z</time>
      </trkpt>
      <trkpt lat="43.205200" lon="-3.191842">
        <ele>355.3</ele>
        <time>2011-04-10T16:12:47Z</time>
      </trkpt>
      <trkpt lat="43.205158" lon="-3.191911">
        <ele>353.4</ele>
        <time>2011-04-10T16:12:52Z</time>
      </trkpt>
      <trkpt lat="43.205029" lon="-3.192092">
        <ele>349.1</ele>
        <time>2011-04-10T16:13:05Z</time>
      </trkpt>
      <trkpt lat="43.204909" lon="-3.192313">
        <ele>345.7</ele>
        <time>2011-04-10T16:13:19Z</time>
      </trkpt>
      <trkpt lat="43.204732" lon="-3.192639">
        <ele>342.4</ele>
        <time>2011-04-10T16:13:39Z</time>
      </trkpt>
      <trkpt lat="43.204605" lon="-3.192958">
        <ele>340.0</ele>
        <time>2011-04-10T16:13:57Z</time>
      </trkpt>
      <trkpt lat="43.204509" lon="-3.193311">
        <ele>338.0</ele>
        <time>2011-04-10T16:14:15Z</time>
      </trkpt>
      <trkpt lat="43.204426" lon="-3.193628">
        <ele>336.6</ele>
        <time>2011-04-10T16:14:32Z</time>
      </trkpt>
      <trkpt lat="43.204310" lon="-3.193675">
        <ele>331.3</ele>
        <time>2011-04-10T16:14:44Z</time>
      </trkpt>
      <trkpt lat="43.204239" lon="-3.193669">
        <ele>327.9</ele>
        <time>2011-04-10T16:14:50Z</time>
      </trkpt>
      <trkpt lat="43.204202" lon="-3.193668">
        <ele>327.0</ele>
        <time>2011-04-10T16:14:53Z</time>
      </trkpt>
      <trkpt lat="43.204170" lon="-3.193701">
        <ele>325.5</ele>
        <time>2011-04-10T16:14:57Z</time>
      </trkpt>
      <trkpt lat="43.204075" lon="-3.193436">
        <ele>322.7</ele>
        <time>2011-04-10T16:15:13Z</time>
      </trkpt>
      <trkpt lat="43.204053" lon="-3.193413">
        <ele>322.2</ele>
        <time>2011-04-10T16:15:15Z</time>
      </trkpt>
      <trkpt lat="43.203969" lon="-3.193481">
        <ele>320.7</ele>
        <time>2011-04-10T16:15:22Z</time>
      </trkpt>
      <trkpt lat="43.203870" lon="-3.193664">
        <ele>319.3</ele>
        <time>2011-04-10T16:15:33Z</time>
      </trkpt>
      <trkpt lat="43.203889" lon="-3.193761">
        <ele>318.8</ele>
        <time>2011-04-10T16:15:38Z</time>
      </trkpt>
      <trkpt lat="43.203865" lon="-3.194176">
        <ele>316.4</ele>
        <time>2011-04-10T16:15:59Z</time>
      </trkpt>
      <trkpt lat="43.203696" lon="-3.194309">
        <ele>314.5</ele>
        <time>2011-04-10T16:16:12Z</time>
      </trkpt>
      <trkpt lat="43.203501" lon="-3.194565">
        <ele>311.6</ele>
        <time>2011-04-10T16:16:29Z</time>
      </trkpt>
      <trkpt lat="43.203409" lon="-3.194716">
        <ele>310.2</ele>
        <time>2011-04-10T16:16:38Z</time>
      </trkpt>
      <trkpt lat="43.203387" lon="-3.194726">
        <ele>311.6</ele>
        <time>2011-04-10T16:16:40Z</time>
      </trkpt>
      <trkpt lat="43.203366" lon="-3.194749">
        <ele>303.4</ele>
        <time>2011-04-10T16:16:42Z</time>
      </trkpt>
      <trkpt lat="43.203356" lon="-3.194760">
        <ele>303.4</ele>
        <time>2011-04-10T16:16:43Z</time>
      </trkpt>
      <trkpt lat="43.203347" lon="-3.194773">
        <ele>314.0</ele>
        <time>2011-04-10T16:16:44Z</time>
      </trkpt>
      <trkpt lat="43.203240" lon="-3.194864">
        <ele>308.7</ele>
        <time>2011-04-10T16:16:53Z</time>
      </trkpt>
      <trkpt lat="43.202904" lon="-3.195093">
        <ele>305.4</ele>
        <time>2011-04-10T16:17:16Z</time>
      </trkpt>
      <trkpt lat="43.202654" lon="-3.195210">
        <ele>302.5</ele>
        <time>2011-04-10T16:17:34Z</time>
      </trkpt>
      <trkpt lat="43.202426" lon="-3.194878">
        <ele>300.1</ele>
        <time>2011-04-10T16:17:56Z</time>
      </trkpt>
      <trkpt lat="43.202200" lon="-3.194660">
        <ele>296.7</ele>
        <time>2011-04-10T16:18:13Z</time>
      </trkpt>
      <trkpt lat="43.202071" lon="-3.194555">
        <ele>297.2</ele>
        <time>2011-04-10T16:18:22Z</time>
      </trkpt>
      <trkpt lat="43.202043" lon="-3.194512">
        <ele>293.3</ele>
        <time>2011-04-10T16:18:25Z</time>
      </trkpt>
      <trkpt lat="43.202007" lon="-3.194471">
        <ele>298.1</ele>
        <time>2011-04-10T16:18:28Z</time>
      </trkpt>
      <trkpt lat="43.201994" lon="-3.194455">
        <ele>295.3</ele>
        <time>2011-04-10T16:18:29Z</time>
      </trkpt>
      <trkpt lat="43.201974" lon="-3.194420">
        <ele>293.8</ele>
        <time>2011-04-10T16:18:31Z</time>
      </trkpt>
      <trkpt lat="43.201774" lon="-3.194191">
        <ele>292.4</ele>
        <time>2011-04-10T16:18:47Z</time>
      </trkpt>
      <trkpt lat="43.201573" lon="-3.193961">
        <ele>290.5</ele>
        <time>2011-04-10T16:19:02Z</time>
      </trkpt>
      <trkpt lat="43.201361" lon="-3.193613">
        <ele>288.1</ele>
        <time>2011-04-10T16:19:22Z</time>
      </trkpt>
      <trkpt lat="43.201269" lon="-3.193269">
        <ele>286.6</ele>
        <time>2011-04-10T16:19:40Z</time>
      </trkpt>
      <trkpt lat="43.201185" lon="-3.193249">
        <ele>283.7</ele>
        <time>2011-04-10T16:19:45Z</time>
      </trkpt>
      <trkpt lat="43.201052" lon="-3.193231">
        <ele>279.9</ele>
        <time>2011-04-10T16:19:52Z</time>
      </trkpt>
      <trkpt lat="43.201013" lon="-3.193226">
        <ele>278.9</ele>
        <time>2011-04-10T16:19:54Z</time>
      </trkpt>
      <trkpt lat="43.200939" lon="-3.193220">
        <ele>276.0</ele>
        <time>2011-04-10T16:19:58Z</time>
      </trkpt>
      <trkpt lat="43.200904" lon="-3.193228">
        <ele>275.1</ele>
        <time>2011-04-10T16:20:00Z</time>
      </trkpt>
      <trkpt lat="43.200774" lon="-3.193204">
        <ele>272.2</ele>
        <time>2011-04-10T16:20:08Z</time>
      </trkpt>
      <trkpt lat="43.200692" lon="-3.193191">
        <ele>268.8</ele>
        <time>2011-04-10T16:20:13Z</time>
      </trkpt>
      <trkpt lat="43.200583" lon="-3.193166">
        <ele>265.9</ele>
        <time>2011-04-10T16:20:20Z</time>
      </trkpt>
      <trkpt lat="43.200523" lon="-3.193119">
        <ele>263.5</ele>
        <time>2011-04-10T16:20:24Z</time>
      </trkpt>
      <trkpt lat="43.200411" lon="-3.193092">
        <ele>260.7</ele>
        <time>2011-04-10T16:20:31Z</time>
      </trkpt>
      <trkpt lat="43.200379" lon="-3.193078">
        <ele>259.7</ele>
        <time>2011-04-10T16:20:33Z</time>
      </trkpt>
      <trkpt lat="43.200226" lon="-3.193052">
        <ele>256.8</ele>
        <time>2011-04-10T16:20:43Z</time>
      </trkpt>
      <trkpt lat="43.200116" lon="-3.193004">
        <ele>253.9</ele>
        <time>2011-04-10T16:20:51Z</time>
      </trkpt>
      <trkpt lat="43.200012" lon="-3.192946">
        <ele>250.6</ele>
        <time>2011-04-10T16:20:58Z</time>
      </trkpt>
      <trkpt lat="43.199973" lon="-3.192919">
        <ele>250.1</ele>
        <time>2011-04-10T16:21:01Z</time>
      </trkpt>
      <trkpt lat="43.199896" lon="-3.192872">
        <ele>248.2</ele>
        <time>2011-04-10T16:21:07Z</time>
      </trkpt>
      <trkpt lat="43.199775" lon="-3.192824">
        <ele>243.8</ele>
        <time>2011-04-10T16:21:16Z</time>
      </trkpt>
      <trkpt lat="43.199761" lon="-3.192821">
        <ele>243.8</ele>
        <time>2011-04-10T16:21:17Z</time>
      </trkpt>
      <trkpt lat="43.199679" lon="-3.192797">
        <ele>242.4</ele>
        <time>2011-04-10T16:21:23Z</time>
      </trkpt>
      <trkpt lat="43.199611" lon="-3.192778">
        <ele>239.5</ele>
        <time>2011-04-10T16:21:28Z</time>
      </trkpt>
      <trkpt lat="43.199434" lon="-3.192743">
        <ele>236.1</ele>
        <time>2011-04-10T16:21:39Z</time>
      </trkpt>
      <trkpt lat="43.199419" lon="-3.192737">
        <ele>236.1</ele>
        <time>2011-04-10T16:21:40Z</time>
      </trkpt>
      <trkpt lat="43.199270" lon="-3.192713">
        <ele>232.8</ele>
        <time>2011-04-10T16:21:51Z</time>
      </trkpt>
      <trkpt lat="43.199164" lon="-3.192694">
        <ele>229.9</ele>
        <time>2011-04-10T16:21:59Z</time>
      </trkpt>
      <trkpt lat="43.199140" lon="-3.192693">
        <ele>229.4</ele>
        <time>2011-04-10T16:22:01Z</time>
      </trkpt>
      <trkpt lat="43.199062" lon="-3.192687">
        <ele>227.0</ele>
        <time>2011-04-10T16:22:07Z</time>
      </trkpt>
      <trkpt lat="43.198942" lon="-3.192669">
        <ele>223.2</ele>
        <time>2011-04-10T16:22:17Z</time>
      </trkpt>
      <trkpt lat="43.198853" lon="-3.192658">
        <ele>220.8</ele>
        <time>2011-04-10T16:22:23Z</time>
      </trkpt>
      <trkpt lat="43.198740" lon="-3.192652">
        <ele>217.9</ele>
        <time>2011-04-10T16:22:30Z</time>
      </trkpt>
      <trkpt lat="43.198588" lon="-3.192642">
        <ele>214.5</ele>
        <time>2011-04-10T16:22:41Z</time>
      </trkpt>
      <trkpt lat="43.198405" lon="-3.192659">
        <ele>211.1</ele>
        <time>2011-04-10T16:22:53Z</time>
      </trkpt>
      <trkpt lat="43.198328" lon="-3.192705">
        <ele>209.2</ele>
        <time>2011-04-10T16:23:00Z</time>
      </trkpt>
      <trkpt lat="43.198210" lon="-3.192779">
        <ele>205.9</ele>
        <time>2011-04-10T16:23:11Z</time>
      </trkpt>
      <trkpt lat="43.198176" lon="-3.192771">
        <ele>204.4</ele>
        <time>2011-04-10T16:23:15Z</time>
      </trkpt>
      <trkpt lat="43.198159" lon="-3.192766">
        <ele>204.4</ele>
        <time>2011-04-10T16:23:17Z</time>
      </trkpt>
      <trkpt lat="43.198082" lon="-3.192731">
        <ele>200.1</ele>
        <time>2011-04-10T16:23:24Z</time>
      </trkpt>
      <trkpt lat="43.198070" lon="-3.192730">
        <ele>200.1</ele>
        <time>2011-04-10T16:23:25Z</time>
      </trkpt>
      <trkpt lat="43.198061" lon="-3.192726">
        <ele>199.1</ele>
        <time>2011-04-10T16:23:26Z</time>
      </trkpt>
      <trkpt lat="43.197922" lon="-3.192689">
        <ele>196.2</ele>
        <time>2011-04-10T16:23:38Z</time>
      </trkpt>
      <trkpt lat="43.197871" lon="-3.192684">
        <ele>194.3</ele>
        <time>2011-04-10T16:23:42Z</time>
      </trkpt>
      <trkpt lat="43.197762" lon="-3.192661">
        <ele>191.0</ele>
        <time>2011-04-10T16:23:51Z</time>
      </trkpt>
      <trkpt lat="43.197751" lon="-3.192656">
        <ele>191.4</ele>
        <time>2011-04-10T16:23:52Z</time>
      </trkpt>
      <trkpt lat="43.197673" lon="-3.192638">
        <ele>189.0</ele>
        <time>2011-04-10T16:23:58Z</time>
      </trkpt>
      <trkpt lat="43.197565" lon="-3.192624">
        <ele>185.2</ele>
        <time>2011-04-10T16:24:09Z</time>
      </trkpt>
      <trkpt lat="43.197476" lon="-3.192555">
        <ele>183.7</ele>
        <time>2011-04-10T16:24:22Z</time>
      </trkpt>
      <trkpt lat="43.197407" lon="-3.192516">
        <ele>180.4</ele>
        <time>2011-04-10T16:24:31Z</time>
      </trkpt>
      <trkpt lat="43.197335" lon="-3.192502">
        <ele>177.0</ele>
        <time>2011-04-10T16:24:41Z</time>
      </trkpt>
      <trkpt lat="43.197328" lon="-3.192503">
        <ele>176.5</ele>
        <time>2011-04-10T16:24:42Z</time>
      </trkpt>
      <trkpt lat="43.197279" lon="-3.192604">
        <ele>174.1</ele>
        <time>2011-04-10T16:24:56Z</time>
      </trkpt>
      <trkpt lat="43.197263" lon="-3.192602">
        <ele>174.1</ele>
        <time>2011-04-10T16:24:58Z</time>
      </trkpt>
      <trkpt lat="43.197221" lon="-3.192537">
        <ele>171.3</ele>
        <time>2011-04-10T16:25:04Z</time>
      </trkpt>
      <trkpt lat="43.197119" lon="-3.192471">
        <ele>168.4</ele>
        <time>2011-04-10T16:25:13Z</time>
      </trkpt>
      <trkpt lat="43.197075" lon="-3.192496">
        <ele>165.0</ele>
        <time>2011-04-10T16:25:17Z</time>
      </trkpt>
      <trkpt lat="43.197051" lon="-3.192493">
        <ele>166.0</ele>
        <time>2011-04-10T16:25:19Z</time>
      </trkpt>
      <trkpt lat="43.197026" lon="-3.192481">
        <ele>165.0</ele>
        <time>2011-04-10T16:25:21Z</time>
      </trkpt>
      <trkpt lat="43.197000" lon="-3.192492">
        <ele>164.0</ele>
        <time>2011-04-10T16:25:23Z</time>
      </trkpt>
      <trkpt lat="43.196927" lon="-3.192536">
        <ele>162.6</ele>
        <time>2011-04-10T16:25:29Z</time>
      </trkpt>
      <trkpt lat="43.196838" lon="-3.192552">
        <ele>158.8</ele>
        <time>2011-04-10T16:25:35Z</time>
      </trkpt>
      <trkpt lat="43.196736" lon="-3.192551">
        <ele>156.4</ele>
        <time>2011-04-10T16:25:43Z</time>
      </trkpt>
      <trkpt lat="43.196580" lon="-3.192580">
        <ele>155.9</ele>
        <time>2011-04-10T16:25:53Z</time>
      </trkpt>
      <trkpt lat="43.196390" lon="-3.192563">
        <ele>155.9</ele>
        <time>2011-04-10T16:26:03Z</time>
      </trkpt>
      <trkpt lat="43.196305" lon="-3.192819">
        <ele>156.4</ele>
        <time>2011-04-10T16:26:16Z</time>
      </trkpt>
      <trkpt lat="43.196237" lon="-3.192876">
        <ele>156.8</ele>
        <time>2011-04-10T16:26:23Z</time>
      </trkpt>
      <trkpt lat="43.196186" lon="-3.192897">
        <ele>156.4</ele>
        <time>2011-04-10T16:26:26Z</time>
      </trkpt>
      <trkpt lat="43.196154" lon="-3.192966">
        <ele>157.3</ele>
        <time>2011-04-10T16:26:32Z</time>
      </trkpt>
      <trkpt lat="43.196120" lon="-3.193075">
        <ele>156.8</ele>
        <time>2011-04-10T16:26:48Z</time>
      </trkpt>
      <trkpt lat="43.195951" lon="-3.193007">
        <ele>157.3</ele>
        <time>2011-04-10T16:27:20Z</time>
      </trkpt>
      <trkpt lat="43.195851" lon="-3.192981">
        <ele>157.3</ele>
        <time>2011-04-10T16:27:32Z</time>
      </trkpt>
      <trkpt lat="43.195904" lon="-3.193049">
        <ele>157.8</ele>
        <time>2011-04-10T16:27:51Z</time>
      </trkpt>
      <trkpt lat="43.195859" lon="-3.193026">
        <ele>158.3</ele>
        <time>2011-04-10T16:28:13Z</time>
      </trkpt>
      <trkpt lat="43.195812" lon="-3.193083">
        <ele>157.3</ele>
        <time>2011-04-10T16:28:43Z</time>
      </trkpt>
      <trkpt lat="43.195805" lon="-3.193066">
        <ele>161.2</ele>
        <time>2011-04-10T16:28:45Z</time>
      </trkpt>
      <trkpt lat="43.195803" lon="-3.193055">
        <ele>157.3</ele>
        <time>2011-04-10T16:28:46Z</time>
      </trkpt>
      <trkpt lat="43.195811" lon="-3.193026">
        <ele>161.2</ele>
        <time>2011-04-10T16:28:48Z</time>
      </trkpt>
      <trkpt lat="43.195877" lon="-3.192958">
        <ele>160.7</ele>
        <time>2011-04-10T16:29:10Z</time>
      </trkpt>
      <trkpt lat="43.195824" lon="-3.192945">
        <ele>161.2</ele>
        <time>2011-04-10T16:29:27Z</time>
      </trkpt>
      <trkpt lat="43.195822" lon="-3.192936">
        <ele>160.7</ele>
        <time>2011-04-10T16:29:38Z</time>
      </trkpt>
    </trkseg>
  </trk>
</gpx>
